<?xml version="1.0" encoding="UTF-8" standalone="no" ?>
<gpx xmlns="http://www.topografix.com/GPX/1/1" xmlns:xsi="http://www.w3.org/2001/XMLSchema-instance" xsi:schemaLocation="http://www.topografix.com/GPX/1/1 http://www.topografix.com/GPX/1/1/gpx.xsd" version="1.1" creator="VisuGPX - https://www.visugpx.com">
  <metadata>
    <name>Grenoble Trail - Rachais Ref. 2021-09-30</name>
    <desc><![CDATA[A la frontale]]></desc>
  </metadata>
  <trk>
    <name><![CDATA[Grenoble Trail - Rachais Ref.]]></name>
    <trkseg>
      <trkpt lat="45.19642" lon="5.7394">
        <ele>212.60000610352</ele>
        <time>2021-09-30T03:08:52.000Z</time>
      </trkpt>
      <trkpt lat="45.19642" lon="5.7394">
        <ele>212.60000610352</ele>
        <time>2021-09-30T03:08:53.000Z</time>
      </trkpt>
      <trkpt lat="45.19639" lon="5.73948">
        <ele>212.60000610352</ele>
        <time>2021-09-30T03:08:59.000Z</time>
      </trkpt>
      <trkpt lat="45.19634" lon="5.7395">
        <ele>212.60000610352</ele>
        <time>2021-09-30T03:09:02.000Z</time>
      </trkpt>
      <trkpt lat="45.19628" lon="5.73954">
        <ele>212.60000610352</ele>
        <time>2021-09-30T03:09:06.000Z</time>
      </trkpt>
      <trkpt lat="45.19627" lon="5.73955">
        <ele>212.60000610352</ele>
        <time>2021-09-30T03:09:07.000Z</time>
      </trkpt>
      <trkpt lat="45.19628" lon="5.73958">
        <ele>212.39999389648</ele>
        <time>2021-09-30T03:09:10.000Z</time>
      </trkpt>
      <trkpt lat="45.19629" lon="5.7396">
        <ele>212.39999389648</ele>
        <time>2021-09-30T03:09:14.000Z</time>
      </trkpt>
      <trkpt lat="45.19628" lon="5.7396">
        <ele>212.39999389648</ele>
        <time>2021-09-30T03:09:15.000Z</time>
      </trkpt>
      <trkpt lat="45.19626" lon="5.73959">
        <ele>211.39999389648</ele>
        <time>2021-09-30T03:09:18.000Z</time>
      </trkpt>
      <trkpt lat="45.19625" lon="5.73958">
        <ele>210.60000610352</ele>
        <time>2021-09-30T03:09:20.000Z</time>
      </trkpt>
      <trkpt lat="45.19624" lon="5.73966">
        <ele>208.19999694824</ele>
        <time>2021-09-30T03:09:29.000Z</time>
      </trkpt>
      <trkpt lat="45.19623" lon="5.73968">
        <ele>207.80000305176</ele>
        <time>2021-09-30T03:09:30.000Z</time>
      </trkpt>
      <trkpt lat="45.19621" lon="5.73967">
        <ele>207</ele>
        <time>2021-09-30T03:09:33.000Z</time>
      </trkpt>
      <trkpt lat="45.19622" lon="5.73968">
        <ele>207</ele>
        <time>2021-09-30T03:09:34.000Z</time>
      </trkpt>
      <trkpt lat="45.19623" lon="5.73967">
        <ele>206.80000305176</ele>
        <time>2021-09-30T03:09:35.000Z</time>
      </trkpt>
      <trkpt lat="45.19624" lon="5.73966">
        <ele>206.80000305176</ele>
        <time>2021-09-30T03:09:36.000Z</time>
      </trkpt>
      <trkpt lat="45.19623" lon="5.73965">
        <ele>205.60000610352</ele>
        <time>2021-09-30T03:09:39.000Z</time>
      </trkpt>
      <trkpt lat="45.19622" lon="5.73967">
        <ele>205.19999694824</ele>
        <time>2021-09-30T03:09:40.000Z</time>
      </trkpt>
      <trkpt lat="45.1962" lon="5.73967">
        <ele>204.39999389648</ele>
        <time>2021-09-30T03:09:42.000Z</time>
      </trkpt>
      <trkpt lat="45.19618" lon="5.73965">
        <ele>204</ele>
        <time>2021-09-30T03:09:45.000Z</time>
      </trkpt>
      <trkpt lat="45.19619" lon="5.73964">
        <ele>204</ele>
        <time>2021-09-30T03:09:49.000Z</time>
      </trkpt>
      <trkpt lat="45.19624" lon="5.7397">
        <ele>204.80000305176</ele>
        <time>2021-09-30T03:09:55.000Z</time>
      </trkpt>
      <trkpt lat="45.19629" lon="5.73967">
        <ele>204.80000305176</ele>
        <time>2021-09-30T03:09:58.000Z</time>
      </trkpt>
      <trkpt lat="45.19633" lon="5.73964">
        <ele>204.80000305176</ele>
        <time>2021-09-30T03:10:00.000Z</time>
      </trkpt>
      <trkpt lat="45.19635" lon="5.73963">
        <ele>204.80000305176</ele>
        <time>2021-09-30T03:10:01.000Z</time>
      </trkpt>
      <trkpt lat="45.19637" lon="5.73963">
        <ele>204.80000305176</ele>
        <time>2021-09-30T03:10:02.000Z</time>
      </trkpt>
      <trkpt lat="45.19639" lon="5.73961">
        <ele>204.60000610352</ele>
        <time>2021-09-30T03:10:06.000Z</time>
      </trkpt>
      <trkpt lat="45.19659" lon="5.73935">
        <ele>204.60000610352</ele>
        <time>2021-09-30T03:10:21.000Z</time>
      </trkpt>
      <trkpt lat="45.19668" lon="5.73939">
        <ele>204.60000610352</ele>
        <time>2021-09-30T03:10:24.000Z</time>
      </trkpt>
      <trkpt lat="45.19672" lon="5.73941">
        <ele>204.60000610352</ele>
        <time>2021-09-30T03:10:25.000Z</time>
      </trkpt>
      <trkpt lat="45.19676" lon="5.73943">
        <ele>204.80000305176</ele>
        <time>2021-09-30T03:10:29.000Z</time>
      </trkpt>
      <trkpt lat="45.19677" lon="5.73949">
        <ele>204.80000305176</ele>
        <time>2021-09-30T03:10:31.000Z</time>
      </trkpt>
      <trkpt lat="45.19677" lon="5.73956">
        <ele>204.80000305176</ele>
        <time>2021-09-30T03:10:33.000Z</time>
      </trkpt>
      <trkpt lat="45.19677" lon="5.73959">
        <ele>204.80000305176</ele>
        <time>2021-09-30T03:10:34.000Z</time>
      </trkpt>
      <trkpt lat="45.19677" lon="5.73963">
        <ele>204.80000305176</ele>
        <time>2021-09-30T03:10:35.000Z</time>
      </trkpt>
      <trkpt lat="45.19678" lon="5.73967">
        <ele>204.80000305176</ele>
        <time>2021-09-30T03:10:36.000Z</time>
      </trkpt>
      <trkpt lat="45.19679" lon="5.73979">
        <ele>204.80000305176</ele>
        <time>2021-09-30T03:10:39.000Z</time>
      </trkpt>
      <trkpt lat="45.1968" lon="5.73991">
        <ele>204.80000305176</ele>
        <time>2021-09-30T03:10:42.000Z</time>
      </trkpt>
      <trkpt lat="45.19681" lon="5.74003">
        <ele>204.80000305176</ele>
        <time>2021-09-30T03:10:45.000Z</time>
      </trkpt>
      <trkpt lat="45.19683" lon="5.74021">
        <ele>204.80000305176</ele>
        <time>2021-09-30T03:10:49.000Z</time>
      </trkpt>
      <trkpt lat="45.19687" lon="5.74031">
        <ele>204.80000305176</ele>
        <time>2021-09-30T03:10:52.000Z</time>
      </trkpt>
      <trkpt lat="45.19693" lon="5.74043">
        <ele>205</ele>
        <time>2021-09-30T03:10:56.000Z</time>
      </trkpt>
      <trkpt lat="45.19693" lon="5.74046">
        <ele>205.19999694824</ele>
        <time>2021-09-30T03:10:57.000Z</time>
      </trkpt>
      <trkpt lat="45.19694" lon="5.74052">
        <ele>205.19999694824</ele>
        <time>2021-09-30T03:10:59.000Z</time>
      </trkpt>
      <trkpt lat="45.19698" lon="5.74073">
        <ele>205</ele>
        <time>2021-09-30T03:11:06.000Z</time>
      </trkpt>
      <trkpt lat="45.197" lon="5.74088">
        <ele>205.19999694824</ele>
        <time>2021-09-30T03:11:10.000Z</time>
      </trkpt>
      <trkpt lat="45.19702" lon="5.74107">
        <ele>205.39999389648</ele>
        <time>2021-09-30T03:11:15.000Z</time>
      </trkpt>
      <trkpt lat="45.19707" lon="5.74131">
        <ele>205.19999694824</ele>
        <time>2021-09-30T03:11:22.000Z</time>
      </trkpt>
      <trkpt lat="45.19713" lon="5.74156">
        <ele>205</ele>
        <time>2021-09-30T03:11:29.000Z</time>
      </trkpt>
      <trkpt lat="45.19716" lon="5.74168">
        <ele>205</ele>
        <time>2021-09-30T03:11:33.000Z</time>
      </trkpt>
      <trkpt lat="45.19719" lon="5.74182">
        <ele>205.19999694824</ele>
        <time>2021-09-30T03:11:37.000Z</time>
      </trkpt>
      <trkpt lat="45.19719" lon="5.74189">
        <ele>205</ele>
        <time>2021-09-30T03:11:39.000Z</time>
      </trkpt>
      <trkpt lat="45.19724" lon="5.74212">
        <ele>205.19999694824</ele>
        <time>2021-09-30T03:11:46.000Z</time>
      </trkpt>
      <trkpt lat="45.19729" lon="5.74237">
        <ele>205.39999389648</ele>
        <time>2021-09-30T03:11:53.000Z</time>
      </trkpt>
      <trkpt lat="45.19729" lon="5.74239">
        <ele>205.39999389648</ele>
        <time>2021-09-30T03:11:54.000Z</time>
      </trkpt>
      <trkpt lat="45.19729" lon="5.74242">
        <ele>205.39999389648</ele>
        <time>2021-09-30T03:11:55.000Z</time>
      </trkpt>
      <trkpt lat="45.1973" lon="5.74247">
        <ele>206.19999694824</ele>
        <time>2021-09-30T03:11:59.000Z</time>
      </trkpt>
      <trkpt lat="45.1973" lon="5.74248">
        <ele>206.60000610352</ele>
        <time>2021-09-30T03:12:00.000Z</time>
      </trkpt>
      <trkpt lat="45.19731" lon="5.74247">
        <ele>206.80000305176</ele>
        <time>2021-09-30T03:12:01.000Z</time>
      </trkpt>
      <trkpt lat="45.19735" lon="5.74242">
        <ele>206.80000305176</ele>
        <time>2021-09-30T03:12:04.000Z</time>
      </trkpt>
      <trkpt lat="45.19743" lon="5.7424">
        <ele>206.80000305176</ele>
        <time>2021-09-30T03:12:07.000Z</time>
      </trkpt>
      <trkpt lat="45.19752" lon="5.74236">
        <ele>207.19999694824</ele>
        <time>2021-09-30T03:12:11.000Z</time>
      </trkpt>
      <trkpt lat="45.19771" lon="5.74229">
        <ele>207.39999389648</ele>
        <time>2021-09-30T03:12:19.000Z</time>
      </trkpt>
      <trkpt lat="45.19777" lon="5.74227">
        <ele>207.19999694824</ele>
        <time>2021-09-30T03:12:22.000Z</time>
      </trkpt>
      <trkpt lat="45.19791" lon="5.74231">
        <ele>207.39999389648</ele>
        <time>2021-09-30T03:12:30.000Z</time>
      </trkpt>
      <trkpt lat="45.19809" lon="5.74222">
        <ele>207.19999694824</ele>
        <time>2021-09-30T03:12:37.000Z</time>
      </trkpt>
      <trkpt lat="45.19829" lon="5.74218">
        <ele>207.39999389648</ele>
        <time>2021-09-30T03:12:44.000Z</time>
      </trkpt>
      <trkpt lat="45.19832" lon="5.74217">
        <ele>207.39999389648</ele>
        <time>2021-09-30T03:12:45.000Z</time>
      </trkpt>
      <trkpt lat="45.19841" lon="5.74215">
        <ele>207.39999389648</ele>
        <time>2021-09-30T03:12:49.000Z</time>
      </trkpt>
      <trkpt lat="45.19853" lon="5.74211">
        <ele>207.39999389648</ele>
        <time>2021-09-30T03:12:54.000Z</time>
      </trkpt>
      <trkpt lat="45.19859" lon="5.74206">
        <ele>207.39999389648</ele>
        <time>2021-09-30T03:12:57.000Z</time>
      </trkpt>
      <trkpt lat="45.19875" lon="5.74191">
        <ele>207.39999389648</ele>
        <time>2021-09-30T03:13:05.000Z</time>
      </trkpt>
      <trkpt lat="45.19877" lon="5.74188">
        <ele>207.60000610352</ele>
        <time>2021-09-30T03:13:06.000Z</time>
      </trkpt>
      <trkpt lat="45.19892" lon="5.74181">
        <ele>207.60000610352</ele>
        <time>2021-09-30T03:13:13.000Z</time>
      </trkpt>
      <trkpt lat="45.19902" lon="5.74178">
        <ele>207.80000305176</ele>
        <time>2021-09-30T03:13:17.000Z</time>
      </trkpt>
      <trkpt lat="45.19914" lon="5.74172">
        <ele>207.60000610352</ele>
        <time>2021-09-30T03:13:22.000Z</time>
      </trkpt>
      <trkpt lat="45.19932" lon="5.74157">
        <ele>207.80000305176</ele>
        <time>2021-09-30T03:13:30.000Z</time>
      </trkpt>
      <trkpt lat="45.19935" lon="5.74153">
        <ele>207.80000305176</ele>
        <time>2021-09-30T03:13:32.000Z</time>
      </trkpt>
      <trkpt lat="45.19939" lon="5.74149">
        <ele>207.80000305176</ele>
        <time>2021-09-30T03:13:34.000Z</time>
      </trkpt>
      <trkpt lat="45.19952" lon="5.74135">
        <ele>207.60000610352</ele>
        <time>2021-09-30T03:13:40.000Z</time>
      </trkpt>
      <trkpt lat="45.19962" lon="5.74124">
        <ele>207.60000610352</ele>
        <time>2021-09-30T03:13:45.000Z</time>
      </trkpt>
      <trkpt lat="45.19971" lon="5.74114">
        <ele>207.60000610352</ele>
        <time>2021-09-30T03:13:51.000Z</time>
      </trkpt>
      <trkpt lat="45.19973" lon="5.74112">
        <ele>207.39999389648</ele>
        <time>2021-09-30T03:13:52.000Z</time>
      </trkpt>
      <trkpt lat="45.19985" lon="5.74107">
        <ele>206.80000305176</ele>
        <time>2021-09-30T03:13:57.000Z</time>
      </trkpt>
      <trkpt lat="45.19988" lon="5.74104">
        <ele>206.39999389648</ele>
        <time>2021-09-30T03:13:58.000Z</time>
      </trkpt>
      <trkpt lat="45.19992" lon="5.74099">
        <ele>206</ele>
        <time>2021-09-30T03:14:00.000Z</time>
      </trkpt>
      <trkpt lat="45.19999" lon="5.7409">
        <ele>205.60000610352</ele>
        <time>2021-09-30T03:14:04.000Z</time>
      </trkpt>
      <trkpt lat="45.20002" lon="5.7409">
        <ele>205.60000610352</ele>
        <time>2021-09-30T03:14:06.000Z</time>
      </trkpt>
      <trkpt lat="45.20005" lon="5.7409">
        <ele>205.39999389648</ele>
        <time>2021-09-30T03:14:07.000Z</time>
      </trkpt>
      <trkpt lat="45.20033" lon="5.74036">
        <ele>205.80000305176</ele>
        <time>2021-09-30T03:14:19.000Z</time>
      </trkpt>
      <trkpt lat="45.2004" lon="5.74033">
        <ele>206.60000610352</ele>
        <time>2021-09-30T03:14:23.000Z</time>
      </trkpt>
      <trkpt lat="45.20043" lon="5.7403">
        <ele>207</ele>
        <time>2021-09-30T03:14:25.000Z</time>
      </trkpt>
      <trkpt lat="45.20045" lon="5.74022">
        <ele>207.60000610352</ele>
        <time>2021-09-30T03:14:29.000Z</time>
      </trkpt>
      <trkpt lat="45.20045" lon="5.74019">
        <ele>208</ele>
        <time>2021-09-30T03:14:30.000Z</time>
      </trkpt>
      <trkpt lat="45.20056" lon="5.74006">
        <ele>208</ele>
        <time>2021-09-30T03:14:35.000Z</time>
      </trkpt>
      <trkpt lat="45.20067" lon="5.73999">
        <ele>207.39999389648</ele>
        <time>2021-09-30T03:14:40.000Z</time>
      </trkpt>
      <trkpt lat="45.20079" lon="5.73988">
        <ele>207.19999694824</ele>
        <time>2021-09-30T03:14:46.000Z</time>
      </trkpt>
      <trkpt lat="45.20079" lon="5.73986">
        <ele>207.19999694824</ele>
        <time>2021-09-30T03:14:47.000Z</time>
      </trkpt>
      <trkpt lat="45.20081" lon="5.73983">
        <ele>207.19999694824</ele>
        <time>2021-09-30T03:14:48.000Z</time>
      </trkpt>
      <trkpt lat="45.20089" lon="5.73973">
        <ele>207</ele>
        <time>2021-09-30T03:14:51.000Z</time>
      </trkpt>
      <trkpt lat="45.20102" lon="5.73959">
        <ele>206.80000305176</ele>
        <time>2021-09-30T03:14:57.000Z</time>
      </trkpt>
      <trkpt lat="45.2011" lon="5.73945">
        <ele>206.80000305176</ele>
        <time>2021-09-30T03:15:01.000Z</time>
      </trkpt>
      <trkpt lat="45.20123" lon="5.73925">
        <ele>207.19999694824</ele>
        <time>2021-09-30T03:15:08.000Z</time>
      </trkpt>
      <trkpt lat="45.20136" lon="5.73905">
        <ele>207</ele>
        <time>2021-09-30T03:15:15.000Z</time>
      </trkpt>
      <trkpt lat="45.20138" lon="5.73902">
        <ele>207.19999694824</ele>
        <time>2021-09-30T03:15:16.000Z</time>
      </trkpt>
      <trkpt lat="45.20148" lon="5.73883">
        <ele>207.19999694824</ele>
        <time>2021-09-30T03:15:22.000Z</time>
      </trkpt>
      <trkpt lat="45.20157" lon="5.73861">
        <ele>207</ele>
        <time>2021-09-30T03:15:28.000Z</time>
      </trkpt>
      <trkpt lat="45.20163" lon="5.73839">
        <ele>207.19999694824</ele>
        <time>2021-09-30T03:15:34.000Z</time>
      </trkpt>
      <trkpt lat="45.20164" lon="5.73834">
        <ele>207.19999694824</ele>
        <time>2021-09-30T03:15:35.000Z</time>
      </trkpt>
      <trkpt lat="45.20166" lon="5.73818">
        <ele>207.19999694824</ele>
        <time>2021-09-30T03:15:39.000Z</time>
      </trkpt>
      <trkpt lat="45.20168" lon="5.7381">
        <ele>207.19999694824</ele>
        <time>2021-09-30T03:15:42.000Z</time>
      </trkpt>
      <trkpt lat="45.20168" lon="5.73807">
        <ele>207.19999694824</ele>
        <time>2021-09-30T03:15:43.000Z</time>
      </trkpt>
      <trkpt lat="45.20171" lon="5.73791">
        <ele>207.19999694824</ele>
        <time>2021-09-30T03:15:48.000Z</time>
      </trkpt>
      <trkpt lat="45.20173" lon="5.73765">
        <ele>207.19999694824</ele>
        <time>2021-09-30T03:15:55.000Z</time>
      </trkpt>
      <trkpt lat="45.2017" lon="5.73738">
        <ele>207.19999694824</ele>
        <time>2021-09-30T03:16:02.000Z</time>
      </trkpt>
      <trkpt lat="45.20169" lon="5.73734">
        <ele>207.39999389648</ele>
        <time>2021-09-30T03:16:03.000Z</time>
      </trkpt>
      <trkpt lat="45.20167" lon="5.73723">
        <ele>207.39999389648</ele>
        <time>2021-09-30T03:16:06.000Z</time>
      </trkpt>
      <trkpt lat="45.20163" lon="5.73702">
        <ele>207.60000610352</ele>
        <time>2021-09-30T03:16:12.000Z</time>
      </trkpt>
      <trkpt lat="45.20161" lon="5.73683">
        <ele>207.19999694824</ele>
        <time>2021-09-30T03:16:18.000Z</time>
      </trkpt>
      <trkpt lat="45.20159" lon="5.73673">
        <ele>207.19999694824</ele>
        <time>2021-09-30T03:16:21.000Z</time>
      </trkpt>
      <trkpt lat="45.20156" lon="5.73658">
        <ele>207.39999389648</ele>
        <time>2021-09-30T03:16:25.000Z</time>
      </trkpt>
      <trkpt lat="45.20152" lon="5.73649">
        <ele>207.60000610352</ele>
        <time>2021-09-30T03:16:28.000Z</time>
      </trkpt>
      <trkpt lat="45.20149" lon="5.73642">
        <ele>207.60000610352</ele>
        <time>2021-09-30T03:16:30.000Z</time>
      </trkpt>
      <trkpt lat="45.20141" lon="5.73619">
        <ele>207.39999389648</ele>
        <time>2021-09-30T03:16:36.000Z</time>
      </trkpt>
      <trkpt lat="45.20132" lon="5.736">
        <ele>207.39999389648</ele>
        <time>2021-09-30T03:16:42.000Z</time>
      </trkpt>
      <trkpt lat="45.20121" lon="5.73582">
        <ele>207.39999389648</ele>
        <time>2021-09-30T03:16:48.000Z</time>
      </trkpt>
      <trkpt lat="45.20108" lon="5.73564">
        <ele>207.60000610352</ele>
        <time>2021-09-30T03:16:54.000Z</time>
      </trkpt>
      <trkpt lat="45.20102" lon="5.73556">
        <ele>207.39999389648</ele>
        <time>2021-09-30T03:16:57.000Z</time>
      </trkpt>
      <trkpt lat="45.201" lon="5.73554">
        <ele>207.39999389648</ele>
        <time>2021-09-30T03:16:58.000Z</time>
      </trkpt>
      <trkpt lat="45.20089" lon="5.73537">
        <ele>207.39999389648</ele>
        <time>2021-09-30T03:17:04.000Z</time>
      </trkpt>
      <trkpt lat="45.20083" lon="5.73529">
        <ele>207.39999389648</ele>
        <time>2021-09-30T03:17:07.000Z</time>
      </trkpt>
      <trkpt lat="45.20076" lon="5.73521">
        <ele>207.39999389648</ele>
        <time>2021-09-30T03:17:10.000Z</time>
      </trkpt>
      <trkpt lat="45.20072" lon="5.73517">
        <ele>207.39999389648</ele>
        <time>2021-09-30T03:17:12.000Z</time>
      </trkpt>
      <trkpt lat="45.20062" lon="5.7351">
        <ele>207.60000610352</ele>
        <time>2021-09-30T03:17:16.000Z</time>
      </trkpt>
      <trkpt lat="45.20048" lon="5.73503">
        <ele>207.60000610352</ele>
        <time>2021-09-30T03:17:21.000Z</time>
      </trkpt>
      <trkpt lat="45.20042" lon="5.73498">
        <ele>207.60000610352</ele>
        <time>2021-09-30T03:17:23.000Z</time>
      </trkpt>
      <trkpt lat="45.20039" lon="5.73498">
        <ele>207.60000610352</ele>
        <time>2021-09-30T03:17:24.000Z</time>
      </trkpt>
      <trkpt lat="45.20023" lon="5.73494">
        <ele>207.39999389648</ele>
        <time>2021-09-30T03:17:30.000Z</time>
      </trkpt>
      <trkpt lat="45.20014" lon="5.73476">
        <ele>206.60000610352</ele>
        <time>2021-09-30T03:17:35.000Z</time>
      </trkpt>
      <trkpt lat="45.20008" lon="5.73471">
        <ele>206.39999389648</ele>
        <time>2021-09-30T03:17:37.000Z</time>
      </trkpt>
      <trkpt lat="45.19996" lon="5.73461">
        <ele>207</ele>
        <time>2021-09-30T03:17:42.000Z</time>
      </trkpt>
      <trkpt lat="45.19986" lon="5.73449">
        <ele>207.19999694824</ele>
        <time>2021-09-30T03:17:48.000Z</time>
      </trkpt>
      <trkpt lat="45.19971" lon="5.73441">
        <ele>207.39999389648</ele>
        <time>2021-09-30T03:17:55.000Z</time>
      </trkpt>
      <trkpt lat="45.19951" lon="5.73436">
        <ele>207.39999389648</ele>
        <time>2021-09-30T03:18:02.000Z</time>
      </trkpt>
      <trkpt lat="45.19944" lon="5.73432">
        <ele>207.60000610352</ele>
        <time>2021-09-30T03:18:05.000Z</time>
      </trkpt>
      <trkpt lat="45.19925" lon="5.73425">
        <ele>207.39999389648</ele>
        <time>2021-09-30T03:18:12.000Z</time>
      </trkpt>
      <trkpt lat="45.19923" lon="5.73424">
        <ele>207.39999389648</ele>
        <time>2021-09-30T03:18:13.000Z</time>
      </trkpt>
      <trkpt lat="45.1991" lon="5.73418">
        <ele>207</ele>
        <time>2021-09-30T03:18:18.000Z</time>
      </trkpt>
      <trkpt lat="45.19897" lon="5.73416">
        <ele>207.39999389648</ele>
        <time>2021-09-30T03:18:23.000Z</time>
      </trkpt>
      <trkpt lat="45.19889" lon="5.73411">
        <ele>207.60000610352</ele>
        <time>2021-09-30T03:18:26.000Z</time>
      </trkpt>
      <trkpt lat="45.19875" lon="5.73407">
        <ele>207.39999389648</ele>
        <time>2021-09-30T03:18:33.000Z</time>
      </trkpt>
      <trkpt lat="45.19859" lon="5.73402">
        <ele>207.60000610352</ele>
        <time>2021-09-30T03:18:41.000Z</time>
      </trkpt>
      <trkpt lat="45.19846" lon="5.73399">
        <ele>207.39999389648</ele>
        <time>2021-09-30T03:18:47.000Z</time>
      </trkpt>
      <trkpt lat="45.19845" lon="5.73398">
        <ele>207.39999389648</ele>
        <time>2021-09-30T03:18:49.000Z</time>
      </trkpt>
      <trkpt lat="45.19844" lon="5.73397">
        <ele>207.19999694824</ele>
        <time>2021-09-30T03:18:51.000Z</time>
      </trkpt>
      <trkpt lat="45.19839" lon="5.73395">
        <ele>207.19999694824</ele>
        <time>2021-09-30T03:19:05.000Z</time>
      </trkpt>
      <trkpt lat="45.19839" lon="5.73395">
        <ele>207.19999694824</ele>
        <time>2021-09-30T03:19:07.000Z</time>
      </trkpt>
      <trkpt lat="45.19838" lon="5.73396">
        <ele>207.19999694824</ele>
        <time>2021-09-30T03:19:10.000Z</time>
      </trkpt>
      <trkpt lat="45.19838" lon="5.73396">
        <ele>207.19999694824</ele>
        <time>2021-09-30T03:19:15.000Z</time>
      </trkpt>
      <trkpt lat="45.19829" lon="5.73394">
        <ele>207.19999694824</ele>
        <time>2021-09-30T03:19:18.000Z</time>
      </trkpt>
      <trkpt lat="45.19819" lon="5.73391">
        <ele>207.19999694824</ele>
        <time>2021-09-30T03:19:21.000Z</time>
      </trkpt>
      <trkpt lat="45.19801" lon="5.73386">
        <ele>207.19999694824</ele>
        <time>2021-09-30T03:19:27.000Z</time>
      </trkpt>
      <trkpt lat="45.19796" lon="5.73385">
        <ele>207.19999694824</ele>
        <time>2021-09-30T03:19:29.000Z</time>
      </trkpt>
      <trkpt lat="45.19778" lon="5.73381">
        <ele>207</ele>
        <time>2021-09-30T03:19:35.000Z</time>
      </trkpt>
      <trkpt lat="45.19775" lon="5.7338">
        <ele>207</ele>
        <time>2021-09-30T03:19:36.000Z</time>
      </trkpt>
      <trkpt lat="45.19756" lon="5.73374">
        <ele>207.60000610352</ele>
        <time>2021-09-30T03:19:43.000Z</time>
      </trkpt>
      <trkpt lat="45.19753" lon="5.73373">
        <ele>207.80000305176</ele>
        <time>2021-09-30T03:19:44.000Z</time>
      </trkpt>
      <trkpt lat="45.19737" lon="5.7337">
        <ele>208.60000610352</ele>
        <time>2021-09-30T03:19:50.000Z</time>
      </trkpt>
      <trkpt lat="45.19732" lon="5.7337">
        <ele>208.80000305176</ele>
        <time>2021-09-30T03:19:52.000Z</time>
      </trkpt>
      <trkpt lat="45.19729" lon="5.73367">
        <ele>209</ele>
        <time>2021-09-30T03:19:54.000Z</time>
      </trkpt>
      <trkpt lat="45.19729" lon="5.73364">
        <ele>209.19999694824</ele>
        <time>2021-09-30T03:19:55.000Z</time>
      </trkpt>
      <trkpt lat="45.19729" lon="5.73361">
        <ele>209.39999389648</ele>
        <time>2021-09-30T03:19:56.000Z</time>
      </trkpt>
      <trkpt lat="45.19732" lon="5.7335">
        <ele>209.60000610352</ele>
        <time>2021-09-30T03:19:59.000Z</time>
      </trkpt>
      <trkpt lat="45.19734" lon="5.73342">
        <ele>210</ele>
        <time>2021-09-30T03:20:01.000Z</time>
      </trkpt>
      <trkpt lat="45.19737" lon="5.73325">
        <ele>210.39999389648</ele>
        <time>2021-09-30T03:20:05.000Z</time>
      </trkpt>
      <trkpt lat="45.19739" lon="5.73318">
        <ele>210.39999389648</ele>
        <time>2021-09-30T03:20:07.000Z</time>
      </trkpt>
      <trkpt lat="45.19743" lon="5.73304">
        <ele>210.39999389648</ele>
        <time>2021-09-30T03:20:11.000Z</time>
      </trkpt>
      <trkpt lat="45.19745" lon="5.73297">
        <ele>210.39999389648</ele>
        <time>2021-09-30T03:20:13.000Z</time>
      </trkpt>
      <trkpt lat="45.19747" lon="5.73289">
        <ele>210.19999694824</ele>
        <time>2021-09-30T03:20:15.000Z</time>
      </trkpt>
      <trkpt lat="45.19753" lon="5.73263">
        <ele>209.80000305176</ele>
        <time>2021-09-30T03:20:22.000Z</time>
      </trkpt>
      <trkpt lat="45.19755" lon="5.7326">
        <ele>209.60000610352</ele>
        <time>2021-09-30T03:20:23.000Z</time>
      </trkpt>
      <trkpt lat="45.19772" lon="5.73246">
        <ele>209</ele>
        <time>2021-09-30T03:20:30.000Z</time>
      </trkpt>
      <trkpt lat="45.19783" lon="5.7325">
        <ele>208.60000610352</ele>
        <time>2021-09-30T03:20:34.000Z</time>
      </trkpt>
      <trkpt lat="45.19785" lon="5.73252">
        <ele>208.60000610352</ele>
        <time>2021-09-30T03:20:35.000Z</time>
      </trkpt>
      <trkpt lat="45.19802" lon="5.7326">
        <ele>208.80000305176</ele>
        <time>2021-09-30T03:20:41.000Z</time>
      </trkpt>
      <trkpt lat="45.19821" lon="5.73264">
        <ele>208.60000610352</ele>
        <time>2021-09-30T03:20:47.000Z</time>
      </trkpt>
      <trkpt lat="45.19824" lon="5.73266">
        <ele>208.60000610352</ele>
        <time>2021-09-30T03:20:48.000Z</time>
      </trkpt>
      <trkpt lat="45.1984" lon="5.73271">
        <ele>208.80000305176</ele>
        <time>2021-09-30T03:20:54.000Z</time>
      </trkpt>
      <trkpt lat="45.19848" lon="5.73272">
        <ele>209</ele>
        <time>2021-09-30T03:20:58.000Z</time>
      </trkpt>
      <trkpt lat="45.19866" lon="5.73271">
        <ele>209.19999694824</ele>
        <time>2021-09-30T03:21:05.000Z</time>
      </trkpt>
      <trkpt lat="45.19873" lon="5.7327">
        <ele>209.19999694824</ele>
        <time>2021-09-30T03:21:07.000Z</time>
      </trkpt>
      <trkpt lat="45.1989" lon="5.7327">
        <ele>209.19999694824</ele>
        <time>2021-09-30T03:21:13.000Z</time>
      </trkpt>
      <trkpt lat="45.19901" lon="5.73271">
        <ele>209.60000610352</ele>
        <time>2021-09-30T03:21:18.000Z</time>
      </trkpt>
      <trkpt lat="45.19904" lon="5.73272">
        <ele>209.60000610352</ele>
        <time>2021-09-30T03:21:19.000Z</time>
      </trkpt>
      <trkpt lat="45.19908" lon="5.73274">
        <ele>209.60000610352</ele>
        <time>2021-09-30T03:21:21.000Z</time>
      </trkpt>
      <trkpt lat="45.19915" lon="5.73277">
        <ele>209.60000610352</ele>
        <time>2021-09-30T03:21:24.000Z</time>
      </trkpt>
      <trkpt lat="45.1992" lon="5.73279">
        <ele>209.39999389648</ele>
        <time>2021-09-30T03:21:26.000Z</time>
      </trkpt>
      <trkpt lat="45.19928" lon="5.73285">
        <ele>209.39999389648</ele>
        <time>2021-09-30T03:21:29.000Z</time>
      </trkpt>
      <trkpt lat="45.19937" lon="5.73295">
        <ele>209.39999389648</ele>
        <time>2021-09-30T03:21:33.000Z</time>
      </trkpt>
      <trkpt lat="45.19944" lon="5.73299">
        <ele>209.39999389648</ele>
        <time>2021-09-30T03:21:35.000Z</time>
      </trkpt>
      <trkpt lat="45.19952" lon="5.73306">
        <ele>209.60000610352</ele>
        <time>2021-09-30T03:21:38.000Z</time>
      </trkpt>
      <trkpt lat="45.19964" lon="5.73313">
        <ele>209.19999694824</ele>
        <time>2021-09-30T03:21:43.000Z</time>
      </trkpt>
      <trkpt lat="45.19982" lon="5.73319">
        <ele>209.19999694824</ele>
        <time>2021-09-30T03:21:50.000Z</time>
      </trkpt>
      <trkpt lat="45.19985" lon="5.7332">
        <ele>209</ele>
        <time>2021-09-30T03:21:51.000Z</time>
      </trkpt>
      <trkpt lat="45.20003" lon="5.73325">
        <ele>208.80000305176</ele>
        <time>2021-09-30T03:21:58.000Z</time>
      </trkpt>
      <trkpt lat="45.20005" lon="5.73326">
        <ele>208.80000305176</ele>
        <time>2021-09-30T03:21:59.000Z</time>
      </trkpt>
      <trkpt lat="45.20017" lon="5.73331">
        <ele>208.80000305176</ele>
        <time>2021-09-30T03:22:04.000Z</time>
      </trkpt>
      <trkpt lat="45.20027" lon="5.73333">
        <ele>208.60000610352</ele>
        <time>2021-09-30T03:22:07.000Z</time>
      </trkpt>
      <trkpt lat="45.20036" lon="5.73339">
        <ele>208.60000610352</ele>
        <time>2021-09-30T03:22:10.000Z</time>
      </trkpt>
      <trkpt lat="45.20041" lon="5.73345">
        <ele>208.60000610352</ele>
        <time>2021-09-30T03:22:12.000Z</time>
      </trkpt>
      <trkpt lat="45.20044" lon="5.73347">
        <ele>208.60000610352</ele>
        <time>2021-09-30T03:22:13.000Z</time>
      </trkpt>
      <trkpt lat="45.2006" lon="5.73356">
        <ele>208.39999389648</ele>
        <time>2021-09-30T03:22:19.000Z</time>
      </trkpt>
      <trkpt lat="45.20072" lon="5.73361">
        <ele>208.39999389648</ele>
        <time>2021-09-30T03:22:24.000Z</time>
      </trkpt>
      <trkpt lat="45.20091" lon="5.73374">
        <ele>208.39999389648</ele>
        <time>2021-09-30T03:22:30.000Z</time>
      </trkpt>
      <trkpt lat="45.20094" lon="5.73375">
        <ele>208.39999389648</ele>
        <time>2021-09-30T03:22:31.000Z</time>
      </trkpt>
      <trkpt lat="45.20106" lon="5.7338">
        <ele>208.60000610352</ele>
        <time>2021-09-30T03:22:35.000Z</time>
      </trkpt>
      <trkpt lat="45.20116" lon="5.73392">
        <ele>208.60000610352</ele>
        <time>2021-09-30T03:22:40.000Z</time>
      </trkpt>
      <trkpt lat="45.20128" lon="5.73403">
        <ele>208.60000610352</ele>
        <time>2021-09-30T03:22:45.000Z</time>
      </trkpt>
      <trkpt lat="45.2013" lon="5.73404">
        <ele>208.60000610352</ele>
        <time>2021-09-30T03:22:46.000Z</time>
      </trkpt>
      <trkpt lat="45.20143" lon="5.73412">
        <ele>209</ele>
        <time>2021-09-30T03:22:51.000Z</time>
      </trkpt>
      <trkpt lat="45.20161" lon="5.73415">
        <ele>209.19999694824</ele>
        <time>2021-09-30T03:22:58.000Z</time>
      </trkpt>
      <trkpt lat="45.20173" lon="5.73414">
        <ele>209.60000610352</ele>
        <time>2021-09-30T03:23:03.000Z</time>
      </trkpt>
      <trkpt lat="45.20176" lon="5.73413">
        <ele>209.60000610352</ele>
        <time>2021-09-30T03:23:04.000Z</time>
      </trkpt>
      <trkpt lat="45.20179" lon="5.73412">
        <ele>209.80000305176</ele>
        <time>2021-09-30T03:23:05.000Z</time>
      </trkpt>
      <trkpt lat="45.20187" lon="5.73411">
        <ele>210</ele>
        <time>2021-09-30T03:23:08.000Z</time>
      </trkpt>
      <trkpt lat="45.20191" lon="5.73412">
        <ele>210</ele>
        <time>2021-09-30T03:23:10.000Z</time>
      </trkpt>
      <trkpt lat="45.20202" lon="5.73419">
        <ele>209.80000305176</ele>
        <time>2021-09-30T03:23:15.000Z</time>
      </trkpt>
      <trkpt lat="45.2021" lon="5.73428">
        <ele>209.80000305176</ele>
        <time>2021-09-30T03:23:18.000Z</time>
      </trkpt>
      <trkpt lat="45.20214" lon="5.73436">
        <ele>210</ele>
        <time>2021-09-30T03:23:21.000Z</time>
      </trkpt>
      <trkpt lat="45.20214" lon="5.7344">
        <ele>210</ele>
        <time>2021-09-30T03:23:22.000Z</time>
      </trkpt>
      <trkpt lat="45.20225" lon="5.73459">
        <ele>210.39999389648</ele>
        <time>2021-09-30T03:23:29.000Z</time>
      </trkpt>
      <trkpt lat="45.20237" lon="5.73475">
        <ele>210.80000305176</ele>
        <time>2021-09-30T03:23:35.000Z</time>
      </trkpt>
      <trkpt lat="45.20241" lon="5.73481">
        <ele>210.80000305176</ele>
        <time>2021-09-30T03:23:37.000Z</time>
      </trkpt>
      <trkpt lat="45.20255" lon="5.73502">
        <ele>211</ele>
        <time>2021-09-30T03:23:42.000Z</time>
      </trkpt>
      <trkpt lat="45.20261" lon="5.73507">
        <ele>211.19999694824</ele>
        <time>2021-09-30T03:23:45.000Z</time>
      </trkpt>
      <trkpt lat="45.20263" lon="5.73509">
        <ele>211.39999389648</ele>
        <time>2021-09-30T03:23:46.000Z</time>
      </trkpt>
      <trkpt lat="45.20263" lon="5.73512">
        <ele>211.60000610352</ele>
        <time>2021-09-30T03:23:47.000Z</time>
      </trkpt>
      <trkpt lat="45.20267" lon="5.73516">
        <ele>211.60000610352</ele>
        <time>2021-09-30T03:23:49.000Z</time>
      </trkpt>
      <trkpt lat="45.2027" lon="5.7352">
        <ele>211.60000610352</ele>
        <time>2021-09-30T03:23:51.000Z</time>
      </trkpt>
      <trkpt lat="45.20275" lon="5.73525">
        <ele>212.19999694824</ele>
        <time>2021-09-30T03:23:53.000Z</time>
      </trkpt>
      <trkpt lat="45.20278" lon="5.73528">
        <ele>212.39999389648</ele>
        <time>2021-09-30T03:23:54.000Z</time>
      </trkpt>
      <trkpt lat="45.20289" lon="5.73541">
        <ele>212.80000305176</ele>
        <time>2021-09-30T03:23:59.000Z</time>
      </trkpt>
      <trkpt lat="45.20293" lon="5.7355">
        <ele>213.39999389648</ele>
        <time>2021-09-30T03:24:01.000Z</time>
      </trkpt>
      <trkpt lat="45.203" lon="5.73567">
        <ele>214.39999389648</ele>
        <time>2021-09-30T03:24:05.000Z</time>
      </trkpt>
      <trkpt lat="45.20306" lon="5.73575">
        <ele>214.80000305176</ele>
        <time>2021-09-30T03:24:08.000Z</time>
      </trkpt>
      <trkpt lat="45.20311" lon="5.73582">
        <ele>215.60000610352</ele>
        <time>2021-09-30T03:24:11.000Z</time>
      </trkpt>
      <trkpt lat="45.20312" lon="5.73585">
        <ele>215.60000610352</ele>
        <time>2021-09-30T03:24:12.000Z</time>
      </trkpt>
      <trkpt lat="45.20313" lon="5.73589">
        <ele>215.80000305176</ele>
        <time>2021-09-30T03:24:14.000Z</time>
      </trkpt>
      <trkpt lat="45.20313" lon="5.73592">
        <ele>216.19999694824</ele>
        <time>2021-09-30T03:24:16.000Z</time>
      </trkpt>
      <trkpt lat="45.20318" lon="5.73595">
        <ele>216.60000610352</ele>
        <time>2021-09-30T03:24:18.000Z</time>
      </trkpt>
      <trkpt lat="45.20322" lon="5.73601">
        <ele>216.80000305176</ele>
        <time>2021-09-30T03:24:20.000Z</time>
      </trkpt>
      <trkpt lat="45.20326" lon="5.73607">
        <ele>216.80000305176</ele>
        <time>2021-09-30T03:24:23.000Z</time>
      </trkpt>
      <trkpt lat="45.20329" lon="5.73609">
        <ele>216.80000305176</ele>
        <time>2021-09-30T03:24:24.000Z</time>
      </trkpt>
      <trkpt lat="45.20338" lon="5.73619">
        <ele>217</ele>
        <time>2021-09-30T03:24:28.000Z</time>
      </trkpt>
      <trkpt lat="45.20341" lon="5.73625">
        <ele>217.19999694824</ele>
        <time>2021-09-30T03:24:30.000Z</time>
      </trkpt>
      <trkpt lat="45.20347" lon="5.73636">
        <ele>217.39999389648</ele>
        <time>2021-09-30T03:24:33.000Z</time>
      </trkpt>
      <trkpt lat="45.20362" lon="5.73652">
        <ele>217.39999389648</ele>
        <time>2021-09-30T03:24:40.000Z</time>
      </trkpt>
      <trkpt lat="45.20368" lon="5.73658">
        <ele>217.39999389648</ele>
        <time>2021-09-30T03:24:43.000Z</time>
      </trkpt>
      <trkpt lat="45.20369" lon="5.7366">
        <ele>217.60000610352</ele>
        <time>2021-09-30T03:24:44.000Z</time>
      </trkpt>
      <trkpt lat="45.20373" lon="5.73665">
        <ele>218</ele>
        <time>2021-09-30T03:24:46.000Z</time>
      </trkpt>
      <trkpt lat="45.20382" lon="5.73675">
        <ele>218.39999389648</ele>
        <time>2021-09-30T03:24:50.000Z</time>
      </trkpt>
      <trkpt lat="45.20384" lon="5.73679">
        <ele>218.39999389648</ele>
        <time>2021-09-30T03:24:52.000Z</time>
      </trkpt>
      <trkpt lat="45.2039" lon="5.73687">
        <ele>218.60000610352</ele>
        <time>2021-09-30T03:24:56.000Z</time>
      </trkpt>
      <trkpt lat="45.20392" lon="5.73689">
        <ele>218.80000305176</ele>
        <time>2021-09-30T03:24:57.000Z</time>
      </trkpt>
      <trkpt lat="45.20396" lon="5.73695">
        <ele>219</ele>
        <time>2021-09-30T03:24:59.000Z</time>
      </trkpt>
      <trkpt lat="45.20412" lon="5.73714">
        <ele>219.19999694824</ele>
        <time>2021-09-30T03:25:06.000Z</time>
      </trkpt>
      <trkpt lat="45.20425" lon="5.73725">
        <ele>219.80000305176</ele>
        <time>2021-09-30T03:25:11.000Z</time>
      </trkpt>
      <trkpt lat="45.20426" lon="5.73728">
        <ele>220</ele>
        <time>2021-09-30T03:25:12.000Z</time>
      </trkpt>
      <trkpt lat="45.20433" lon="5.73741">
        <ele>220.39999389648</ele>
        <time>2021-09-30T03:25:16.000Z</time>
      </trkpt>
      <trkpt lat="45.20445" lon="5.73758">
        <ele>220.80000305176</ele>
        <time>2021-09-30T03:25:22.000Z</time>
      </trkpt>
      <trkpt lat="45.20447" lon="5.7376">
        <ele>221</ele>
        <time>2021-09-30T03:25:23.000Z</time>
      </trkpt>
      <trkpt lat="45.20453" lon="5.73767">
        <ele>221</ele>
        <time>2021-09-30T03:25:25.000Z</time>
      </trkpt>
      <trkpt lat="45.20468" lon="5.73783">
        <ele>221.80000305176</ele>
        <time>2021-09-30T03:25:32.000Z</time>
      </trkpt>
      <trkpt lat="45.20471" lon="5.73785">
        <ele>222</ele>
        <time>2021-09-30T03:25:33.000Z</time>
      </trkpt>
      <trkpt lat="45.20474" lon="5.7379">
        <ele>222.39999389648</ele>
        <time>2021-09-30T03:25:35.000Z</time>
      </trkpt>
      <trkpt lat="45.20478" lon="5.73797">
        <ele>222.60000610352</ele>
        <time>2021-09-30T03:25:37.000Z</time>
      </trkpt>
      <trkpt lat="45.20482" lon="5.73802">
        <ele>223</ele>
        <time>2021-09-30T03:25:39.000Z</time>
      </trkpt>
      <trkpt lat="45.20487" lon="5.73809">
        <ele>223.39999389648</ele>
        <time>2021-09-30T03:25:42.000Z</time>
      </trkpt>
      <trkpt lat="45.20495" lon="5.73816">
        <ele>224</ele>
        <time>2021-09-30T03:25:46.000Z</time>
      </trkpt>
      <trkpt lat="45.20499" lon="5.73821">
        <ele>224.39999389648</ele>
        <time>2021-09-30T03:25:49.000Z</time>
      </trkpt>
      <trkpt lat="45.20502" lon="5.73824">
        <ele>224.80000305176</ele>
        <time>2021-09-30T03:25:51.000Z</time>
      </trkpt>
      <trkpt lat="45.20503" lon="5.73826">
        <ele>225</ele>
        <time>2021-09-30T03:25:52.000Z</time>
      </trkpt>
      <trkpt lat="45.20508" lon="5.73828">
        <ele>225.19999694824</ele>
        <time>2021-09-30T03:25:54.000Z</time>
      </trkpt>
      <trkpt lat="45.2051" lon="5.73829">
        <ele>225.60000610352</ele>
        <time>2021-09-30T03:25:55.000Z</time>
      </trkpt>
      <trkpt lat="45.20511" lon="5.7383">
        <ele>225.80000305176</ele>
        <time>2021-09-30T03:25:56.000Z</time>
      </trkpt>
      <trkpt lat="45.20518" lon="5.73837">
        <ele>226.60000610352</ele>
        <time>2021-09-30T03:26:00.000Z</time>
      </trkpt>
      <trkpt lat="45.2052" lon="5.73838">
        <ele>226.80000305176</ele>
        <time>2021-09-30T03:26:01.000Z</time>
      </trkpt>
      <trkpt lat="45.20523" lon="5.73839">
        <ele>226.80000305176</ele>
        <time>2021-09-30T03:26:02.000Z</time>
      </trkpt>
      <trkpt lat="45.20528" lon="5.73838">
        <ele>227.60000610352</ele>
        <time>2021-09-30T03:26:05.000Z</time>
      </trkpt>
      <trkpt lat="45.2053" lon="5.73839">
        <ele>227.80000305176</ele>
        <time>2021-09-30T03:26:06.000Z</time>
      </trkpt>
      <trkpt lat="45.20537" lon="5.73847">
        <ele>228.39999389648</ele>
        <time>2021-09-30T03:26:09.000Z</time>
      </trkpt>
      <trkpt lat="45.20539" lon="5.73849">
        <ele>228.80000305176</ele>
        <time>2021-09-30T03:26:10.000Z</time>
      </trkpt>
      <trkpt lat="45.20541" lon="5.73851">
        <ele>229</ele>
        <time>2021-09-30T03:26:12.000Z</time>
      </trkpt>
      <trkpt lat="45.20542" lon="5.73855">
        <ele>230</ele>
        <time>2021-09-30T03:26:14.000Z</time>
      </trkpt>
      <trkpt lat="45.20544" lon="5.73859">
        <ele>230.80000305176</ele>
        <time>2021-09-30T03:26:16.000Z</time>
      </trkpt>
      <trkpt lat="45.20545" lon="5.7386">
        <ele>231</ele>
        <time>2021-09-30T03:26:17.000Z</time>
      </trkpt>
      <trkpt lat="45.20547" lon="5.73863">
        <ele>231.39999389648</ele>
        <time>2021-09-30T03:26:18.000Z</time>
      </trkpt>
      <trkpt lat="45.20553" lon="5.73868">
        <ele>232.19999694824</ele>
        <time>2021-09-30T03:26:21.000Z</time>
      </trkpt>
      <trkpt lat="45.20554" lon="5.73868">
        <ele>232.39999389648</ele>
        <time>2021-09-30T03:26:22.000Z</time>
      </trkpt>
      <trkpt lat="45.20555" lon="5.73869">
        <ele>233.39999389648</ele>
        <time>2021-09-30T03:26:24.000Z</time>
      </trkpt>
      <trkpt lat="45.20555" lon="5.7387">
        <ele>233.60000610352</ele>
        <time>2021-09-30T03:26:25.000Z</time>
      </trkpt>
      <trkpt lat="45.20558" lon="5.73869">
        <ele>234.39999389648</ele>
        <time>2021-09-30T03:26:27.000Z</time>
      </trkpt>
      <trkpt lat="45.20559" lon="5.73868">
        <ele>234.80000305176</ele>
        <time>2021-09-30T03:26:28.000Z</time>
      </trkpt>
      <trkpt lat="45.20565" lon="5.73868">
        <ele>235.60000610352</ele>
        <time>2021-09-30T03:26:31.000Z</time>
      </trkpt>
      <trkpt lat="45.20569" lon="5.73867">
        <ele>236.19999694824</ele>
        <time>2021-09-30T03:26:33.000Z</time>
      </trkpt>
      <trkpt lat="45.20571" lon="5.73865">
        <ele>236.80000305176</ele>
        <time>2021-09-30T03:26:35.000Z</time>
      </trkpt>
      <trkpt lat="45.20578" lon="5.73863">
        <ele>238</ele>
        <time>2021-09-30T03:26:39.000Z</time>
      </trkpt>
      <trkpt lat="45.20583" lon="5.7386">
        <ele>239</ele>
        <time>2021-09-30T03:26:43.000Z</time>
      </trkpt>
      <trkpt lat="45.20586" lon="5.7386">
        <ele>239.60000610352</ele>
        <time>2021-09-30T03:26:45.000Z</time>
      </trkpt>
      <trkpt lat="45.20589" lon="5.73859">
        <ele>240.19999694824</ele>
        <time>2021-09-30T03:26:47.000Z</time>
      </trkpt>
      <trkpt lat="45.20594" lon="5.73856">
        <ele>241.19999694824</ele>
        <time>2021-09-30T03:26:50.000Z</time>
      </trkpt>
      <trkpt lat="45.20598" lon="5.73854">
        <ele>242</ele>
        <time>2021-09-30T03:26:53.000Z</time>
      </trkpt>
      <trkpt lat="45.20599" lon="5.73853">
        <ele>242.60000610352</ele>
        <time>2021-09-30T03:26:54.000Z</time>
      </trkpt>
      <trkpt lat="45.20604" lon="5.73851">
        <ele>243.80000305176</ele>
        <time>2021-09-30T03:26:58.000Z</time>
      </trkpt>
      <trkpt lat="45.20607" lon="5.73852">
        <ele>244.19999694824</ele>
        <time>2021-09-30T03:27:00.000Z</time>
      </trkpt>
      <trkpt lat="45.20611" lon="5.73851">
        <ele>245</ele>
        <time>2021-09-30T03:27:02.000Z</time>
      </trkpt>
      <trkpt lat="45.20616" lon="5.73849">
        <ele>246</ele>
        <time>2021-09-30T03:27:06.000Z</time>
      </trkpt>
      <trkpt lat="45.20621" lon="5.73847">
        <ele>246.80000305176</ele>
        <time>2021-09-30T03:27:09.000Z</time>
      </trkpt>
      <trkpt lat="45.20623" lon="5.73847">
        <ele>247.19999694824</ele>
        <time>2021-09-30T03:27:10.000Z</time>
      </trkpt>
      <trkpt lat="45.20628" lon="5.73845">
        <ele>248.39999389648</ele>
        <time>2021-09-30T03:27:14.000Z</time>
      </trkpt>
      <trkpt lat="45.20634" lon="5.73842">
        <ele>249.80000305176</ele>
        <time>2021-09-30T03:27:18.000Z</time>
      </trkpt>
      <trkpt lat="45.20635" lon="5.73842">
        <ele>250.19999694824</ele>
        <time>2021-09-30T03:27:19.000Z</time>
      </trkpt>
      <trkpt lat="45.2064" lon="5.73842">
        <ele>251.19999694824</ele>
        <time>2021-09-30T03:27:22.000Z</time>
      </trkpt>
      <trkpt lat="45.20646" lon="5.73841">
        <ele>252.39999389648</ele>
        <time>2021-09-30T03:27:26.000Z</time>
      </trkpt>
      <trkpt lat="45.20647" lon="5.7384">
        <ele>252.80000305176</ele>
        <time>2021-09-30T03:27:27.000Z</time>
      </trkpt>
      <trkpt lat="45.20649" lon="5.73839">
        <ele>253.60000610352</ele>
        <time>2021-09-30T03:27:29.000Z</time>
      </trkpt>
      <trkpt lat="45.20653" lon="5.73837">
        <ele>254.80000305176</ele>
        <time>2021-09-30T03:27:32.000Z</time>
      </trkpt>
      <trkpt lat="45.20654" lon="5.73838">
        <ele>255</ele>
        <time>2021-09-30T03:27:33.000Z</time>
      </trkpt>
      <trkpt lat="45.20655" lon="5.73839">
        <ele>255.19999694824</ele>
        <time>2021-09-30T03:27:34.000Z</time>
      </trkpt>
      <trkpt lat="45.20657" lon="5.73839">
        <ele>256</ele>
        <time>2021-09-30T03:27:36.000Z</time>
      </trkpt>
      <trkpt lat="45.2066" lon="5.73838">
        <ele>256.79998779297</ele>
        <time>2021-09-30T03:27:39.000Z</time>
      </trkpt>
      <trkpt lat="45.20661" lon="5.73837">
        <ele>257.39999389648</ele>
        <time>2021-09-30T03:27:40.000Z</time>
      </trkpt>
      <trkpt lat="45.20664" lon="5.73834">
        <ele>258.20001220703</ele>
        <time>2021-09-30T03:27:43.000Z</time>
      </trkpt>
      <trkpt lat="45.20665" lon="5.73834">
        <ele>258.39999389648</ele>
        <time>2021-09-30T03:27:44.000Z</time>
      </trkpt>
      <trkpt lat="45.20666" lon="5.73833">
        <ele>259</ele>
        <time>2021-09-30T03:27:45.000Z</time>
      </trkpt>
      <trkpt lat="45.20668" lon="5.73831">
        <ele>259.60000610352</ele>
        <time>2021-09-30T03:27:47.000Z</time>
      </trkpt>
      <trkpt lat="45.20672" lon="5.73829">
        <ele>260</ele>
        <time>2021-09-30T03:27:49.000Z</time>
      </trkpt>
      <trkpt lat="45.20675" lon="5.73828">
        <ele>260.39999389648</ele>
        <time>2021-09-30T03:27:51.000Z</time>
      </trkpt>
      <trkpt lat="45.20676" lon="5.73827">
        <ele>260.39999389648</ele>
        <time>2021-09-30T03:27:52.000Z</time>
      </trkpt>
      <trkpt lat="45.20678" lon="5.73827">
        <ele>260.79998779297</ele>
        <time>2021-09-30T03:27:53.000Z</time>
      </trkpt>
      <trkpt lat="45.20684" lon="5.73823">
        <ele>261.79998779297</ele>
        <time>2021-09-30T03:27:57.000Z</time>
      </trkpt>
      <trkpt lat="45.20689" lon="5.73821">
        <ele>262.79998779297</ele>
        <time>2021-09-30T03:28:00.000Z</time>
      </trkpt>
      <trkpt lat="45.2069" lon="5.7382">
        <ele>263.20001220703</ele>
        <time>2021-09-30T03:28:01.000Z</time>
      </trkpt>
      <trkpt lat="45.20691" lon="5.73818">
        <ele>263.60000610352</ele>
        <time>2021-09-30T03:28:02.000Z</time>
      </trkpt>
      <trkpt lat="45.20694" lon="5.73813">
        <ele>264.39999389648</ele>
        <time>2021-09-30T03:28:05.000Z</time>
      </trkpt>
      <trkpt lat="45.20694" lon="5.73812">
        <ele>264.60000610352</ele>
        <time>2021-09-30T03:28:06.000Z</time>
      </trkpt>
      <trkpt lat="45.20696" lon="5.7381">
        <ele>265.60000610352</ele>
        <time>2021-09-30T03:28:08.000Z</time>
      </trkpt>
      <trkpt lat="45.20698" lon="5.7381">
        <ele>265.79998779297</ele>
        <time>2021-09-30T03:28:09.000Z</time>
      </trkpt>
      <trkpt lat="45.207" lon="5.73808">
        <ele>266.60000610352</ele>
        <time>2021-09-30T03:28:12.000Z</time>
      </trkpt>
      <trkpt lat="45.207" lon="5.73804">
        <ele>267.20001220703</ele>
        <time>2021-09-30T03:28:15.000Z</time>
      </trkpt>
      <trkpt lat="45.20701" lon="5.73803">
        <ele>267.79998779297</ele>
        <time>2021-09-30T03:28:16.000Z</time>
      </trkpt>
      <trkpt lat="45.20706" lon="5.73799">
        <ele>269</ele>
        <time>2021-09-30T03:28:20.000Z</time>
      </trkpt>
      <trkpt lat="45.20707" lon="5.73798">
        <ele>269.39999389648</ele>
        <time>2021-09-30T03:28:21.000Z</time>
      </trkpt>
      <trkpt lat="45.2071" lon="5.73796">
        <ele>270</ele>
        <time>2021-09-30T03:28:24.000Z</time>
      </trkpt>
      <trkpt lat="45.20712" lon="5.73795">
        <ele>270.79998779297</ele>
        <time>2021-09-30T03:28:26.000Z</time>
      </trkpt>
      <trkpt lat="45.20714" lon="5.73795">
        <ele>271.20001220703</ele>
        <time>2021-09-30T03:28:27.000Z</time>
      </trkpt>
      <trkpt lat="45.20719" lon="5.73792">
        <ele>272.60000610352</ele>
        <time>2021-09-30T03:28:31.000Z</time>
      </trkpt>
      <trkpt lat="45.2072" lon="5.7379">
        <ele>273.20001220703</ele>
        <time>2021-09-30T03:28:33.000Z</time>
      </trkpt>
      <trkpt lat="45.20722" lon="5.73789">
        <ele>273.60000610352</ele>
        <time>2021-09-30T03:28:34.000Z</time>
      </trkpt>
      <trkpt lat="45.20724" lon="5.73787">
        <ele>274.39999389648</ele>
        <time>2021-09-30T03:28:36.000Z</time>
      </trkpt>
      <trkpt lat="45.20725" lon="5.73784">
        <ele>274.79998779297</ele>
        <time>2021-09-30T03:28:37.000Z</time>
      </trkpt>
      <trkpt lat="45.20729" lon="5.73779">
        <ele>275.79998779297</ele>
        <time>2021-09-30T03:28:40.000Z</time>
      </trkpt>
      <trkpt lat="45.20733" lon="5.73774">
        <ele>276.79998779297</ele>
        <time>2021-09-30T03:28:43.000Z</time>
      </trkpt>
      <trkpt lat="45.20737" lon="5.73768">
        <ele>278</ele>
        <time>2021-09-30T03:28:47.000Z</time>
      </trkpt>
      <trkpt lat="45.20741" lon="5.73767">
        <ele>279.20001220703</ele>
        <time>2021-09-30T03:28:50.000Z</time>
      </trkpt>
      <trkpt lat="45.20744" lon="5.73763">
        <ele>280.20001220703</ele>
        <time>2021-09-30T03:28:53.000Z</time>
      </trkpt>
      <trkpt lat="45.20744" lon="5.73761">
        <ele>280.39999389648</ele>
        <time>2021-09-30T03:28:54.000Z</time>
      </trkpt>
      <trkpt lat="45.20744" lon="5.73758">
        <ele>280.79998779297</ele>
        <time>2021-09-30T03:28:55.000Z</time>
      </trkpt>
      <trkpt lat="45.20744" lon="5.73755">
        <ele>281.60000610352</ele>
        <time>2021-09-30T03:28:57.000Z</time>
      </trkpt>
      <trkpt lat="45.20744" lon="5.73753">
        <ele>281.79998779297</ele>
        <time>2021-09-30T03:28:58.000Z</time>
      </trkpt>
      <trkpt lat="45.20746" lon="5.73751">
        <ele>282.20001220703</ele>
        <time>2021-09-30T03:29:00.000Z</time>
      </trkpt>
      <trkpt lat="45.20747" lon="5.73751">
        <ele>283</ele>
        <time>2021-09-30T03:29:02.000Z</time>
      </trkpt>
      <trkpt lat="45.20748" lon="5.7375">
        <ele>283.20001220703</ele>
        <time>2021-09-30T03:29:03.000Z</time>
      </trkpt>
      <trkpt lat="45.20751" lon="5.73748">
        <ele>284.20001220703</ele>
        <time>2021-09-30T03:29:06.000Z</time>
      </trkpt>
      <trkpt lat="45.20752" lon="5.73749">
        <ele>284.60000610352</ele>
        <time>2021-09-30T03:29:07.000Z</time>
      </trkpt>
      <trkpt lat="45.20754" lon="5.73748">
        <ele>285.39999389648</ele>
        <time>2021-09-30T03:29:09.000Z</time>
      </trkpt>
      <trkpt lat="45.20758" lon="5.73747">
        <ele>286</ele>
        <time>2021-09-30T03:29:11.000Z</time>
      </trkpt>
      <trkpt lat="45.2076" lon="5.73744">
        <ele>286.60000610352</ele>
        <time>2021-09-30T03:29:13.000Z</time>
      </trkpt>
      <trkpt lat="45.20763" lon="5.73744">
        <ele>287.39999389648</ele>
        <time>2021-09-30T03:29:15.000Z</time>
      </trkpt>
      <trkpt lat="45.20765" lon="5.73744">
        <ele>288</ele>
        <time>2021-09-30T03:29:17.000Z</time>
      </trkpt>
      <trkpt lat="45.20767" lon="5.73741">
        <ele>289.20001220703</ele>
        <time>2021-09-30T03:29:20.000Z</time>
      </trkpt>
      <trkpt lat="45.20769" lon="5.7374">
        <ele>290</ele>
        <time>2021-09-30T03:29:22.000Z</time>
      </trkpt>
      <trkpt lat="45.20771" lon="5.7374">
        <ele>290.60000610352</ele>
        <time>2021-09-30T03:29:23.000Z</time>
      </trkpt>
      <trkpt lat="45.20773" lon="5.73737">
        <ele>291.79998779297</ele>
        <time>2021-09-30T03:29:27.000Z</time>
      </trkpt>
      <trkpt lat="45.20776" lon="5.73736">
        <ele>292.79998779297</ele>
        <time>2021-09-30T03:29:30.000Z</time>
      </trkpt>
      <trkpt lat="45.20782" lon="5.73731">
        <ele>294</ele>
        <time>2021-09-30T03:29:35.000Z</time>
      </trkpt>
      <trkpt lat="45.20786" lon="5.73732">
        <ele>294.39999389648</ele>
        <time>2021-09-30T03:29:38.000Z</time>
      </trkpt>
      <trkpt lat="45.20786" lon="5.73732">
        <ele>294.60000610352</ele>
        <time>2021-09-30T03:29:39.000Z</time>
      </trkpt>
      <trkpt lat="45.20789" lon="5.73731">
        <ele>295.20001220703</ele>
        <time>2021-09-30T03:29:41.000Z</time>
      </trkpt>
      <trkpt lat="45.2079" lon="5.7373">
        <ele>296</ele>
        <time>2021-09-30T03:29:43.000Z</time>
      </trkpt>
      <trkpt lat="45.20791" lon="5.73729">
        <ele>296.20001220703</ele>
        <time>2021-09-30T03:29:44.000Z</time>
      </trkpt>
      <trkpt lat="45.20792" lon="5.73728">
        <ele>296.60000610352</ele>
        <time>2021-09-30T03:29:46.000Z</time>
      </trkpt>
      <trkpt lat="45.20794" lon="5.73728">
        <ele>297.39999389648</ele>
        <time>2021-09-30T03:29:49.000Z</time>
      </trkpt>
      <trkpt lat="45.20795" lon="5.73727">
        <ele>297.79998779297</ele>
        <time>2021-09-30T03:29:51.000Z</time>
      </trkpt>
      <trkpt lat="45.20796" lon="5.73727">
        <ele>298.20001220703</ele>
        <time>2021-09-30T03:29:52.000Z</time>
      </trkpt>
      <trkpt lat="45.20797" lon="5.73728">
        <ele>298.79998779297</ele>
        <time>2021-09-30T03:29:53.000Z</time>
      </trkpt>
      <trkpt lat="45.20801" lon="5.73727">
        <ele>299.60000610352</ele>
        <time>2021-09-30T03:29:56.000Z</time>
      </trkpt>
      <trkpt lat="45.20802" lon="5.73727">
        <ele>299.79998779297</ele>
        <time>2021-09-30T03:29:57.000Z</time>
      </trkpt>
      <trkpt lat="45.20804" lon="5.73726">
        <ele>300.20001220703</ele>
        <time>2021-09-30T03:29:59.000Z</time>
      </trkpt>
      <trkpt lat="45.20806" lon="5.73727">
        <ele>301</ele>
        <time>2021-09-30T03:30:01.000Z</time>
      </trkpt>
      <trkpt lat="45.20807" lon="5.73728">
        <ele>301.39999389648</ele>
        <time>2021-09-30T03:30:02.000Z</time>
      </trkpt>
      <trkpt lat="45.20808" lon="5.73727">
        <ele>301.39999389648</ele>
        <time>2021-09-30T03:30:03.000Z</time>
      </trkpt>
      <trkpt lat="45.20808" lon="5.73725">
        <ele>302.39999389648</ele>
        <time>2021-09-30T03:30:05.000Z</time>
      </trkpt>
      <trkpt lat="45.2081" lon="5.73725">
        <ele>303</ele>
        <time>2021-09-30T03:30:07.000Z</time>
      </trkpt>
      <trkpt lat="45.20811" lon="5.73727">
        <ele>303.20001220703</ele>
        <time>2021-09-30T03:30:08.000Z</time>
      </trkpt>
      <trkpt lat="45.20812" lon="5.73731">
        <ele>303.60000610352</ele>
        <time>2021-09-30T03:30:10.000Z</time>
      </trkpt>
      <trkpt lat="45.20813" lon="5.73735">
        <ele>304</ele>
        <time>2021-09-30T03:30:12.000Z</time>
      </trkpt>
      <trkpt lat="45.20817" lon="5.73742">
        <ele>304.60000610352</ele>
        <time>2021-09-30T03:30:16.000Z</time>
      </trkpt>
      <trkpt lat="45.20819" lon="5.73743">
        <ele>304.79998779297</ele>
        <time>2021-09-30T03:30:17.000Z</time>
      </trkpt>
      <trkpt lat="45.2082" lon="5.73743">
        <ele>305</ele>
        <time>2021-09-30T03:30:18.000Z</time>
      </trkpt>
      <trkpt lat="45.20822" lon="5.73742">
        <ele>305.39999389648</ele>
        <time>2021-09-30T03:30:20.000Z</time>
      </trkpt>
      <trkpt lat="45.20823" lon="5.73741">
        <ele>305.39999389648</ele>
        <time>2021-09-30T03:30:21.000Z</time>
      </trkpt>
      <trkpt lat="45.20824" lon="5.7374">
        <ele>305.60000610352</ele>
        <time>2021-09-30T03:30:22.000Z</time>
      </trkpt>
      <trkpt lat="45.20832" lon="5.73741">
        <ele>307</ele>
        <time>2021-09-30T03:30:27.000Z</time>
      </trkpt>
      <trkpt lat="45.20835" lon="5.7374">
        <ele>308.20001220703</ele>
        <time>2021-09-30T03:30:31.000Z</time>
      </trkpt>
      <trkpt lat="45.2084" lon="5.73736">
        <ele>309.39999389648</ele>
        <time>2021-09-30T03:30:35.000Z</time>
      </trkpt>
      <trkpt lat="45.20841" lon="5.73732">
        <ele>309.79998779297</ele>
        <time>2021-09-30T03:30:37.000Z</time>
      </trkpt>
      <trkpt lat="45.2084" lon="5.73729">
        <ele>310.60000610352</ele>
        <time>2021-09-30T03:30:39.000Z</time>
      </trkpt>
      <trkpt lat="45.20841" lon="5.73726">
        <ele>311.20001220703</ele>
        <time>2021-09-30T03:30:41.000Z</time>
      </trkpt>
      <trkpt lat="45.20844" lon="5.73726">
        <ele>311.79998779297</ele>
        <time>2021-09-30T03:30:43.000Z</time>
      </trkpt>
      <trkpt lat="45.20846" lon="5.73728">
        <ele>312.39999389648</ele>
        <time>2021-09-30T03:30:45.000Z</time>
      </trkpt>
      <trkpt lat="45.20848" lon="5.73732">
        <ele>313.20001220703</ele>
        <time>2021-09-30T03:30:48.000Z</time>
      </trkpt>
      <trkpt lat="45.20851" lon="5.73732">
        <ele>313.79998779297</ele>
        <time>2021-09-30T03:30:50.000Z</time>
      </trkpt>
      <trkpt lat="45.20852" lon="5.73732">
        <ele>314</ele>
        <time>2021-09-30T03:30:51.000Z</time>
      </trkpt>
      <trkpt lat="45.20853" lon="5.73732">
        <ele>314.20001220703</ele>
        <time>2021-09-30T03:30:52.000Z</time>
      </trkpt>
      <trkpt lat="45.20853" lon="5.7373">
        <ele>315.20001220703</ele>
        <time>2021-09-30T03:30:55.000Z</time>
      </trkpt>
      <trkpt lat="45.20852" lon="5.7373">
        <ele>315.39999389648</ele>
        <time>2021-09-30T03:30:56.000Z</time>
      </trkpt>
      <trkpt lat="45.20852" lon="5.73728">
        <ele>316.60000610352</ele>
        <time>2021-09-30T03:30:59.000Z</time>
      </trkpt>
      <trkpt lat="45.20855" lon="5.73727">
        <ele>316.79998779297</ele>
        <time>2021-09-30T03:31:01.000Z</time>
      </trkpt>
      <trkpt lat="45.20861" lon="5.73731">
        <ele>318</ele>
        <time>2021-09-30T03:31:06.000Z</time>
      </trkpt>
      <trkpt lat="45.20862" lon="5.73732">
        <ele>318.39999389648</ele>
        <time>2021-09-30T03:31:07.000Z</time>
      </trkpt>
      <trkpt lat="45.20868" lon="5.73734">
        <ele>319.20001220703</ele>
        <time>2021-09-30T03:31:11.000Z</time>
      </trkpt>
      <trkpt lat="45.2087" lon="5.73735">
        <ele>320</ele>
        <time>2021-09-30T03:31:13.000Z</time>
      </trkpt>
      <trkpt lat="45.20871" lon="5.73736">
        <ele>320.39999389648</ele>
        <time>2021-09-30T03:31:14.000Z</time>
      </trkpt>
      <trkpt lat="45.20876" lon="5.73738">
        <ele>321.39999389648</ele>
        <time>2021-09-30T03:31:18.000Z</time>
      </trkpt>
      <trkpt lat="45.2088" lon="5.7374">
        <ele>322.60000610352</ele>
        <time>2021-09-30T03:31:22.000Z</time>
      </trkpt>
      <trkpt lat="45.20881" lon="5.7374">
        <ele>323</ele>
        <time>2021-09-30T03:31:23.000Z</time>
      </trkpt>
      <trkpt lat="45.20884" lon="5.73739">
        <ele>323.60000610352</ele>
        <time>2021-09-30T03:31:25.000Z</time>
      </trkpt>
      <trkpt lat="45.20885" lon="5.73736">
        <ele>324</ele>
        <time>2021-09-30T03:31:27.000Z</time>
      </trkpt>
      <trkpt lat="45.20884" lon="5.73733">
        <ele>324.60000610352</ele>
        <time>2021-09-30T03:31:29.000Z</time>
      </trkpt>
      <trkpt lat="45.20884" lon="5.73731">
        <ele>324.79998779297</ele>
        <time>2021-09-30T03:31:30.000Z</time>
      </trkpt>
      <trkpt lat="45.20885" lon="5.73729">
        <ele>325</ele>
        <time>2021-09-30T03:31:31.000Z</time>
      </trkpt>
      <trkpt lat="45.20886" lon="5.73727">
        <ele>325.39999389648</ele>
        <time>2021-09-30T03:31:33.000Z</time>
      </trkpt>
      <trkpt lat="45.20888" lon="5.73724">
        <ele>326.20001220703</ele>
        <time>2021-09-30T03:31:35.000Z</time>
      </trkpt>
      <trkpt lat="45.2089" lon="5.73724">
        <ele>327</ele>
        <time>2021-09-30T03:31:37.000Z</time>
      </trkpt>
      <trkpt lat="45.20891" lon="5.73723">
        <ele>327.39999389648</ele>
        <time>2021-09-30T03:31:38.000Z</time>
      </trkpt>
      <trkpt lat="45.20892" lon="5.73723">
        <ele>327.60000610352</ele>
        <time>2021-09-30T03:31:39.000Z</time>
      </trkpt>
      <trkpt lat="45.20896" lon="5.73721">
        <ele>328.60000610352</ele>
        <time>2021-09-30T03:31:42.000Z</time>
      </trkpt>
      <trkpt lat="45.20896" lon="5.7372">
        <ele>328.79998779297</ele>
        <time>2021-09-30T03:31:43.000Z</time>
      </trkpt>
      <trkpt lat="45.20897" lon="5.73718">
        <ele>329.20001220703</ele>
        <time>2021-09-30T03:31:44.000Z</time>
      </trkpt>
      <trkpt lat="45.20897" lon="5.73718">
        <ele>329.39999389648</ele>
        <time>2021-09-30T03:31:45.000Z</time>
      </trkpt>
      <trkpt lat="45.20897" lon="5.73717">
        <ele>329.79998779297</ele>
        <time>2021-09-30T03:31:46.000Z</time>
      </trkpt>
      <trkpt lat="45.20898" lon="5.73717">
        <ele>330</ele>
        <time>2021-09-30T03:31:47.000Z</time>
      </trkpt>
      <trkpt lat="45.209" lon="5.73715">
        <ele>330.79998779297</ele>
        <time>2021-09-30T03:31:49.000Z</time>
      </trkpt>
      <trkpt lat="45.20905" lon="5.73712">
        <ele>332</ele>
        <time>2021-09-30T03:31:53.000Z</time>
      </trkpt>
      <trkpt lat="45.20907" lon="5.73709">
        <ele>332.60000610352</ele>
        <time>2021-09-30T03:31:55.000Z</time>
      </trkpt>
      <trkpt lat="45.2091" lon="5.73709">
        <ele>333</ele>
        <time>2021-09-30T03:31:56.000Z</time>
      </trkpt>
      <trkpt lat="45.20913" lon="5.73709">
        <ele>334</ele>
        <time>2021-09-30T03:31:59.000Z</time>
      </trkpt>
      <trkpt lat="45.20914" lon="5.73709">
        <ele>334.39999389648</ele>
        <time>2021-09-30T03:32:00.000Z</time>
      </trkpt>
      <trkpt lat="45.20915" lon="5.73709">
        <ele>334.60000610352</ele>
        <time>2021-09-30T03:32:01.000Z</time>
      </trkpt>
      <trkpt lat="45.20919" lon="5.73711">
        <ele>335.39999389648</ele>
        <time>2021-09-30T03:32:04.000Z</time>
      </trkpt>
      <trkpt lat="45.2092" lon="5.7371">
        <ele>336</ele>
        <time>2021-09-30T03:32:05.000Z</time>
      </trkpt>
      <trkpt lat="45.2092" lon="5.73709">
        <ele>336.20001220703</ele>
        <time>2021-09-30T03:32:06.000Z</time>
      </trkpt>
      <trkpt lat="45.20921" lon="5.73708">
        <ele>336.60000610352</ele>
        <time>2021-09-30T03:32:07.000Z</time>
      </trkpt>
      <trkpt lat="45.20923" lon="5.73708">
        <ele>337.60000610352</ele>
        <time>2021-09-30T03:32:10.000Z</time>
      </trkpt>
      <trkpt lat="45.20923" lon="5.73708">
        <ele>338</ele>
        <time>2021-09-30T03:32:11.000Z</time>
      </trkpt>
      <trkpt lat="45.20923" lon="5.73708">
        <ele>338.20001220703</ele>
        <time>2021-09-30T03:32:12.000Z</time>
      </trkpt>
      <trkpt lat="45.20925" lon="5.73708">
        <ele>338.79998779297</ele>
        <time>2021-09-30T03:32:14.000Z</time>
      </trkpt>
      <trkpt lat="45.20926" lon="5.73708">
        <ele>339</ele>
        <time>2021-09-30T03:32:15.000Z</time>
      </trkpt>
      <trkpt lat="45.20926" lon="5.73708">
        <ele>339.39999389648</ele>
        <time>2021-09-30T03:32:16.000Z</time>
      </trkpt>
      <trkpt lat="45.20928" lon="5.73708">
        <ele>340.20001220703</ele>
        <time>2021-09-30T03:32:18.000Z</time>
      </trkpt>
      <trkpt lat="45.20928" lon="5.73707">
        <ele>340.39999389648</ele>
        <time>2021-09-30T03:32:19.000Z</time>
      </trkpt>
      <trkpt lat="45.20929" lon="5.73707">
        <ele>340.60000610352</ele>
        <time>2021-09-30T03:32:20.000Z</time>
      </trkpt>
      <trkpt lat="45.20931" lon="5.73708">
        <ele>341.20001220703</ele>
        <time>2021-09-30T03:32:22.000Z</time>
      </trkpt>
      <trkpt lat="45.20932" lon="5.73709">
        <ele>341.79998779297</ele>
        <time>2021-09-30T03:32:24.000Z</time>
      </trkpt>
      <trkpt lat="45.20933" lon="5.73709">
        <ele>342.60000610352</ele>
        <time>2021-09-30T03:32:26.000Z</time>
      </trkpt>
      <trkpt lat="45.20935" lon="5.73708">
        <ele>343</ele>
        <time>2021-09-30T03:32:28.000Z</time>
      </trkpt>
      <trkpt lat="45.20936" lon="5.73707">
        <ele>343.60000610352</ele>
        <time>2021-09-30T03:32:30.000Z</time>
      </trkpt>
      <trkpt lat="45.20941" lon="5.73707">
        <ele>344.79998779297</ele>
        <time>2021-09-30T03:32:33.000Z</time>
      </trkpt>
      <trkpt lat="45.20943" lon="5.73706">
        <ele>345.39999389648</ele>
        <time>2021-09-30T03:32:36.000Z</time>
      </trkpt>
      <trkpt lat="45.20943" lon="5.73704">
        <ele>345.79998779297</ele>
        <time>2021-09-30T03:32:37.000Z</time>
      </trkpt>
      <trkpt lat="45.20943" lon="5.73703">
        <ele>346.20001220703</ele>
        <time>2021-09-30T03:32:38.000Z</time>
      </trkpt>
      <trkpt lat="45.20944" lon="5.73702">
        <ele>346.39999389648</ele>
        <time>2021-09-30T03:32:39.000Z</time>
      </trkpt>
      <trkpt lat="45.20945" lon="5.737">
        <ele>346.79998779297</ele>
        <time>2021-09-30T03:32:41.000Z</time>
      </trkpt>
      <trkpt lat="45.20947" lon="5.737">
        <ele>347.39999389648</ele>
        <time>2021-09-30T03:32:43.000Z</time>
      </trkpt>
      <trkpt lat="45.20951" lon="5.73701">
        <ele>348</ele>
        <time>2021-09-30T03:32:46.000Z</time>
      </trkpt>
      <trkpt lat="45.20952" lon="5.737">
        <ele>348.39999389648</ele>
        <time>2021-09-30T03:32:47.000Z</time>
      </trkpt>
      <trkpt lat="45.20954" lon="5.73699">
        <ele>349</ele>
        <time>2021-09-30T03:32:49.000Z</time>
      </trkpt>
      <trkpt lat="45.20956" lon="5.737">
        <ele>349.39999389648</ele>
        <time>2021-09-30T03:32:50.000Z</time>
      </trkpt>
      <trkpt lat="45.20957" lon="5.737">
        <ele>349.60000610352</ele>
        <time>2021-09-30T03:32:51.000Z</time>
      </trkpt>
      <trkpt lat="45.20959" lon="5.73696">
        <ele>350.60000610352</ele>
        <time>2021-09-30T03:32:54.000Z</time>
      </trkpt>
      <trkpt lat="45.20958" lon="5.73695">
        <ele>350.79998779297</ele>
        <time>2021-09-30T03:32:55.000Z</time>
      </trkpt>
      <trkpt lat="45.2096" lon="5.7369">
        <ele>351.60000610352</ele>
        <time>2021-09-30T03:32:59.000Z</time>
      </trkpt>
      <trkpt lat="45.2096" lon="5.73689">
        <ele>352.20001220703</ele>
        <time>2021-09-30T03:33:00.000Z</time>
      </trkpt>
      <trkpt lat="45.20959" lon="5.73687">
        <ele>352.60000610352</ele>
        <time>2021-09-30T03:33:01.000Z</time>
      </trkpt>
      <trkpt lat="45.20959" lon="5.73686">
        <ele>352.79998779297</ele>
        <time>2021-09-30T03:33:02.000Z</time>
      </trkpt>
      <trkpt lat="45.20961" lon="5.73685">
        <ele>354</ele>
        <time>2021-09-30T03:33:04.000Z</time>
      </trkpt>
      <trkpt lat="45.20961" lon="5.73684">
        <ele>354.20001220703</ele>
        <time>2021-09-30T03:33:05.000Z</time>
      </trkpt>
      <trkpt lat="45.20963" lon="5.73684">
        <ele>354.79998779297</ele>
        <time>2021-09-30T03:33:07.000Z</time>
      </trkpt>
      <trkpt lat="45.20963" lon="5.73682">
        <ele>355</ele>
        <time>2021-09-30T03:33:08.000Z</time>
      </trkpt>
      <trkpt lat="45.20965" lon="5.73678">
        <ele>356</ele>
        <time>2021-09-30T03:33:12.000Z</time>
      </trkpt>
      <trkpt lat="45.20968" lon="5.73675">
        <ele>356.79998779297</ele>
        <time>2021-09-30T03:33:14.000Z</time>
      </trkpt>
      <trkpt lat="45.2097" lon="5.73671">
        <ele>357.20001220703</ele>
        <time>2021-09-30T03:33:16.000Z</time>
      </trkpt>
      <trkpt lat="45.20971" lon="5.73665">
        <ele>358.39999389648</ele>
        <time>2021-09-30T03:33:21.000Z</time>
      </trkpt>
      <trkpt lat="45.20972" lon="5.73664">
        <ele>358.79998779297</ele>
        <time>2021-09-30T03:33:22.000Z</time>
      </trkpt>
      <trkpt lat="45.20973" lon="5.73663">
        <ele>359.20001220703</ele>
        <time>2021-09-30T03:33:24.000Z</time>
      </trkpt>
      <trkpt lat="45.20973" lon="5.73663">
        <ele>359.60000610352</ele>
        <time>2021-09-30T03:33:25.000Z</time>
      </trkpt>
      <trkpt lat="45.20974" lon="5.73661">
        <ele>360</ele>
        <time>2021-09-30T03:33:27.000Z</time>
      </trkpt>
      <trkpt lat="45.20975" lon="5.73659">
        <ele>360.39999389648</ele>
        <time>2021-09-30T03:33:29.000Z</time>
      </trkpt>
      <trkpt lat="45.20976" lon="5.73658">
        <ele>360.79998779297</ele>
        <time>2021-09-30T03:33:30.000Z</time>
      </trkpt>
      <trkpt lat="45.20978" lon="5.73654">
        <ele>361.79998779297</ele>
        <time>2021-09-30T03:33:33.000Z</time>
      </trkpt>
      <trkpt lat="45.20978" lon="5.73653">
        <ele>362</ele>
        <time>2021-09-30T03:33:34.000Z</time>
      </trkpt>
      <trkpt lat="45.2098" lon="5.73648">
        <ele>363</ele>
        <time>2021-09-30T03:33:38.000Z</time>
      </trkpt>
      <trkpt lat="45.20981" lon="5.73648">
        <ele>363.79998779297</ele>
        <time>2021-09-30T03:33:41.000Z</time>
      </trkpt>
      <trkpt lat="45.20981" lon="5.73647">
        <ele>364.20001220703</ele>
        <time>2021-09-30T03:33:42.000Z</time>
      </trkpt>
      <trkpt lat="45.20982" lon="5.73646">
        <ele>364.60000610352</ele>
        <time>2021-09-30T03:33:43.000Z</time>
      </trkpt>
      <trkpt lat="45.20983" lon="5.73644">
        <ele>365.20001220703</ele>
        <time>2021-09-30T03:33:46.000Z</time>
      </trkpt>
      <trkpt lat="45.20983" lon="5.7364">
        <ele>365.79998779297</ele>
        <time>2021-09-30T03:33:49.000Z</time>
      </trkpt>
      <trkpt lat="45.20982" lon="5.73638">
        <ele>366.60000610352</ele>
        <time>2021-09-30T03:33:51.000Z</time>
      </trkpt>
      <trkpt lat="45.20986" lon="5.73636">
        <ele>367.79998779297</ele>
        <time>2021-09-30T03:33:55.000Z</time>
      </trkpt>
      <trkpt lat="45.20986" lon="5.73634">
        <ele>368</ele>
        <time>2021-09-30T03:33:56.000Z</time>
      </trkpt>
      <trkpt lat="45.20986" lon="5.7363">
        <ele>368.79998779297</ele>
        <time>2021-09-30T03:33:59.000Z</time>
      </trkpt>
      <trkpt lat="45.20986" lon="5.73629">
        <ele>369.20001220703</ele>
        <time>2021-09-30T03:34:00.000Z</time>
      </trkpt>
      <trkpt lat="45.20986" lon="5.73628">
        <ele>369.20001220703</ele>
        <time>2021-09-30T03:34:01.000Z</time>
      </trkpt>
      <trkpt lat="45.20986" lon="5.73627">
        <ele>370.20001220703</ele>
        <time>2021-09-30T03:34:03.000Z</time>
      </trkpt>
      <trkpt lat="45.20986" lon="5.73624">
        <ele>371</ele>
        <time>2021-09-30T03:34:06.000Z</time>
      </trkpt>
      <trkpt lat="45.20986" lon="5.73623">
        <ele>371.20001220703</ele>
        <time>2021-09-30T03:34:07.000Z</time>
      </trkpt>
      <trkpt lat="45.20986" lon="5.73622">
        <ele>371.79998779297</ele>
        <time>2021-09-30T03:34:08.000Z</time>
      </trkpt>
      <trkpt lat="45.20986" lon="5.73619">
        <ele>372.20001220703</ele>
        <time>2021-09-30T03:34:10.000Z</time>
      </trkpt>
      <trkpt lat="45.20987" lon="5.73615">
        <ele>373</ele>
        <time>2021-09-30T03:34:13.000Z</time>
      </trkpt>
      <trkpt lat="45.20987" lon="5.73614">
        <ele>373</ele>
        <time>2021-09-30T03:34:14.000Z</time>
      </trkpt>
      <trkpt lat="45.20988" lon="5.73612">
        <ele>373.79998779297</ele>
        <time>2021-09-30T03:34:16.000Z</time>
      </trkpt>
      <trkpt lat="45.20988" lon="5.73612">
        <ele>374.60000610352</ele>
        <time>2021-09-30T03:34:18.000Z</time>
      </trkpt>
      <trkpt lat="45.20989" lon="5.73611">
        <ele>374.79998779297</ele>
        <time>2021-09-30T03:34:19.000Z</time>
      </trkpt>
      <trkpt lat="45.20988" lon="5.73607">
        <ele>375.79998779297</ele>
        <time>2021-09-30T03:34:23.000Z</time>
      </trkpt>
      <trkpt lat="45.20989" lon="5.73606">
        <ele>376.39999389648</ele>
        <time>2021-09-30T03:34:24.000Z</time>
      </trkpt>
      <trkpt lat="45.20989" lon="5.73604">
        <ele>376.79998779297</ele>
        <time>2021-09-30T03:34:26.000Z</time>
      </trkpt>
      <trkpt lat="45.20989" lon="5.73603">
        <ele>377</ele>
        <time>2021-09-30T03:34:27.000Z</time>
      </trkpt>
      <trkpt lat="45.20987" lon="5.73599">
        <ele>377.79998779297</ele>
        <time>2021-09-30T03:34:30.000Z</time>
      </trkpt>
      <trkpt lat="45.20989" lon="5.73597">
        <ele>378.20001220703</ele>
        <time>2021-09-30T03:34:32.000Z</time>
      </trkpt>
      <trkpt lat="45.20989" lon="5.73594">
        <ele>379.20001220703</ele>
        <time>2021-09-30T03:34:35.000Z</time>
      </trkpt>
      <trkpt lat="45.20989" lon="5.73593">
        <ele>379.60000610352</ele>
        <time>2021-09-30T03:34:36.000Z</time>
      </trkpt>
      <trkpt lat="45.20991" lon="5.73589">
        <ele>380.60000610352</ele>
        <time>2021-09-30T03:34:40.000Z</time>
      </trkpt>
      <trkpt lat="45.20991" lon="5.73588">
        <ele>381</ele>
        <time>2021-09-30T03:34:41.000Z</time>
      </trkpt>
      <trkpt lat="45.20992" lon="5.73585">
        <ele>381.60000610352</ele>
        <time>2021-09-30T03:34:43.000Z</time>
      </trkpt>
      <trkpt lat="45.20994" lon="5.73578">
        <ele>382.79998779297</ele>
        <time>2021-09-30T03:34:48.000Z</time>
      </trkpt>
      <trkpt lat="45.20995" lon="5.73576">
        <ele>384.20001220703</ele>
        <time>2021-09-30T03:34:52.000Z</time>
      </trkpt>
      <trkpt lat="45.20996" lon="5.73574">
        <ele>384.79998779297</ele>
        <time>2021-09-30T03:34:54.000Z</time>
      </trkpt>
      <trkpt lat="45.20995" lon="5.73573">
        <ele>385.20001220703</ele>
        <time>2021-09-30T03:34:55.000Z</time>
      </trkpt>
      <trkpt lat="45.20995" lon="5.7357">
        <ele>386.39999389648</ele>
        <time>2021-09-30T03:34:59.000Z</time>
      </trkpt>
      <trkpt lat="45.20998" lon="5.73566">
        <ele>387.60000610352</ele>
        <time>2021-09-30T03:35:02.000Z</time>
      </trkpt>
      <trkpt lat="45.21" lon="5.73564">
        <ele>388.20001220703</ele>
        <time>2021-09-30T03:35:04.000Z</time>
      </trkpt>
      <trkpt lat="45.21" lon="5.73563">
        <ele>388.60000610352</ele>
        <time>2021-09-30T03:35:05.000Z</time>
      </trkpt>
      <trkpt lat="45.21001" lon="5.73561">
        <ele>389</ele>
        <time>2021-09-30T03:35:06.000Z</time>
      </trkpt>
      <trkpt lat="45.21" lon="5.73558">
        <ele>389.39999389648</ele>
        <time>2021-09-30T03:35:08.000Z</time>
      </trkpt>
      <trkpt lat="45.21" lon="5.73557">
        <ele>389.79998779297</ele>
        <time>2021-09-30T03:35:10.000Z</time>
      </trkpt>
      <trkpt lat="45.21002" lon="5.73555">
        <ele>390.39999389648</ele>
        <time>2021-09-30T03:35:12.000Z</time>
      </trkpt>
      <trkpt lat="45.21003" lon="5.73554">
        <ele>391</ele>
        <time>2021-09-30T03:35:13.000Z</time>
      </trkpt>
      <trkpt lat="45.21002" lon="5.73552">
        <ele>391.60000610352</ele>
        <time>2021-09-30T03:35:15.000Z</time>
      </trkpt>
      <trkpt lat="45.21003" lon="5.7355">
        <ele>392.20001220703</ele>
        <time>2021-09-30T03:35:17.000Z</time>
      </trkpt>
      <trkpt lat="45.21005" lon="5.73548">
        <ele>392.60000610352</ele>
        <time>2021-09-30T03:35:19.000Z</time>
      </trkpt>
      <trkpt lat="45.21005" lon="5.73547">
        <ele>392.79998779297</ele>
        <time>2021-09-30T03:35:20.000Z</time>
      </trkpt>
      <trkpt lat="45.21004" lon="5.73545">
        <ele>393</ele>
        <time>2021-09-30T03:35:21.000Z</time>
      </trkpt>
      <trkpt lat="45.21003" lon="5.73542">
        <ele>393.79998779297</ele>
        <time>2021-09-30T03:35:24.000Z</time>
      </trkpt>
      <trkpt lat="45.21003" lon="5.7354">
        <ele>395</ele>
        <time>2021-09-30T03:35:28.000Z</time>
      </trkpt>
      <trkpt lat="45.21003" lon="5.73538">
        <ele>395.79998779297</ele>
        <time>2021-09-30T03:35:30.000Z</time>
      </trkpt>
      <trkpt lat="45.21003" lon="5.73537">
        <ele>396</ele>
        <time>2021-09-30T03:35:31.000Z</time>
      </trkpt>
      <trkpt lat="45.21005" lon="5.73533">
        <ele>397.20001220703</ele>
        <time>2021-09-30T03:35:35.000Z</time>
      </trkpt>
      <trkpt lat="45.21005" lon="5.73531">
        <ele>397.39999389648</ele>
        <time>2021-09-30T03:35:36.000Z</time>
      </trkpt>
      <trkpt lat="45.21006" lon="5.7353">
        <ele>398.60000610352</ele>
        <time>2021-09-30T03:35:40.000Z</time>
      </trkpt>
      <trkpt lat="45.21007" lon="5.73529">
        <ele>399.39999389648</ele>
        <time>2021-09-30T03:35:42.000Z</time>
      </trkpt>
      <trkpt lat="45.21009" lon="5.73529">
        <ele>399.79998779297</ele>
        <time>2021-09-30T03:35:44.000Z</time>
      </trkpt>
      <trkpt lat="45.2101" lon="5.73526">
        <ele>400.79998779297</ele>
        <time>2021-09-30T03:35:48.000Z</time>
      </trkpt>
      <trkpt lat="45.21011" lon="5.73525">
        <ele>401.39999389648</ele>
        <time>2021-09-30T03:35:50.000Z</time>
      </trkpt>
      <trkpt lat="45.21011" lon="5.73522">
        <ele>402</ele>
        <time>2021-09-30T03:35:52.000Z</time>
      </trkpt>
      <trkpt lat="45.21012" lon="5.73518">
        <ele>403.20001220703</ele>
        <time>2021-09-30T03:35:56.000Z</time>
      </trkpt>
      <trkpt lat="45.21012" lon="5.73517">
        <ele>403.60000610352</ele>
        <time>2021-09-30T03:35:57.000Z</time>
      </trkpt>
      <trkpt lat="45.21013" lon="5.73515">
        <ele>404.39999389648</ele>
        <time>2021-09-30T03:36:00.000Z</time>
      </trkpt>
      <trkpt lat="45.21013" lon="5.73512">
        <ele>405.20001220703</ele>
        <time>2021-09-30T03:36:02.000Z</time>
      </trkpt>
      <trkpt lat="45.21013" lon="5.73511">
        <ele>405.60000610352</ele>
        <time>2021-09-30T03:36:03.000Z</time>
      </trkpt>
      <trkpt lat="45.21014" lon="5.73509">
        <ele>406.39999389648</ele>
        <time>2021-09-30T03:36:06.000Z</time>
      </trkpt>
      <trkpt lat="45.21014" lon="5.73508">
        <ele>406.79998779297</ele>
        <time>2021-09-30T03:36:08.000Z</time>
      </trkpt>
      <trkpt lat="45.21014" lon="5.73505">
        <ele>407.79998779297</ele>
        <time>2021-09-30T03:36:12.000Z</time>
      </trkpt>
      <trkpt lat="45.21015" lon="5.73503">
        <ele>408.20001220703</ele>
        <time>2021-09-30T03:36:13.000Z</time>
      </trkpt>
      <trkpt lat="45.21014" lon="5.73499">
        <ele>409.20001220703</ele>
        <time>2021-09-30T03:36:16.000Z</time>
      </trkpt>
      <trkpt lat="45.21015" lon="5.73496">
        <ele>409.79998779297</ele>
        <time>2021-09-30T03:36:19.000Z</time>
      </trkpt>
      <trkpt lat="45.21015" lon="5.73494">
        <ele>410.39999389648</ele>
        <time>2021-09-30T03:36:20.000Z</time>
      </trkpt>
      <trkpt lat="45.21016" lon="5.73489">
        <ele>411.60000610352</ele>
        <time>2021-09-30T03:36:24.000Z</time>
      </trkpt>
      <trkpt lat="45.21016" lon="5.73489">
        <ele>411.79998779297</ele>
        <time>2021-09-30T03:36:25.000Z</time>
      </trkpt>
      <trkpt lat="45.21017" lon="5.73488">
        <ele>413</ele>
        <time>2021-09-30T03:36:27.000Z</time>
      </trkpt>
      <trkpt lat="45.21018" lon="5.73486">
        <ele>414.20001220703</ele>
        <time>2021-09-30T03:36:31.000Z</time>
      </trkpt>
      <trkpt lat="45.21019" lon="5.73482">
        <ele>415.20001220703</ele>
        <time>2021-09-30T03:36:35.000Z</time>
      </trkpt>
      <trkpt lat="45.21019" lon="5.73481">
        <ele>415.60000610352</ele>
        <time>2021-09-30T03:36:36.000Z</time>
      </trkpt>
      <trkpt lat="45.21019" lon="5.7348">
        <ele>415.79998779297</ele>
        <time>2021-09-30T03:36:37.000Z</time>
      </trkpt>
      <trkpt lat="45.21019" lon="5.7348">
        <ele>416.20001220703</ele>
        <time>2021-09-30T03:36:39.000Z</time>
      </trkpt>
      <trkpt lat="45.21019" lon="5.7348">
        <ele>416.60000610352</ele>
        <time>2021-09-30T03:36:40.000Z</time>
      </trkpt>
      <trkpt lat="45.21019" lon="5.73476">
        <ele>417.79998779297</ele>
        <time>2021-09-30T03:36:43.000Z</time>
      </trkpt>
      <trkpt lat="45.21019" lon="5.73474">
        <ele>418.79998779297</ele>
        <time>2021-09-30T03:36:46.000Z</time>
      </trkpt>
      <trkpt lat="45.2102" lon="5.73474">
        <ele>419.79998779297</ele>
        <time>2021-09-30T03:36:48.000Z</time>
      </trkpt>
      <trkpt lat="45.21019" lon="5.73474">
        <ele>420</ele>
        <time>2021-09-30T03:36:49.000Z</time>
      </trkpt>
      <trkpt lat="45.21019" lon="5.73473">
        <ele>420.39999389648</ele>
        <time>2021-09-30T03:36:50.000Z</time>
      </trkpt>
      <trkpt lat="45.21018" lon="5.7347">
        <ele>421.39999389648</ele>
        <time>2021-09-30T03:36:53.000Z</time>
      </trkpt>
      <trkpt lat="45.21016" lon="5.73467">
        <ele>422.39999389648</ele>
        <time>2021-09-30T03:36:57.000Z</time>
      </trkpt>
      <trkpt lat="45.21017" lon="5.73467">
        <ele>423.39999389648</ele>
        <time>2021-09-30T03:37:01.000Z</time>
      </trkpt>
      <trkpt lat="45.21016" lon="5.73466">
        <ele>424.20001220703</ele>
        <time>2021-09-30T03:37:03.000Z</time>
      </trkpt>
      <trkpt lat="45.21016" lon="5.73464">
        <ele>424.60000610352</ele>
        <time>2021-09-30T03:37:04.000Z</time>
      </trkpt>
      <trkpt lat="45.21015" lon="5.73462">
        <ele>426</ele>
        <time>2021-09-30T03:37:07.000Z</time>
      </trkpt>
      <trkpt lat="45.21014" lon="5.73463">
        <ele>426.20001220703</ele>
        <time>2021-09-30T03:37:08.000Z</time>
      </trkpt>
      <trkpt lat="45.21013" lon="5.73463">
        <ele>427</ele>
        <time>2021-09-30T03:37:10.000Z</time>
      </trkpt>
      <trkpt lat="45.21011" lon="5.73464">
        <ele>428.20001220703</ele>
        <time>2021-09-30T03:37:13.000Z</time>
      </trkpt>
      <trkpt lat="45.21008" lon="5.73464">
        <ele>429.20001220703</ele>
        <time>2021-09-30T03:37:17.000Z</time>
      </trkpt>
      <trkpt lat="45.21007" lon="5.73463">
        <ele>429.60000610352</ele>
        <time>2021-09-30T03:37:18.000Z</time>
      </trkpt>
      <trkpt lat="45.21005" lon="5.7346">
        <ele>430.39999389648</ele>
        <time>2021-09-30T03:37:21.000Z</time>
      </trkpt>
      <trkpt lat="45.21004" lon="5.73457">
        <ele>431.39999389648</ele>
        <time>2021-09-30T03:37:24.000Z</time>
      </trkpt>
      <trkpt lat="45.21001" lon="5.73457">
        <ele>432.60000610352</ele>
        <time>2021-09-30T03:37:28.000Z</time>
      </trkpt>
      <trkpt lat="45.21" lon="5.73456">
        <ele>433</ele>
        <time>2021-09-30T03:37:29.000Z</time>
      </trkpt>
      <trkpt lat="45.20998" lon="5.73454">
        <ele>433.60000610352</ele>
        <time>2021-09-30T03:37:31.000Z</time>
      </trkpt>
      <trkpt lat="45.20994" lon="5.73452">
        <ele>434.60000610352</ele>
        <time>2021-09-30T03:37:35.000Z</time>
      </trkpt>
      <trkpt lat="45.20993" lon="5.73451">
        <ele>434.79998779297</ele>
        <time>2021-09-30T03:37:36.000Z</time>
      </trkpt>
      <trkpt lat="45.2099" lon="5.73449">
        <ele>436</ele>
        <time>2021-09-30T03:37:39.000Z</time>
      </trkpt>
      <trkpt lat="45.20987" lon="5.73448">
        <ele>436.60000610352</ele>
        <time>2021-09-30T03:37:42.000Z</time>
      </trkpt>
      <trkpt lat="45.20985" lon="5.73447">
        <ele>437.20001220703</ele>
        <time>2021-09-30T03:37:45.000Z</time>
      </trkpt>
      <trkpt lat="45.20983" lon="5.73446">
        <ele>438.20001220703</ele>
        <time>2021-09-30T03:37:47.000Z</time>
      </trkpt>
      <trkpt lat="45.20982" lon="5.73445">
        <ele>438.20001220703</ele>
        <time>2021-09-30T03:37:48.000Z</time>
      </trkpt>
      <trkpt lat="45.20979" lon="5.73441">
        <ele>439.60000610352</ele>
        <time>2021-09-30T03:37:53.000Z</time>
      </trkpt>
      <trkpt lat="45.20978" lon="5.73438">
        <ele>440.79998779297</ele>
        <time>2021-09-30T03:37:56.000Z</time>
      </trkpt>
      <trkpt lat="45.20976" lon="5.73436">
        <ele>441.39999389648</ele>
        <time>2021-09-30T03:37:58.000Z</time>
      </trkpt>
      <trkpt lat="45.20975" lon="5.73435">
        <ele>441.60000610352</ele>
        <time>2021-09-30T03:37:59.000Z</time>
      </trkpt>
      <trkpt lat="45.20974" lon="5.73435">
        <ele>441.79998779297</ele>
        <time>2021-09-30T03:38:00.000Z</time>
      </trkpt>
      <trkpt lat="45.20972" lon="5.73432">
        <ele>442.79998779297</ele>
        <time>2021-09-30T03:38:04.000Z</time>
      </trkpt>
      <trkpt lat="45.2097" lon="5.73432">
        <ele>444.20001220703</ele>
        <time>2021-09-30T03:38:07.000Z</time>
      </trkpt>
      <trkpt lat="45.20968" lon="5.7343">
        <ele>444.79998779297</ele>
        <time>2021-09-30T03:38:09.000Z</time>
      </trkpt>
      <trkpt lat="45.20966" lon="5.73428">
        <ele>445.20001220703</ele>
        <time>2021-09-30T03:38:11.000Z</time>
      </trkpt>
      <trkpt lat="45.20965" lon="5.73427">
        <ele>445.39999389648</ele>
        <time>2021-09-30T03:38:12.000Z</time>
      </trkpt>
      <trkpt lat="45.20965" lon="5.73426">
        <ele>445.79998779297</ele>
        <time>2021-09-30T03:38:14.000Z</time>
      </trkpt>
      <trkpt lat="45.20965" lon="5.73425">
        <ele>446.39999389648</ele>
        <time>2021-09-30T03:38:15.000Z</time>
      </trkpt>
      <trkpt lat="45.20964" lon="5.73423">
        <ele>446.79998779297</ele>
        <time>2021-09-30T03:38:16.000Z</time>
      </trkpt>
      <trkpt lat="45.20962" lon="5.73419">
        <ele>447.60000610352</ele>
        <time>2021-09-30T03:38:18.000Z</time>
      </trkpt>
      <trkpt lat="45.20961" lon="5.73418">
        <ele>448.20001220703</ele>
        <time>2021-09-30T03:38:20.000Z</time>
      </trkpt>
      <trkpt lat="45.20959" lon="5.73416">
        <ele>448.60000610352</ele>
        <time>2021-09-30T03:38:22.000Z</time>
      </trkpt>
      <trkpt lat="45.20959" lon="5.73412">
        <ele>449.60000610352</ele>
        <time>2021-09-30T03:38:24.000Z</time>
      </trkpt>
      <trkpt lat="45.20958" lon="5.73409">
        <ele>450</ele>
        <time>2021-09-30T03:38:26.000Z</time>
      </trkpt>
      <trkpt lat="45.20958" lon="5.73407">
        <ele>450.79998779297</ele>
        <time>2021-09-30T03:38:28.000Z</time>
      </trkpt>
      <trkpt lat="45.20958" lon="5.73406">
        <ele>451.60000610352</ele>
        <time>2021-09-30T03:38:30.000Z</time>
      </trkpt>
      <trkpt lat="45.20958" lon="5.73404">
        <ele>451.79998779297</ele>
        <time>2021-09-30T03:38:31.000Z</time>
      </trkpt>
      <trkpt lat="45.20958" lon="5.73404">
        <ele>452</ele>
        <time>2021-09-30T03:38:32.000Z</time>
      </trkpt>
      <trkpt lat="45.20958" lon="5.73404">
        <ele>452.39999389648</ele>
        <time>2021-09-30T03:38:33.000Z</time>
      </trkpt>
      <trkpt lat="45.20957" lon="5.73403">
        <ele>453.20001220703</ele>
        <time>2021-09-30T03:38:35.000Z</time>
      </trkpt>
      <trkpt lat="45.20956" lon="5.73402">
        <ele>453.60000610352</ele>
        <time>2021-09-30T03:38:36.000Z</time>
      </trkpt>
      <trkpt lat="45.20953" lon="5.734">
        <ele>454.39999389648</ele>
        <time>2021-09-30T03:38:39.000Z</time>
      </trkpt>
      <trkpt lat="45.20953" lon="5.73396">
        <ele>455.60000610352</ele>
        <time>2021-09-30T03:38:42.000Z</time>
      </trkpt>
      <trkpt lat="45.20952" lon="5.73396">
        <ele>455.79998779297</ele>
        <time>2021-09-30T03:38:43.000Z</time>
      </trkpt>
      <trkpt lat="45.20951" lon="5.73395">
        <ele>456</ele>
        <time>2021-09-30T03:38:45.000Z</time>
      </trkpt>
      <trkpt lat="45.20947" lon="5.73395">
        <ele>455.79998779297</ele>
        <time>2021-09-30T03:38:48.000Z</time>
      </trkpt>
      <trkpt lat="45.20946" lon="5.73394">
        <ele>455.60000610352</ele>
        <time>2021-09-30T03:38:49.000Z</time>
      </trkpt>
      <trkpt lat="45.20943" lon="5.73391">
        <ele>455.20001220703</ele>
        <time>2021-09-30T03:38:51.000Z</time>
      </trkpt>
      <trkpt lat="45.20941" lon="5.73391">
        <ele>455.20001220703</ele>
        <time>2021-09-30T03:38:52.000Z</time>
      </trkpt>
      <trkpt lat="45.20938" lon="5.7339">
        <ele>455</ele>
        <time>2021-09-30T03:38:53.000Z</time>
      </trkpt>
      <trkpt lat="45.20933" lon="5.73388">
        <ele>455.20001220703</ele>
        <time>2021-09-30T03:38:57.000Z</time>
      </trkpt>
      <trkpt lat="45.20929" lon="5.73384">
        <ele>456.39999389648</ele>
        <time>2021-09-30T03:39:01.000Z</time>
      </trkpt>
      <trkpt lat="45.20928" lon="5.73384">
        <ele>456.60000610352</ele>
        <time>2021-09-30T03:39:02.000Z</time>
      </trkpt>
      <trkpt lat="45.20927" lon="5.73382">
        <ele>456.79998779297</ele>
        <time>2021-09-30T03:39:03.000Z</time>
      </trkpt>
      <trkpt lat="45.20926" lon="5.73378">
        <ele>457.79998779297</ele>
        <time>2021-09-30T03:39:06.000Z</time>
      </trkpt>
      <trkpt lat="45.20924" lon="5.73377">
        <ele>458.39999389648</ele>
        <time>2021-09-30T03:39:08.000Z</time>
      </trkpt>
      <trkpt lat="45.20923" lon="5.73376">
        <ele>458.79998779297</ele>
        <time>2021-09-30T03:39:10.000Z</time>
      </trkpt>
      <trkpt lat="45.2092" lon="5.73373">
        <ele>460</ele>
        <time>2021-09-30T03:39:14.000Z</time>
      </trkpt>
      <trkpt lat="45.20919" lon="5.73372">
        <ele>460.39999389648</ele>
        <time>2021-09-30T03:39:15.000Z</time>
      </trkpt>
      <trkpt lat="45.20919" lon="5.7337">
        <ele>461</ele>
        <time>2021-09-30T03:39:17.000Z</time>
      </trkpt>
      <trkpt lat="45.20917" lon="5.7337">
        <ele>461.60000610352</ele>
        <time>2021-09-30T03:39:20.000Z</time>
      </trkpt>
      <trkpt lat="45.20917" lon="5.73369">
        <ele>462.20001220703</ele>
        <time>2021-09-30T03:39:21.000Z</time>
      </trkpt>
      <trkpt lat="45.20916" lon="5.73368">
        <ele>462.79998779297</ele>
        <time>2021-09-30T03:39:23.000Z</time>
      </trkpt>
      <trkpt lat="45.20915" lon="5.73367">
        <ele>463.20001220703</ele>
        <time>2021-09-30T03:39:24.000Z</time>
      </trkpt>
      <trkpt lat="45.20915" lon="5.73367">
        <ele>463.60000610352</ele>
        <time>2021-09-30T03:39:26.000Z</time>
      </trkpt>
      <trkpt lat="45.20914" lon="5.73366">
        <ele>464.39999389648</ele>
        <time>2021-09-30T03:39:28.000Z</time>
      </trkpt>
      <trkpt lat="45.20913" lon="5.73364">
        <ele>465.60000610352</ele>
        <time>2021-09-30T03:39:32.000Z</time>
      </trkpt>
      <trkpt lat="45.20912" lon="5.73364">
        <ele>466.20001220703</ele>
        <time>2021-09-30T03:39:33.000Z</time>
      </trkpt>
      <trkpt lat="45.20911" lon="5.73364">
        <ele>467</ele>
        <time>2021-09-30T03:39:35.000Z</time>
      </trkpt>
      <trkpt lat="45.2091" lon="5.73364">
        <ele>467.39999389648</ele>
        <time>2021-09-30T03:39:36.000Z</time>
      </trkpt>
      <trkpt lat="45.20908" lon="5.73361">
        <ele>467.79998779297</ele>
        <time>2021-09-30T03:39:38.000Z</time>
      </trkpt>
      <trkpt lat="45.20907" lon="5.7336">
        <ele>468.20001220703</ele>
        <time>2021-09-30T03:39:40.000Z</time>
      </trkpt>
      <trkpt lat="45.20903" lon="5.73359">
        <ele>469.60000610352</ele>
        <time>2021-09-30T03:39:43.000Z</time>
      </trkpt>
      <trkpt lat="45.20902" lon="5.73358">
        <ele>470.20001220703</ele>
        <time>2021-09-30T03:39:45.000Z</time>
      </trkpt>
      <trkpt lat="45.20899" lon="5.73356">
        <ele>470.79998779297</ele>
        <time>2021-09-30T03:39:48.000Z</time>
      </trkpt>
      <trkpt lat="45.20897" lon="5.73354">
        <ele>471.60000610352</ele>
        <time>2021-09-30T03:39:51.000Z</time>
      </trkpt>
      <trkpt lat="45.20896" lon="5.73354">
        <ele>472</ele>
        <time>2021-09-30T03:39:52.000Z</time>
      </trkpt>
      <trkpt lat="45.20894" lon="5.73354">
        <ele>472.79998779297</ele>
        <time>2021-09-30T03:39:56.000Z</time>
      </trkpt>
      <trkpt lat="45.20893" lon="5.73354">
        <ele>473</ele>
        <time>2021-09-30T03:39:57.000Z</time>
      </trkpt>
      <trkpt lat="45.2089" lon="5.73352">
        <ele>474.20001220703</ele>
        <time>2021-09-30T03:40:00.000Z</time>
      </trkpt>
      <trkpt lat="45.20889" lon="5.73352">
        <ele>474.60000610352</ele>
        <time>2021-09-30T03:40:01.000Z</time>
      </trkpt>
      <trkpt lat="45.20886" lon="5.73352">
        <ele>475.39999389648</ele>
        <time>2021-09-30T03:40:05.000Z</time>
      </trkpt>
      <trkpt lat="45.20883" lon="5.73351">
        <ele>476.79998779297</ele>
        <time>2021-09-30T03:40:10.000Z</time>
      </trkpt>
      <trkpt lat="45.20881" lon="5.73351">
        <ele>477.20001220703</ele>
        <time>2021-09-30T03:40:12.000Z</time>
      </trkpt>
      <trkpt lat="45.2088" lon="5.73352">
        <ele>478.20001220703</ele>
        <time>2021-09-30T03:40:15.000Z</time>
      </trkpt>
      <trkpt lat="45.20878" lon="5.73354">
        <ele>478.79998779297</ele>
        <time>2021-09-30T03:40:18.000Z</time>
      </trkpt>
      <trkpt lat="45.20877" lon="5.73353">
        <ele>479.20001220703</ele>
        <time>2021-09-30T03:40:19.000Z</time>
      </trkpt>
      <trkpt lat="45.20874" lon="5.73349">
        <ele>480</ele>
        <time>2021-09-30T03:40:23.000Z</time>
      </trkpt>
      <trkpt lat="45.20873" lon="5.73349">
        <ele>480.20001220703</ele>
        <time>2021-09-30T03:40:24.000Z</time>
      </trkpt>
      <trkpt lat="45.20871" lon="5.73348">
        <ele>481.39999389648</ele>
        <time>2021-09-30T03:40:27.000Z</time>
      </trkpt>
      <trkpt lat="45.20869" lon="5.73347">
        <ele>481.79998779297</ele>
        <time>2021-09-30T03:40:29.000Z</time>
      </trkpt>
      <trkpt lat="45.20869" lon="5.73346">
        <ele>482.39999389648</ele>
        <time>2021-09-30T03:40:31.000Z</time>
      </trkpt>
      <trkpt lat="45.20867" lon="5.73344">
        <ele>483.60000610352</ele>
        <time>2021-09-30T03:40:35.000Z</time>
      </trkpt>
      <trkpt lat="45.20865" lon="5.73339">
        <ele>485</ele>
        <time>2021-09-30T03:40:39.000Z</time>
      </trkpt>
      <trkpt lat="45.20863" lon="5.73333">
        <ele>485.60000610352</ele>
        <time>2021-09-30T03:40:42.000Z</time>
      </trkpt>
      <trkpt lat="45.20862" lon="5.7333">
        <ele>486.20001220703</ele>
        <time>2021-09-30T03:40:44.000Z</time>
      </trkpt>
      <trkpt lat="45.20861" lon="5.73325">
        <ele>486.39999389648</ele>
        <time>2021-09-30T03:40:46.000Z</time>
      </trkpt>
      <trkpt lat="45.20861" lon="5.7332">
        <ele>487.20001220703</ele>
        <time>2021-09-30T03:40:49.000Z</time>
      </trkpt>
      <trkpt lat="45.2086" lon="5.73318">
        <ele>487.60000610352</ele>
        <time>2021-09-30T03:40:51.000Z</time>
      </trkpt>
      <trkpt lat="45.20858" lon="5.73313">
        <ele>488.60000610352</ele>
        <time>2021-09-30T03:40:55.000Z</time>
      </trkpt>
      <trkpt lat="45.20858" lon="5.73312">
        <ele>488.79998779297</ele>
        <time>2021-09-30T03:40:56.000Z</time>
      </trkpt>
      <trkpt lat="45.20858" lon="5.73311">
        <ele>489</ele>
        <time>2021-09-30T03:40:57.000Z</time>
      </trkpt>
      <trkpt lat="45.20858" lon="5.73309">
        <ele>489.20001220703</ele>
        <time>2021-09-30T03:40:59.000Z</time>
      </trkpt>
      <trkpt lat="45.2086" lon="5.73308">
        <ele>489.60000610352</ele>
        <time>2021-09-30T03:41:01.000Z</time>
      </trkpt>
      <trkpt lat="45.20862" lon="5.73308">
        <ele>489.79998779297</ele>
        <time>2021-09-30T03:41:02.000Z</time>
      </trkpt>
      <trkpt lat="45.20865" lon="5.7331">
        <ele>490.39999389648</ele>
        <time>2021-09-30T03:41:04.000Z</time>
      </trkpt>
      <trkpt lat="45.20866" lon="5.7331">
        <ele>490.79998779297</ele>
        <time>2021-09-30T03:41:05.000Z</time>
      </trkpt>
      <trkpt lat="45.20868" lon="5.73309">
        <ele>491.39999389648</ele>
        <time>2021-09-30T03:41:07.000Z</time>
      </trkpt>
      <trkpt lat="45.20869" lon="5.73308">
        <ele>491.39999389648</ele>
        <time>2021-09-30T03:41:08.000Z</time>
      </trkpt>
      <trkpt lat="45.20872" lon="5.73309">
        <ele>492.20001220703</ele>
        <time>2021-09-30T03:41:10.000Z</time>
      </trkpt>
      <trkpt lat="45.20876" lon="5.7331">
        <ele>493</ele>
        <time>2021-09-30T03:41:14.000Z</time>
      </trkpt>
      <trkpt lat="45.20878" lon="5.7331">
        <ele>493.39999389648</ele>
        <time>2021-09-30T03:41:16.000Z</time>
      </trkpt>
      <trkpt lat="45.20883" lon="5.73309">
        <ele>494.20001220703</ele>
        <time>2021-09-30T03:41:20.000Z</time>
      </trkpt>
      <trkpt lat="45.20884" lon="5.7331">
        <ele>494.60000610352</ele>
        <time>2021-09-30T03:41:21.000Z</time>
      </trkpt>
      <trkpt lat="45.20885" lon="5.7331">
        <ele>494.79998779297</ele>
        <time>2021-09-30T03:41:22.000Z</time>
      </trkpt>
      <trkpt lat="45.20887" lon="5.7331">
        <ele>494.79998779297</ele>
        <time>2021-09-30T03:41:23.000Z</time>
      </trkpt>
      <trkpt lat="45.20889" lon="5.73309">
        <ele>495.20001220703</ele>
        <time>2021-09-30T03:41:25.000Z</time>
      </trkpt>
      <trkpt lat="45.20891" lon="5.73309">
        <ele>495.60000610352</ele>
        <time>2021-09-30T03:41:26.000Z</time>
      </trkpt>
      <trkpt lat="45.20895" lon="5.73306">
        <ele>496.79998779297</ele>
        <time>2021-09-30T03:41:30.000Z</time>
      </trkpt>
      <trkpt lat="45.20897" lon="5.73305">
        <ele>497</ele>
        <time>2021-09-30T03:41:31.000Z</time>
      </trkpt>
      <trkpt lat="45.20898" lon="5.73304">
        <ele>497.20001220703</ele>
        <time>2021-09-30T03:41:32.000Z</time>
      </trkpt>
      <trkpt lat="45.20899" lon="5.73304">
        <ele>497.39999389648</ele>
        <time>2021-09-30T03:41:33.000Z</time>
      </trkpt>
      <trkpt lat="45.20903" lon="5.73303">
        <ele>498</ele>
        <time>2021-09-30T03:41:35.000Z</time>
      </trkpt>
      <trkpt lat="45.20907" lon="5.73303">
        <ele>498.39999389648</ele>
        <time>2021-09-30T03:41:37.000Z</time>
      </trkpt>
      <trkpt lat="45.2091" lon="5.73303">
        <ele>498.79998779297</ele>
        <time>2021-09-30T03:41:39.000Z</time>
      </trkpt>
      <trkpt lat="45.20911" lon="5.73302">
        <ele>499</ele>
        <time>2021-09-30T03:41:40.000Z</time>
      </trkpt>
      <trkpt lat="45.20916" lon="5.73302">
        <ele>499.79998779297</ele>
        <time>2021-09-30T03:41:44.000Z</time>
      </trkpt>
      <trkpt lat="45.20917" lon="5.73302">
        <ele>500.20001220703</ele>
        <time>2021-09-30T03:41:45.000Z</time>
      </trkpt>
      <trkpt lat="45.20918" lon="5.73302">
        <ele>500.60000610352</ele>
        <time>2021-09-30T03:41:46.000Z</time>
      </trkpt>
      <trkpt lat="45.20921" lon="5.73302">
        <ele>501.39999389648</ele>
        <time>2021-09-30T03:41:49.000Z</time>
      </trkpt>
      <trkpt lat="45.20922" lon="5.73302">
        <ele>501.60000610352</ele>
        <time>2021-09-30T03:41:50.000Z</time>
      </trkpt>
      <trkpt lat="45.20926" lon="5.73303">
        <ele>502.20001220703</ele>
        <time>2021-09-30T03:41:53.000Z</time>
      </trkpt>
      <trkpt lat="45.20927" lon="5.73304">
        <ele>502.39999389648</ele>
        <time>2021-09-30T03:41:54.000Z</time>
      </trkpt>
      <trkpt lat="45.20928" lon="5.73305">
        <ele>502.60000610352</ele>
        <time>2021-09-30T03:41:55.000Z</time>
      </trkpt>
      <trkpt lat="45.20929" lon="5.73305">
        <ele>502.79998779297</ele>
        <time>2021-09-30T03:41:56.000Z</time>
      </trkpt>
      <trkpt lat="45.20931" lon="5.73306">
        <ele>503.39999389648</ele>
        <time>2021-09-30T03:41:58.000Z</time>
      </trkpt>
      <trkpt lat="45.20936" lon="5.73306">
        <ele>504</ele>
        <time>2021-09-30T03:42:00.000Z</time>
      </trkpt>
      <trkpt lat="45.20944" lon="5.73308">
        <ele>505</ele>
        <time>2021-09-30T03:42:04.000Z</time>
      </trkpt>
      <trkpt lat="45.20951" lon="5.73307">
        <ele>506.20001220703</ele>
        <time>2021-09-30T03:42:09.000Z</time>
      </trkpt>
      <trkpt lat="45.20955" lon="5.73306">
        <ele>506.79998779297</ele>
        <time>2021-09-30T03:42:12.000Z</time>
      </trkpt>
      <trkpt lat="45.20956" lon="5.73305">
        <ele>507.20001220703</ele>
        <time>2021-09-30T03:42:13.000Z</time>
      </trkpt>
      <trkpt lat="45.2096" lon="5.73305">
        <ele>508</ele>
        <time>2021-09-30T03:42:16.000Z</time>
      </trkpt>
      <trkpt lat="45.20962" lon="5.73305">
        <ele>508.20001220703</ele>
        <time>2021-09-30T03:42:17.000Z</time>
      </trkpt>
      <trkpt lat="45.20965" lon="5.73304">
        <ele>508.39999389648</ele>
        <time>2021-09-30T03:42:18.000Z</time>
      </trkpt>
      <trkpt lat="45.2097" lon="5.73302">
        <ele>508.79998779297</ele>
        <time>2021-09-30T03:42:20.000Z</time>
      </trkpt>
      <trkpt lat="45.20973" lon="5.73299">
        <ele>509.20001220703</ele>
        <time>2021-09-30T03:42:22.000Z</time>
      </trkpt>
      <trkpt lat="45.20974" lon="5.73299">
        <ele>509.60000610352</ele>
        <time>2021-09-30T03:42:23.000Z</time>
      </trkpt>
      <trkpt lat="45.20976" lon="5.73299">
        <ele>509.79998779297</ele>
        <time>2021-09-30T03:42:24.000Z</time>
      </trkpt>
      <trkpt lat="45.20977" lon="5.73299">
        <ele>510</ele>
        <time>2021-09-30T03:42:25.000Z</time>
      </trkpt>
      <trkpt lat="45.20979" lon="5.73299">
        <ele>510.39999389648</ele>
        <time>2021-09-30T03:42:26.000Z</time>
      </trkpt>
      <trkpt lat="45.20981" lon="5.73299">
        <ele>510.60000610352</ele>
        <time>2021-09-30T03:42:27.000Z</time>
      </trkpt>
      <trkpt lat="45.20983" lon="5.733">
        <ele>511</ele>
        <time>2021-09-30T03:42:29.000Z</time>
      </trkpt>
      <trkpt lat="45.20985" lon="5.733">
        <ele>511.60000610352</ele>
        <time>2021-09-30T03:42:30.000Z</time>
      </trkpt>
      <trkpt lat="45.20986" lon="5.73299">
        <ele>512</ele>
        <time>2021-09-30T03:42:31.000Z</time>
      </trkpt>
      <trkpt lat="45.20991" lon="5.73297">
        <ele>512.79998779297</ele>
        <time>2021-09-30T03:42:34.000Z</time>
      </trkpt>
      <trkpt lat="45.20994" lon="5.73296">
        <ele>513.20001220703</ele>
        <time>2021-09-30T03:42:36.000Z</time>
      </trkpt>
      <trkpt lat="45.20994" lon="5.73295">
        <ele>513.79998779297</ele>
        <time>2021-09-30T03:42:38.000Z</time>
      </trkpt>
      <trkpt lat="45.20992" lon="5.73297">
        <ele>514.59997558594</ele>
        <time>2021-09-30T03:42:40.000Z</time>
      </trkpt>
      <trkpt lat="45.2099" lon="5.73298">
        <ele>514.79998779297</ele>
        <time>2021-09-30T03:42:41.000Z</time>
      </trkpt>
      <trkpt lat="45.20987" lon="5.73297">
        <ele>515.20001220703</ele>
        <time>2021-09-30T03:42:44.000Z</time>
      </trkpt>
      <trkpt lat="45.20985" lon="5.73294">
        <ele>516</ele>
        <time>2021-09-30T03:42:46.000Z</time>
      </trkpt>
      <trkpt lat="45.20981" lon="5.73294">
        <ele>516.79998779297</ele>
        <time>2021-09-30T03:42:49.000Z</time>
      </trkpt>
      <trkpt lat="45.20979" lon="5.73294">
        <ele>517</ele>
        <time>2021-09-30T03:42:51.000Z</time>
      </trkpt>
      <trkpt lat="45.20975" lon="5.73293">
        <ele>517.59997558594</ele>
        <time>2021-09-30T03:42:54.000Z</time>
      </trkpt>
      <trkpt lat="45.20973" lon="5.73292">
        <ele>518.20001220703</ele>
        <time>2021-09-30T03:42:56.000Z</time>
      </trkpt>
      <trkpt lat="45.20966" lon="5.73292">
        <ele>519.59997558594</ele>
        <time>2021-09-30T03:43:01.000Z</time>
      </trkpt>
      <trkpt lat="45.20963" lon="5.73295">
        <ele>520.20001220703</ele>
        <time>2021-09-30T03:43:04.000Z</time>
      </trkpt>
      <trkpt lat="45.20961" lon="5.73296">
        <ele>520.79998779297</ele>
        <time>2021-09-30T03:43:06.000Z</time>
      </trkpt>
      <trkpt lat="45.20959" lon="5.73297">
        <ele>521.20001220703</ele>
        <time>2021-09-30T03:43:07.000Z</time>
      </trkpt>
      <trkpt lat="45.20958" lon="5.73298">
        <ele>521.40002441406</ele>
        <time>2021-09-30T03:43:08.000Z</time>
      </trkpt>
      <trkpt lat="45.20954" lon="5.733">
        <ele>521.79998779297</ele>
        <time>2021-09-30T03:43:11.000Z</time>
      </trkpt>
      <trkpt lat="45.20951" lon="5.73298">
        <ele>522.59997558594</ele>
        <time>2021-09-30T03:43:13.000Z</time>
      </trkpt>
      <trkpt lat="45.20948" lon="5.73294">
        <ele>523</ele>
        <time>2021-09-30T03:43:15.000Z</time>
      </trkpt>
      <trkpt lat="45.20944" lon="5.73285">
        <ele>523.79998779297</ele>
        <time>2021-09-30T03:43:19.000Z</time>
      </trkpt>
      <trkpt lat="45.20942" lon="5.73283">
        <ele>524</ele>
        <time>2021-09-30T03:43:20.000Z</time>
      </trkpt>
      <trkpt lat="45.20941" lon="5.73281">
        <ele>524.20001220703</ele>
        <time>2021-09-30T03:43:21.000Z</time>
      </trkpt>
      <trkpt lat="45.20937" lon="5.73276">
        <ele>525.20001220703</ele>
        <time>2021-09-30T03:43:24.000Z</time>
      </trkpt>
      <trkpt lat="45.20932" lon="5.7327">
        <ele>526.20001220703</ele>
        <time>2021-09-30T03:43:29.000Z</time>
      </trkpt>
      <trkpt lat="45.20928" lon="5.73268">
        <ele>527</ele>
        <time>2021-09-30T03:43:32.000Z</time>
      </trkpt>
      <trkpt lat="45.20925" lon="5.73266">
        <ele>527.40002441406</ele>
        <time>2021-09-30T03:43:34.000Z</time>
      </trkpt>
      <trkpt lat="45.20923" lon="5.73264">
        <ele>527.40002441406</ele>
        <time>2021-09-30T03:43:35.000Z</time>
      </trkpt>
      <trkpt lat="45.2092" lon="5.73262">
        <ele>528.20001220703</ele>
        <time>2021-09-30T03:43:37.000Z</time>
      </trkpt>
      <trkpt lat="45.20919" lon="5.73261">
        <ele>528.59997558594</ele>
        <time>2021-09-30T03:43:38.000Z</time>
      </trkpt>
      <trkpt lat="45.20916" lon="5.73256">
        <ele>529.59997558594</ele>
        <time>2021-09-30T03:43:43.000Z</time>
      </trkpt>
      <trkpt lat="45.20917" lon="5.73256">
        <ele>529.79998779297</ele>
        <time>2021-09-30T03:43:44.000Z</time>
      </trkpt>
      <trkpt lat="45.20918" lon="5.73255">
        <ele>530.59997558594</ele>
        <time>2021-09-30T03:43:46.000Z</time>
      </trkpt>
      <trkpt lat="45.20919" lon="5.73255">
        <ele>530.79998779297</ele>
        <time>2021-09-30T03:43:47.000Z</time>
      </trkpt>
      <trkpt lat="45.20925" lon="5.73256">
        <ele>531.59997558594</ele>
        <time>2021-09-30T03:43:50.000Z</time>
      </trkpt>
      <trkpt lat="45.20928" lon="5.73256">
        <ele>532</ele>
        <time>2021-09-30T03:43:52.000Z</time>
      </trkpt>
      <trkpt lat="45.20929" lon="5.73256">
        <ele>532.20001220703</ele>
        <time>2021-09-30T03:43:53.000Z</time>
      </trkpt>
      <trkpt lat="45.20936" lon="5.73255">
        <ele>533.20001220703</ele>
        <time>2021-09-30T03:43:58.000Z</time>
      </trkpt>
      <trkpt lat="45.20937" lon="5.73256">
        <ele>533.20001220703</ele>
        <time>2021-09-30T03:43:59.000Z</time>
      </trkpt>
      <trkpt lat="45.20939" lon="5.73258">
        <ele>534.20001220703</ele>
        <time>2021-09-30T03:44:03.000Z</time>
      </trkpt>
      <trkpt lat="45.20941" lon="5.73258">
        <ele>534.20001220703</ele>
        <time>2021-09-30T03:44:04.000Z</time>
      </trkpt>
      <trkpt lat="45.20946" lon="5.7326">
        <ele>535.20001220703</ele>
        <time>2021-09-30T03:44:08.000Z</time>
      </trkpt>
      <trkpt lat="45.20949" lon="5.7326">
        <ele>535.79998779297</ele>
        <time>2021-09-30T03:44:11.000Z</time>
      </trkpt>
      <trkpt lat="45.2095" lon="5.73259">
        <ele>536.40002441406</ele>
        <time>2021-09-30T03:44:12.000Z</time>
      </trkpt>
      <trkpt lat="45.20952" lon="5.73259">
        <ele>536.59997558594</ele>
        <time>2021-09-30T03:44:13.000Z</time>
      </trkpt>
      <trkpt lat="45.20956" lon="5.73259">
        <ele>537.40002441406</ele>
        <time>2021-09-30T03:44:16.000Z</time>
      </trkpt>
      <trkpt lat="45.20959" lon="5.73258">
        <ele>538</ele>
        <time>2021-09-30T03:44:18.000Z</time>
      </trkpt>
      <trkpt lat="45.20963" lon="5.73257">
        <ele>538.40002441406</ele>
        <time>2021-09-30T03:44:20.000Z</time>
      </trkpt>
      <trkpt lat="45.20967" lon="5.73254">
        <ele>539.40002441406</ele>
        <time>2021-09-30T03:44:24.000Z</time>
      </trkpt>
      <trkpt lat="45.20969" lon="5.73253">
        <ele>539.59997558594</ele>
        <time>2021-09-30T03:44:25.000Z</time>
      </trkpt>
      <trkpt lat="45.2097" lon="5.73252">
        <ele>539.79998779297</ele>
        <time>2021-09-30T03:44:26.000Z</time>
      </trkpt>
      <trkpt lat="45.20975" lon="5.73253">
        <ele>540.79998779297</ele>
        <time>2021-09-30T03:44:29.000Z</time>
      </trkpt>
      <trkpt lat="45.20979" lon="5.73253">
        <ele>541.40002441406</ele>
        <time>2021-09-30T03:44:32.000Z</time>
      </trkpt>
      <trkpt lat="45.20982" lon="5.73254">
        <ele>542</ele>
        <time>2021-09-30T03:44:34.000Z</time>
      </trkpt>
      <trkpt lat="45.20986" lon="5.73253">
        <ele>542.79998779297</ele>
        <time>2021-09-30T03:44:37.000Z</time>
      </trkpt>
      <trkpt lat="45.20988" lon="5.73251">
        <ele>543.40002441406</ele>
        <time>2021-09-30T03:44:39.000Z</time>
      </trkpt>
      <trkpt lat="45.20994" lon="5.73246">
        <ele>544.79998779297</ele>
        <time>2021-09-30T03:44:44.000Z</time>
      </trkpt>
      <trkpt lat="45.20994" lon="5.73247">
        <ele>545.20001220703</ele>
        <time>2021-09-30T03:44:45.000Z</time>
      </trkpt>
      <trkpt lat="45.20994" lon="5.73246">
        <ele>545.40002441406</ele>
        <time>2021-09-30T03:44:46.000Z</time>
      </trkpt>
      <trkpt lat="45.20992" lon="5.73247">
        <ele>545.79998779297</ele>
        <time>2021-09-30T03:44:47.000Z</time>
      </trkpt>
      <trkpt lat="45.20986" lon="5.73245">
        <ele>547</ele>
        <time>2021-09-30T03:44:52.000Z</time>
      </trkpt>
      <trkpt lat="45.20985" lon="5.73245">
        <ele>547.40002441406</ele>
        <time>2021-09-30T03:44:53.000Z</time>
      </trkpt>
      <trkpt lat="45.20981" lon="5.73244">
        <ele>548</ele>
        <time>2021-09-30T03:44:56.000Z</time>
      </trkpt>
      <trkpt lat="45.20977" lon="5.73241">
        <ele>548.40002441406</ele>
        <time>2021-09-30T03:44:59.000Z</time>
      </trkpt>
      <trkpt lat="45.20975" lon="5.73239">
        <ele>549</ele>
        <time>2021-09-30T03:45:01.000Z</time>
      </trkpt>
      <trkpt lat="45.20974" lon="5.73239">
        <ele>549.20001220703</ele>
        <time>2021-09-30T03:45:02.000Z</time>
      </trkpt>
      <trkpt lat="45.20971" lon="5.73237">
        <ele>549.79998779297</ele>
        <time>2021-09-30T03:45:04.000Z</time>
      </trkpt>
      <trkpt lat="45.20969" lon="5.73236">
        <ele>550.40002441406</ele>
        <time>2021-09-30T03:45:06.000Z</time>
      </trkpt>
      <trkpt lat="45.20967" lon="5.73236">
        <ele>550.59997558594</ele>
        <time>2021-09-30T03:45:07.000Z</time>
      </trkpt>
      <trkpt lat="45.20966" lon="5.73236">
        <ele>550.79998779297</ele>
        <time>2021-09-30T03:45:08.000Z</time>
      </trkpt>
      <trkpt lat="45.20962" lon="5.73238">
        <ele>551.40002441406</ele>
        <time>2021-09-30T03:45:11.000Z</time>
      </trkpt>
      <trkpt lat="45.20954" lon="5.73236">
        <ele>552.59997558594</ele>
        <time>2021-09-30T03:45:16.000Z</time>
      </trkpt>
      <trkpt lat="45.20951" lon="5.73235">
        <ele>553.20001220703</ele>
        <time>2021-09-30T03:45:18.000Z</time>
      </trkpt>
      <trkpt lat="45.20949" lon="5.73235">
        <ele>553.79998779297</ele>
        <time>2021-09-30T03:45:20.000Z</time>
      </trkpt>
      <trkpt lat="45.20942" lon="5.73231">
        <ele>554.79998779297</ele>
        <time>2021-09-30T03:45:24.000Z</time>
      </trkpt>
      <trkpt lat="45.20938" lon="5.73227">
        <ele>555.79998779297</ele>
        <time>2021-09-30T03:45:27.000Z</time>
      </trkpt>
      <trkpt lat="45.20936" lon="5.73225">
        <ele>556.20001220703</ele>
        <time>2021-09-30T03:45:28.000Z</time>
      </trkpt>
      <trkpt lat="45.20935" lon="5.73223">
        <ele>556.40002441406</ele>
        <time>2021-09-30T03:45:29.000Z</time>
      </trkpt>
      <trkpt lat="45.20936" lon="5.73223">
        <ele>556.59997558594</ele>
        <time>2021-09-30T03:45:31.000Z</time>
      </trkpt>
      <trkpt lat="45.20937" lon="5.73223">
        <ele>557.20001220703</ele>
        <time>2021-09-30T03:45:32.000Z</time>
      </trkpt>
      <trkpt lat="45.20944" lon="5.73224">
        <ele>558.59997558594</ele>
        <time>2021-09-30T03:45:37.000Z</time>
      </trkpt>
      <trkpt lat="45.20947" lon="5.73225">
        <ele>559</ele>
        <time>2021-09-30T03:45:39.000Z</time>
      </trkpt>
      <trkpt lat="45.20951" lon="5.73222">
        <ele>559.79998779297</ele>
        <time>2021-09-30T03:45:43.000Z</time>
      </trkpt>
      <trkpt lat="45.20954" lon="5.73221">
        <ele>560.20001220703</ele>
        <time>2021-09-30T03:45:46.000Z</time>
      </trkpt>
      <trkpt lat="45.20955" lon="5.7322">
        <ele>560.40002441406</ele>
        <time>2021-09-30T03:45:47.000Z</time>
      </trkpt>
      <trkpt lat="45.20959" lon="5.73218">
        <ele>561</ele>
        <time>2021-09-30T03:45:49.000Z</time>
      </trkpt>
      <trkpt lat="45.20963" lon="5.73215">
        <ele>561.79998779297</ele>
        <time>2021-09-30T03:45:52.000Z</time>
      </trkpt>
      <trkpt lat="45.20965" lon="5.73215">
        <ele>562.20001220703</ele>
        <time>2021-09-30T03:45:53.000Z</time>
      </trkpt>
      <trkpt lat="45.20973" lon="5.73215">
        <ele>563.20001220703</ele>
        <time>2021-09-30T03:45:57.000Z</time>
      </trkpt>
      <trkpt lat="45.20975" lon="5.73215">
        <ele>563.40002441406</ele>
        <time>2021-09-30T03:45:58.000Z</time>
      </trkpt>
      <trkpt lat="45.2098" lon="5.73214">
        <ele>564.20001220703</ele>
        <time>2021-09-30T03:46:02.000Z</time>
      </trkpt>
      <trkpt lat="45.20982" lon="5.73213">
        <ele>565</ele>
        <time>2021-09-30T03:46:05.000Z</time>
      </trkpt>
      <trkpt lat="45.20986" lon="5.73212">
        <ele>565.59997558594</ele>
        <time>2021-09-30T03:46:08.000Z</time>
      </trkpt>
      <trkpt lat="45.2099" lon="5.7321">
        <ele>566.79998779297</ele>
        <time>2021-09-30T03:46:11.000Z</time>
      </trkpt>
      <trkpt lat="45.20994" lon="5.7321">
        <ele>567.40002441406</ele>
        <time>2021-09-30T03:46:13.000Z</time>
      </trkpt>
      <trkpt lat="45.20995" lon="5.7321">
        <ele>567.59997558594</ele>
        <time>2021-09-30T03:46:15.000Z</time>
      </trkpt>
      <trkpt lat="45.20994" lon="5.73211">
        <ele>568</ele>
        <time>2021-09-30T03:46:16.000Z</time>
      </trkpt>
      <trkpt lat="45.20993" lon="5.73211">
        <ele>568.40002441406</ele>
        <time>2021-09-30T03:46:17.000Z</time>
      </trkpt>
      <trkpt lat="45.20986" lon="5.73212">
        <ele>569.20001220703</ele>
        <time>2021-09-30T03:46:21.000Z</time>
      </trkpt>
      <trkpt lat="45.2098" lon="5.73213">
        <ele>570.20001220703</ele>
        <time>2021-09-30T03:46:25.000Z</time>
      </trkpt>
      <trkpt lat="45.20981" lon="5.73211">
        <ele>570.79998779297</ele>
        <time>2021-09-30T03:46:27.000Z</time>
      </trkpt>
      <trkpt lat="45.20982" lon="5.73209">
        <ele>571.20001220703</ele>
        <time>2021-09-30T03:46:29.000Z</time>
      </trkpt>
      <trkpt lat="45.20987" lon="5.73207">
        <ele>572.59997558594</ele>
        <time>2021-09-30T03:46:33.000Z</time>
      </trkpt>
      <trkpt lat="45.20988" lon="5.73207">
        <ele>573</ele>
        <time>2021-09-30T03:46:34.000Z</time>
      </trkpt>
      <trkpt lat="45.20992" lon="5.73206">
        <ele>573.59997558594</ele>
        <time>2021-09-30T03:46:37.000Z</time>
      </trkpt>
      <trkpt lat="45.20995" lon="5.73204">
        <ele>574</ele>
        <time>2021-09-30T03:46:39.000Z</time>
      </trkpt>
      <trkpt lat="45.20997" lon="5.73203">
        <ele>574</ele>
        <time>2021-09-30T03:46:40.000Z</time>
      </trkpt>
      <trkpt lat="45.20999" lon="5.73198">
        <ele>574.79998779297</ele>
        <time>2021-09-30T03:46:42.000Z</time>
      </trkpt>
      <trkpt lat="45.21" lon="5.73196">
        <ele>575</ele>
        <time>2021-09-30T03:46:43.000Z</time>
      </trkpt>
      <trkpt lat="45.21003" lon="5.73192">
        <ele>575.79998779297</ele>
        <time>2021-09-30T03:46:46.000Z</time>
      </trkpt>
      <trkpt lat="45.21005" lon="5.73191">
        <ele>576</ele>
        <time>2021-09-30T03:46:47.000Z</time>
      </trkpt>
      <trkpt lat="45.21009" lon="5.73188">
        <ele>577</ele>
        <time>2021-09-30T03:46:50.000Z</time>
      </trkpt>
      <trkpt lat="45.21009" lon="5.73187">
        <ele>577.20001220703</ele>
        <time>2021-09-30T03:46:51.000Z</time>
      </trkpt>
      <trkpt lat="45.2101" lon="5.73187">
        <ele>577.40002441406</ele>
        <time>2021-09-30T03:46:52.000Z</time>
      </trkpt>
      <trkpt lat="45.21015" lon="5.73182">
        <ele>578.40002441406</ele>
        <time>2021-09-30T03:46:55.000Z</time>
      </trkpt>
      <trkpt lat="45.21017" lon="5.73181">
        <ele>578.79998779297</ele>
        <time>2021-09-30T03:46:56.000Z</time>
      </trkpt>
      <trkpt lat="45.21019" lon="5.73178">
        <ele>579.40002441406</ele>
        <time>2021-09-30T03:46:58.000Z</time>
      </trkpt>
      <trkpt lat="45.21021" lon="5.73176">
        <ele>580</ele>
        <time>2021-09-30T03:47:00.000Z</time>
      </trkpt>
      <trkpt lat="45.21022" lon="5.73176">
        <ele>580.20001220703</ele>
        <time>2021-09-30T03:47:01.000Z</time>
      </trkpt>
      <trkpt lat="45.21023" lon="5.73174">
        <ele>580.40002441406</ele>
        <time>2021-09-30T03:47:02.000Z</time>
      </trkpt>
      <trkpt lat="45.21027" lon="5.73172">
        <ele>581.20001220703</ele>
        <time>2021-09-30T03:47:05.000Z</time>
      </trkpt>
      <trkpt lat="45.2103" lon="5.73173">
        <ele>581.59997558594</ele>
        <time>2021-09-30T03:47:07.000Z</time>
      </trkpt>
      <trkpt lat="45.21033" lon="5.73174">
        <ele>582</ele>
        <time>2021-09-30T03:47:09.000Z</time>
      </trkpt>
      <trkpt lat="45.21035" lon="5.73175">
        <ele>582.59997558594</ele>
        <time>2021-09-30T03:47:11.000Z</time>
      </trkpt>
      <trkpt lat="45.21037" lon="5.73176">
        <ele>582.79998779297</ele>
        <time>2021-09-30T03:47:12.000Z</time>
      </trkpt>
      <trkpt lat="45.21038" lon="5.73178">
        <ele>583</ele>
        <time>2021-09-30T03:47:13.000Z</time>
      </trkpt>
      <trkpt lat="45.2104" lon="5.7318">
        <ele>583.79998779297</ele>
        <time>2021-09-30T03:47:15.000Z</time>
      </trkpt>
      <trkpt lat="45.21042" lon="5.73182">
        <ele>584</ele>
        <time>2021-09-30T03:47:16.000Z</time>
      </trkpt>
      <trkpt lat="45.21046" lon="5.73189">
        <ele>585.20001220703</ele>
        <time>2021-09-30T03:47:21.000Z</time>
      </trkpt>
      <trkpt lat="45.21047" lon="5.73189">
        <ele>585.40002441406</ele>
        <time>2021-09-30T03:47:22.000Z</time>
      </trkpt>
      <trkpt lat="45.21049" lon="5.73188">
        <ele>586.20001220703</ele>
        <time>2021-09-30T03:47:24.000Z</time>
      </trkpt>
      <trkpt lat="45.2105" lon="5.73187">
        <ele>586.40002441406</ele>
        <time>2021-09-30T03:47:25.000Z</time>
      </trkpt>
      <trkpt lat="45.21053" lon="5.73186">
        <ele>587</ele>
        <time>2021-09-30T03:47:27.000Z</time>
      </trkpt>
      <trkpt lat="45.21054" lon="5.73186">
        <ele>587.40002441406</ele>
        <time>2021-09-30T03:47:28.000Z</time>
      </trkpt>
      <trkpt lat="45.21057" lon="5.73185">
        <ele>588</ele>
        <time>2021-09-30T03:47:30.000Z</time>
      </trkpt>
      <trkpt lat="45.21061" lon="5.73186">
        <ele>588.40002441406</ele>
        <time>2021-09-30T03:47:32.000Z</time>
      </trkpt>
      <trkpt lat="45.21063" lon="5.73186">
        <ele>588.79998779297</ele>
        <time>2021-09-30T03:47:34.000Z</time>
      </trkpt>
      <trkpt lat="45.21064" lon="5.73189">
        <ele>589.20001220703</ele>
        <time>2021-09-30T03:47:36.000Z</time>
      </trkpt>
      <trkpt lat="45.21065" lon="5.7319">
        <ele>589.59997558594</ele>
        <time>2021-09-30T03:47:37.000Z</time>
      </trkpt>
      <trkpt lat="45.21068" lon="5.73191">
        <ele>590</ele>
        <time>2021-09-30T03:47:39.000Z</time>
      </trkpt>
      <trkpt lat="45.21072" lon="5.73194">
        <ele>590.59997558594</ele>
        <time>2021-09-30T03:47:42.000Z</time>
      </trkpt>
      <trkpt lat="45.21077" lon="5.73196">
        <ele>591.40002441406</ele>
        <time>2021-09-30T03:47:45.000Z</time>
      </trkpt>
      <trkpt lat="45.21078" lon="5.73197">
        <ele>591.59997558594</ele>
        <time>2021-09-30T03:47:46.000Z</time>
      </trkpt>
      <trkpt lat="45.2108" lon="5.73198">
        <ele>592</ele>
        <time>2021-09-30T03:47:47.000Z</time>
      </trkpt>
      <trkpt lat="45.21084" lon="5.73202">
        <ele>593</ele>
        <time>2021-09-30T03:47:51.000Z</time>
      </trkpt>
      <trkpt lat="45.21087" lon="5.73204">
        <ele>593.59997558594</ele>
        <time>2021-09-30T03:47:53.000Z</time>
      </trkpt>
      <trkpt lat="45.21091" lon="5.73204">
        <ele>594.40002441406</ele>
        <time>2021-09-30T03:47:56.000Z</time>
      </trkpt>
      <trkpt lat="45.21091" lon="5.73203">
        <ele>594.79998779297</ele>
        <time>2021-09-30T03:47:57.000Z</time>
      </trkpt>
      <trkpt lat="45.2109" lon="5.73203">
        <ele>595</ele>
        <time>2021-09-30T03:47:58.000Z</time>
      </trkpt>
      <trkpt lat="45.21089" lon="5.73202">
        <ele>595.59997558594</ele>
        <time>2021-09-30T03:48:00.000Z</time>
      </trkpt>
      <trkpt lat="45.21087" lon="5.73199">
        <ele>596</ele>
        <time>2021-09-30T03:48:02.000Z</time>
      </trkpt>
      <trkpt lat="45.21085" lon="5.73197">
        <ele>596.79998779297</ele>
        <time>2021-09-30T03:48:04.000Z</time>
      </trkpt>
      <trkpt lat="45.21083" lon="5.73188">
        <ele>597.79998779297</ele>
        <time>2021-09-30T03:48:08.000Z</time>
      </trkpt>
      <trkpt lat="45.21083" lon="5.73186">
        <ele>598</ele>
        <time>2021-09-30T03:48:09.000Z</time>
      </trkpt>
      <trkpt lat="45.21082" lon="5.73186">
        <ele>598.20001220703</ele>
        <time>2021-09-30T03:48:10.000Z</time>
      </trkpt>
      <trkpt lat="45.2108" lon="5.73181">
        <ele>598.79998779297</ele>
        <time>2021-09-30T03:48:13.000Z</time>
      </trkpt>
      <trkpt lat="45.21079" lon="5.7318">
        <ele>599.20001220703</ele>
        <time>2021-09-30T03:48:14.000Z</time>
      </trkpt>
      <trkpt lat="45.21076" lon="5.73175">
        <ele>600</ele>
        <time>2021-09-30T03:48:17.000Z</time>
      </trkpt>
      <trkpt lat="45.21073" lon="5.73167">
        <ele>601.20001220703</ele>
        <time>2021-09-30T03:48:22.000Z</time>
      </trkpt>
      <trkpt lat="45.21072" lon="5.73166">
        <ele>601.59997558594</ele>
        <time>2021-09-30T03:48:23.000Z</time>
      </trkpt>
      <trkpt lat="45.2107" lon="5.73161">
        <ele>602.59997558594</ele>
        <time>2021-09-30T03:48:26.000Z</time>
      </trkpt>
      <trkpt lat="45.21068" lon="5.73156">
        <ele>603.40002441406</ele>
        <time>2021-09-30T03:48:29.000Z</time>
      </trkpt>
      <trkpt lat="45.21067" lon="5.73156">
        <ele>603.79998779297</ele>
        <time>2021-09-30T03:48:30.000Z</time>
      </trkpt>
      <trkpt lat="45.21066" lon="5.73156">
        <ele>604</ele>
        <time>2021-09-30T03:48:31.000Z</time>
      </trkpt>
      <trkpt lat="45.21065" lon="5.73157">
        <ele>604</ele>
        <time>2021-09-30T03:48:32.000Z</time>
      </trkpt>
      <trkpt lat="45.21058" lon="5.73158">
        <ele>604.79998779297</ele>
        <time>2021-09-30T03:48:36.000Z</time>
      </trkpt>
      <trkpt lat="45.21051" lon="5.73152">
        <ele>606</ele>
        <time>2021-09-30T03:48:41.000Z</time>
      </trkpt>
      <trkpt lat="45.21049" lon="5.73151">
        <ele>606.40002441406</ele>
        <time>2021-09-30T03:48:42.000Z</time>
      </trkpt>
      <trkpt lat="45.21045" lon="5.73148">
        <ele>607</ele>
        <time>2021-09-30T03:48:45.000Z</time>
      </trkpt>
      <trkpt lat="45.21043" lon="5.73145">
        <ele>607.79998779297</ele>
        <time>2021-09-30T03:48:47.000Z</time>
      </trkpt>
      <trkpt lat="45.21041" lon="5.73143">
        <ele>608.20001220703</ele>
        <time>2021-09-30T03:48:49.000Z</time>
      </trkpt>
      <trkpt lat="45.21038" lon="5.73138">
        <ele>609.20001220703</ele>
        <time>2021-09-30T03:48:52.000Z</time>
      </trkpt>
      <trkpt lat="45.21035" lon="5.73131">
        <ele>610.20001220703</ele>
        <time>2021-09-30T03:48:56.000Z</time>
      </trkpt>
      <trkpt lat="45.21034" lon="5.73127">
        <ele>611</ele>
        <time>2021-09-30T03:48:59.000Z</time>
      </trkpt>
      <trkpt lat="45.21034" lon="5.73127">
        <ele>611.40002441406</ele>
        <time>2021-09-30T03:49:00.000Z</time>
      </trkpt>
      <trkpt lat="45.21033" lon="5.73123">
        <ele>612.40002441406</ele>
        <time>2021-09-30T03:49:03.000Z</time>
      </trkpt>
      <trkpt lat="45.21031" lon="5.73124">
        <ele>612.79998779297</ele>
        <time>2021-09-30T03:49:04.000Z</time>
      </trkpt>
      <trkpt lat="45.2103" lon="5.73124">
        <ele>613</ele>
        <time>2021-09-30T03:49:05.000Z</time>
      </trkpt>
      <trkpt lat="45.21029" lon="5.73128">
        <ele>614</ele>
        <time>2021-09-30T03:49:09.000Z</time>
      </trkpt>
      <trkpt lat="45.21025" lon="5.73129">
        <ele>614.20001220703</ele>
        <time>2021-09-30T03:49:12.000Z</time>
      </trkpt>
      <trkpt lat="45.21022" lon="5.73131">
        <ele>615</ele>
        <time>2021-09-30T03:49:15.000Z</time>
      </trkpt>
      <trkpt lat="45.21021" lon="5.73132">
        <ele>615.20001220703</ele>
        <time>2021-09-30T03:49:16.000Z</time>
      </trkpt>
      <trkpt lat="45.21018" lon="5.73134">
        <ele>615.40002441406</ele>
        <time>2021-09-30T03:49:18.000Z</time>
      </trkpt>
      <trkpt lat="45.21012" lon="5.73137">
        <ele>616</ele>
        <time>2021-09-30T03:49:21.000Z</time>
      </trkpt>
      <trkpt lat="45.21011" lon="5.73137">
        <ele>616.20001220703</ele>
        <time>2021-09-30T03:49:22.000Z</time>
      </trkpt>
      <trkpt lat="45.21009" lon="5.73136">
        <ele>617</ele>
        <time>2021-09-30T03:49:24.000Z</time>
      </trkpt>
      <trkpt lat="45.21008" lon="5.73137">
        <ele>617.20001220703</ele>
        <time>2021-09-30T03:49:25.000Z</time>
      </trkpt>
      <trkpt lat="45.21003" lon="5.7314">
        <ele>618.40002441406</ele>
        <time>2021-09-30T03:49:29.000Z</time>
      </trkpt>
      <trkpt lat="45.21003" lon="5.7314">
        <ele>618.59997558594</ele>
        <time>2021-09-30T03:49:30.000Z</time>
      </trkpt>
      <trkpt lat="45.20999" lon="5.73143">
        <ele>619.40002441406</ele>
        <time>2021-09-30T03:49:33.000Z</time>
      </trkpt>
      <trkpt lat="45.20996" lon="5.73144">
        <ele>620</ele>
        <time>2021-09-30T03:49:35.000Z</time>
      </trkpt>
      <trkpt lat="45.20995" lon="5.7314">
        <ele>620.59997558594</ele>
        <time>2021-09-30T03:49:37.000Z</time>
      </trkpt>
      <trkpt lat="45.20996" lon="5.73137">
        <ele>621.20001220703</ele>
        <time>2021-09-30T03:49:39.000Z</time>
      </trkpt>
      <trkpt lat="45.20997" lon="5.73136">
        <ele>621.79998779297</ele>
        <time>2021-09-30T03:49:41.000Z</time>
      </trkpt>
      <trkpt lat="45.20998" lon="5.73133">
        <ele>622.20001220703</ele>
        <time>2021-09-30T03:49:43.000Z</time>
      </trkpt>
      <trkpt lat="45.21" lon="5.7313">
        <ele>622.79998779297</ele>
        <time>2021-09-30T03:49:45.000Z</time>
      </trkpt>
      <trkpt lat="45.21001" lon="5.73129">
        <ele>623</ele>
        <time>2021-09-30T03:49:46.000Z</time>
      </trkpt>
      <trkpt lat="45.21002" lon="5.73128">
        <ele>623.20001220703</ele>
        <time>2021-09-30T03:49:47.000Z</time>
      </trkpt>
      <trkpt lat="45.21007" lon="5.73125">
        <ele>623.79998779297</ele>
        <time>2021-09-30T03:49:50.000Z</time>
      </trkpt>
      <trkpt lat="45.21008" lon="5.73124">
        <ele>624</ele>
        <time>2021-09-30T03:49:51.000Z</time>
      </trkpt>
      <trkpt lat="45.21009" lon="5.73122">
        <ele>624.40002441406</ele>
        <time>2021-09-30T03:49:52.000Z</time>
      </trkpt>
      <trkpt lat="45.21011" lon="5.73116">
        <ele>625.40002441406</ele>
        <time>2021-09-30T03:49:55.000Z</time>
      </trkpt>
      <trkpt lat="45.21015" lon="5.73112">
        <ele>626.40002441406</ele>
        <time>2021-09-30T03:49:58.000Z</time>
      </trkpt>
      <trkpt lat="45.21016" lon="5.73111">
        <ele>626.59997558594</ele>
        <time>2021-09-30T03:49:59.000Z</time>
      </trkpt>
      <trkpt lat="45.2102" lon="5.73107">
        <ele>627.40002441406</ele>
        <time>2021-09-30T03:50:02.000Z</time>
      </trkpt>
      <trkpt lat="45.21021" lon="5.73105">
        <ele>627.40002441406</ele>
        <time>2021-09-30T03:50:03.000Z</time>
      </trkpt>
      <trkpt lat="45.21024" lon="5.731">
        <ele>628.20001220703</ele>
        <time>2021-09-30T03:50:05.000Z</time>
      </trkpt>
      <trkpt lat="45.21026" lon="5.73098">
        <ele>628.59997558594</ele>
        <time>2021-09-30T03:50:07.000Z</time>
      </trkpt>
      <trkpt lat="45.2103" lon="5.73097">
        <ele>629.59997558594</ele>
        <time>2021-09-30T03:50:11.000Z</time>
      </trkpt>
      <trkpt lat="45.21031" lon="5.73098">
        <ele>629.79998779297</ele>
        <time>2021-09-30T03:50:13.000Z</time>
      </trkpt>
      <trkpt lat="45.21031" lon="5.73099">
        <ele>629.79998779297</ele>
        <time>2021-09-30T03:50:14.000Z</time>
      </trkpt>
      <trkpt lat="45.21032" lon="5.73102">
        <ele>630.20001220703</ele>
        <time>2021-09-30T03:50:17.000Z</time>
      </trkpt>
      <trkpt lat="45.21033" lon="5.73103">
        <ele>630.59997558594</ele>
        <time>2021-09-30T03:50:19.000Z</time>
      </trkpt>
      <trkpt lat="45.21033" lon="5.73104">
        <ele>630.79998779297</ele>
        <time>2021-09-30T03:50:20.000Z</time>
      </trkpt>
      <trkpt lat="45.21034" lon="5.73104">
        <ele>630.79998779297</ele>
        <time>2021-09-30T03:50:21.000Z</time>
      </trkpt>
      <trkpt lat="45.21035" lon="5.73105">
        <ele>631.20001220703</ele>
        <time>2021-09-30T03:50:22.000Z</time>
      </trkpt>
      <trkpt lat="45.21037" lon="5.73107">
        <ele>631.79998779297</ele>
        <time>2021-09-30T03:50:24.000Z</time>
      </trkpt>
      <trkpt lat="45.21038" lon="5.73107">
        <ele>631.79998779297</ele>
        <time>2021-09-30T03:50:25.000Z</time>
      </trkpt>
      <trkpt lat="45.21039" lon="5.73108">
        <ele>632</ele>
        <time>2021-09-30T03:50:26.000Z</time>
      </trkpt>
      <trkpt lat="45.21041" lon="5.73108">
        <ele>632.40002441406</ele>
        <time>2021-09-30T03:50:27.000Z</time>
      </trkpt>
      <trkpt lat="45.21044" lon="5.7311">
        <ele>632.79998779297</ele>
        <time>2021-09-30T03:50:30.000Z</time>
      </trkpt>
      <trkpt lat="45.21047" lon="5.73111">
        <ele>633.40002441406</ele>
        <time>2021-09-30T03:50:32.000Z</time>
      </trkpt>
      <trkpt lat="45.21049" lon="5.73113">
        <ele>634</ele>
        <time>2021-09-30T03:50:35.000Z</time>
      </trkpt>
      <trkpt lat="45.2105" lon="5.73113">
        <ele>634.20001220703</ele>
        <time>2021-09-30T03:50:36.000Z</time>
      </trkpt>
      <trkpt lat="45.21052" lon="5.73114">
        <ele>635</ele>
        <time>2021-09-30T03:50:38.000Z</time>
      </trkpt>
      <trkpt lat="45.21054" lon="5.73114">
        <ele>635.20001220703</ele>
        <time>2021-09-30T03:50:39.000Z</time>
      </trkpt>
      <trkpt lat="45.21061" lon="5.73113">
        <ele>636</ele>
        <time>2021-09-30T03:50:42.000Z</time>
      </trkpt>
      <trkpt lat="45.21063" lon="5.73112">
        <ele>636.20001220703</ele>
        <time>2021-09-30T03:50:43.000Z</time>
      </trkpt>
      <trkpt lat="45.21069" lon="5.7311">
        <ele>637.20001220703</ele>
        <time>2021-09-30T03:50:46.000Z</time>
      </trkpt>
      <trkpt lat="45.21071" lon="5.7311">
        <ele>637.40002441406</ele>
        <time>2021-09-30T03:50:47.000Z</time>
      </trkpt>
      <trkpt lat="45.21076" lon="5.73109">
        <ele>638.59997558594</ele>
        <time>2021-09-30T03:50:50.000Z</time>
      </trkpt>
      <trkpt lat="45.21078" lon="5.7311">
        <ele>639.20001220703</ele>
        <time>2021-09-30T03:50:52.000Z</time>
      </trkpt>
      <trkpt lat="45.2108" lon="5.7311">
        <ele>639.40002441406</ele>
        <time>2021-09-30T03:50:53.000Z</time>
      </trkpt>
      <trkpt lat="45.21082" lon="5.73113">
        <ele>639.59997558594</ele>
        <time>2021-09-30T03:50:55.000Z</time>
      </trkpt>
      <trkpt lat="45.21084" lon="5.73116">
        <ele>640.20001220703</ele>
        <time>2021-09-30T03:50:57.000Z</time>
      </trkpt>
      <trkpt lat="45.21087" lon="5.73119">
        <ele>640.79998779297</ele>
        <time>2021-09-30T03:51:00.000Z</time>
      </trkpt>
      <trkpt lat="45.2109" lon="5.73122">
        <ele>641.20001220703</ele>
        <time>2021-09-30T03:51:02.000Z</time>
      </trkpt>
      <trkpt lat="45.21091" lon="5.73124">
        <ele>641.20001220703</ele>
        <time>2021-09-30T03:51:03.000Z</time>
      </trkpt>
      <trkpt lat="45.21094" lon="5.73127">
        <ele>641.79998779297</ele>
        <time>2021-09-30T03:51:05.000Z</time>
      </trkpt>
      <trkpt lat="45.211" lon="5.73131">
        <ele>643.20001220703</ele>
        <time>2021-09-30T03:51:09.000Z</time>
      </trkpt>
      <trkpt lat="45.21101" lon="5.73133">
        <ele>643.40002441406</ele>
        <time>2021-09-30T03:51:10.000Z</time>
      </trkpt>
      <trkpt lat="45.21104" lon="5.73136">
        <ele>644.20001220703</ele>
        <time>2021-09-30T03:51:13.000Z</time>
      </trkpt>
      <trkpt lat="45.21109" lon="5.73141">
        <ele>645.40002441406</ele>
        <time>2021-09-30T03:51:16.000Z</time>
      </trkpt>
      <trkpt lat="45.21111" lon="5.73142">
        <ele>645.59997558594</ele>
        <time>2021-09-30T03:51:17.000Z</time>
      </trkpt>
      <trkpt lat="45.21114" lon="5.73142">
        <ele>646.20001220703</ele>
        <time>2021-09-30T03:51:19.000Z</time>
      </trkpt>
      <trkpt lat="45.21116" lon="5.73142">
        <ele>646.59997558594</ele>
        <time>2021-09-30T03:51:20.000Z</time>
      </trkpt>
      <trkpt lat="45.21118" lon="5.73141">
        <ele>647.40002441406</ele>
        <time>2021-09-30T03:51:22.000Z</time>
      </trkpt>
      <trkpt lat="45.21119" lon="5.73142">
        <ele>647.59997558594</ele>
        <time>2021-09-30T03:51:23.000Z</time>
      </trkpt>
      <trkpt lat="45.21124" lon="5.73141">
        <ele>648.40002441406</ele>
        <time>2021-09-30T03:51:26.000Z</time>
      </trkpt>
      <trkpt lat="45.21125" lon="5.7314">
        <ele>648.79998779297</ele>
        <time>2021-09-30T03:51:27.000Z</time>
      </trkpt>
      <trkpt lat="45.21129" lon="5.73139">
        <ele>649</ele>
        <time>2021-09-30T03:51:29.000Z</time>
      </trkpt>
      <trkpt lat="45.21133" lon="5.73139">
        <ele>649.59997558594</ele>
        <time>2021-09-30T03:51:32.000Z</time>
      </trkpt>
      <trkpt lat="45.21134" lon="5.73139">
        <ele>650</ele>
        <time>2021-09-30T03:51:33.000Z</time>
      </trkpt>
      <trkpt lat="45.21138" lon="5.73137">
        <ele>651.20001220703</ele>
        <time>2021-09-30T03:51:38.000Z</time>
      </trkpt>
      <trkpt lat="45.21137" lon="5.73135">
        <ele>652.59997558594</ele>
        <time>2021-09-30T03:51:41.000Z</time>
      </trkpt>
      <trkpt lat="45.21136" lon="5.73135">
        <ele>652.79998779297</ele>
        <time>2021-09-30T03:51:42.000Z</time>
      </trkpt>
      <trkpt lat="45.21136" lon="5.73135">
        <ele>653</ele>
        <time>2021-09-30T03:51:43.000Z</time>
      </trkpt>
      <trkpt lat="45.21131" lon="5.73135">
        <ele>653.79998779297</ele>
        <time>2021-09-30T03:51:46.000Z</time>
      </trkpt>
      <trkpt lat="45.21129" lon="5.73135">
        <ele>654.20001220703</ele>
        <time>2021-09-30T03:51:48.000Z</time>
      </trkpt>
      <trkpt lat="45.21128" lon="5.73136">
        <ele>654.79998779297</ele>
        <time>2021-09-30T03:51:50.000Z</time>
      </trkpt>
      <trkpt lat="45.21126" lon="5.73136">
        <ele>655.40002441406</ele>
        <time>2021-09-30T03:51:53.000Z</time>
      </trkpt>
      <trkpt lat="45.21124" lon="5.73137">
        <ele>656</ele>
        <time>2021-09-30T03:51:54.000Z</time>
      </trkpt>
      <trkpt lat="45.21123" lon="5.73137">
        <ele>656.20001220703</ele>
        <time>2021-09-30T03:51:55.000Z</time>
      </trkpt>
      <trkpt lat="45.21119" lon="5.73137">
        <ele>657.20001220703</ele>
        <time>2021-09-30T03:51:59.000Z</time>
      </trkpt>
      <trkpt lat="45.21118" lon="5.73134">
        <ele>657.79998779297</ele>
        <time>2021-09-30T03:52:01.000Z</time>
      </trkpt>
      <trkpt lat="45.21119" lon="5.73133">
        <ele>658</ele>
        <time>2021-09-30T03:52:02.000Z</time>
      </trkpt>
      <trkpt lat="45.2112" lon="5.73133">
        <ele>658.40002441406</ele>
        <time>2021-09-30T03:52:03.000Z</time>
      </trkpt>
      <trkpt lat="45.21121" lon="5.73132">
        <ele>659</ele>
        <time>2021-09-30T03:52:05.000Z</time>
      </trkpt>
      <trkpt lat="45.21122" lon="5.73131">
        <ele>659.40002441406</ele>
        <time>2021-09-30T03:52:06.000Z</time>
      </trkpt>
      <trkpt lat="45.21123" lon="5.73129">
        <ele>659.59997558594</ele>
        <time>2021-09-30T03:52:07.000Z</time>
      </trkpt>
      <trkpt lat="45.21127" lon="5.73125">
        <ele>660.40002441406</ele>
        <time>2021-09-30T03:52:10.000Z</time>
      </trkpt>
      <trkpt lat="45.21129" lon="5.73125">
        <ele>661</ele>
        <time>2021-09-30T03:52:12.000Z</time>
      </trkpt>
      <trkpt lat="45.2113" lon="5.73125">
        <ele>661.20001220703</ele>
        <time>2021-09-30T03:52:13.000Z</time>
      </trkpt>
      <trkpt lat="45.21133" lon="5.73123">
        <ele>661.79998779297</ele>
        <time>2021-09-30T03:52:15.000Z</time>
      </trkpt>
      <trkpt lat="45.21138" lon="5.73121">
        <ele>663</ele>
        <time>2021-09-30T03:52:20.000Z</time>
      </trkpt>
      <trkpt lat="45.21139" lon="5.7312">
        <ele>663.20001220703</ele>
        <time>2021-09-30T03:52:21.000Z</time>
      </trkpt>
      <trkpt lat="45.21142" lon="5.73119">
        <ele>664</ele>
        <time>2021-09-30T03:52:24.000Z</time>
      </trkpt>
      <trkpt lat="45.21144" lon="5.73119">
        <ele>664.59997558594</ele>
        <time>2021-09-30T03:52:26.000Z</time>
      </trkpt>
      <trkpt lat="45.21145" lon="5.73119">
        <ele>665.20001220703</ele>
        <time>2021-09-30T03:52:28.000Z</time>
      </trkpt>
      <trkpt lat="45.21149" lon="5.73123">
        <ele>666.40002441406</ele>
        <time>2021-09-30T03:52:32.000Z</time>
      </trkpt>
      <trkpt lat="45.21153" lon="5.73126">
        <ele>666.59997558594</ele>
        <time>2021-09-30T03:52:34.000Z</time>
      </trkpt>
      <trkpt lat="45.21157" lon="5.73129">
        <ele>667.40002441406</ele>
        <time>2021-09-30T03:52:37.000Z</time>
      </trkpt>
      <trkpt lat="45.21159" lon="5.73133">
        <ele>668.20001220703</ele>
        <time>2021-09-30T03:52:40.000Z</time>
      </trkpt>
      <trkpt lat="45.21161" lon="5.73135">
        <ele>668.59997558594</ele>
        <time>2021-09-30T03:52:42.000Z</time>
      </trkpt>
      <trkpt lat="45.21162" lon="5.73135">
        <ele>669</ele>
        <time>2021-09-30T03:52:43.000Z</time>
      </trkpt>
      <trkpt lat="45.21165" lon="5.73135">
        <ele>669.40002441406</ele>
        <time>2021-09-30T03:52:45.000Z</time>
      </trkpt>
      <trkpt lat="45.21166" lon="5.73135">
        <ele>669.59997558594</ele>
        <time>2021-09-30T03:52:46.000Z</time>
      </trkpt>
      <trkpt lat="45.21172" lon="5.73135">
        <ele>670.59997558594</ele>
        <time>2021-09-30T03:52:49.000Z</time>
      </trkpt>
      <trkpt lat="45.21174" lon="5.7314">
        <ele>671.59997558594</ele>
        <time>2021-09-30T03:52:52.000Z</time>
      </trkpt>
      <trkpt lat="45.21175" lon="5.73142">
        <ele>672</ele>
        <time>2021-09-30T03:52:54.000Z</time>
      </trkpt>
      <trkpt lat="45.21178" lon="5.73145">
        <ele>672.59997558594</ele>
        <time>2021-09-30T03:52:56.000Z</time>
      </trkpt>
      <trkpt lat="45.21179" lon="5.73146">
        <ele>673</ele>
        <time>2021-09-30T03:52:57.000Z</time>
      </trkpt>
      <trkpt lat="45.21181" lon="5.73151">
        <ele>673.79998779297</ele>
        <time>2021-09-30T03:53:00.000Z</time>
      </trkpt>
      <trkpt lat="45.21183" lon="5.73153">
        <ele>674.20001220703</ele>
        <time>2021-09-30T03:53:02.000Z</time>
      </trkpt>
      <trkpt lat="45.21184" lon="5.73154">
        <ele>674.20001220703</ele>
        <time>2021-09-30T03:53:03.000Z</time>
      </trkpt>
      <trkpt lat="45.21185" lon="5.73156">
        <ele>675</ele>
        <time>2021-09-30T03:53:05.000Z</time>
      </trkpt>
      <trkpt lat="45.21186" lon="5.73157">
        <ele>675.20001220703</ele>
        <time>2021-09-30T03:53:07.000Z</time>
      </trkpt>
      <trkpt lat="45.21187" lon="5.7316">
        <ele>676</ele>
        <time>2021-09-30T03:53:09.000Z</time>
      </trkpt>
      <trkpt lat="45.21189" lon="5.73164">
        <ele>676.59997558594</ele>
        <time>2021-09-30T03:53:12.000Z</time>
      </trkpt>
      <trkpt lat="45.21191" lon="5.73167">
        <ele>677</ele>
        <time>2021-09-30T03:53:14.000Z</time>
      </trkpt>
      <trkpt lat="45.21193" lon="5.73169">
        <ele>677.79998779297</ele>
        <time>2021-09-30T03:53:17.000Z</time>
      </trkpt>
      <trkpt lat="45.21194" lon="5.73171">
        <ele>678.20001220703</ele>
        <time>2021-09-30T03:53:18.000Z</time>
      </trkpt>
      <trkpt lat="45.21195" lon="5.73172">
        <ele>678.59997558594</ele>
        <time>2021-09-30T03:53:19.000Z</time>
      </trkpt>
      <trkpt lat="45.21197" lon="5.73175">
        <ele>679</ele>
        <time>2021-09-30T03:53:21.000Z</time>
      </trkpt>
      <trkpt lat="45.21199" lon="5.73178">
        <ele>679.40002441406</ele>
        <time>2021-09-30T03:53:23.000Z</time>
      </trkpt>
      <trkpt lat="45.212" lon="5.73179">
        <ele>679.59997558594</ele>
        <time>2021-09-30T03:53:24.000Z</time>
      </trkpt>
      <trkpt lat="45.212" lon="5.73181">
        <ele>680</ele>
        <time>2021-09-30T03:53:25.000Z</time>
      </trkpt>
      <trkpt lat="45.21201" lon="5.73182">
        <ele>680.20001220703</ele>
        <time>2021-09-30T03:53:26.000Z</time>
      </trkpt>
      <trkpt lat="45.21201" lon="5.73184">
        <ele>680.40002441406</ele>
        <time>2021-09-30T03:53:27.000Z</time>
      </trkpt>
      <trkpt lat="45.21205" lon="5.73187">
        <ele>681.40002441406</ele>
        <time>2021-09-30T03:53:30.000Z</time>
      </trkpt>
      <trkpt lat="45.21206" lon="5.73187">
        <ele>681.59997558594</ele>
        <time>2021-09-30T03:53:31.000Z</time>
      </trkpt>
      <trkpt lat="45.21208" lon="5.73188">
        <ele>682</ele>
        <time>2021-09-30T03:53:32.000Z</time>
      </trkpt>
      <trkpt lat="45.21212" lon="5.73192">
        <ele>682.79998779297</ele>
        <time>2021-09-30T03:53:35.000Z</time>
      </trkpt>
      <trkpt lat="45.21216" lon="5.73195">
        <ele>684</ele>
        <time>2021-09-30T03:53:39.000Z</time>
      </trkpt>
      <trkpt lat="45.21219" lon="5.732">
        <ele>684.59997558594</ele>
        <time>2021-09-30T03:53:42.000Z</time>
      </trkpt>
      <trkpt lat="45.21221" lon="5.73202">
        <ele>685</ele>
        <time>2021-09-30T03:53:43.000Z</time>
      </trkpt>
      <trkpt lat="45.21223" lon="5.73204">
        <ele>685.40002441406</ele>
        <time>2021-09-30T03:53:44.000Z</time>
      </trkpt>
      <trkpt lat="45.21232" lon="5.73209">
        <ele>686.79998779297</ele>
        <time>2021-09-30T03:53:49.000Z</time>
      </trkpt>
      <trkpt lat="45.21234" lon="5.73212">
        <ele>687.40002441406</ele>
        <time>2021-09-30T03:53:52.000Z</time>
      </trkpt>
      <trkpt lat="45.21237" lon="5.73214">
        <ele>688</ele>
        <time>2021-09-30T03:53:54.000Z</time>
      </trkpt>
      <trkpt lat="45.2124" lon="5.73214">
        <ele>688.40002441406</ele>
        <time>2021-09-30T03:53:56.000Z</time>
      </trkpt>
      <trkpt lat="45.21244" lon="5.73215">
        <ele>689.20001220703</ele>
        <time>2021-09-30T03:53:58.000Z</time>
      </trkpt>
      <trkpt lat="45.21246" lon="5.73215">
        <ele>689.79998779297</ele>
        <time>2021-09-30T03:54:00.000Z</time>
      </trkpt>
      <trkpt lat="45.21249" lon="5.73214">
        <ele>690.59997558594</ele>
        <time>2021-09-30T03:54:02.000Z</time>
      </trkpt>
      <trkpt lat="45.2125" lon="5.73214">
        <ele>691</ele>
        <time>2021-09-30T03:54:03.000Z</time>
      </trkpt>
      <trkpt lat="45.21252" lon="5.73216">
        <ele>691.40002441406</ele>
        <time>2021-09-30T03:54:05.000Z</time>
      </trkpt>
      <trkpt lat="45.21252" lon="5.73218">
        <ele>691.59997558594</ele>
        <time>2021-09-30T03:54:06.000Z</time>
      </trkpt>
      <trkpt lat="45.21254" lon="5.73222">
        <ele>692.79998779297</ele>
        <time>2021-09-30T03:54:09.000Z</time>
      </trkpt>
      <trkpt lat="45.21259" lon="5.73226">
        <ele>693.79998779297</ele>
        <time>2021-09-30T03:54:12.000Z</time>
      </trkpt>
      <trkpt lat="45.21259" lon="5.73231">
        <ele>694.79998779297</ele>
        <time>2021-09-30T03:54:15.000Z</time>
      </trkpt>
      <trkpt lat="45.21259" lon="5.73232">
        <ele>695.20001220703</ele>
        <time>2021-09-30T03:54:16.000Z</time>
      </trkpt>
      <trkpt lat="45.2126" lon="5.73234">
        <ele>695.40002441406</ele>
        <time>2021-09-30T03:54:17.000Z</time>
      </trkpt>
      <trkpt lat="45.21262" lon="5.73238">
        <ele>695.59997558594</ele>
        <time>2021-09-30T03:54:19.000Z</time>
      </trkpt>
      <trkpt lat="45.21263" lon="5.73239">
        <ele>696</ele>
        <time>2021-09-30T03:54:20.000Z</time>
      </trkpt>
      <trkpt lat="45.21265" lon="5.73246">
        <ele>697</ele>
        <time>2021-09-30T03:54:24.000Z</time>
      </trkpt>
      <trkpt lat="45.21266" lon="5.73247">
        <ele>697.20001220703</ele>
        <time>2021-09-30T03:54:25.000Z</time>
      </trkpt>
      <trkpt lat="45.21267" lon="5.73247">
        <ele>697.59997558594</ele>
        <time>2021-09-30T03:54:26.000Z</time>
      </trkpt>
      <trkpt lat="45.21269" lon="5.73248">
        <ele>697.79998779297</ele>
        <time>2021-09-30T03:54:28.000Z</time>
      </trkpt>
      <trkpt lat="45.21273" lon="5.7325">
        <ele>698.59997558594</ele>
        <time>2021-09-30T03:54:30.000Z</time>
      </trkpt>
      <trkpt lat="45.2128" lon="5.73255">
        <ele>699.40002441406</ele>
        <time>2021-09-30T03:54:34.000Z</time>
      </trkpt>
      <trkpt lat="45.21282" lon="5.73255">
        <ele>699.79998779297</ele>
        <time>2021-09-30T03:54:35.000Z</time>
      </trkpt>
      <trkpt lat="45.21285" lon="5.73256">
        <ele>700.40002441406</ele>
        <time>2021-09-30T03:54:37.000Z</time>
      </trkpt>
      <trkpt lat="45.21286" lon="5.73258">
        <ele>700.79998779297</ele>
        <time>2021-09-30T03:54:38.000Z</time>
      </trkpt>
      <trkpt lat="45.21287" lon="5.7326">
        <ele>701.20001220703</ele>
        <time>2021-09-30T03:54:39.000Z</time>
      </trkpt>
      <trkpt lat="45.21288" lon="5.73262">
        <ele>701.40002441406</ele>
        <time>2021-09-30T03:54:40.000Z</time>
      </trkpt>
      <trkpt lat="45.2129" lon="5.73266">
        <ele>702.20001220703</ele>
        <time>2021-09-30T03:54:43.000Z</time>
      </trkpt>
      <trkpt lat="45.21295" lon="5.73267">
        <ele>702.59997558594</ele>
        <time>2021-09-30T03:54:45.000Z</time>
      </trkpt>
      <trkpt lat="45.21297" lon="5.73267">
        <ele>703.59997558594</ele>
        <time>2021-09-30T03:54:47.000Z</time>
      </trkpt>
      <trkpt lat="45.21299" lon="5.73271">
        <ele>704.40002441406</ele>
        <time>2021-09-30T03:54:50.000Z</time>
      </trkpt>
      <trkpt lat="45.213" lon="5.73274">
        <ele>704.79998779297</ele>
        <time>2021-09-30T03:54:51.000Z</time>
      </trkpt>
      <trkpt lat="45.213" lon="5.73277">
        <ele>705</ele>
        <time>2021-09-30T03:54:52.000Z</time>
      </trkpt>
      <trkpt lat="45.21302" lon="5.73284">
        <ele>706</ele>
        <time>2021-09-30T03:54:55.000Z</time>
      </trkpt>
      <trkpt lat="45.21305" lon="5.73287">
        <ele>706.40002441406</ele>
        <time>2021-09-30T03:54:57.000Z</time>
      </trkpt>
      <trkpt lat="45.21306" lon="5.73289">
        <ele>706.59997558594</ele>
        <time>2021-09-30T03:54:58.000Z</time>
      </trkpt>
      <trkpt lat="45.21307" lon="5.7329">
        <ele>707</ele>
        <time>2021-09-30T03:54:59.000Z</time>
      </trkpt>
      <trkpt lat="45.21311" lon="5.73289">
        <ele>708.20001220703</ele>
        <time>2021-09-30T03:55:03.000Z</time>
      </trkpt>
      <trkpt lat="45.21312" lon="5.73288">
        <ele>708.59997558594</ele>
        <time>2021-09-30T03:55:04.000Z</time>
      </trkpt>
      <trkpt lat="45.21316" lon="5.73285">
        <ele>709.40002441406</ele>
        <time>2021-09-30T03:55:07.000Z</time>
      </trkpt>
      <trkpt lat="45.21319" lon="5.73285">
        <ele>710.20001220703</ele>
        <time>2021-09-30T03:55:10.000Z</time>
      </trkpt>
      <trkpt lat="45.2132" lon="5.73286">
        <ele>710.40002441406</ele>
        <time>2021-09-30T03:55:11.000Z</time>
      </trkpt>
      <trkpt lat="45.21321" lon="5.73286">
        <ele>710.79998779297</ele>
        <time>2021-09-30T03:55:12.000Z</time>
      </trkpt>
      <trkpt lat="45.21326" lon="5.73285">
        <ele>711.40002441406</ele>
        <time>2021-09-30T03:55:15.000Z</time>
      </trkpt>
      <trkpt lat="45.21332" lon="5.73283">
        <ele>712.40002441406</ele>
        <time>2021-09-30T03:55:19.000Z</time>
      </trkpt>
      <trkpt lat="45.21333" lon="5.73282">
        <ele>712.59997558594</ele>
        <time>2021-09-30T03:55:20.000Z</time>
      </trkpt>
      <trkpt lat="45.21335" lon="5.73282">
        <ele>713.59997558594</ele>
        <time>2021-09-30T03:55:23.000Z</time>
      </trkpt>
      <trkpt lat="45.21337" lon="5.73282">
        <ele>714</ele>
        <time>2021-09-30T03:55:24.000Z</time>
      </trkpt>
      <trkpt lat="45.21342" lon="5.73288">
        <ele>714.59997558594</ele>
        <time>2021-09-30T03:55:30.000Z</time>
      </trkpt>
      <trkpt lat="45.21345" lon="5.73292">
        <ele>714.79998779297</ele>
        <time>2021-09-30T03:55:32.000Z</time>
      </trkpt>
      <trkpt lat="45.21348" lon="5.73297">
        <ele>715.59997558594</ele>
        <time>2021-09-30T03:55:35.000Z</time>
      </trkpt>
      <trkpt lat="45.2135" lon="5.73299">
        <ele>715.79998779297</ele>
        <time>2021-09-30T03:55:37.000Z</time>
      </trkpt>
      <trkpt lat="45.21351" lon="5.73299">
        <ele>716.20001220703</ele>
        <time>2021-09-30T03:55:38.000Z</time>
      </trkpt>
      <trkpt lat="45.21352" lon="5.73301">
        <ele>716.40002441406</ele>
        <time>2021-09-30T03:55:39.000Z</time>
      </trkpt>
      <trkpt lat="45.21355" lon="5.73305">
        <ele>717</ele>
        <time>2021-09-30T03:55:41.000Z</time>
      </trkpt>
      <trkpt lat="45.21358" lon="5.73308">
        <ele>718.20001220703</ele>
        <time>2021-09-30T03:55:44.000Z</time>
      </trkpt>
      <trkpt lat="45.2136" lon="5.73309">
        <ele>718.59997558594</ele>
        <time>2021-09-30T03:55:45.000Z</time>
      </trkpt>
      <trkpt lat="45.21361" lon="5.73311">
        <ele>719</ele>
        <time>2021-09-30T03:55:46.000Z</time>
      </trkpt>
      <trkpt lat="45.21361" lon="5.73312">
        <ele>719.40002441406</ele>
        <time>2021-09-30T03:55:47.000Z</time>
      </trkpt>
      <trkpt lat="45.21362" lon="5.73313">
        <ele>719.59997558594</ele>
        <time>2021-09-30T03:55:48.000Z</time>
      </trkpt>
      <trkpt lat="45.21366" lon="5.73319">
        <ele>720.40002441406</ele>
        <time>2021-09-30T03:55:52.000Z</time>
      </trkpt>
      <trkpt lat="45.21367" lon="5.7332">
        <ele>720.40002441406</ele>
        <time>2021-09-30T03:55:53.000Z</time>
      </trkpt>
      <trkpt lat="45.2137" lon="5.73324">
        <ele>721.79998779297</ele>
        <time>2021-09-30T03:55:57.000Z</time>
      </trkpt>
      <trkpt lat="45.21372" lon="5.73328">
        <ele>722.79998779297</ele>
        <time>2021-09-30T03:56:00.000Z</time>
      </trkpt>
      <trkpt lat="45.21374" lon="5.73329">
        <ele>723</ele>
        <time>2021-09-30T03:56:01.000Z</time>
      </trkpt>
      <trkpt lat="45.21375" lon="5.73329">
        <ele>724</ele>
        <time>2021-09-30T03:56:03.000Z</time>
      </trkpt>
      <trkpt lat="45.21376" lon="5.73332">
        <ele>724.59997558594</ele>
        <time>2021-09-30T03:56:05.000Z</time>
      </trkpt>
      <trkpt lat="45.21377" lon="5.73337">
        <ele>725</ele>
        <time>2021-09-30T03:56:08.000Z</time>
      </trkpt>
      <trkpt lat="45.21378" lon="5.73338">
        <ele>725.20001220703</ele>
        <time>2021-09-30T03:56:09.000Z</time>
      </trkpt>
      <trkpt lat="45.21378" lon="5.73339">
        <ele>725.40002441406</ele>
        <time>2021-09-30T03:56:10.000Z</time>
      </trkpt>
      <trkpt lat="45.21379" lon="5.7334">
        <ele>725.40002441406</ele>
        <time>2021-09-30T03:56:11.000Z</time>
      </trkpt>
      <trkpt lat="45.21382" lon="5.73345">
        <ele>726.40002441406</ele>
        <time>2021-09-30T03:56:15.000Z</time>
      </trkpt>
      <trkpt lat="45.21386" lon="5.73346">
        <ele>727</ele>
        <time>2021-09-30T03:56:17.000Z</time>
      </trkpt>
      <trkpt lat="45.2139" lon="5.73348">
        <ele>727.59997558594</ele>
        <time>2021-09-30T03:56:19.000Z</time>
      </trkpt>
      <trkpt lat="45.21394" lon="5.73354">
        <ele>728.59997558594</ele>
        <time>2021-09-30T03:56:22.000Z</time>
      </trkpt>
      <trkpt lat="45.21395" lon="5.73359">
        <ele>729</ele>
        <time>2021-09-30T03:56:24.000Z</time>
      </trkpt>
      <trkpt lat="45.21397" lon="5.73363">
        <ele>729.79998779297</ele>
        <time>2021-09-30T03:56:27.000Z</time>
      </trkpt>
      <trkpt lat="45.21402" lon="5.73367">
        <ele>730.79998779297</ele>
        <time>2021-09-30T03:56:31.000Z</time>
      </trkpt>
      <trkpt lat="45.21403" lon="5.73367">
        <ele>731</ele>
        <time>2021-09-30T03:56:32.000Z</time>
      </trkpt>
      <trkpt lat="45.21406" lon="5.73369">
        <ele>731.40002441406</ele>
        <time>2021-09-30T03:56:34.000Z</time>
      </trkpt>
      <trkpt lat="45.21407" lon="5.73369">
        <ele>731.79998779297</ele>
        <time>2021-09-30T03:56:35.000Z</time>
      </trkpt>
      <trkpt lat="45.21409" lon="5.73373">
        <ele>732.40002441406</ele>
        <time>2021-09-30T03:56:37.000Z</time>
      </trkpt>
      <trkpt lat="45.21409" lon="5.73378">
        <ele>733</ele>
        <time>2021-09-30T03:56:39.000Z</time>
      </trkpt>
      <trkpt lat="45.21409" lon="5.73381">
        <ele>733.20001220703</ele>
        <time>2021-09-30T03:56:40.000Z</time>
      </trkpt>
      <trkpt lat="45.21409" lon="5.73383">
        <ele>733.20001220703</ele>
        <time>2021-09-30T03:56:41.000Z</time>
      </trkpt>
      <trkpt lat="45.2141" lon="5.73389">
        <ele>734</ele>
        <time>2021-09-30T03:56:44.000Z</time>
      </trkpt>
      <trkpt lat="45.2141" lon="5.73392">
        <ele>734.40002441406</ele>
        <time>2021-09-30T03:56:45.000Z</time>
      </trkpt>
      <trkpt lat="45.21413" lon="5.73398">
        <ele>735.20001220703</ele>
        <time>2021-09-30T03:56:48.000Z</time>
      </trkpt>
      <trkpt lat="45.21415" lon="5.73403">
        <ele>736.40002441406</ele>
        <time>2021-09-30T03:56:51.000Z</time>
      </trkpt>
      <trkpt lat="45.21416" lon="5.73405">
        <ele>736.79998779297</ele>
        <time>2021-09-30T03:56:52.000Z</time>
      </trkpt>
      <trkpt lat="45.21417" lon="5.73409">
        <ele>737.59997558594</ele>
        <time>2021-09-30T03:56:55.000Z</time>
      </trkpt>
      <trkpt lat="45.21422" lon="5.73416">
        <ele>738.79998779297</ele>
        <time>2021-09-30T03:57:00.000Z</time>
      </trkpt>
      <trkpt lat="45.21425" lon="5.73424">
        <ele>739.79998779297</ele>
        <time>2021-09-30T03:57:05.000Z</time>
      </trkpt>
      <trkpt lat="45.21425" lon="5.73426">
        <ele>740.20001220703</ele>
        <time>2021-09-30T03:57:06.000Z</time>
      </trkpt>
      <trkpt lat="45.21426" lon="5.73432">
        <ele>741</ele>
        <time>2021-09-30T03:57:10.000Z</time>
      </trkpt>
      <trkpt lat="45.21428" lon="5.73434">
        <ele>741.40002441406</ele>
        <time>2021-09-30T03:57:12.000Z</time>
      </trkpt>
      <trkpt lat="45.2143" lon="5.73437">
        <ele>742.20001220703</ele>
        <time>2021-09-30T03:57:14.000Z</time>
      </trkpt>
      <trkpt lat="45.21434" lon="5.73438">
        <ele>743.59997558594</ele>
        <time>2021-09-30T03:57:18.000Z</time>
      </trkpt>
      <trkpt lat="45.21435" lon="5.73439">
        <ele>744</ele>
        <time>2021-09-30T03:57:19.000Z</time>
      </trkpt>
      <trkpt lat="45.21437" lon="5.73443">
        <ele>744.59997558594</ele>
        <time>2021-09-30T03:57:21.000Z</time>
      </trkpt>
      <trkpt lat="45.21438" lon="5.73445">
        <ele>744.79998779297</ele>
        <time>2021-09-30T03:57:22.000Z</time>
      </trkpt>
      <trkpt lat="45.21439" lon="5.73449">
        <ele>745.20001220703</ele>
        <time>2021-09-30T03:57:24.000Z</time>
      </trkpt>
      <trkpt lat="45.21442" lon="5.7345">
        <ele>745.40002441406</ele>
        <time>2021-09-30T03:57:26.000Z</time>
      </trkpt>
      <trkpt lat="45.21444" lon="5.73451">
        <ele>745.79998779297</ele>
        <time>2021-09-30T03:57:28.000Z</time>
      </trkpt>
      <trkpt lat="45.21445" lon="5.73451">
        <ele>746.20001220703</ele>
        <time>2021-09-30T03:57:29.000Z</time>
      </trkpt>
      <trkpt lat="45.21446" lon="5.73458">
        <ele>747</ele>
        <time>2021-09-30T03:57:32.000Z</time>
      </trkpt>
      <trkpt lat="45.21448" lon="5.73463">
        <ele>747.40002441406</ele>
        <time>2021-09-30T03:57:34.000Z</time>
      </trkpt>
      <trkpt lat="45.2145" lon="5.73467">
        <ele>748</ele>
        <time>2021-09-30T03:57:36.000Z</time>
      </trkpt>
      <trkpt lat="45.21451" lon="5.73471">
        <ele>748.40002441406</ele>
        <time>2021-09-30T03:57:38.000Z</time>
      </trkpt>
      <trkpt lat="45.21454" lon="5.73476">
        <ele>749.20001220703</ele>
        <time>2021-09-30T03:57:40.000Z</time>
      </trkpt>
      <trkpt lat="45.21456" lon="5.73478">
        <ele>749.59997558594</ele>
        <time>2021-09-30T03:57:42.000Z</time>
      </trkpt>
      <trkpt lat="45.21459" lon="5.7348">
        <ele>750.40002441406</ele>
        <time>2021-09-30T03:57:44.000Z</time>
      </trkpt>
      <trkpt lat="45.21461" lon="5.73482">
        <ele>750.59997558594</ele>
        <time>2021-09-30T03:57:46.000Z</time>
      </trkpt>
      <trkpt lat="45.21464" lon="5.73486">
        <ele>751.59997558594</ele>
        <time>2021-09-30T03:57:49.000Z</time>
      </trkpt>
      <trkpt lat="45.21467" lon="5.73491">
        <ele>752.59997558594</ele>
        <time>2021-09-30T03:57:52.000Z</time>
      </trkpt>
      <trkpt lat="45.21467" lon="5.73494">
        <ele>753.20001220703</ele>
        <time>2021-09-30T03:57:53.000Z</time>
      </trkpt>
      <trkpt lat="45.21468" lon="5.73498">
        <ele>753.59997558594</ele>
        <time>2021-09-30T03:57:55.000Z</time>
      </trkpt>
      <trkpt lat="45.21469" lon="5.73506">
        <ele>754.79998779297</ele>
        <time>2021-09-30T03:57:59.000Z</time>
      </trkpt>
      <trkpt lat="45.2147" lon="5.7351">
        <ele>755.20001220703</ele>
        <time>2021-09-30T03:58:01.000Z</time>
      </trkpt>
      <trkpt lat="45.2147" lon="5.73513">
        <ele>755.59997558594</ele>
        <time>2021-09-30T03:58:02.000Z</time>
      </trkpt>
      <trkpt lat="45.2147" lon="5.73515">
        <ele>755.79998779297</ele>
        <time>2021-09-30T03:58:03.000Z</time>
      </trkpt>
      <trkpt lat="45.2147" lon="5.73521">
        <ele>756.79998779297</ele>
        <time>2021-09-30T03:58:08.000Z</time>
      </trkpt>
      <trkpt lat="45.21471" lon="5.73523">
        <ele>757.20001220703</ele>
        <time>2021-09-30T03:58:09.000Z</time>
      </trkpt>
      <trkpt lat="45.21474" lon="5.73529">
        <ele>758.20001220703</ele>
        <time>2021-09-30T03:58:13.000Z</time>
      </trkpt>
      <trkpt lat="45.21479" lon="5.73537">
        <ele>759.40002441406</ele>
        <time>2021-09-30T03:58:18.000Z</time>
      </trkpt>
      <trkpt lat="45.21481" lon="5.7354">
        <ele>760.20001220703</ele>
        <time>2021-09-30T03:58:20.000Z</time>
      </trkpt>
      <trkpt lat="45.21483" lon="5.73544">
        <ele>760.59997558594</ele>
        <time>2021-09-30T03:58:23.000Z</time>
      </trkpt>
      <trkpt lat="45.21485" lon="5.73547">
        <ele>761.20001220703</ele>
        <time>2021-09-30T03:58:25.000Z</time>
      </trkpt>
      <trkpt lat="45.21487" lon="5.73549">
        <ele>761.79998779297</ele>
        <time>2021-09-30T03:58:27.000Z</time>
      </trkpt>
      <trkpt lat="45.21489" lon="5.73549">
        <ele>762</ele>
        <time>2021-09-30T03:58:28.000Z</time>
      </trkpt>
      <trkpt lat="45.2149" lon="5.7355">
        <ele>762.20001220703</ele>
        <time>2021-09-30T03:58:29.000Z</time>
      </trkpt>
      <trkpt lat="45.21494" lon="5.73552">
        <ele>762.79998779297</ele>
        <time>2021-09-30T03:58:32.000Z</time>
      </trkpt>
      <trkpt lat="45.21495" lon="5.73554">
        <ele>763</ele>
        <time>2021-09-30T03:58:33.000Z</time>
      </trkpt>
      <trkpt lat="45.215" lon="5.73554">
        <ele>763.79998779297</ele>
        <time>2021-09-30T03:58:36.000Z</time>
      </trkpt>
      <trkpt lat="45.21503" lon="5.73555">
        <ele>764.20001220703</ele>
        <time>2021-09-30T03:58:37.000Z</time>
      </trkpt>
      <trkpt lat="45.21506" lon="5.73556">
        <ele>765.40002441406</ele>
        <time>2021-09-30T03:58:40.000Z</time>
      </trkpt>
      <trkpt lat="45.2151" lon="5.73562">
        <ele>766.40002441406</ele>
        <time>2021-09-30T03:58:43.000Z</time>
      </trkpt>
      <trkpt lat="45.21511" lon="5.73565">
        <ele>766.59997558594</ele>
        <time>2021-09-30T03:58:44.000Z</time>
      </trkpt>
      <trkpt lat="45.21512" lon="5.73568">
        <ele>767</ele>
        <time>2021-09-30T03:58:45.000Z</time>
      </trkpt>
      <trkpt lat="45.2151" lon="5.73574">
        <ele>767.59997558594</ele>
        <time>2021-09-30T03:58:48.000Z</time>
      </trkpt>
      <trkpt lat="45.21509" lon="5.73576">
        <ele>767.79998779297</ele>
        <time>2021-09-30T03:58:49.000Z</time>
      </trkpt>
      <trkpt lat="45.2151" lon="5.7358">
        <ele>768.59997558594</ele>
        <time>2021-09-30T03:58:51.000Z</time>
      </trkpt>
      <trkpt lat="45.2151" lon="5.73581">
        <ele>768.79998779297</ele>
        <time>2021-09-30T03:58:52.000Z</time>
      </trkpt>
      <trkpt lat="45.2151" lon="5.73584">
        <ele>769.20001220703</ele>
        <time>2021-09-30T03:58:54.000Z</time>
      </trkpt>
      <trkpt lat="45.2151" lon="5.73588">
        <ele>769.59997558594</ele>
        <time>2021-09-30T03:58:56.000Z</time>
      </trkpt>
      <trkpt lat="45.21511" lon="5.7359">
        <ele>770.20001220703</ele>
        <time>2021-09-30T03:58:57.000Z</time>
      </trkpt>
      <trkpt lat="45.21512" lon="5.73592">
        <ele>770.79998779297</ele>
        <time>2021-09-30T03:58:59.000Z</time>
      </trkpt>
      <trkpt lat="45.21515" lon="5.73594">
        <ele>771.20001220703</ele>
        <time>2021-09-30T03:59:01.000Z</time>
      </trkpt>
      <trkpt lat="45.21516" lon="5.73595">
        <ele>771.59997558594</ele>
        <time>2021-09-30T03:59:02.000Z</time>
      </trkpt>
      <trkpt lat="45.21516" lon="5.73594">
        <ele>772.40002441406</ele>
        <time>2021-09-30T03:59:04.000Z</time>
      </trkpt>
      <trkpt lat="45.21514" lon="5.7359">
        <ele>773</ele>
        <time>2021-09-30T03:59:07.000Z</time>
      </trkpt>
      <trkpt lat="45.21514" lon="5.73587">
        <ele>773.79998779297</ele>
        <time>2021-09-30T03:59:09.000Z</time>
      </trkpt>
      <trkpt lat="45.21515" lon="5.73585">
        <ele>774</ele>
        <time>2021-09-30T03:59:10.000Z</time>
      </trkpt>
      <trkpt lat="45.21518" lon="5.73579">
        <ele>775</ele>
        <time>2021-09-30T03:59:14.000Z</time>
      </trkpt>
      <trkpt lat="45.21519" lon="5.73578">
        <ele>775.59997558594</ele>
        <time>2021-09-30T03:59:17.000Z</time>
      </trkpt>
      <trkpt lat="45.21519" lon="5.7358">
        <ele>775.79998779297</ele>
        <time>2021-09-30T03:59:19.000Z</time>
      </trkpt>
      <trkpt lat="45.21519" lon="5.73581">
        <ele>776.20001220703</ele>
        <time>2021-09-30T03:59:20.000Z</time>
      </trkpt>
      <trkpt lat="45.21521" lon="5.73587">
        <ele>777.40002441406</ele>
        <time>2021-09-30T03:59:23.000Z</time>
      </trkpt>
      <trkpt lat="45.21522" lon="5.7359">
        <ele>777.59997558594</ele>
        <time>2021-09-30T03:59:24.000Z</time>
      </trkpt>
      <trkpt lat="45.21525" lon="5.73595">
        <ele>778.59997558594</ele>
        <time>2021-09-30T03:59:27.000Z</time>
      </trkpt>
      <trkpt lat="45.21528" lon="5.73596">
        <ele>779</ele>
        <time>2021-09-30T03:59:29.000Z</time>
      </trkpt>
      <trkpt lat="45.2153" lon="5.73603">
        <ele>780</ele>
        <time>2021-09-30T03:59:33.000Z</time>
      </trkpt>
      <trkpt lat="45.21531" lon="5.73605">
        <ele>780.40002441406</ele>
        <time>2021-09-30T03:59:35.000Z</time>
      </trkpt>
      <trkpt lat="45.21534" lon="5.73611">
        <ele>781.20001220703</ele>
        <time>2021-09-30T03:59:39.000Z</time>
      </trkpt>
      <trkpt lat="45.21538" lon="5.73615">
        <ele>781.79998779297</ele>
        <time>2021-09-30T03:59:42.000Z</time>
      </trkpt>
      <trkpt lat="45.21538" lon="5.73616">
        <ele>782.20001220703</ele>
        <time>2021-09-30T03:59:43.000Z</time>
      </trkpt>
      <trkpt lat="45.21539" lon="5.73618">
        <ele>782.40002441406</ele>
        <time>2021-09-30T03:59:44.000Z</time>
      </trkpt>
      <trkpt lat="45.21539" lon="5.73619">
        <ele>783.20001220703</ele>
        <time>2021-09-30T03:59:48.000Z</time>
      </trkpt>
      <trkpt lat="45.21539" lon="5.73619">
        <ele>783.20001220703</ele>
        <time>2021-09-30T03:59:49.000Z</time>
      </trkpt>
      <trkpt lat="45.21539" lon="5.73618">
        <ele>783.79998779297</ele>
        <time>2021-09-30T03:59:50.000Z</time>
      </trkpt>
      <trkpt lat="45.21538" lon="5.73613">
        <ele>784.40002441406</ele>
        <time>2021-09-30T03:59:53.000Z</time>
      </trkpt>
      <trkpt lat="45.21538" lon="5.73611">
        <ele>784.59997558594</ele>
        <time>2021-09-30T03:59:54.000Z</time>
      </trkpt>
      <trkpt lat="45.21537" lon="5.7361">
        <ele>785</ele>
        <time>2021-09-30T03:59:55.000Z</time>
      </trkpt>
      <trkpt lat="45.21534" lon="5.73605">
        <ele>786.20001220703</ele>
        <time>2021-09-30T04:00:00.000Z</time>
      </trkpt>
      <trkpt lat="45.21534" lon="5.73603">
        <ele>786.20001220703</ele>
        <time>2021-09-30T04:00:01.000Z</time>
      </trkpt>
      <trkpt lat="45.21534" lon="5.73602">
        <ele>786.59997558594</ele>
        <time>2021-09-30T04:00:02.000Z</time>
      </trkpt>
      <trkpt lat="45.21533" lon="5.73599">
        <ele>787</ele>
        <time>2021-09-30T04:00:05.000Z</time>
      </trkpt>
      <trkpt lat="45.21534" lon="5.73599">
        <ele>787.20001220703</ele>
        <time>2021-09-30T04:00:06.000Z</time>
      </trkpt>
      <trkpt lat="45.21535" lon="5.73599">
        <ele>787.40002441406</ele>
        <time>2021-09-30T04:00:07.000Z</time>
      </trkpt>
      <trkpt lat="45.21539" lon="5.73601">
        <ele>788.20001220703</ele>
        <time>2021-09-30T04:00:10.000Z</time>
      </trkpt>
      <trkpt lat="45.21544" lon="5.73609">
        <ele>789.59997558594</ele>
        <time>2021-09-30T04:00:16.000Z</time>
      </trkpt>
      <trkpt lat="45.21545" lon="5.7361">
        <ele>790</ele>
        <time>2021-09-30T04:00:18.000Z</time>
      </trkpt>
      <trkpt lat="45.21545" lon="5.73608">
        <ele>790.79998779297</ele>
        <time>2021-09-30T04:00:20.000Z</time>
      </trkpt>
      <trkpt lat="45.21542" lon="5.73598">
        <ele>791.79998779297</ele>
        <time>2021-09-30T04:00:26.000Z</time>
      </trkpt>
      <trkpt lat="45.21542" lon="5.73596">
        <ele>792.20001220703</ele>
        <time>2021-09-30T04:00:27.000Z</time>
      </trkpt>
      <trkpt lat="45.2154" lon="5.73591">
        <ele>793</ele>
        <time>2021-09-30T04:00:30.000Z</time>
      </trkpt>
      <trkpt lat="45.2154" lon="5.73584">
        <ele>794.20001220703</ele>
        <time>2021-09-30T04:00:34.000Z</time>
      </trkpt>
      <trkpt lat="45.21539" lon="5.73582">
        <ele>794.59997558594</ele>
        <time>2021-09-30T04:00:35.000Z</time>
      </trkpt>
      <trkpt lat="45.21538" lon="5.73576">
        <ele>795.20001220703</ele>
        <time>2021-09-30T04:00:38.000Z</time>
      </trkpt>
      <trkpt lat="45.21537" lon="5.73573">
        <ele>795.59997558594</ele>
        <time>2021-09-30T04:00:40.000Z</time>
      </trkpt>
      <trkpt lat="45.21537" lon="5.7357">
        <ele>795.79998779297</ele>
        <time>2021-09-30T04:00:41.000Z</time>
      </trkpt>
      <trkpt lat="45.21537" lon="5.73566">
        <ele>796.59997558594</ele>
        <time>2021-09-30T04:00:43.000Z</time>
      </trkpt>
      <trkpt lat="45.21538" lon="5.7356">
        <ele>797.59997558594</ele>
        <time>2021-09-30T04:00:46.000Z</time>
      </trkpt>
      <trkpt lat="45.21538" lon="5.73558">
        <ele>797.79998779297</ele>
        <time>2021-09-30T04:00:47.000Z</time>
      </trkpt>
      <trkpt lat="45.21538" lon="5.7355">
        <ele>798.59997558594</ele>
        <time>2021-09-30T04:00:50.000Z</time>
      </trkpt>
      <trkpt lat="45.21537" lon="5.73548">
        <ele>798.79998779297</ele>
        <time>2021-09-30T04:00:51.000Z</time>
      </trkpt>
      <trkpt lat="45.21537" lon="5.73547">
        <ele>799.20001220703</ele>
        <time>2021-09-30T04:00:52.000Z</time>
      </trkpt>
      <trkpt lat="45.21537" lon="5.73546">
        <ele>799.40002441406</ele>
        <time>2021-09-30T04:00:53.000Z</time>
      </trkpt>
      <trkpt lat="45.21538" lon="5.73546">
        <ele>799.59997558594</ele>
        <time>2021-09-30T04:00:54.000Z</time>
      </trkpt>
      <trkpt lat="45.21538" lon="5.73547">
        <ele>800</ele>
        <time>2021-09-30T04:00:55.000Z</time>
      </trkpt>
      <trkpt lat="45.21539" lon="5.73549">
        <ele>800.59997558594</ele>
        <time>2021-09-30T04:00:57.000Z</time>
      </trkpt>
      <trkpt lat="45.21542" lon="5.73554">
        <ele>801.40002441406</ele>
        <time>2021-09-30T04:01:00.000Z</time>
      </trkpt>
      <trkpt lat="45.21544" lon="5.73556">
        <ele>801.79998779297</ele>
        <time>2021-09-30T04:01:01.000Z</time>
      </trkpt>
      <trkpt lat="45.21547" lon="5.73565">
        <ele>802.79998779297</ele>
        <time>2021-09-30T04:01:05.000Z</time>
      </trkpt>
      <trkpt lat="45.2155" lon="5.73567">
        <ele>803.40002441406</ele>
        <time>2021-09-30T04:01:07.000Z</time>
      </trkpt>
      <trkpt lat="45.21553" lon="5.7357">
        <ele>804.20001220703</ele>
        <time>2021-09-30T04:01:09.000Z</time>
      </trkpt>
      <trkpt lat="45.21557" lon="5.73575">
        <ele>805.20001220703</ele>
        <time>2021-09-30T04:01:13.000Z</time>
      </trkpt>
      <trkpt lat="45.21558" lon="5.73576">
        <ele>805.79998779297</ele>
        <time>2021-09-30T04:01:15.000Z</time>
      </trkpt>
      <trkpt lat="45.2156" lon="5.73578">
        <ele>806.40002441406</ele>
        <time>2021-09-30T04:01:17.000Z</time>
      </trkpt>
      <trkpt lat="45.21562" lon="5.7358">
        <ele>807.59997558594</ele>
        <time>2021-09-30T04:01:21.000Z</time>
      </trkpt>
      <trkpt lat="45.21562" lon="5.73582">
        <ele>807.79998779297</ele>
        <time>2021-09-30T04:01:22.000Z</time>
      </trkpt>
      <trkpt lat="45.21563" lon="5.73583">
        <ele>808</ele>
        <time>2021-09-30T04:01:23.000Z</time>
      </trkpt>
      <trkpt lat="45.21566" lon="5.73586">
        <ele>809</ele>
        <time>2021-09-30T04:01:26.000Z</time>
      </trkpt>
      <trkpt lat="45.21565" lon="5.73586">
        <ele>809.40002441406</ele>
        <time>2021-09-30T04:01:28.000Z</time>
      </trkpt>
      <trkpt lat="45.21564" lon="5.73584">
        <ele>810.20001220703</ele>
        <time>2021-09-30T04:01:30.000Z</time>
      </trkpt>
      <trkpt lat="45.21563" lon="5.73581">
        <ele>810.59997558594</ele>
        <time>2021-09-30T04:01:32.000Z</time>
      </trkpt>
      <trkpt lat="45.21563" lon="5.7358">
        <ele>810.79998779297</ele>
        <time>2021-09-30T04:01:33.000Z</time>
      </trkpt>
      <trkpt lat="45.21562" lon="5.73579">
        <ele>811.40002441406</ele>
        <time>2021-09-30T04:01:34.000Z</time>
      </trkpt>
      <trkpt lat="45.2156" lon="5.7357">
        <ele>812.79998779297</ele>
        <time>2021-09-30T04:01:39.000Z</time>
      </trkpt>
      <trkpt lat="45.21559" lon="5.73563">
        <ele>813.59997558594</ele>
        <time>2021-09-30T04:01:42.000Z</time>
      </trkpt>
      <trkpt lat="45.21559" lon="5.73561">
        <ele>814</ele>
        <time>2021-09-30T04:01:43.000Z</time>
      </trkpt>
      <trkpt lat="45.21556" lon="5.73552">
        <ele>815.20001220703</ele>
        <time>2021-09-30T04:01:48.000Z</time>
      </trkpt>
      <trkpt lat="45.21556" lon="5.7355">
        <ele>815.40002441406</ele>
        <time>2021-09-30T04:01:49.000Z</time>
      </trkpt>
      <trkpt lat="45.21556" lon="5.73546">
        <ele>816.20001220703</ele>
        <time>2021-09-30T04:01:51.000Z</time>
      </trkpt>
      <trkpt lat="45.21555" lon="5.73537">
        <ele>817.40002441406</ele>
        <time>2021-09-30T04:01:55.000Z</time>
      </trkpt>
      <trkpt lat="45.21555" lon="5.73528">
        <ele>818.59997558594</ele>
        <time>2021-09-30T04:01:59.000Z</time>
      </trkpt>
      <trkpt lat="45.21556" lon="5.73521">
        <ele>819.20001220703</ele>
        <time>2021-09-30T04:02:02.000Z</time>
      </trkpt>
      <trkpt lat="45.21556" lon="5.73519">
        <ele>819.79998779297</ele>
        <time>2021-09-30T04:02:03.000Z</time>
      </trkpt>
      <trkpt lat="45.21554" lon="5.7351">
        <ele>820.79998779297</ele>
        <time>2021-09-30T04:02:07.000Z</time>
      </trkpt>
      <trkpt lat="45.21554" lon="5.73508">
        <ele>821</ele>
        <time>2021-09-30T04:02:09.000Z</time>
      </trkpt>
      <trkpt lat="45.21554" lon="5.73505">
        <ele>821.59997558594</ele>
        <time>2021-09-30T04:02:11.000Z</time>
      </trkpt>
      <trkpt lat="45.21554" lon="5.73503">
        <ele>822</ele>
        <time>2021-09-30T04:02:12.000Z</time>
      </trkpt>
      <trkpt lat="45.21553" lon="5.735">
        <ele>822.59997558594</ele>
        <time>2021-09-30T04:02:14.000Z</time>
      </trkpt>
      <trkpt lat="45.21553" lon="5.73497">
        <ele>823</ele>
        <time>2021-09-30T04:02:16.000Z</time>
      </trkpt>
      <trkpt lat="45.2155" lon="5.73489">
        <ele>824</ele>
        <time>2021-09-30T04:02:21.000Z</time>
      </trkpt>
      <trkpt lat="45.21547" lon="5.73488">
        <ele>824.20001220703</ele>
        <time>2021-09-30T04:02:23.000Z</time>
      </trkpt>
      <trkpt lat="45.21543" lon="5.73486">
        <ele>825</ele>
        <time>2021-09-30T04:02:26.000Z</time>
      </trkpt>
      <trkpt lat="45.21542" lon="5.73486">
        <ele>825.20001220703</ele>
        <time>2021-09-30T04:02:27.000Z</time>
      </trkpt>
      <trkpt lat="45.21542" lon="5.73486">
        <ele>825.40002441406</ele>
        <time>2021-09-30T04:02:28.000Z</time>
      </trkpt>
      <trkpt lat="45.21538" lon="5.7348">
        <ele>826.40002441406</ele>
        <time>2021-09-30T04:02:32.000Z</time>
      </trkpt>
      <trkpt lat="45.21538" lon="5.73477">
        <ele>827</ele>
        <time>2021-09-30T04:02:34.000Z</time>
      </trkpt>
      <trkpt lat="45.2154" lon="5.73478">
        <ele>827.40002441406</ele>
        <time>2021-09-30T04:02:36.000Z</time>
      </trkpt>
      <trkpt lat="45.21541" lon="5.73478">
        <ele>827.59997558594</ele>
        <time>2021-09-30T04:02:37.000Z</time>
      </trkpt>
      <trkpt lat="45.21545" lon="5.73481">
        <ele>828.79998779297</ele>
        <time>2021-09-30T04:02:40.000Z</time>
      </trkpt>
      <trkpt lat="45.21549" lon="5.73482">
        <ele>829.79998779297</ele>
        <time>2021-09-30T04:02:43.000Z</time>
      </trkpt>
      <trkpt lat="45.21553" lon="5.73483">
        <ele>830.59997558594</ele>
        <time>2021-09-30T04:02:46.000Z</time>
      </trkpt>
      <trkpt lat="45.21556" lon="5.73483">
        <ele>831</ele>
        <time>2021-09-30T04:02:48.000Z</time>
      </trkpt>
      <trkpt lat="45.21558" lon="5.73484">
        <ele>831.20001220703</ele>
        <time>2021-09-30T04:02:49.000Z</time>
      </trkpt>
      <trkpt lat="45.21563" lon="5.73485">
        <ele>832.20001220703</ele>
        <time>2021-09-30T04:02:53.000Z</time>
      </trkpt>
      <trkpt lat="45.21564" lon="5.73486">
        <ele>832.79998779297</ele>
        <time>2021-09-30T04:02:55.000Z</time>
      </trkpt>
      <trkpt lat="45.2157" lon="5.73492">
        <ele>833.40002441406</ele>
        <time>2021-09-30T04:02:58.000Z</time>
      </trkpt>
      <trkpt lat="45.21574" lon="5.73496">
        <ele>834.40002441406</ele>
        <time>2021-09-30T04:03:02.000Z</time>
      </trkpt>
      <trkpt lat="45.21578" lon="5.73502">
        <ele>835.59997558594</ele>
        <time>2021-09-30T04:03:05.000Z</time>
      </trkpt>
      <trkpt lat="45.2158" lon="5.73507">
        <ele>836.40002441406</ele>
        <time>2021-09-30T04:03:08.000Z</time>
      </trkpt>
      <trkpt lat="45.21581" lon="5.73509">
        <ele>836.79998779297</ele>
        <time>2021-09-30T04:03:09.000Z</time>
      </trkpt>
      <trkpt lat="45.21581" lon="5.73512">
        <ele>837</ele>
        <time>2021-09-30T04:03:10.000Z</time>
      </trkpt>
      <trkpt lat="45.21583" lon="5.73517">
        <ele>838</ele>
        <time>2021-09-30T04:03:13.000Z</time>
      </trkpt>
      <trkpt lat="45.21585" lon="5.73521">
        <ele>838.59997558594</ele>
        <time>2021-09-30T04:03:15.000Z</time>
      </trkpt>
      <trkpt lat="45.21587" lon="5.73525">
        <ele>839.20001220703</ele>
        <time>2021-09-30T04:03:17.000Z</time>
      </trkpt>
      <trkpt lat="45.21592" lon="5.7353">
        <ele>840.40002441406</ele>
        <time>2021-09-30T04:03:20.000Z</time>
      </trkpt>
      <trkpt lat="45.21593" lon="5.73531">
        <ele>840.59997558594</ele>
        <time>2021-09-30T04:03:21.000Z</time>
      </trkpt>
      <trkpt lat="45.21594" lon="5.73533">
        <ele>840.79998779297</ele>
        <time>2021-09-30T04:03:22.000Z</time>
      </trkpt>
      <trkpt lat="45.21594" lon="5.73536">
        <ele>841.59997558594</ele>
        <time>2021-09-30T04:03:24.000Z</time>
      </trkpt>
      <trkpt lat="45.21597" lon="5.7354">
        <ele>842.40002441406</ele>
        <time>2021-09-30T04:03:27.000Z</time>
      </trkpt>
      <trkpt lat="45.21598" lon="5.73542">
        <ele>842.79998779297</ele>
        <time>2021-09-30T04:03:28.000Z</time>
      </trkpt>
      <trkpt lat="45.21599" lon="5.73543">
        <ele>843</ele>
        <time>2021-09-30T04:03:29.000Z</time>
      </trkpt>
      <trkpt lat="45.21602" lon="5.73546">
        <ele>844</ele>
        <time>2021-09-30T04:03:32.000Z</time>
      </trkpt>
      <trkpt lat="45.21604" lon="5.73551">
        <ele>844.79998779297</ele>
        <time>2021-09-30T04:03:35.000Z</time>
      </trkpt>
      <trkpt lat="45.21604" lon="5.73553">
        <ele>845.20001220703</ele>
        <time>2021-09-30T04:03:36.000Z</time>
      </trkpt>
      <trkpt lat="45.21606" lon="5.73556">
        <ele>845.59997558594</ele>
        <time>2021-09-30T04:03:38.000Z</time>
      </trkpt>
      <trkpt lat="45.21607" lon="5.73557">
        <ele>846.20001220703</ele>
        <time>2021-09-30T04:03:40.000Z</time>
      </trkpt>
      <trkpt lat="45.2161" lon="5.73561">
        <ele>847</ele>
        <time>2021-09-30T04:03:43.000Z</time>
      </trkpt>
      <trkpt lat="45.2161" lon="5.73562">
        <ele>847.40002441406</ele>
        <time>2021-09-30T04:03:44.000Z</time>
      </trkpt>
      <trkpt lat="45.21613" lon="5.73565">
        <ele>848.40002441406</ele>
        <time>2021-09-30T04:03:47.000Z</time>
      </trkpt>
      <trkpt lat="45.21616" lon="5.73571">
        <ele>849.20001220703</ele>
        <time>2021-09-30T04:03:51.000Z</time>
      </trkpt>
      <trkpt lat="45.21618" lon="5.73572">
        <ele>849.59997558594</ele>
        <time>2021-09-30T04:03:52.000Z</time>
      </trkpt>
      <trkpt lat="45.21618" lon="5.73573">
        <ele>849.79998779297</ele>
        <time>2021-09-30T04:03:53.000Z</time>
      </trkpt>
      <trkpt lat="45.21619" lon="5.73574">
        <ele>850.20001220703</ele>
        <time>2021-09-30T04:03:54.000Z</time>
      </trkpt>
      <trkpt lat="45.2162" lon="5.73575">
        <ele>850.59997558594</ele>
        <time>2021-09-30T04:03:55.000Z</time>
      </trkpt>
      <trkpt lat="45.21623" lon="5.73578">
        <ele>851.20001220703</ele>
        <time>2021-09-30T04:03:57.000Z</time>
      </trkpt>
      <trkpt lat="45.21624" lon="5.73578">
        <ele>851.59997558594</ele>
        <time>2021-09-30T04:03:59.000Z</time>
      </trkpt>
      <trkpt lat="45.21625" lon="5.73578">
        <ele>851.79998779297</ele>
        <time>2021-09-30T04:04:00.000Z</time>
      </trkpt>
      <trkpt lat="45.21625" lon="5.73576">
        <ele>852.40002441406</ele>
        <time>2021-09-30T04:04:02.000Z</time>
      </trkpt>
      <trkpt lat="45.21624" lon="5.73576">
        <ele>852.79998779297</ele>
        <time>2021-09-30T04:04:03.000Z</time>
      </trkpt>
      <trkpt lat="45.21623" lon="5.73568">
        <ele>854</ele>
        <time>2021-09-30T04:04:07.000Z</time>
      </trkpt>
      <trkpt lat="45.21621" lon="5.73563">
        <ele>855.20001220703</ele>
        <time>2021-09-30T04:04:10.000Z</time>
      </trkpt>
      <trkpt lat="45.21619" lon="5.73558">
        <ele>856.20001220703</ele>
        <time>2021-09-30T04:04:13.000Z</time>
      </trkpt>
      <trkpt lat="45.21618" lon="5.73556">
        <ele>856.40002441406</ele>
        <time>2021-09-30T04:04:14.000Z</time>
      </trkpt>
      <trkpt lat="45.21617" lon="5.73551">
        <ele>857.40002441406</ele>
        <time>2021-09-30T04:04:17.000Z</time>
      </trkpt>
      <trkpt lat="45.21617" lon="5.7355">
        <ele>857.59997558594</ele>
        <time>2021-09-30T04:04:18.000Z</time>
      </trkpt>
      <trkpt lat="45.21616" lon="5.73548">
        <ele>858</ele>
        <time>2021-09-30T04:04:19.000Z</time>
      </trkpt>
      <trkpt lat="45.21616" lon="5.73544">
        <ele>858.59997558594</ele>
        <time>2021-09-30T04:04:21.000Z</time>
      </trkpt>
      <trkpt lat="45.21616" lon="5.73541">
        <ele>858.79998779297</ele>
        <time>2021-09-30T04:04:22.000Z</time>
      </trkpt>
      <trkpt lat="45.21615" lon="5.73535">
        <ele>859.59997558594</ele>
        <time>2021-09-30T04:04:25.000Z</time>
      </trkpt>
      <trkpt lat="45.21616" lon="5.73532">
        <ele>860</ele>
        <time>2021-09-30T04:04:27.000Z</time>
      </trkpt>
      <trkpt lat="45.21616" lon="5.73531">
        <ele>860.59997558594</ele>
        <time>2021-09-30T04:04:28.000Z</time>
      </trkpt>
      <trkpt lat="45.21617" lon="5.73531">
        <ele>860.79998779297</ele>
        <time>2021-09-30T04:04:29.000Z</time>
      </trkpt>
      <trkpt lat="45.21618" lon="5.73534">
        <ele>861.20001220703</ele>
        <time>2021-09-30T04:04:31.000Z</time>
      </trkpt>
      <trkpt lat="45.21622" lon="5.7354">
        <ele>862.20001220703</ele>
        <time>2021-09-30T04:04:35.000Z</time>
      </trkpt>
      <trkpt lat="45.21623" lon="5.73544">
        <ele>863</ele>
        <time>2021-09-30T04:04:38.000Z</time>
      </trkpt>
      <trkpt lat="45.21624" lon="5.73545">
        <ele>863.40002441406</ele>
        <time>2021-09-30T04:04:40.000Z</time>
      </trkpt>
      <trkpt lat="45.21625" lon="5.73546">
        <ele>863.59997558594</ele>
        <time>2021-09-30T04:04:41.000Z</time>
      </trkpt>
      <trkpt lat="45.21627" lon="5.73549">
        <ele>864.40002441406</ele>
        <time>2021-09-30T04:04:44.000Z</time>
      </trkpt>
      <trkpt lat="45.21632" lon="5.73554">
        <ele>865.40002441406</ele>
        <time>2021-09-30T04:04:48.000Z</time>
      </trkpt>
      <trkpt lat="45.21633" lon="5.73555">
        <ele>865.59997558594</ele>
        <time>2021-09-30T04:04:49.000Z</time>
      </trkpt>
      <trkpt lat="45.21635" lon="5.73558">
        <ele>866</ele>
        <time>2021-09-30T04:04:51.000Z</time>
      </trkpt>
      <trkpt lat="45.21636" lon="5.73559">
        <ele>866.40002441406</ele>
        <time>2021-09-30T04:04:52.000Z</time>
      </trkpt>
      <trkpt lat="45.21643" lon="5.73562">
        <ele>867.79998779297</ele>
        <time>2021-09-30T04:04:57.000Z</time>
      </trkpt>
      <trkpt lat="45.2165" lon="5.73563">
        <ele>869.20001220703</ele>
        <time>2021-09-30T04:05:04.000Z</time>
      </trkpt>
      <trkpt lat="45.21651" lon="5.73562">
        <ele>869.40002441406</ele>
        <time>2021-09-30T04:05:05.000Z</time>
      </trkpt>
      <trkpt lat="45.21655" lon="5.73562">
        <ele>870.59997558594</ele>
        <time>2021-09-30T04:05:08.000Z</time>
      </trkpt>
      <trkpt lat="45.21658" lon="5.73562">
        <ele>871</ele>
        <time>2021-09-30T04:05:11.000Z</time>
      </trkpt>
      <trkpt lat="45.2166" lon="5.7356">
        <ele>871.79998779297</ele>
        <time>2021-09-30T04:05:14.000Z</time>
      </trkpt>
      <trkpt lat="45.21663" lon="5.7356">
        <ele>872.59997558594</ele>
        <time>2021-09-30T04:05:17.000Z</time>
      </trkpt>
      <trkpt lat="45.21666" lon="5.7356">
        <ele>873.20001220703</ele>
        <time>2021-09-30T04:05:19.000Z</time>
      </trkpt>
      <trkpt lat="45.21672" lon="5.73559">
        <ele>873.79998779297</ele>
        <time>2021-09-30T04:05:22.000Z</time>
      </trkpt>
      <trkpt lat="45.21674" lon="5.73559">
        <ele>874.40002441406</ele>
        <time>2021-09-30T04:05:23.000Z</time>
      </trkpt>
      <trkpt lat="45.21678" lon="5.73558">
        <ele>874.59997558594</ele>
        <time>2021-09-30T04:05:25.000Z</time>
      </trkpt>
      <trkpt lat="45.21684" lon="5.73561">
        <ele>875</ele>
        <time>2021-09-30T04:05:28.000Z</time>
      </trkpt>
      <trkpt lat="45.21687" lon="5.73561">
        <ele>875.40002441406</ele>
        <time>2021-09-30T04:05:30.000Z</time>
      </trkpt>
      <trkpt lat="45.21689" lon="5.73562">
        <ele>875.59997558594</ele>
        <time>2021-09-30T04:05:31.000Z</time>
      </trkpt>
      <trkpt lat="45.21695" lon="5.73563">
        <ele>876.59997558594</ele>
        <time>2021-09-30T04:05:34.000Z</time>
      </trkpt>
      <trkpt lat="45.21699" lon="5.73562">
        <ele>877.59997558594</ele>
        <time>2021-09-30T04:05:38.000Z</time>
      </trkpt>
      <trkpt lat="45.21704" lon="5.73563">
        <ele>879.20001220703</ele>
        <time>2021-09-30T04:05:42.000Z</time>
      </trkpt>
      <trkpt lat="45.21704" lon="5.73563">
        <ele>879.40002441406</ele>
        <time>2021-09-30T04:05:43.000Z</time>
      </trkpt>
      <trkpt lat="45.21701" lon="5.73559">
        <ele>880.59997558594</ele>
        <time>2021-09-30T04:05:47.000Z</time>
      </trkpt>
      <trkpt lat="45.21699" lon="5.73558">
        <ele>881</ele>
        <time>2021-09-30T04:05:48.000Z</time>
      </trkpt>
      <trkpt lat="45.21695" lon="5.73555">
        <ele>881.59997558594</ele>
        <time>2021-09-30T04:05:51.000Z</time>
      </trkpt>
      <trkpt lat="45.21694" lon="5.73553">
        <ele>882.20001220703</ele>
        <time>2021-09-30T04:05:53.000Z</time>
      </trkpt>
      <trkpt lat="45.21693" lon="5.73552">
        <ele>882.40002441406</ele>
        <time>2021-09-30T04:05:54.000Z</time>
      </trkpt>
      <trkpt lat="45.21691" lon="5.73552">
        <ele>882.59997558594</ele>
        <time>2021-09-30T04:05:55.000Z</time>
      </trkpt>
      <trkpt lat="45.21688" lon="5.73546">
        <ele>883.79998779297</ele>
        <time>2021-09-30T04:05:59.000Z</time>
      </trkpt>
      <trkpt lat="45.21685" lon="5.73545">
        <ele>884.20001220703</ele>
        <time>2021-09-30T04:06:01.000Z</time>
      </trkpt>
      <trkpt lat="45.21682" lon="5.73545">
        <ele>884.79998779297</ele>
        <time>2021-09-30T04:06:04.000Z</time>
      </trkpt>
      <trkpt lat="45.2168" lon="5.73543">
        <ele>885.40002441406</ele>
        <time>2021-09-30T04:06:06.000Z</time>
      </trkpt>
      <trkpt lat="45.21676" lon="5.73542">
        <ele>886</ele>
        <time>2021-09-30T04:06:09.000Z</time>
      </trkpt>
      <trkpt lat="45.21672" lon="5.73541">
        <ele>887</ele>
        <time>2021-09-30T04:06:12.000Z</time>
      </trkpt>
      <trkpt lat="45.21671" lon="5.73539">
        <ele>887.20001220703</ele>
        <time>2021-09-30T04:06:13.000Z</time>
      </trkpt>
      <trkpt lat="45.21667" lon="5.73537">
        <ele>888.20001220703</ele>
        <time>2021-09-30T04:06:16.000Z</time>
      </trkpt>
      <trkpt lat="45.21667" lon="5.73536">
        <ele>888.59997558594</ele>
        <time>2021-09-30T04:06:17.000Z</time>
      </trkpt>
      <trkpt lat="45.21667" lon="5.73535">
        <ele>889</ele>
        <time>2021-09-30T04:06:18.000Z</time>
      </trkpt>
      <trkpt lat="45.21667" lon="5.73533">
        <ele>889.79998779297</ele>
        <time>2021-09-30T04:06:20.000Z</time>
      </trkpt>
      <trkpt lat="45.21671" lon="5.73533">
        <ele>891</ele>
        <time>2021-09-30T04:06:24.000Z</time>
      </trkpt>
      <trkpt lat="45.21676" lon="5.73533">
        <ele>891.59997558594</ele>
        <time>2021-09-30T04:06:27.000Z</time>
      </trkpt>
      <trkpt lat="45.21677" lon="5.73533">
        <ele>891.79998779297</ele>
        <time>2021-09-30T04:06:28.000Z</time>
      </trkpt>
      <trkpt lat="45.21678" lon="5.73533">
        <ele>892</ele>
        <time>2021-09-30T04:06:29.000Z</time>
      </trkpt>
      <trkpt lat="45.21682" lon="5.73534">
        <ele>893</ele>
        <time>2021-09-30T04:06:32.000Z</time>
      </trkpt>
      <trkpt lat="45.21683" lon="5.73534">
        <ele>893.20001220703</ele>
        <time>2021-09-30T04:06:33.000Z</time>
      </trkpt>
      <trkpt lat="45.21689" lon="5.73533">
        <ele>894.20001220703</ele>
        <time>2021-09-30T04:06:37.000Z</time>
      </trkpt>
      <trkpt lat="45.21689" lon="5.73533">
        <ele>894.40002441406</ele>
        <time>2021-09-30T04:06:38.000Z</time>
      </trkpt>
      <trkpt lat="45.2169" lon="5.73533">
        <ele>894.59997558594</ele>
        <time>2021-09-30T04:06:39.000Z</time>
      </trkpt>
      <trkpt lat="45.21691" lon="5.73531">
        <ele>894.59997558594</ele>
        <time>2021-09-30T04:06:40.000Z</time>
      </trkpt>
      <trkpt lat="45.21693" lon="5.7353">
        <ele>894.79998779297</ele>
        <time>2021-09-30T04:06:41.000Z</time>
      </trkpt>
      <trkpt lat="45.21696" lon="5.73528">
        <ele>895.40002441406</ele>
        <time>2021-09-30T04:06:43.000Z</time>
      </trkpt>
      <trkpt lat="45.21699" lon="5.73528">
        <ele>896</ele>
        <time>2021-09-30T04:06:45.000Z</time>
      </trkpt>
      <trkpt lat="45.217" lon="5.73528">
        <ele>896.40002441406</ele>
        <time>2021-09-30T04:06:46.000Z</time>
      </trkpt>
      <trkpt lat="45.21707" lon="5.73532">
        <ele>897.40002441406</ele>
        <time>2021-09-30T04:06:50.000Z</time>
      </trkpt>
      <trkpt lat="45.2171" lon="5.73534">
        <ele>898.40002441406</ele>
        <time>2021-09-30T04:06:53.000Z</time>
      </trkpt>
      <trkpt lat="45.21712" lon="5.73533">
        <ele>898.79998779297</ele>
        <time>2021-09-30T04:06:54.000Z</time>
      </trkpt>
      <trkpt lat="45.21713" lon="5.73532">
        <ele>899</ele>
        <time>2021-09-30T04:06:55.000Z</time>
      </trkpt>
      <trkpt lat="45.21715" lon="5.73531">
        <ele>899.59997558594</ele>
        <time>2021-09-30T04:06:57.000Z</time>
      </trkpt>
      <trkpt lat="45.21715" lon="5.73531">
        <ele>899.79998779297</ele>
        <time>2021-09-30T04:06:58.000Z</time>
      </trkpt>
      <trkpt lat="45.21715" lon="5.73531">
        <ele>900</ele>
        <time>2021-09-30T04:06:59.000Z</time>
      </trkpt>
      <trkpt lat="45.21714" lon="5.73532">
        <ele>900.40002441406</ele>
        <time>2021-09-30T04:07:00.000Z</time>
      </trkpt>
      <trkpt lat="45.21713" lon="5.73532">
        <ele>900.79998779297</ele>
        <time>2021-09-30T04:07:01.000Z</time>
      </trkpt>
      <trkpt lat="45.21708" lon="5.7353">
        <ele>901.59997558594</ele>
        <time>2021-09-30T04:07:04.000Z</time>
      </trkpt>
      <trkpt lat="45.21706" lon="5.73528">
        <ele>901.79998779297</ele>
        <time>2021-09-30T04:07:05.000Z</time>
      </trkpt>
      <trkpt lat="45.21705" lon="5.73527">
        <ele>901.79998779297</ele>
        <time>2021-09-30T04:07:06.000Z</time>
      </trkpt>
      <trkpt lat="45.217" lon="5.73522">
        <ele>902.59997558594</ele>
        <time>2021-09-30T04:07:10.000Z</time>
      </trkpt>
      <trkpt lat="45.21699" lon="5.7352">
        <ele>903</ele>
        <time>2021-09-30T04:07:11.000Z</time>
      </trkpt>
      <trkpt lat="45.21696" lon="5.73517">
        <ele>904</ele>
        <time>2021-09-30T04:07:15.000Z</time>
      </trkpt>
      <trkpt lat="45.21695" lon="5.73516">
        <ele>904.59997558594</ele>
        <time>2021-09-30T04:07:17.000Z</time>
      </trkpt>
      <trkpt lat="45.21694" lon="5.73515">
        <ele>905</ele>
        <time>2021-09-30T04:07:18.000Z</time>
      </trkpt>
      <trkpt lat="45.2169" lon="5.73511">
        <ele>906.20001220703</ele>
        <time>2021-09-30T04:07:23.000Z</time>
      </trkpt>
      <trkpt lat="45.21687" lon="5.73509">
        <ele>907.20001220703</ele>
        <time>2021-09-30T04:07:27.000Z</time>
      </trkpt>
      <trkpt lat="45.21685" lon="5.73508">
        <ele>907.59997558594</ele>
        <time>2021-09-30T04:07:29.000Z</time>
      </trkpt>
      <trkpt lat="45.21683" lon="5.73506">
        <ele>908.40002441406</ele>
        <time>2021-09-30T04:07:31.000Z</time>
      </trkpt>
      <trkpt lat="45.21678" lon="5.73502">
        <ele>909.40002441406</ele>
        <time>2021-09-30T04:07:36.000Z</time>
      </trkpt>
      <trkpt lat="45.21677" lon="5.73499">
        <ele>909.79998779297</ele>
        <time>2021-09-30T04:07:38.000Z</time>
      </trkpt>
      <trkpt lat="45.21676" lon="5.73494">
        <ele>910.40002441406</ele>
        <time>2021-09-30T04:07:41.000Z</time>
      </trkpt>
      <trkpt lat="45.21676" lon="5.73492">
        <ele>910.59997558594</ele>
        <time>2021-09-30T04:07:42.000Z</time>
      </trkpt>
      <trkpt lat="45.21676" lon="5.7349">
        <ele>911</ele>
        <time>2021-09-30T04:07:43.000Z</time>
      </trkpt>
      <trkpt lat="45.21675" lon="5.73486">
        <ele>911.59997558594</ele>
        <time>2021-09-30T04:07:45.000Z</time>
      </trkpt>
      <trkpt lat="45.21675" lon="5.73484">
        <ele>912.20001220703</ele>
        <time>2021-09-30T04:07:48.000Z</time>
      </trkpt>
      <trkpt lat="45.21674" lon="5.73482">
        <ele>912.59997558594</ele>
        <time>2021-09-30T04:07:50.000Z</time>
      </trkpt>
      <trkpt lat="45.21673" lon="5.73474">
        <ele>913.59997558594</ele>
        <time>2021-09-30T04:07:53.000Z</time>
      </trkpt>
      <trkpt lat="45.21672" lon="5.73468">
        <ele>914</ele>
        <time>2021-09-30T04:07:55.000Z</time>
      </trkpt>
      <trkpt lat="45.21671" lon="5.73458">
        <ele>914.79998779297</ele>
        <time>2021-09-30T04:07:59.000Z</time>
      </trkpt>
      <trkpt lat="45.21672" lon="5.73446">
        <ele>916</ele>
        <time>2021-09-30T04:08:04.000Z</time>
      </trkpt>
      <trkpt lat="45.21672" lon="5.73439">
        <ele>917.20001220703</ele>
        <time>2021-09-30T04:08:07.000Z</time>
      </trkpt>
      <trkpt lat="45.21672" lon="5.73436">
        <ele>917.79998779297</ele>
        <time>2021-09-30T04:08:09.000Z</time>
      </trkpt>
      <trkpt lat="45.21672" lon="5.73434">
        <ele>918</ele>
        <time>2021-09-30T04:08:10.000Z</time>
      </trkpt>
      <trkpt lat="45.21673" lon="5.73429">
        <ele>918.40002441406</ele>
        <time>2021-09-30T04:08:12.000Z</time>
      </trkpt>
      <trkpt lat="45.21672" lon="5.73424">
        <ele>919.40002441406</ele>
        <time>2021-09-30T04:08:15.000Z</time>
      </trkpt>
      <trkpt lat="45.21672" lon="5.7342">
        <ele>920</ele>
        <time>2021-09-30T04:08:17.000Z</time>
      </trkpt>
      <trkpt lat="45.21671" lon="5.73418">
        <ele>920.59997558594</ele>
        <time>2021-09-30T04:08:18.000Z</time>
      </trkpt>
      <trkpt lat="45.21671" lon="5.73417">
        <ele>920.79998779297</ele>
        <time>2021-09-30T04:08:19.000Z</time>
      </trkpt>
      <trkpt lat="45.21671" lon="5.73414">
        <ele>921.40002441406</ele>
        <time>2021-09-30T04:08:21.000Z</time>
      </trkpt>
      <trkpt lat="45.21672" lon="5.73411">
        <ele>921.59997558594</ele>
        <time>2021-09-30T04:08:22.000Z</time>
      </trkpt>
      <trkpt lat="45.21671" lon="5.73405">
        <ele>923</ele>
        <time>2021-09-30T04:08:26.000Z</time>
      </trkpt>
      <trkpt lat="45.21671" lon="5.73403">
        <ele>923.20001220703</ele>
        <time>2021-09-30T04:08:27.000Z</time>
      </trkpt>
      <trkpt lat="45.2167" lon="5.73401">
        <ele>923.59997558594</ele>
        <time>2021-09-30T04:08:28.000Z</time>
      </trkpt>
      <trkpt lat="45.21669" lon="5.734">
        <ele>923.59997558594</ele>
        <time>2021-09-30T04:08:29.000Z</time>
      </trkpt>
      <trkpt lat="45.21669" lon="5.73398">
        <ele>924.20001220703</ele>
        <time>2021-09-30T04:08:30.000Z</time>
      </trkpt>
      <trkpt lat="45.21667" lon="5.73393">
        <ele>925.40002441406</ele>
        <time>2021-09-30T04:08:33.000Z</time>
      </trkpt>
      <trkpt lat="45.21666" lon="5.73392">
        <ele>925.59997558594</ele>
        <time>2021-09-30T04:08:34.000Z</time>
      </trkpt>
      <trkpt lat="45.21665" lon="5.73387">
        <ele>926.40002441406</ele>
        <time>2021-09-30T04:08:37.000Z</time>
      </trkpt>
      <trkpt lat="45.21665" lon="5.73384">
        <ele>926.59997558594</ele>
        <time>2021-09-30T04:08:38.000Z</time>
      </trkpt>
      <trkpt lat="45.21664" lon="5.73381">
        <ele>927.59997558594</ele>
        <time>2021-09-30T04:08:40.000Z</time>
      </trkpt>
      <trkpt lat="45.21662" lon="5.73376">
        <ele>928.59997558594</ele>
        <time>2021-09-30T04:08:43.000Z</time>
      </trkpt>
      <trkpt lat="45.21662" lon="5.73373">
        <ele>929</ele>
        <time>2021-09-30T04:08:44.000Z</time>
      </trkpt>
      <trkpt lat="45.21661" lon="5.73372">
        <ele>929.20001220703</ele>
        <time>2021-09-30T04:08:45.000Z</time>
      </trkpt>
      <trkpt lat="45.2166" lon="5.73371">
        <ele>929.59997558594</ele>
        <time>2021-09-30T04:08:46.000Z</time>
      </trkpt>
      <trkpt lat="45.21658" lon="5.73366">
        <ele>930.40002441406</ele>
        <time>2021-09-30T04:08:48.000Z</time>
      </trkpt>
      <trkpt lat="45.21657" lon="5.73365">
        <ele>930.59997558594</ele>
        <time>2021-09-30T04:08:49.000Z</time>
      </trkpt>
      <trkpt lat="45.21654" lon="5.7336">
        <ele>931.59997558594</ele>
        <time>2021-09-30T04:08:52.000Z</time>
      </trkpt>
      <trkpt lat="45.21654" lon="5.73359">
        <ele>932.20001220703</ele>
        <time>2021-09-30T04:08:53.000Z</time>
      </trkpt>
      <trkpt lat="45.21652" lon="5.73358">
        <ele>932.79998779297</ele>
        <time>2021-09-30T04:08:55.000Z</time>
      </trkpt>
      <trkpt lat="45.21651" lon="5.73356">
        <ele>933</ele>
        <time>2021-09-30T04:08:56.000Z</time>
      </trkpt>
      <trkpt lat="45.2165" lon="5.73354">
        <ele>933.59997558594</ele>
        <time>2021-09-30T04:08:57.000Z</time>
      </trkpt>
      <trkpt lat="45.21649" lon="5.73353">
        <ele>934</ele>
        <time>2021-09-30T04:08:58.000Z</time>
      </trkpt>
      <trkpt lat="45.21647" lon="5.73346">
        <ele>935.20001220703</ele>
        <time>2021-09-30T04:09:02.000Z</time>
      </trkpt>
      <trkpt lat="45.21646" lon="5.73343">
        <ele>936</ele>
        <time>2021-09-30T04:09:04.000Z</time>
      </trkpt>
      <trkpt lat="45.21646" lon="5.73342">
        <ele>936.40002441406</ele>
        <time>2021-09-30T04:09:05.000Z</time>
      </trkpt>
      <trkpt lat="45.21645" lon="5.73334">
        <ele>937.59997558594</ele>
        <time>2021-09-30T04:09:09.000Z</time>
      </trkpt>
      <trkpt lat="45.21645" lon="5.73332">
        <ele>937.79998779297</ele>
        <time>2021-09-30T04:09:10.000Z</time>
      </trkpt>
      <trkpt lat="45.21644" lon="5.73327">
        <ele>938.40002441406</ele>
        <time>2021-09-30T04:09:13.000Z</time>
      </trkpt>
      <trkpt lat="45.21644" lon="5.73326">
        <ele>939</ele>
        <time>2021-09-30T04:09:14.000Z</time>
      </trkpt>
      <trkpt lat="45.21644" lon="5.73324">
        <ele>939.20001220703</ele>
        <time>2021-09-30T04:09:15.000Z</time>
      </trkpt>
      <trkpt lat="45.21644" lon="5.73323">
        <ele>939.40002441406</ele>
        <time>2021-09-30T04:09:16.000Z</time>
      </trkpt>
      <trkpt lat="45.21644" lon="5.73319">
        <ele>940</ele>
        <time>2021-09-30T04:09:18.000Z</time>
      </trkpt>
      <trkpt lat="45.21641" lon="5.73309">
        <ele>941</ele>
        <time>2021-09-30T04:09:22.000Z</time>
      </trkpt>
      <trkpt lat="45.21641" lon="5.73307">
        <ele>941.40002441406</ele>
        <time>2021-09-30T04:09:23.000Z</time>
      </trkpt>
      <trkpt lat="45.2164" lon="5.73303">
        <ele>942.20001220703</ele>
        <time>2021-09-30T04:09:25.000Z</time>
      </trkpt>
      <trkpt lat="45.21638" lon="5.73293">
        <ele>943.40002441406</ele>
        <time>2021-09-30T04:09:30.000Z</time>
      </trkpt>
      <trkpt lat="45.21636" lon="5.73288">
        <ele>944.20001220703</ele>
        <time>2021-09-30T04:09:33.000Z</time>
      </trkpt>
      <trkpt lat="45.21634" lon="5.73284">
        <ele>944.59997558594</ele>
        <time>2021-09-30T04:09:35.000Z</time>
      </trkpt>
      <trkpt lat="45.21631" lon="5.7328">
        <ele>945</ele>
        <time>2021-09-30T04:09:38.000Z</time>
      </trkpt>
      <trkpt lat="45.2163" lon="5.73278">
        <ele>945.40002441406</ele>
        <time>2021-09-30T04:09:39.000Z</time>
      </trkpt>
      <trkpt lat="45.21629" lon="5.73276">
        <ele>945.59997558594</ele>
        <time>2021-09-30T04:09:40.000Z</time>
      </trkpt>
      <trkpt lat="45.21628" lon="5.73274">
        <ele>945.59997558594</ele>
        <time>2021-09-30T04:09:41.000Z</time>
      </trkpt>
      <trkpt lat="45.21625" lon="5.73269">
        <ele>946.40002441406</ele>
        <time>2021-09-30T04:09:44.000Z</time>
      </trkpt>
      <trkpt lat="45.21624" lon="5.73267">
        <ele>946.59997558594</ele>
        <time>2021-09-30T04:09:45.000Z</time>
      </trkpt>
      <trkpt lat="45.21621" lon="5.73261">
        <ele>947.59997558594</ele>
        <time>2021-09-30T04:09:49.000Z</time>
      </trkpt>
      <trkpt lat="45.21618" lon="5.73255">
        <ele>948.79998779297</ele>
        <time>2021-09-30T04:09:53.000Z</time>
      </trkpt>
      <trkpt lat="45.21617" lon="5.73251">
        <ele>949.20001220703</ele>
        <time>2021-09-30T04:09:55.000Z</time>
      </trkpt>
      <trkpt lat="45.21616" lon="5.73249">
        <ele>949.59997558594</ele>
        <time>2021-09-30T04:09:56.000Z</time>
      </trkpt>
      <trkpt lat="45.21615" lon="5.73248">
        <ele>950</ele>
        <time>2021-09-30T04:09:57.000Z</time>
      </trkpt>
      <trkpt lat="45.21612" lon="5.73244">
        <ele>951.59997558594</ele>
        <time>2021-09-30T04:10:01.000Z</time>
      </trkpt>
      <trkpt lat="45.21611" lon="5.73243">
        <ele>952</ele>
        <time>2021-09-30T04:10:02.000Z</time>
      </trkpt>
      <trkpt lat="45.2161" lon="5.73241">
        <ele>952.40002441406</ele>
        <time>2021-09-30T04:10:04.000Z</time>
      </trkpt>
      <trkpt lat="45.2161" lon="5.73239">
        <ele>952.59997558594</ele>
        <time>2021-09-30T04:10:05.000Z</time>
      </trkpt>
      <trkpt lat="45.21609" lon="5.73236">
        <ele>953.40002441406</ele>
        <time>2021-09-30T04:10:07.000Z</time>
      </trkpt>
      <trkpt lat="45.21608" lon="5.73235">
        <ele>953.79998779297</ele>
        <time>2021-09-30T04:10:08.000Z</time>
      </trkpt>
      <trkpt lat="45.21607" lon="5.73233">
        <ele>954.20001220703</ele>
        <time>2021-09-30T04:10:10.000Z</time>
      </trkpt>
      <trkpt lat="45.21606" lon="5.73229">
        <ele>954.79998779297</ele>
        <time>2021-09-30T04:10:12.000Z</time>
      </trkpt>
      <trkpt lat="45.21605" lon="5.73227">
        <ele>955.59997558594</ele>
        <time>2021-09-30T04:10:14.000Z</time>
      </trkpt>
      <trkpt lat="45.21605" lon="5.73226">
        <ele>956</ele>
        <time>2021-09-30T04:10:15.000Z</time>
      </trkpt>
      <trkpt lat="45.21601" lon="5.73221">
        <ele>957</ele>
        <time>2021-09-30T04:10:19.000Z</time>
      </trkpt>
      <trkpt lat="45.21599" lon="5.73221">
        <ele>957.40002441406</ele>
        <time>2021-09-30T04:10:20.000Z</time>
      </trkpt>
      <trkpt lat="45.21595" lon="5.73216">
        <ele>958.20001220703</ele>
        <time>2021-09-30T04:10:23.000Z</time>
      </trkpt>
      <trkpt lat="45.21593" lon="5.73212">
        <ele>958.40002441406</ele>
        <time>2021-09-30T04:10:25.000Z</time>
      </trkpt>
      <trkpt lat="45.2159" lon="5.73206">
        <ele>959</ele>
        <time>2021-09-30T04:10:27.000Z</time>
      </trkpt>
      <trkpt lat="45.21589" lon="5.73204">
        <ele>959.20001220703</ele>
        <time>2021-09-30T04:10:28.000Z</time>
      </trkpt>
      <trkpt lat="45.21587" lon="5.73202">
        <ele>959.59997558594</ele>
        <time>2021-09-30T04:10:29.000Z</time>
      </trkpt>
      <trkpt lat="45.21583" lon="5.73196">
        <ele>960.40002441406</ele>
        <time>2021-09-30T04:10:32.000Z</time>
      </trkpt>
      <trkpt lat="45.21578" lon="5.73193">
        <ele>961</ele>
        <time>2021-09-30T04:10:35.000Z</time>
      </trkpt>
      <trkpt lat="45.21574" lon="5.7319">
        <ele>961.59997558594</ele>
        <time>2021-09-30T04:10:37.000Z</time>
      </trkpt>
      <trkpt lat="45.21573" lon="5.73189">
        <ele>961.79998779297</ele>
        <time>2021-09-30T04:10:38.000Z</time>
      </trkpt>
      <trkpt lat="45.21571" lon="5.73187">
        <ele>962.59997558594</ele>
        <time>2021-09-30T04:10:40.000Z</time>
      </trkpt>
      <trkpt lat="45.21569" lon="5.73184">
        <ele>963.20001220703</ele>
        <time>2021-09-30T04:10:42.000Z</time>
      </trkpt>
      <trkpt lat="45.21568" lon="5.73181">
        <ele>964</ele>
        <time>2021-09-30T04:10:44.000Z</time>
      </trkpt>
      <trkpt lat="45.21568" lon="5.73179">
        <ele>964.20001220703</ele>
        <time>2021-09-30T04:10:45.000Z</time>
      </trkpt>
      <trkpt lat="45.21567" lon="5.73177">
        <ele>965.20001220703</ele>
        <time>2021-09-30T04:10:47.000Z</time>
      </trkpt>
      <trkpt lat="45.21567" lon="5.73177">
        <ele>965.59997558594</ele>
        <time>2021-09-30T04:10:48.000Z</time>
      </trkpt>
      <trkpt lat="45.21567" lon="5.73176">
        <ele>966</ele>
        <time>2021-09-30T04:10:49.000Z</time>
      </trkpt>
      <trkpt lat="45.21566" lon="5.73174">
        <ele>966.20001220703</ele>
        <time>2021-09-30T04:10:51.000Z</time>
      </trkpt>
      <trkpt lat="45.21566" lon="5.73174">
        <ele>966.59997558594</ele>
        <time>2021-09-30T04:10:52.000Z</time>
      </trkpt>
      <trkpt lat="45.21565" lon="5.73172">
        <ele>966.79998779297</ele>
        <time>2021-09-30T04:10:53.000Z</time>
      </trkpt>
      <trkpt lat="45.21565" lon="5.7317">
        <ele>967</ele>
        <time>2021-09-30T04:10:54.000Z</time>
      </trkpt>
      <trkpt lat="45.21566" lon="5.73167">
        <ele>967.79998779297</ele>
        <time>2021-09-30T04:10:56.000Z</time>
      </trkpt>
      <trkpt lat="45.21567" lon="5.73162">
        <ele>969</ele>
        <time>2021-09-30T04:10:59.000Z</time>
      </trkpt>
      <trkpt lat="45.21567" lon="5.73161">
        <ele>969.20001220703</ele>
        <time>2021-09-30T04:11:00.000Z</time>
      </trkpt>
      <trkpt lat="45.2157" lon="5.7316">
        <ele>969.79998779297</ele>
        <time>2021-09-30T04:11:02.000Z</time>
      </trkpt>
      <trkpt lat="45.21571" lon="5.7316">
        <ele>970.20001220703</ele>
        <time>2021-09-30T04:11:03.000Z</time>
      </trkpt>
      <trkpt lat="45.21573" lon="5.7316">
        <ele>970.59997558594</ele>
        <time>2021-09-30T04:11:04.000Z</time>
      </trkpt>
      <trkpt lat="45.21573" lon="5.73159">
        <ele>971</ele>
        <time>2021-09-30T04:11:05.000Z</time>
      </trkpt>
      <trkpt lat="45.21573" lon="5.73158">
        <ele>971.40002441406</ele>
        <time>2021-09-30T04:11:06.000Z</time>
      </trkpt>
      <trkpt lat="45.21572" lon="5.73155">
        <ele>972</ele>
        <time>2021-09-30T04:11:08.000Z</time>
      </trkpt>
      <trkpt lat="45.21572" lon="5.73154">
        <ele>972.40002441406</ele>
        <time>2021-09-30T04:11:09.000Z</time>
      </trkpt>
      <trkpt lat="45.21571" lon="5.73152">
        <ele>973</ele>
        <time>2021-09-30T04:11:11.000Z</time>
      </trkpt>
      <trkpt lat="45.21572" lon="5.73149">
        <ele>973.59997558594</ele>
        <time>2021-09-30T04:11:13.000Z</time>
      </trkpt>
      <trkpt lat="45.21573" lon="5.73146">
        <ele>974.59997558594</ele>
        <time>2021-09-30T04:11:18.000Z</time>
      </trkpt>
      <trkpt lat="45.21573" lon="5.73145">
        <ele>974.79998779297</ele>
        <time>2021-09-30T04:11:20.000Z</time>
      </trkpt>
      <trkpt lat="45.21575" lon="5.73145">
        <ele>976</ele>
        <time>2021-09-30T04:11:22.000Z</time>
      </trkpt>
      <trkpt lat="45.21575" lon="5.73144">
        <ele>976.40002441406</ele>
        <time>2021-09-30T04:11:23.000Z</time>
      </trkpt>
      <trkpt lat="45.21576" lon="5.73144">
        <ele>976.59997558594</ele>
        <time>2021-09-30T04:11:24.000Z</time>
      </trkpt>
      <trkpt lat="45.21576" lon="5.73143">
        <ele>977</ele>
        <time>2021-09-30T04:11:25.000Z</time>
      </trkpt>
      <trkpt lat="45.21578" lon="5.7314">
        <ele>977.79998779297</ele>
        <time>2021-09-30T04:11:27.000Z</time>
      </trkpt>
      <trkpt lat="45.21578" lon="5.73138">
        <ele>978.20001220703</ele>
        <time>2021-09-30T04:11:29.000Z</time>
      </trkpt>
      <trkpt lat="45.21578" lon="5.73137">
        <ele>978.20001220703</ele>
        <time>2021-09-30T04:11:30.000Z</time>
      </trkpt>
      <trkpt lat="45.21578" lon="5.73134">
        <ele>978.79998779297</ele>
        <time>2021-09-30T04:11:32.000Z</time>
      </trkpt>
      <trkpt lat="45.21577" lon="5.73133">
        <ele>979.20001220703</ele>
        <time>2021-09-30T04:11:33.000Z</time>
      </trkpt>
      <trkpt lat="45.21577" lon="5.73131">
        <ele>980</ele>
        <time>2021-09-30T04:11:36.000Z</time>
      </trkpt>
      <trkpt lat="45.21577" lon="5.73129">
        <ele>980.40002441406</ele>
        <time>2021-09-30T04:11:37.000Z</time>
      </trkpt>
      <trkpt lat="45.21577" lon="5.73128">
        <ele>980.79998779297</ele>
        <time>2021-09-30T04:11:38.000Z</time>
      </trkpt>
      <trkpt lat="45.21578" lon="5.73127">
        <ele>981.59997558594</ele>
        <time>2021-09-30T04:11:40.000Z</time>
      </trkpt>
      <trkpt lat="45.21579" lon="5.73124">
        <ele>982</ele>
        <time>2021-09-30T04:11:42.000Z</time>
      </trkpt>
      <trkpt lat="45.21579" lon="5.73123">
        <ele>982.20001220703</ele>
        <time>2021-09-30T04:11:43.000Z</time>
      </trkpt>
      <trkpt lat="45.21581" lon="5.73122">
        <ele>982.79998779297</ele>
        <time>2021-09-30T04:11:44.000Z</time>
      </trkpt>
      <trkpt lat="45.21584" lon="5.73121">
        <ele>983.59997558594</ele>
        <time>2021-09-30T04:11:46.000Z</time>
      </trkpt>
      <trkpt lat="45.21584" lon="5.7312">
        <ele>984</ele>
        <time>2021-09-30T04:11:47.000Z</time>
      </trkpt>
      <trkpt lat="45.21586" lon="5.73119">
        <ele>984.20001220703</ele>
        <time>2021-09-30T04:11:48.000Z</time>
      </trkpt>
      <trkpt lat="45.21591" lon="5.73118">
        <ele>985.20001220703</ele>
        <time>2021-09-30T04:11:51.000Z</time>
      </trkpt>
      <trkpt lat="45.21592" lon="5.73119">
        <ele>985.40002441406</ele>
        <time>2021-09-30T04:11:52.000Z</time>
      </trkpt>
      <trkpt lat="45.21598" lon="5.73125">
        <ele>986.20001220703</ele>
        <time>2021-09-30T04:11:56.000Z</time>
      </trkpt>
      <trkpt lat="45.216" lon="5.73125">
        <ele>986.40002441406</ele>
        <time>2021-09-30T04:11:57.000Z</time>
      </trkpt>
      <trkpt lat="45.21602" lon="5.73125">
        <ele>986.79998779297</ele>
        <time>2021-09-30T04:11:58.000Z</time>
      </trkpt>
      <trkpt lat="45.21605" lon="5.73126">
        <ele>987.40002441406</ele>
        <time>2021-09-30T04:12:00.000Z</time>
      </trkpt>
      <trkpt lat="45.21611" lon="5.73128">
        <ele>988.59997558594</ele>
        <time>2021-09-30T04:12:04.000Z</time>
      </trkpt>
      <trkpt lat="45.21612" lon="5.73129">
        <ele>988.79998779297</ele>
        <time>2021-09-30T04:12:05.000Z</time>
      </trkpt>
      <trkpt lat="45.21617" lon="5.73132">
        <ele>990</ele>
        <time>2021-09-30T04:12:08.000Z</time>
      </trkpt>
      <trkpt lat="45.21621" lon="5.73134">
        <ele>991</ele>
        <time>2021-09-30T04:12:12.000Z</time>
      </trkpt>
      <trkpt lat="45.21621" lon="5.73135">
        <ele>991.40002441406</ele>
        <time>2021-09-30T04:12:13.000Z</time>
      </trkpt>
      <trkpt lat="45.21621" lon="5.73134">
        <ele>991.59997558594</ele>
        <time>2021-09-30T04:12:14.000Z</time>
      </trkpt>
      <trkpt lat="45.21622" lon="5.73135">
        <ele>992</ele>
        <time>2021-09-30T04:12:15.000Z</time>
      </trkpt>
      <trkpt lat="45.21624" lon="5.73135">
        <ele>992.40002441406</ele>
        <time>2021-09-30T04:12:17.000Z</time>
      </trkpt>
      <trkpt lat="45.21627" lon="5.73136">
        <ele>993.20001220703</ele>
        <time>2021-09-30T04:12:19.000Z</time>
      </trkpt>
      <trkpt lat="45.21629" lon="5.73135">
        <ele>993.40002441406</ele>
        <time>2021-09-30T04:12:20.000Z</time>
      </trkpt>
      <trkpt lat="45.21631" lon="5.73132">
        <ele>994.59997558594</ele>
        <time>2021-09-30T04:12:23.000Z</time>
      </trkpt>
      <trkpt lat="45.21633" lon="5.73132">
        <ele>994.79998779297</ele>
        <time>2021-09-30T04:12:24.000Z</time>
      </trkpt>
      <trkpt lat="45.21635" lon="5.73133">
        <ele>995.40002441406</ele>
        <time>2021-09-30T04:12:26.000Z</time>
      </trkpt>
      <trkpt lat="45.21636" lon="5.73132">
        <ele>996</ele>
        <time>2021-09-30T04:12:27.000Z</time>
      </trkpt>
      <trkpt lat="45.21637" lon="5.73131">
        <ele>996.59997558594</ele>
        <time>2021-09-30T04:12:29.000Z</time>
      </trkpt>
      <trkpt lat="45.21638" lon="5.7313">
        <ele>997</ele>
        <time>2021-09-30T04:12:31.000Z</time>
      </trkpt>
      <trkpt lat="45.2164" lon="5.7313">
        <ele>997.59997558594</ele>
        <time>2021-09-30T04:12:33.000Z</time>
      </trkpt>
      <trkpt lat="45.21644" lon="5.7313">
        <ele>998</ele>
        <time>2021-09-30T04:12:35.000Z</time>
      </trkpt>
      <trkpt lat="45.21644" lon="5.73131">
        <ele>998.20001220703</ele>
        <time>2021-09-30T04:12:36.000Z</time>
      </trkpt>
      <trkpt lat="45.21647" lon="5.73132">
        <ele>999.20001220703</ele>
        <time>2021-09-30T04:12:38.000Z</time>
      </trkpt>
      <trkpt lat="45.21651" lon="5.73131">
        <ele>1000</ele>
        <time>2021-09-30T04:12:41.000Z</time>
      </trkpt>
      <trkpt lat="45.21652" lon="5.73131">
        <ele>1000.5999755859</ele>
        <time>2021-09-30T04:12:42.000Z</time>
      </trkpt>
      <trkpt lat="45.21656" lon="5.73133">
        <ele>1001.799987793</ele>
        <time>2021-09-30T04:12:46.000Z</time>
      </trkpt>
      <trkpt lat="45.21658" lon="5.73135">
        <ele>1002</ele>
        <time>2021-09-30T04:12:47.000Z</time>
      </trkpt>
      <trkpt lat="45.2166" lon="5.73136">
        <ele>1002.4000244141</ele>
        <time>2021-09-30T04:12:48.000Z</time>
      </trkpt>
      <trkpt lat="45.21662" lon="5.73137">
        <ele>1003</ele>
        <time>2021-09-30T04:12:50.000Z</time>
      </trkpt>
      <trkpt lat="45.21664" lon="5.73137">
        <ele>1003.799987793</ele>
        <time>2021-09-30T04:12:53.000Z</time>
      </trkpt>
      <trkpt lat="45.21664" lon="5.73136">
        <ele>1004.200012207</ele>
        <time>2021-09-30T04:12:54.000Z</time>
      </trkpt>
      <trkpt lat="45.21666" lon="5.73136">
        <ele>1004.5999755859</ele>
        <time>2021-09-30T04:12:55.000Z</time>
      </trkpt>
      <trkpt lat="45.21667" lon="5.73137">
        <ele>1005.200012207</ele>
        <time>2021-09-30T04:12:57.000Z</time>
      </trkpt>
      <trkpt lat="45.21668" lon="5.73139">
        <ele>1005.4000244141</ele>
        <time>2021-09-30T04:12:58.000Z</time>
      </trkpt>
      <trkpt lat="45.2167" lon="5.73143">
        <ele>1006.5999755859</ele>
        <time>2021-09-30T04:13:01.000Z</time>
      </trkpt>
      <trkpt lat="45.21671" lon="5.73146">
        <ele>1007.4000244141</ele>
        <time>2021-09-30T04:13:03.000Z</time>
      </trkpt>
      <trkpt lat="45.21671" lon="5.7315">
        <ele>1007.5999755859</ele>
        <time>2021-09-30T04:13:05.000Z</time>
      </trkpt>
      <trkpt lat="45.21672" lon="5.73153">
        <ele>1008.200012207</ele>
        <time>2021-09-30T04:13:07.000Z</time>
      </trkpt>
      <trkpt lat="45.21673" lon="5.73156">
        <ele>1008.799987793</ele>
        <time>2021-09-30T04:13:10.000Z</time>
      </trkpt>
      <trkpt lat="45.21675" lon="5.73159">
        <ele>1010</ele>
        <time>2021-09-30T04:13:13.000Z</time>
      </trkpt>
      <trkpt lat="45.21676" lon="5.73161">
        <ele>1010.200012207</ele>
        <time>2021-09-30T04:13:15.000Z</time>
      </trkpt>
      <trkpt lat="45.21677" lon="5.73162">
        <ele>1011</ele>
        <time>2021-09-30T04:13:17.000Z</time>
      </trkpt>
      <trkpt lat="45.21678" lon="5.73165">
        <ele>1012.200012207</ele>
        <time>2021-09-30T04:13:20.000Z</time>
      </trkpt>
      <trkpt lat="45.21678" lon="5.73166">
        <ele>1012.5999755859</ele>
        <time>2021-09-30T04:13:21.000Z</time>
      </trkpt>
      <trkpt lat="45.21679" lon="5.73167">
        <ele>1012.799987793</ele>
        <time>2021-09-30T04:13:22.000Z</time>
      </trkpt>
      <trkpt lat="45.21682" lon="5.7317">
        <ele>1013.200012207</ele>
        <time>2021-09-30T04:13:24.000Z</time>
      </trkpt>
      <trkpt lat="45.21683" lon="5.73172">
        <ele>1013.5999755859</ele>
        <time>2021-09-30T04:13:26.000Z</time>
      </trkpt>
      <trkpt lat="45.21687" lon="5.73175">
        <ele>1014.4000244141</ele>
        <time>2021-09-30T04:13:28.000Z</time>
      </trkpt>
      <trkpt lat="45.21689" lon="5.73177">
        <ele>1014.5999755859</ele>
        <time>2021-09-30T04:13:29.000Z</time>
      </trkpt>
      <trkpt lat="45.21694" lon="5.73184">
        <ele>1015.5999755859</ele>
        <time>2021-09-30T04:13:33.000Z</time>
      </trkpt>
      <trkpt lat="45.21696" lon="5.7319">
        <ele>1016.200012207</ele>
        <time>2021-09-30T04:13:37.000Z</time>
      </trkpt>
      <trkpt lat="45.217" lon="5.73198">
        <ele>1016.5999755859</ele>
        <time>2021-09-30T04:13:41.000Z</time>
      </trkpt>
      <trkpt lat="45.21706" lon="5.73208">
        <ele>1017.200012207</ele>
        <time>2021-09-30T04:13:46.000Z</time>
      </trkpt>
      <trkpt lat="45.2171" lon="5.73211">
        <ele>1017.5999755859</ele>
        <time>2021-09-30T04:13:48.000Z</time>
      </trkpt>
      <trkpt lat="45.21714" lon="5.73218">
        <ele>1018.200012207</ele>
        <time>2021-09-30T04:13:51.000Z</time>
      </trkpt>
      <trkpt lat="45.21715" lon="5.73219">
        <ele>1018.200012207</ele>
        <time>2021-09-30T04:13:52.000Z</time>
      </trkpt>
      <trkpt lat="45.21716" lon="5.73219">
        <ele>1018.4000244141</ele>
        <time>2021-09-30T04:13:53.000Z</time>
      </trkpt>
      <trkpt lat="45.21716" lon="5.73219">
        <ele>1018.799987793</ele>
        <time>2021-09-30T04:13:54.000Z</time>
      </trkpt>
      <trkpt lat="45.21718" lon="5.73218">
        <ele>1019.200012207</ele>
        <time>2021-09-30T04:13:56.000Z</time>
      </trkpt>
      <trkpt lat="45.2172" lon="5.73219">
        <ele>1020</ele>
        <time>2021-09-30T04:13:58.000Z</time>
      </trkpt>
      <trkpt lat="45.21723" lon="5.73218">
        <ele>1021</ele>
        <time>2021-09-30T04:14:00.000Z</time>
      </trkpt>
      <trkpt lat="45.21723" lon="5.73217">
        <ele>1021.200012207</ele>
        <time>2021-09-30T04:14:01.000Z</time>
      </trkpt>
      <trkpt lat="45.21724" lon="5.73215">
        <ele>1021.5999755859</ele>
        <time>2021-09-30T04:14:03.000Z</time>
      </trkpt>
      <trkpt lat="45.21727" lon="5.73215">
        <ele>1022.4000244141</ele>
        <time>2021-09-30T04:14:06.000Z</time>
      </trkpt>
      <trkpt lat="45.21728" lon="5.73214">
        <ele>1022.5999755859</ele>
        <time>2021-09-30T04:14:07.000Z</time>
      </trkpt>
      <trkpt lat="45.21737" lon="5.73209">
        <ele>1023.4000244141</ele>
        <time>2021-09-30T04:14:13.000Z</time>
      </trkpt>
      <trkpt lat="45.2174" lon="5.73208">
        <ele>1023.200012207</ele>
        <time>2021-09-30T04:14:15.000Z</time>
      </trkpt>
      <trkpt lat="45.21742" lon="5.73207">
        <ele>1023</ele>
        <time>2021-09-30T04:14:17.000Z</time>
      </trkpt>
      <trkpt lat="45.21744" lon="5.73205">
        <ele>1023</ele>
        <time>2021-09-30T04:14:18.000Z</time>
      </trkpt>
      <trkpt lat="45.21751" lon="5.73206">
        <ele>1022.4000244141</ele>
        <time>2021-09-30T04:14:21.000Z</time>
      </trkpt>
      <trkpt lat="45.21755" lon="5.7321">
        <ele>1022.200012207</ele>
        <time>2021-09-30T04:14:24.000Z</time>
      </trkpt>
      <trkpt lat="45.21759" lon="5.73216">
        <ele>1023.4000244141</ele>
        <time>2021-09-30T04:14:28.000Z</time>
      </trkpt>
      <trkpt lat="45.21761" lon="5.73218">
        <ele>1024.5999755859</ele>
        <time>2021-09-30T04:14:31.000Z</time>
      </trkpt>
      <trkpt lat="45.21764" lon="5.73221">
        <ele>1025.5999755859</ele>
        <time>2021-09-30T04:14:35.000Z</time>
      </trkpt>
      <trkpt lat="45.21764" lon="5.73222">
        <ele>1025.8000488281</ele>
        <time>2021-09-30T04:14:36.000Z</time>
      </trkpt>
      <trkpt lat="45.21765" lon="5.73224">
        <ele>1025.8000488281</ele>
        <time>2021-09-30T04:14:37.000Z</time>
      </trkpt>
      <trkpt lat="45.21768" lon="5.73227">
        <ele>1026</ele>
        <time>2021-09-30T04:14:39.000Z</time>
      </trkpt>
      <trkpt lat="45.21775" lon="5.73232">
        <ele>1026</ele>
        <time>2021-09-30T04:14:45.000Z</time>
      </trkpt>
      <trkpt lat="45.21779" lon="5.73235">
        <ele>1026</ele>
        <time>2021-09-30T04:14:48.000Z</time>
      </trkpt>
      <trkpt lat="45.21781" lon="5.7324">
        <ele>1026.1999511719</ele>
        <time>2021-09-30T04:14:50.000Z</time>
      </trkpt>
      <trkpt lat="45.21782" lon="5.73243">
        <ele>1026.4000244141</ele>
        <time>2021-09-30T04:14:51.000Z</time>
      </trkpt>
      <trkpt lat="45.21783" lon="5.73245">
        <ele>1027</ele>
        <time>2021-09-30T04:14:52.000Z</time>
      </trkpt>
      <trkpt lat="45.21786" lon="5.73251">
        <ele>1027.5999755859</ele>
        <time>2021-09-30T04:14:55.000Z</time>
      </trkpt>
      <trkpt lat="45.21787" lon="5.73255">
        <ele>1028.4000244141</ele>
        <time>2021-09-30T04:14:57.000Z</time>
      </trkpt>
      <trkpt lat="45.21787" lon="5.73258">
        <ele>1029</ele>
        <time>2021-09-30T04:14:58.000Z</time>
      </trkpt>
      <trkpt lat="45.21785" lon="5.73263">
        <ele>1029.8000488281</ele>
        <time>2021-09-30T04:15:00.000Z</time>
      </trkpt>
      <trkpt lat="45.21783" lon="5.73265">
        <ele>1030.1999511719</ele>
        <time>2021-09-30T04:15:01.000Z</time>
      </trkpt>
      <trkpt lat="45.2178" lon="5.73268">
        <ele>1030.8000488281</ele>
        <time>2021-09-30T04:15:03.000Z</time>
      </trkpt>
      <trkpt lat="45.21781" lon="5.7327">
        <ele>1031</ele>
        <time>2021-09-30T04:15:04.000Z</time>
      </trkpt>
      <trkpt lat="45.21781" lon="5.73272">
        <ele>1031.1999511719</ele>
        <time>2021-09-30T04:15:05.000Z</time>
      </trkpt>
      <trkpt lat="45.21783" lon="5.73275">
        <ele>1031.5999755859</ele>
        <time>2021-09-30T04:15:07.000Z</time>
      </trkpt>
      <trkpt lat="45.21785" lon="5.73276">
        <ele>1032</ele>
        <time>2021-09-30T04:15:09.000Z</time>
      </trkpt>
      <trkpt lat="45.21786" lon="5.73276">
        <ele>1032.1999511719</ele>
        <time>2021-09-30T04:15:10.000Z</time>
      </trkpt>
      <trkpt lat="45.21789" lon="5.73279">
        <ele>1033.4000244141</ele>
        <time>2021-09-30T04:15:13.000Z</time>
      </trkpt>
      <trkpt lat="45.21796" lon="5.73286">
        <ele>1034.1999511719</ele>
        <time>2021-09-30T04:15:17.000Z</time>
      </trkpt>
      <trkpt lat="45.21797" lon="5.73289">
        <ele>1034.5999755859</ele>
        <time>2021-09-30T04:15:18.000Z</time>
      </trkpt>
      <trkpt lat="45.21801" lon="5.73293">
        <ele>1035.4000244141</ele>
        <time>2021-09-30T04:15:21.000Z</time>
      </trkpt>
      <trkpt lat="45.21803" lon="5.73294">
        <ele>1035.8000488281</ele>
        <time>2021-09-30T04:15:22.000Z</time>
      </trkpt>
      <trkpt lat="45.21805" lon="5.73296">
        <ele>1035.8000488281</ele>
        <time>2021-09-30T04:15:23.000Z</time>
      </trkpt>
      <trkpt lat="45.21809" lon="5.73302">
        <ele>1036.5999755859</ele>
        <time>2021-09-30T04:15:26.000Z</time>
      </trkpt>
      <trkpt lat="45.2181" lon="5.73304">
        <ele>1037</ele>
        <time>2021-09-30T04:15:27.000Z</time>
      </trkpt>
      <trkpt lat="45.21813" lon="5.73307">
        <ele>1037.5999755859</ele>
        <time>2021-09-30T04:15:29.000Z</time>
      </trkpt>
      <trkpt lat="45.21816" lon="5.7331">
        <ele>1038</ele>
        <time>2021-09-30T04:15:31.000Z</time>
      </trkpt>
      <trkpt lat="45.21819" lon="5.73314">
        <ele>1039</ele>
        <time>2021-09-30T04:15:34.000Z</time>
      </trkpt>
      <trkpt lat="45.2182" lon="5.73316">
        <ele>1039.4000244141</ele>
        <time>2021-09-30T04:15:35.000Z</time>
      </trkpt>
      <trkpt lat="45.21822" lon="5.73319">
        <ele>1040.1999511719</ele>
        <time>2021-09-30T04:15:37.000Z</time>
      </trkpt>
      <trkpt lat="45.21824" lon="5.7332">
        <ele>1040.4000244141</ele>
        <time>2021-09-30T04:15:38.000Z</time>
      </trkpt>
      <trkpt lat="45.21827" lon="5.73323">
        <ele>1041.1999511719</ele>
        <time>2021-09-30T04:15:40.000Z</time>
      </trkpt>
      <trkpt lat="45.21829" lon="5.73327">
        <ele>1041.5999755859</ele>
        <time>2021-09-30T04:15:42.000Z</time>
      </trkpt>
      <trkpt lat="45.2183" lon="5.7333">
        <ele>1041.8000488281</ele>
        <time>2021-09-30T04:15:43.000Z</time>
      </trkpt>
      <trkpt lat="45.21837" lon="5.73339">
        <ele>1042.5999755859</ele>
        <time>2021-09-30T04:15:47.000Z</time>
      </trkpt>
      <trkpt lat="45.21838" lon="5.73341">
        <ele>1042.5999755859</ele>
        <time>2021-09-30T04:15:48.000Z</time>
      </trkpt>
      <trkpt lat="45.21842" lon="5.73346">
        <ele>1043</ele>
        <time>2021-09-30T04:15:53.000Z</time>
      </trkpt>
      <trkpt lat="45.2184" lon="5.73352">
        <ele>1042.5999755859</ele>
        <time>2021-09-30T04:15:59.000Z</time>
      </trkpt>
      <trkpt lat="45.2184" lon="5.73356">
        <ele>1042.1999511719</ele>
        <time>2021-09-30T04:16:03.000Z</time>
      </trkpt>
      <trkpt lat="45.2184" lon="5.73355">
        <ele>1042.1999511719</ele>
        <time>2021-09-30T04:16:05.000Z</time>
      </trkpt>
      <trkpt lat="45.2184" lon="5.73353">
        <ele>1042.1999511719</ele>
        <time>2021-09-30T04:16:07.000Z</time>
      </trkpt>
      <trkpt lat="45.21841" lon="5.73349">
        <ele>1042.4000244141</ele>
        <time>2021-09-30T04:16:09.000Z</time>
      </trkpt>
      <trkpt lat="45.21842" lon="5.73347">
        <ele>1042.5999755859</ele>
        <time>2021-09-30T04:16:11.000Z</time>
      </trkpt>
      <trkpt lat="45.21841" lon="5.73346">
        <ele>1042.5999755859</ele>
        <time>2021-09-30T04:16:12.000Z</time>
      </trkpt>
      <trkpt lat="45.21836" lon="5.73339">
        <ele>1042.1999511719</ele>
        <time>2021-09-30T04:16:17.000Z</time>
      </trkpt>
      <trkpt lat="45.21833" lon="5.73334">
        <ele>1041.8000488281</ele>
        <time>2021-09-30T04:16:21.000Z</time>
      </trkpt>
      <trkpt lat="45.21832" lon="5.73332">
        <ele>1041.5999755859</ele>
        <time>2021-09-30T04:16:22.000Z</time>
      </trkpt>
      <trkpt lat="45.21828" lon="5.73328">
        <ele>1041</ele>
        <time>2021-09-30T04:16:25.000Z</time>
      </trkpt>
      <trkpt lat="45.21827" lon="5.73326">
        <ele>1040.5999755859</ele>
        <time>2021-09-30T04:16:27.000Z</time>
      </trkpt>
      <trkpt lat="45.21826" lon="5.73325">
        <ele>1040.5999755859</ele>
        <time>2021-09-30T04:16:28.000Z</time>
      </trkpt>
      <trkpt lat="45.21823" lon="5.73323">
        <ele>1039.5999755859</ele>
        <time>2021-09-30T04:16:31.000Z</time>
      </trkpt>
      <trkpt lat="45.21821" lon="5.73319">
        <ele>1038.8000488281</ele>
        <time>2021-09-30T04:16:34.000Z</time>
      </trkpt>
      <trkpt lat="45.21819" lon="5.73317">
        <ele>1038.4000244141</ele>
        <time>2021-09-30T04:16:36.000Z</time>
      </trkpt>
      <trkpt lat="45.21813" lon="5.73312">
        <ele>1037.1999511719</ele>
        <time>2021-09-30T04:16:40.000Z</time>
      </trkpt>
      <trkpt lat="45.21809" lon="5.73308">
        <ele>1036.4000244141</ele>
        <time>2021-09-30T04:16:44.000Z</time>
      </trkpt>
      <trkpt lat="45.21806" lon="5.73305">
        <ele>1035.8000488281</ele>
        <time>2021-09-30T04:16:46.000Z</time>
      </trkpt>
      <trkpt lat="45.21799" lon="5.73303">
        <ele>1035</ele>
        <time>2021-09-30T04:16:49.000Z</time>
      </trkpt>
      <trkpt lat="45.21798" lon="5.73302">
        <ele>1034.8000488281</ele>
        <time>2021-09-30T04:16:50.000Z</time>
      </trkpt>
      <trkpt lat="45.21797" lon="5.73301">
        <ele>1034.4000244141</ele>
        <time>2021-09-30T04:16:51.000Z</time>
      </trkpt>
      <trkpt lat="45.21795" lon="5.73296">
        <ele>1034.1999511719</ele>
        <time>2021-09-30T04:16:53.000Z</time>
      </trkpt>
      <trkpt lat="45.21794" lon="5.73294">
        <ele>1033.8000488281</ele>
        <time>2021-09-30T04:16:54.000Z</time>
      </trkpt>
      <trkpt lat="45.21793" lon="5.73293">
        <ele>1033.5999755859</ele>
        <time>2021-09-30T04:16:55.000Z</time>
      </trkpt>
      <trkpt lat="45.21791" lon="5.73292">
        <ele>1033.4000244141</ele>
        <time>2021-09-30T04:16:56.000Z</time>
      </trkpt>
      <trkpt lat="45.21788" lon="5.73288">
        <ele>1032.5999755859</ele>
        <time>2021-09-30T04:16:59.000Z</time>
      </trkpt>
      <trkpt lat="45.21787" lon="5.73288">
        <ele>1032.4000244141</ele>
        <time>2021-09-30T04:17:00.000Z</time>
      </trkpt>
      <trkpt lat="45.21785" lon="5.73286">
        <ele>1031.8000488281</ele>
        <time>2021-09-30T04:17:02.000Z</time>
      </trkpt>
      <trkpt lat="45.21784" lon="5.73284">
        <ele>1031.5999755859</ele>
        <time>2021-09-30T04:17:03.000Z</time>
      </trkpt>
      <trkpt lat="45.21782" lon="5.73283">
        <ele>1031.4000244141</ele>
        <time>2021-09-30T04:17:06.000Z</time>
      </trkpt>
      <trkpt lat="45.2178" lon="5.73281">
        <ele>1031.1999511719</ele>
        <time>2021-09-30T04:17:07.000Z</time>
      </trkpt>
      <trkpt lat="45.21776" lon="5.73274">
        <ele>1030.4000244141</ele>
        <time>2021-09-30T04:17:10.000Z</time>
      </trkpt>
      <trkpt lat="45.21776" lon="5.73271">
        <ele>1030.1999511719</ele>
        <time>2021-09-30T04:17:11.000Z</time>
      </trkpt>
      <trkpt lat="45.21777" lon="5.73269">
        <ele>1030</ele>
        <time>2021-09-30T04:17:12.000Z</time>
      </trkpt>
      <trkpt lat="45.2178" lon="5.73265">
        <ele>1029.1999511719</ele>
        <time>2021-09-30T04:17:15.000Z</time>
      </trkpt>
      <trkpt lat="45.21781" lon="5.73264">
        <ele>1028.8000488281</ele>
        <time>2021-09-30T04:17:16.000Z</time>
      </trkpt>
      <trkpt lat="45.21781" lon="5.73263">
        <ele>1028.4000244141</ele>
        <time>2021-09-30T04:17:18.000Z</time>
      </trkpt>
      <trkpt lat="45.2178" lon="5.73261">
        <ele>1028</ele>
        <time>2021-09-30T04:17:19.000Z</time>
      </trkpt>
      <trkpt lat="45.2178" lon="5.7326">
        <ele>1027.8000488281</ele>
        <time>2021-09-30T04:17:20.000Z</time>
      </trkpt>
      <trkpt lat="45.21779" lon="5.73258">
        <ele>1027.4000244141</ele>
        <time>2021-09-30T04:17:21.000Z</time>
      </trkpt>
      <trkpt lat="45.21777" lon="5.73254">
        <ele>1026.4000244141</ele>
        <time>2021-09-30T04:17:24.000Z</time>
      </trkpt>
      <trkpt lat="45.21777" lon="5.73252">
        <ele>1026</ele>
        <time>2021-09-30T04:17:25.000Z</time>
      </trkpt>
      <trkpt lat="45.21777" lon="5.73252">
        <ele>1025.8000488281</ele>
        <time>2021-09-30T04:17:26.000Z</time>
      </trkpt>
      <trkpt lat="45.21777" lon="5.73251">
        <ele>1025.4000244141</ele>
        <time>2021-09-30T04:17:27.000Z</time>
      </trkpt>
      <trkpt lat="45.21777" lon="5.7325">
        <ele>1025.4000244141</ele>
        <time>2021-09-30T04:17:28.000Z</time>
      </trkpt>
      <trkpt lat="45.21776" lon="5.73247">
        <ele>1024.8000488281</ele>
        <time>2021-09-30T04:17:30.000Z</time>
      </trkpt>
      <trkpt lat="45.21773" lon="5.73242">
        <ele>1024.5999755859</ele>
        <time>2021-09-30T04:17:32.000Z</time>
      </trkpt>
      <trkpt lat="45.21767" lon="5.73238">
        <ele>1024.8000488281</ele>
        <time>2021-09-30T04:17:37.000Z</time>
      </trkpt>
      <trkpt lat="45.21764" lon="5.73233">
        <ele>1024.8000488281</ele>
        <time>2021-09-30T04:17:40.000Z</time>
      </trkpt>
      <trkpt lat="45.21762" lon="5.7323">
        <ele>1024.5999755859</ele>
        <time>2021-09-30T04:17:43.000Z</time>
      </trkpt>
      <trkpt lat="45.21761" lon="5.73229">
        <ele>1024.4000244141</ele>
        <time>2021-09-30T04:17:44.000Z</time>
      </trkpt>
      <trkpt lat="45.21761" lon="5.73228">
        <ele>1024.4000244141</ele>
        <time>2021-09-30T04:17:45.000Z</time>
      </trkpt>
      <trkpt lat="45.2176" lon="5.73227">
        <ele>1024</ele>
        <time>2021-09-30T04:17:46.000Z</time>
      </trkpt>
      <trkpt lat="45.2176" lon="5.73224">
        <ele>1023</ele>
        <time>2021-09-30T04:17:50.000Z</time>
      </trkpt>
      <trkpt lat="45.2176" lon="5.73221">
        <ele>1022.200012207</ele>
        <time>2021-09-30T04:17:53.000Z</time>
      </trkpt>
      <trkpt lat="45.2176" lon="5.7322">
        <ele>1022</ele>
        <time>2021-09-30T04:17:54.000Z</time>
      </trkpt>
      <trkpt lat="45.2176" lon="5.73219">
        <ele>1021.799987793</ele>
        <time>2021-09-30T04:17:55.000Z</time>
      </trkpt>
      <trkpt lat="45.21757" lon="5.73215">
        <ele>1021</ele>
        <time>2021-09-30T04:17:58.000Z</time>
      </trkpt>
      <trkpt lat="45.21755" lon="5.73214">
        <ele>1020.5999755859</ele>
        <time>2021-09-30T04:17:59.000Z</time>
      </trkpt>
      <trkpt lat="45.21753" lon="5.73212">
        <ele>1020.5999755859</ele>
        <time>2021-09-30T04:18:00.000Z</time>
      </trkpt>
      <trkpt lat="45.21743" lon="5.73208">
        <ele>1021</ele>
        <time>2021-09-30T04:18:06.000Z</time>
      </trkpt>
      <trkpt lat="45.21743" lon="5.73209">
        <ele>1021.200012207</ele>
        <time>2021-09-30T04:18:07.000Z</time>
      </trkpt>
      <trkpt lat="45.21739" lon="5.7321">
        <ele>1021.5999755859</ele>
        <time>2021-09-30T04:18:10.000Z</time>
      </trkpt>
      <trkpt lat="45.21734" lon="5.73212">
        <ele>1021.5999755859</ele>
        <time>2021-09-30T04:18:13.000Z</time>
      </trkpt>
      <trkpt lat="45.21732" lon="5.73216">
        <ele>1021.4000244141</ele>
        <time>2021-09-30T04:18:16.000Z</time>
      </trkpt>
      <trkpt lat="45.21731" lon="5.73217">
        <ele>1021.4000244141</ele>
        <time>2021-09-30T04:18:18.000Z</time>
      </trkpt>
      <trkpt lat="45.2173" lon="5.73217">
        <ele>1021.200012207</ele>
        <time>2021-09-30T04:18:19.000Z</time>
      </trkpt>
      <trkpt lat="45.21726" lon="5.73223">
        <ele>1019.5999755859</ele>
        <time>2021-09-30T04:18:25.000Z</time>
      </trkpt>
      <trkpt lat="45.21725" lon="5.73223">
        <ele>1019.4000244141</ele>
        <time>2021-09-30T04:18:26.000Z</time>
      </trkpt>
      <trkpt lat="45.21724" lon="5.73223">
        <ele>1018.4000244141</ele>
        <time>2021-09-30T04:18:29.000Z</time>
      </trkpt>
      <trkpt lat="45.21723" lon="5.73222">
        <ele>1018</ele>
        <time>2021-09-30T04:18:31.000Z</time>
      </trkpt>
      <trkpt lat="45.21721" lon="5.7322">
        <ele>1017.4000244141</ele>
        <time>2021-09-30T04:18:33.000Z</time>
      </trkpt>
      <trkpt lat="45.2172" lon="5.73219">
        <ele>1017.200012207</ele>
        <time>2021-09-30T04:18:34.000Z</time>
      </trkpt>
      <trkpt lat="45.21718" lon="5.73216">
        <ele>1016.799987793</ele>
        <time>2021-09-30T04:18:36.000Z</time>
      </trkpt>
      <trkpt lat="45.21715" lon="5.73213">
        <ele>1016.200012207</ele>
        <time>2021-09-30T04:18:38.000Z</time>
      </trkpt>
      <trkpt lat="45.21713" lon="5.73211">
        <ele>1016</ele>
        <time>2021-09-30T04:18:39.000Z</time>
      </trkpt>
      <trkpt lat="45.2171" lon="5.73208">
        <ele>1015.799987793</ele>
        <time>2021-09-30T04:18:41.000Z</time>
      </trkpt>
      <trkpt lat="45.21702" lon="5.73196">
        <ele>1015</ele>
        <time>2021-09-30T04:18:48.000Z</time>
      </trkpt>
      <trkpt lat="45.217" lon="5.73195">
        <ele>1014.799987793</ele>
        <time>2021-09-30T04:18:49.000Z</time>
      </trkpt>
      <trkpt lat="45.21694" lon="5.73186">
        <ele>1014.200012207</ele>
        <time>2021-09-30T04:18:54.000Z</time>
      </trkpt>
      <trkpt lat="45.21692" lon="5.73184">
        <ele>1013.799987793</ele>
        <time>2021-09-30T04:18:56.000Z</time>
      </trkpt>
      <trkpt lat="45.21688" lon="5.73179">
        <ele>1012.4000244141</ele>
        <time>2021-09-30T04:19:00.000Z</time>
      </trkpt>
      <trkpt lat="45.21686" lon="5.73177">
        <ele>1011.5999755859</ele>
        <time>2021-09-30T04:19:02.000Z</time>
      </trkpt>
      <trkpt lat="45.21685" lon="5.73176">
        <ele>1011.200012207</ele>
        <time>2021-09-30T04:19:03.000Z</time>
      </trkpt>
      <trkpt lat="45.21682" lon="5.73171">
        <ele>1010.200012207</ele>
        <time>2021-09-30T04:19:07.000Z</time>
      </trkpt>
      <trkpt lat="45.21681" lon="5.73169">
        <ele>1009.5999755859</ele>
        <time>2021-09-30T04:19:09.000Z</time>
      </trkpt>
      <trkpt lat="45.21679" lon="5.73165">
        <ele>1008.799987793</ele>
        <time>2021-09-30T04:19:12.000Z</time>
      </trkpt>
      <trkpt lat="45.21678" lon="5.73163">
        <ele>1008.200012207</ele>
        <time>2021-09-30T04:19:14.000Z</time>
      </trkpt>
      <trkpt lat="45.21676" lon="5.7316">
        <ele>1007.799987793</ele>
        <time>2021-09-30T04:19:16.000Z</time>
      </trkpt>
      <trkpt lat="45.21675" lon="5.73157">
        <ele>1006.5999755859</ele>
        <time>2021-09-30T04:19:20.000Z</time>
      </trkpt>
      <trkpt lat="45.21674" lon="5.73156">
        <ele>1006.4000244141</ele>
        <time>2021-09-30T04:19:21.000Z</time>
      </trkpt>
      <trkpt lat="45.21674" lon="5.73155">
        <ele>1005.4000244141</ele>
        <time>2021-09-30T04:19:23.000Z</time>
      </trkpt>
      <trkpt lat="45.21673" lon="5.73152">
        <ele>1004.5999755859</ele>
        <time>2021-09-30T04:19:25.000Z</time>
      </trkpt>
      <trkpt lat="45.21673" lon="5.73151">
        <ele>1004.200012207</ele>
        <time>2021-09-30T04:19:26.000Z</time>
      </trkpt>
      <trkpt lat="45.21671" lon="5.73148">
        <ele>1003.5999755859</ele>
        <time>2021-09-30T04:19:29.000Z</time>
      </trkpt>
      <trkpt lat="45.2167" lon="5.73148">
        <ele>1003</ele>
        <time>2021-09-30T04:19:30.000Z</time>
      </trkpt>
      <trkpt lat="45.21669" lon="5.73148">
        <ele>1002.4000244141</ele>
        <time>2021-09-30T04:19:32.000Z</time>
      </trkpt>
      <trkpt lat="45.21667" lon="5.73148">
        <ele>1002</ele>
        <time>2021-09-30T04:19:34.000Z</time>
      </trkpt>
      <trkpt lat="45.21666" lon="5.73149">
        <ele>1002</ele>
        <time>2021-09-30T04:19:35.000Z</time>
      </trkpt>
      <trkpt lat="45.21665" lon="5.73148">
        <ele>1001.5999755859</ele>
        <time>2021-09-30T04:19:36.000Z</time>
      </trkpt>
      <trkpt lat="45.21663" lon="5.73145">
        <ele>1000.4000244141</ele>
        <time>2021-09-30T04:19:40.000Z</time>
      </trkpt>
      <trkpt lat="45.21662" lon="5.73145">
        <ele>1000</ele>
        <time>2021-09-30T04:19:41.000Z</time>
      </trkpt>
      <trkpt lat="45.2166" lon="5.73144">
        <ele>999.20001220703</ele>
        <time>2021-09-30T04:19:44.000Z</time>
      </trkpt>
      <trkpt lat="45.21659" lon="5.73144">
        <ele>998.79998779297</ele>
        <time>2021-09-30T04:19:45.000Z</time>
      </trkpt>
      <trkpt lat="45.21656" lon="5.73143">
        <ele>998</ele>
        <time>2021-09-30T04:19:47.000Z</time>
      </trkpt>
      <trkpt lat="45.21651" lon="5.73139">
        <ele>997</ele>
        <time>2021-09-30T04:19:50.000Z</time>
      </trkpt>
      <trkpt lat="45.21647" lon="5.73138">
        <ele>995.79998779297</ele>
        <time>2021-09-30T04:19:53.000Z</time>
      </trkpt>
      <trkpt lat="45.21645" lon="5.73137">
        <ele>995.20001220703</ele>
        <time>2021-09-30T04:19:54.000Z</time>
      </trkpt>
      <trkpt lat="45.21643" lon="5.73136">
        <ele>995</ele>
        <time>2021-09-30T04:19:55.000Z</time>
      </trkpt>
      <trkpt lat="45.21641" lon="5.73138">
        <ele>994.40002441406</ele>
        <time>2021-09-30T04:19:57.000Z</time>
      </trkpt>
      <trkpt lat="45.21638" lon="5.73139">
        <ele>993.79998779297</ele>
        <time>2021-09-30T04:19:59.000Z</time>
      </trkpt>
      <trkpt lat="45.21636" lon="5.73141">
        <ele>993.20001220703</ele>
        <time>2021-09-30T04:20:01.000Z</time>
      </trkpt>
      <trkpt lat="45.21635" lon="5.73142">
        <ele>992.79998779297</ele>
        <time>2021-09-30T04:20:02.000Z</time>
      </trkpt>
      <trkpt lat="45.21633" lon="5.73142">
        <ele>991.79998779297</ele>
        <time>2021-09-30T04:20:04.000Z</time>
      </trkpt>
      <trkpt lat="45.21632" lon="5.73141">
        <ele>991.40002441406</ele>
        <time>2021-09-30T04:20:05.000Z</time>
      </trkpt>
      <trkpt lat="45.21628" lon="5.73139">
        <ele>990.40002441406</ele>
        <time>2021-09-30T04:20:08.000Z</time>
      </trkpt>
      <trkpt lat="45.21621" lon="5.73134">
        <ele>988.79998779297</ele>
        <time>2021-09-30T04:20:12.000Z</time>
      </trkpt>
      <trkpt lat="45.21616" lon="5.73132">
        <ele>987.40002441406</ele>
        <time>2021-09-30T04:20:15.000Z</time>
      </trkpt>
      <trkpt lat="45.2161" lon="5.73129">
        <ele>986.20001220703</ele>
        <time>2021-09-30T04:20:18.000Z</time>
      </trkpt>
      <trkpt lat="45.21608" lon="5.73128">
        <ele>985.79998779297</ele>
        <time>2021-09-30T04:20:19.000Z</time>
      </trkpt>
      <trkpt lat="45.21604" lon="5.73126">
        <ele>985</ele>
        <time>2021-09-30T04:20:21.000Z</time>
      </trkpt>
      <trkpt lat="45.216" lon="5.73124">
        <ele>984.40002441406</ele>
        <time>2021-09-30T04:20:23.000Z</time>
      </trkpt>
      <trkpt lat="45.21598" lon="5.73122">
        <ele>984</ele>
        <time>2021-09-30T04:20:24.000Z</time>
      </trkpt>
      <trkpt lat="45.21592" lon="5.73121">
        <ele>983.40002441406</ele>
        <time>2021-09-30T04:20:27.000Z</time>
      </trkpt>
      <trkpt lat="45.2159" lon="5.73121">
        <ele>983</ele>
        <time>2021-09-30T04:20:28.000Z</time>
      </trkpt>
      <trkpt lat="45.21587" lon="5.73124">
        <ele>981.79998779297</ele>
        <time>2021-09-30T04:20:31.000Z</time>
      </trkpt>
      <trkpt lat="45.21586" lon="5.73125">
        <ele>981.40002441406</ele>
        <time>2021-09-30T04:20:32.000Z</time>
      </trkpt>
      <trkpt lat="45.21583" lon="5.73127">
        <ele>980.79998779297</ele>
        <time>2021-09-30T04:20:34.000Z</time>
      </trkpt>
      <trkpt lat="45.21581" lon="5.73132">
        <ele>979.59997558594</ele>
        <time>2021-09-30T04:20:37.000Z</time>
      </trkpt>
      <trkpt lat="45.21581" lon="5.73136">
        <ele>978.20001220703</ele>
        <time>2021-09-30T04:20:39.000Z</time>
      </trkpt>
      <trkpt lat="45.21582" lon="5.73143">
        <ele>977</ele>
        <time>2021-09-30T04:20:42.000Z</time>
      </trkpt>
      <trkpt lat="45.21581" lon="5.73145">
        <ele>976.59997558594</ele>
        <time>2021-09-30T04:20:43.000Z</time>
      </trkpt>
      <trkpt lat="45.21579" lon="5.73146">
        <ele>975.59997558594</ele>
        <time>2021-09-30T04:20:45.000Z</time>
      </trkpt>
      <trkpt lat="45.21578" lon="5.73146">
        <ele>975.40002441406</ele>
        <time>2021-09-30T04:20:46.000Z</time>
      </trkpt>
      <trkpt lat="45.21576" lon="5.73148">
        <ele>974.40002441406</ele>
        <time>2021-09-30T04:20:49.000Z</time>
      </trkpt>
      <trkpt lat="45.21573" lon="5.73152">
        <ele>973.20001220703</ele>
        <time>2021-09-30T04:20:53.000Z</time>
      </trkpt>
      <trkpt lat="45.21574" lon="5.73153">
        <ele>972.40002441406</ele>
        <time>2021-09-30T04:20:54.000Z</time>
      </trkpt>
      <trkpt lat="45.21573" lon="5.73154">
        <ele>972</ele>
        <time>2021-09-30T04:20:55.000Z</time>
      </trkpt>
      <trkpt lat="45.21573" lon="5.73157">
        <ele>971</ele>
        <time>2021-09-30T04:20:58.000Z</time>
      </trkpt>
      <trkpt lat="45.21573" lon="5.73158">
        <ele>970.40002441406</ele>
        <time>2021-09-30T04:20:59.000Z</time>
      </trkpt>
      <trkpt lat="45.21572" lon="5.73161">
        <ele>969.59997558594</ele>
        <time>2021-09-30T04:21:01.000Z</time>
      </trkpt>
      <trkpt lat="45.21572" lon="5.73164">
        <ele>969</ele>
        <time>2021-09-30T04:21:03.000Z</time>
      </trkpt>
      <trkpt lat="45.2157" lon="5.73164">
        <ele>968.59997558594</ele>
        <time>2021-09-30T04:21:05.000Z</time>
      </trkpt>
      <trkpt lat="45.21569" lon="5.73164">
        <ele>967.59997558594</ele>
        <time>2021-09-30T04:21:07.000Z</time>
      </trkpt>
      <trkpt lat="45.21568" lon="5.73164">
        <ele>967.20001220703</ele>
        <time>2021-09-30T04:21:08.000Z</time>
      </trkpt>
      <trkpt lat="45.21567" lon="5.73169">
        <ele>965.79998779297</ele>
        <time>2021-09-30T04:21:11.000Z</time>
      </trkpt>
      <trkpt lat="45.21567" lon="5.73173">
        <ele>964.79998779297</ele>
        <time>2021-09-30T04:21:14.000Z</time>
      </trkpt>
      <trkpt lat="45.21568" lon="5.73174">
        <ele>964.40002441406</ele>
        <time>2021-09-30T04:21:15.000Z</time>
      </trkpt>
      <trkpt lat="45.21569" lon="5.73177">
        <ele>963.59997558594</ele>
        <time>2021-09-30T04:21:17.000Z</time>
      </trkpt>
      <trkpt lat="45.21569" lon="5.73178">
        <ele>963</ele>
        <time>2021-09-30T04:21:18.000Z</time>
      </trkpt>
      <trkpt lat="45.2157" lon="5.73181">
        <ele>962.40002441406</ele>
        <time>2021-09-30T04:21:20.000Z</time>
      </trkpt>
      <trkpt lat="45.21571" lon="5.73183">
        <ele>961.59997558594</ele>
        <time>2021-09-30T04:21:22.000Z</time>
      </trkpt>
      <trkpt lat="45.21572" lon="5.73185">
        <ele>961.20001220703</ele>
        <time>2021-09-30T04:21:23.000Z</time>
      </trkpt>
      <trkpt lat="45.21573" lon="5.73187">
        <ele>960.79998779297</ele>
        <time>2021-09-30T04:21:24.000Z</time>
      </trkpt>
      <trkpt lat="45.21575" lon="5.73191">
        <ele>960.20001220703</ele>
        <time>2021-09-30T04:21:26.000Z</time>
      </trkpt>
      <trkpt lat="45.21577" lon="5.73196">
        <ele>959.59997558594</ele>
        <time>2021-09-30T04:21:28.000Z</time>
      </trkpt>
      <trkpt lat="45.21579" lon="5.73198">
        <ele>959</ele>
        <time>2021-09-30T04:21:29.000Z</time>
      </trkpt>
      <trkpt lat="45.21587" lon="5.73207">
        <ele>957.59997558594</ele>
        <time>2021-09-30T04:21:33.000Z</time>
      </trkpt>
      <trkpt lat="45.21591" lon="5.73214">
        <ele>956.59997558594</ele>
        <time>2021-09-30T04:21:36.000Z</time>
      </trkpt>
      <trkpt lat="45.21592" lon="5.73215">
        <ele>956.40002441406</ele>
        <time>2021-09-30T04:21:37.000Z</time>
      </trkpt>
      <trkpt lat="45.21595" lon="5.73218">
        <ele>955.79998779297</ele>
        <time>2021-09-30T04:21:39.000Z</time>
      </trkpt>
      <trkpt lat="45.21598" lon="5.73222">
        <ele>955.20001220703</ele>
        <time>2021-09-30T04:21:41.000Z</time>
      </trkpt>
      <trkpt lat="45.21601" lon="5.73225">
        <ele>954.79998779297</ele>
        <time>2021-09-30T04:21:43.000Z</time>
      </trkpt>
      <trkpt lat="45.21603" lon="5.73227">
        <ele>954.20001220703</ele>
        <time>2021-09-30T04:21:45.000Z</time>
      </trkpt>
      <trkpt lat="45.21604" lon="5.73229">
        <ele>954</ele>
        <time>2021-09-30T04:21:46.000Z</time>
      </trkpt>
      <trkpt lat="45.21605" lon="5.73231">
        <ele>953.20001220703</ele>
        <time>2021-09-30T04:21:48.000Z</time>
      </trkpt>
      <trkpt lat="45.21606" lon="5.73232">
        <ele>952.59997558594</ele>
        <time>2021-09-30T04:21:49.000Z</time>
      </trkpt>
      <trkpt lat="45.21607" lon="5.73234">
        <ele>952.40002441406</ele>
        <time>2021-09-30T04:21:50.000Z</time>
      </trkpt>
      <trkpt lat="45.21609" lon="5.73237">
        <ele>951.40002441406</ele>
        <time>2021-09-30T04:21:53.000Z</time>
      </trkpt>
      <trkpt lat="45.21609" lon="5.73239">
        <ele>951</ele>
        <time>2021-09-30T04:21:54.000Z</time>
      </trkpt>
      <trkpt lat="45.2161" lon="5.73244">
        <ele>950.20001220703</ele>
        <time>2021-09-30T04:21:57.000Z</time>
      </trkpt>
      <trkpt lat="45.21611" lon="5.73245">
        <ele>950</ele>
        <time>2021-09-30T04:21:58.000Z</time>
      </trkpt>
      <trkpt lat="45.21612" lon="5.73247">
        <ele>949</ele>
        <time>2021-09-30T04:22:00.000Z</time>
      </trkpt>
      <trkpt lat="45.21614" lon="5.7325">
        <ele>948.40002441406</ele>
        <time>2021-09-30T04:22:02.000Z</time>
      </trkpt>
      <trkpt lat="45.21616" lon="5.73253">
        <ele>948</ele>
        <time>2021-09-30T04:22:04.000Z</time>
      </trkpt>
      <trkpt lat="45.21618" lon="5.73256">
        <ele>947.20001220703</ele>
        <time>2021-09-30T04:22:06.000Z</time>
      </trkpt>
      <trkpt lat="45.21619" lon="5.73257">
        <ele>946.59997558594</ele>
        <time>2021-09-30T04:22:07.000Z</time>
      </trkpt>
      <trkpt lat="45.21621" lon="5.7326">
        <ele>945.79998779297</ele>
        <time>2021-09-30T04:22:09.000Z</time>
      </trkpt>
      <trkpt lat="45.21622" lon="5.73262">
        <ele>945.59997558594</ele>
        <time>2021-09-30T04:22:10.000Z</time>
      </trkpt>
      <trkpt lat="45.21628" lon="5.73273">
        <ele>944</ele>
        <time>2021-09-30T04:22:14.000Z</time>
      </trkpt>
      <trkpt lat="45.21632" lon="5.7328">
        <ele>943.40002441406</ele>
        <time>2021-09-30T04:22:17.000Z</time>
      </trkpt>
      <trkpt lat="45.21633" lon="5.73283">
        <ele>943</ele>
        <time>2021-09-30T04:22:18.000Z</time>
      </trkpt>
      <trkpt lat="45.21638" lon="5.73292">
        <ele>942.40002441406</ele>
        <time>2021-09-30T04:22:21.000Z</time>
      </trkpt>
      <trkpt lat="45.21639" lon="5.73294">
        <ele>942</ele>
        <time>2021-09-30T04:22:22.000Z</time>
      </trkpt>
      <trkpt lat="45.21641" lon="5.73299">
        <ele>941</ele>
        <time>2021-09-30T04:22:24.000Z</time>
      </trkpt>
      <trkpt lat="45.21641" lon="5.73302">
        <ele>940.79998779297</ele>
        <time>2021-09-30T04:22:25.000Z</time>
      </trkpt>
      <trkpt lat="45.21645" lon="5.73313">
        <ele>939.79998779297</ele>
        <time>2021-09-30T04:22:29.000Z</time>
      </trkpt>
      <trkpt lat="45.21645" lon="5.73317">
        <ele>939.20001220703</ele>
        <time>2021-09-30T04:22:31.000Z</time>
      </trkpt>
      <trkpt lat="45.21645" lon="5.73322">
        <ele>938.20001220703</ele>
        <time>2021-09-30T04:22:33.000Z</time>
      </trkpt>
      <trkpt lat="45.21646" lon="5.73328">
        <ele>937</ele>
        <time>2021-09-30T04:22:36.000Z</time>
      </trkpt>
      <trkpt lat="45.21648" lon="5.73331">
        <ele>936.40002441406</ele>
        <time>2021-09-30T04:22:38.000Z</time>
      </trkpt>
      <trkpt lat="45.21648" lon="5.73332">
        <ele>936</ele>
        <time>2021-09-30T04:22:39.000Z</time>
      </trkpt>
      <trkpt lat="45.21649" lon="5.73334">
        <ele>935.59997558594</ele>
        <time>2021-09-30T04:22:40.000Z</time>
      </trkpt>
      <trkpt lat="45.21651" lon="5.73338">
        <ele>934.79998779297</ele>
        <time>2021-09-30T04:22:43.000Z</time>
      </trkpt>
      <trkpt lat="45.21651" lon="5.73342">
        <ele>934.20001220703</ele>
        <time>2021-09-30T04:22:45.000Z</time>
      </trkpt>
      <trkpt lat="45.21652" lon="5.73346">
        <ele>933.59997558594</ele>
        <time>2021-09-30T04:22:47.000Z</time>
      </trkpt>
      <trkpt lat="45.21652" lon="5.7335">
        <ele>932.79998779297</ele>
        <time>2021-09-30T04:22:48.000Z</time>
      </trkpt>
      <trkpt lat="45.21653" lon="5.73353">
        <ele>932.20001220703</ele>
        <time>2021-09-30T04:22:49.000Z</time>
      </trkpt>
      <trkpt lat="45.21655" lon="5.7336">
        <ele>931</ele>
        <time>2021-09-30T04:22:52.000Z</time>
      </trkpt>
      <trkpt lat="45.21656" lon="5.73364">
        <ele>930</ele>
        <time>2021-09-30T04:22:54.000Z</time>
      </trkpt>
      <trkpt lat="45.21656" lon="5.73367">
        <ele>929.59997558594</ele>
        <time>2021-09-30T04:22:55.000Z</time>
      </trkpt>
      <trkpt lat="45.21657" lon="5.73372">
        <ele>928.40002441406</ele>
        <time>2021-09-30T04:22:58.000Z</time>
      </trkpt>
      <trkpt lat="45.21657" lon="5.73376">
        <ele>927.79998779297</ele>
        <time>2021-09-30T04:23:00.000Z</time>
      </trkpt>
      <trkpt lat="45.21658" lon="5.73381">
        <ele>927.20001220703</ele>
        <time>2021-09-30T04:23:01.000Z</time>
      </trkpt>
      <trkpt lat="45.2166" lon="5.73385">
        <ele>926</ele>
        <time>2021-09-30T04:23:03.000Z</time>
      </trkpt>
      <trkpt lat="45.2166" lon="5.73388">
        <ele>925.59997558594</ele>
        <time>2021-09-30T04:23:04.000Z</time>
      </trkpt>
      <trkpt lat="45.21661" lon="5.7339">
        <ele>925.20001220703</ele>
        <time>2021-09-30T04:23:05.000Z</time>
      </trkpt>
      <trkpt lat="45.21661" lon="5.73392">
        <ele>924.79998779297</ele>
        <time>2021-09-30T04:23:06.000Z</time>
      </trkpt>
      <trkpt lat="45.21662" lon="5.73393">
        <ele>924.40002441406</ele>
        <time>2021-09-30T04:23:07.000Z</time>
      </trkpt>
      <trkpt lat="45.21665" lon="5.73397">
        <ele>923.59997558594</ele>
        <time>2021-09-30T04:23:10.000Z</time>
      </trkpt>
      <trkpt lat="45.21666" lon="5.73398">
        <ele>923</ele>
        <time>2021-09-30T04:23:11.000Z</time>
      </trkpt>
      <trkpt lat="45.21666" lon="5.73399">
        <ele>922.40002441406</ele>
        <time>2021-09-30T04:23:12.000Z</time>
      </trkpt>
      <trkpt lat="45.21667" lon="5.73402">
        <ele>922</ele>
        <time>2021-09-30T04:23:13.000Z</time>
      </trkpt>
      <trkpt lat="45.21669" lon="5.73407">
        <ele>921.40002441406</ele>
        <time>2021-09-30T04:23:15.000Z</time>
      </trkpt>
      <trkpt lat="45.21671" lon="5.73415">
        <ele>920</ele>
        <time>2021-09-30T04:23:19.000Z</time>
      </trkpt>
      <trkpt lat="45.21671" lon="5.7342">
        <ele>918.79998779297</ele>
        <time>2021-09-30T04:23:21.000Z</time>
      </trkpt>
      <trkpt lat="45.21671" lon="5.73423">
        <ele>918.20001220703</ele>
        <time>2021-09-30T04:23:22.000Z</time>
      </trkpt>
      <trkpt lat="45.21672" lon="5.73429">
        <ele>917.40002441406</ele>
        <time>2021-09-30T04:23:24.000Z</time>
      </trkpt>
      <trkpt lat="45.21671" lon="5.73437">
        <ele>916.40002441406</ele>
        <time>2021-09-30T04:23:27.000Z</time>
      </trkpt>
      <trkpt lat="45.2167" lon="5.73443">
        <ele>915.20001220703</ele>
        <time>2021-09-30T04:23:29.000Z</time>
      </trkpt>
      <trkpt lat="45.2167" lon="5.73448">
        <ele>914.40002441406</ele>
        <time>2021-09-30T04:23:31.000Z</time>
      </trkpt>
      <trkpt lat="45.2167" lon="5.73452">
        <ele>914.20001220703</ele>
        <time>2021-09-30T04:23:32.000Z</time>
      </trkpt>
      <trkpt lat="45.2167" lon="5.73459">
        <ele>913.59997558594</ele>
        <time>2021-09-30T04:23:34.000Z</time>
      </trkpt>
      <trkpt lat="45.21671" lon="5.73464">
        <ele>913</ele>
        <time>2021-09-30T04:23:36.000Z</time>
      </trkpt>
      <trkpt lat="45.21671" lon="5.73473">
        <ele>912</ele>
        <time>2021-09-30T04:23:39.000Z</time>
      </trkpt>
      <trkpt lat="45.21671" lon="5.73476">
        <ele>911.79998779297</ele>
        <time>2021-09-30T04:23:40.000Z</time>
      </trkpt>
      <trkpt lat="45.21672" lon="5.73482">
        <ele>910.59997558594</ele>
        <time>2021-09-30T04:23:44.000Z</time>
      </trkpt>
      <trkpt lat="45.21671" lon="5.73484">
        <ele>910</ele>
        <time>2021-09-30T04:23:46.000Z</time>
      </trkpt>
      <trkpt lat="45.21669" lon="5.73483">
        <ele>909.40002441406</ele>
        <time>2021-09-30T04:23:48.000Z</time>
      </trkpt>
      <trkpt lat="45.21668" lon="5.7348">
        <ele>909.40002441406</ele>
        <time>2021-09-30T04:23:49.000Z</time>
      </trkpt>
      <trkpt lat="45.21666" lon="5.73473">
        <ele>909</ele>
        <time>2021-09-30T04:23:51.000Z</time>
      </trkpt>
      <trkpt lat="45.21665" lon="5.7347">
        <ele>908.59997558594</ele>
        <time>2021-09-30T04:23:52.000Z</time>
      </trkpt>
      <trkpt lat="45.21665" lon="5.73466">
        <ele>908.40002441406</ele>
        <time>2021-09-30T04:23:53.000Z</time>
      </trkpt>
      <trkpt lat="45.21661" lon="5.7345">
        <ele>907</ele>
        <time>2021-09-30T04:23:58.000Z</time>
      </trkpt>
      <trkpt lat="45.2166" lon="5.73446">
        <ele>906.79998779297</ele>
        <time>2021-09-30T04:23:59.000Z</time>
      </trkpt>
      <trkpt lat="45.21656" lon="5.73433">
        <ele>905.79998779297</ele>
        <time>2021-09-30T04:24:02.000Z</time>
      </trkpt>
      <trkpt lat="45.21652" lon="5.73423">
        <ele>905.40002441406</ele>
        <time>2021-09-30T04:24:05.000Z</time>
      </trkpt>
      <trkpt lat="45.21645" lon="5.73409">
        <ele>904.59997558594</ele>
        <time>2021-09-30T04:24:09.000Z</time>
      </trkpt>
      <trkpt lat="45.21642" lon="5.73403">
        <ele>904.20001220703</ele>
        <time>2021-09-30T04:24:11.000Z</time>
      </trkpt>
      <trkpt lat="45.2164" lon="5.734">
        <ele>904</ele>
        <time>2021-09-30T04:24:12.000Z</time>
      </trkpt>
      <trkpt lat="45.21633" lon="5.7339">
        <ele>903.40002441406</ele>
        <time>2021-09-30T04:24:16.000Z</time>
      </trkpt>
      <trkpt lat="45.21627" lon="5.73386">
        <ele>902</ele>
        <time>2021-09-30T04:24:19.000Z</time>
      </trkpt>
      <trkpt lat="45.21622" lon="5.73385">
        <ele>901.59997558594</ele>
        <time>2021-09-30T04:24:21.000Z</time>
      </trkpt>
      <trkpt lat="45.21619" lon="5.73382">
        <ele>901</ele>
        <time>2021-09-30T04:24:23.000Z</time>
      </trkpt>
      <trkpt lat="45.21617" lon="5.73381">
        <ele>900.59997558594</ele>
        <time>2021-09-30T04:24:24.000Z</time>
      </trkpt>
      <trkpt lat="45.21613" lon="5.73375">
        <ele>899.59997558594</ele>
        <time>2021-09-30T04:24:27.000Z</time>
      </trkpt>
      <trkpt lat="45.21612" lon="5.73373">
        <ele>899.20001220703</ele>
        <time>2021-09-30T04:24:28.000Z</time>
      </trkpt>
      <trkpt lat="45.21607" lon="5.73368">
        <ele>898</ele>
        <time>2021-09-30T04:24:32.000Z</time>
      </trkpt>
      <trkpt lat="45.21605" lon="5.73364">
        <ele>897</ele>
        <time>2021-09-30T04:24:34.000Z</time>
      </trkpt>
      <trkpt lat="45.21603" lon="5.73362">
        <ele>896.59997558594</ele>
        <time>2021-09-30T04:24:35.000Z</time>
      </trkpt>
      <trkpt lat="45.21599" lon="5.73354">
        <ele>895.79998779297</ele>
        <time>2021-09-30T04:24:39.000Z</time>
      </trkpt>
      <trkpt lat="45.21594" lon="5.73349">
        <ele>894.79998779297</ele>
        <time>2021-09-30T04:24:42.000Z</time>
      </trkpt>
      <trkpt lat="45.21593" lon="5.73348">
        <ele>894.40002441406</ele>
        <time>2021-09-30T04:24:43.000Z</time>
      </trkpt>
      <trkpt lat="45.21588" lon="5.73346">
        <ele>893.79998779297</ele>
        <time>2021-09-30T04:24:46.000Z</time>
      </trkpt>
      <trkpt lat="45.21585" lon="5.73345">
        <ele>893.40002441406</ele>
        <time>2021-09-30T04:24:48.000Z</time>
      </trkpt>
      <trkpt lat="45.21578" lon="5.7334">
        <ele>892</ele>
        <time>2021-09-30T04:24:51.000Z</time>
      </trkpt>
      <trkpt lat="45.21574" lon="5.73336">
        <ele>891.59997558594</ele>
        <time>2021-09-30T04:24:53.000Z</time>
      </trkpt>
      <trkpt lat="45.2157" lon="5.73331">
        <ele>890.79998779297</ele>
        <time>2021-09-30T04:24:55.000Z</time>
      </trkpt>
      <trkpt lat="45.21565" lon="5.73327">
        <ele>889.79998779297</ele>
        <time>2021-09-30T04:24:58.000Z</time>
      </trkpt>
      <trkpt lat="45.2156" lon="5.73326">
        <ele>889</ele>
        <time>2021-09-30T04:25:01.000Z</time>
      </trkpt>
      <trkpt lat="45.21558" lon="5.73324">
        <ele>888.59997558594</ele>
        <time>2021-09-30T04:25:02.000Z</time>
      </trkpt>
      <trkpt lat="45.21555" lon="5.73322">
        <ele>888</ele>
        <time>2021-09-30T04:25:04.000Z</time>
      </trkpt>
      <trkpt lat="45.21552" lon="5.73321">
        <ele>887.59997558594</ele>
        <time>2021-09-30T04:25:06.000Z</time>
      </trkpt>
      <trkpt lat="45.2155" lon="5.7332">
        <ele>887.20001220703</ele>
        <time>2021-09-30T04:25:07.000Z</time>
      </trkpt>
      <trkpt lat="45.21546" lon="5.73321">
        <ele>886.40002441406</ele>
        <time>2021-09-30T04:25:09.000Z</time>
      </trkpt>
      <trkpt lat="45.21545" lon="5.73321">
        <ele>886</ele>
        <time>2021-09-30T04:25:10.000Z</time>
      </trkpt>
      <trkpt lat="45.21538" lon="5.7332">
        <ele>885.40002441406</ele>
        <time>2021-09-30T04:25:13.000Z</time>
      </trkpt>
      <trkpt lat="45.21537" lon="5.7332">
        <ele>885</ele>
        <time>2021-09-30T04:25:14.000Z</time>
      </trkpt>
      <trkpt lat="45.21532" lon="5.73319">
        <ele>884.20001220703</ele>
        <time>2021-09-30T04:25:16.000Z</time>
      </trkpt>
      <trkpt lat="45.21529" lon="5.73318">
        <ele>884</ele>
        <time>2021-09-30T04:25:17.000Z</time>
      </trkpt>
      <trkpt lat="45.21522" lon="5.73316">
        <ele>883.20001220703</ele>
        <time>2021-09-30T04:25:20.000Z</time>
      </trkpt>
      <trkpt lat="45.2152" lon="5.73315">
        <ele>883</ele>
        <time>2021-09-30T04:25:21.000Z</time>
      </trkpt>
      <trkpt lat="45.21517" lon="5.73311">
        <ele>882.40002441406</ele>
        <time>2021-09-30T04:25:23.000Z</time>
      </trkpt>
      <trkpt lat="45.21517" lon="5.7331">
        <ele>882.20001220703</ele>
        <time>2021-09-30T04:25:24.000Z</time>
      </trkpt>
      <trkpt lat="45.21517" lon="5.73309">
        <ele>881.79998779297</ele>
        <time>2021-09-30T04:25:25.000Z</time>
      </trkpt>
      <trkpt lat="45.21516" lon="5.73305">
        <ele>881.40002441406</ele>
        <time>2021-09-30T04:25:27.000Z</time>
      </trkpt>
      <trkpt lat="45.21515" lon="5.73297">
        <ele>880.59997558594</ele>
        <time>2021-09-30T04:25:30.000Z</time>
      </trkpt>
      <trkpt lat="45.21513" lon="5.73285">
        <ele>880.20001220703</ele>
        <time>2021-09-30T04:25:33.000Z</time>
      </trkpt>
      <trkpt lat="45.21513" lon="5.73278">
        <ele>880.20001220703</ele>
        <time>2021-09-30T04:25:35.000Z</time>
      </trkpt>
      <trkpt lat="45.21513" lon="5.7327">
        <ele>880.20001220703</ele>
        <time>2021-09-30T04:25:37.000Z</time>
      </trkpt>
      <trkpt lat="45.21512" lon="5.73268">
        <ele>880.40002441406</ele>
        <time>2021-09-30T04:25:38.000Z</time>
      </trkpt>
      <trkpt lat="45.21507" lon="5.7326">
        <ele>880.20001220703</ele>
        <time>2021-09-30T04:25:41.000Z</time>
      </trkpt>
      <trkpt lat="45.21502" lon="5.73253">
        <ele>879.20001220703</ele>
        <time>2021-09-30T04:25:44.000Z</time>
      </trkpt>
      <trkpt lat="45.21497" lon="5.73246">
        <ele>878.59997558594</ele>
        <time>2021-09-30T04:25:47.000Z</time>
      </trkpt>
      <trkpt lat="45.21495" lon="5.73244">
        <ele>878.20001220703</ele>
        <time>2021-09-30T04:25:48.000Z</time>
      </trkpt>
      <trkpt lat="45.21492" lon="5.73242">
        <ele>877.20001220703</ele>
        <time>2021-09-30T04:25:50.000Z</time>
      </trkpt>
      <trkpt lat="45.2149" lon="5.73238">
        <ele>875.79998779297</ele>
        <time>2021-09-30T04:25:52.000Z</time>
      </trkpt>
      <trkpt lat="45.21487" lon="5.73235">
        <ele>875.20001220703</ele>
        <time>2021-09-30T04:25:54.000Z</time>
      </trkpt>
      <trkpt lat="45.21486" lon="5.73233">
        <ele>874.79998779297</ele>
        <time>2021-09-30T04:25:55.000Z</time>
      </trkpt>
      <trkpt lat="45.21479" lon="5.73222">
        <ele>873.79998779297</ele>
        <time>2021-09-30T04:25:59.000Z</time>
      </trkpt>
      <trkpt lat="45.21478" lon="5.73219">
        <ele>873.40002441406</ele>
        <time>2021-09-30T04:26:00.000Z</time>
      </trkpt>
      <trkpt lat="45.21477" lon="5.73216">
        <ele>873.20001220703</ele>
        <time>2021-09-30T04:26:01.000Z</time>
      </trkpt>
      <trkpt lat="45.21477" lon="5.73214">
        <ele>873</ele>
        <time>2021-09-30T04:26:02.000Z</time>
      </trkpt>
      <trkpt lat="45.21477" lon="5.73203">
        <ele>872.59997558594</ele>
        <time>2021-09-30T04:26:05.000Z</time>
      </trkpt>
      <trkpt lat="45.21475" lon="5.73197">
        <ele>872.59997558594</ele>
        <time>2021-09-30T04:26:07.000Z</time>
      </trkpt>
      <trkpt lat="45.21474" lon="5.73194">
        <ele>872.40002441406</ele>
        <time>2021-09-30T04:26:08.000Z</time>
      </trkpt>
      <trkpt lat="45.21473" lon="5.73191">
        <ele>871.40002441406</ele>
        <time>2021-09-30T04:26:10.000Z</time>
      </trkpt>
      <trkpt lat="45.21473" lon="5.7319">
        <ele>871.20001220703</ele>
        <time>2021-09-30T04:26:11.000Z</time>
      </trkpt>
      <trkpt lat="45.2147" lon="5.73186">
        <ele>869.79998779297</ele>
        <time>2021-09-30T04:26:15.000Z</time>
      </trkpt>
      <trkpt lat="45.21468" lon="5.73187">
        <ele>869.59997558594</ele>
        <time>2021-09-30T04:26:16.000Z</time>
      </trkpt>
      <trkpt lat="45.21465" lon="5.73184">
        <ele>868.40002441406</ele>
        <time>2021-09-30T04:26:18.000Z</time>
      </trkpt>
      <trkpt lat="45.21462" lon="5.73175">
        <ele>867.20001220703</ele>
        <time>2021-09-30T04:26:22.000Z</time>
      </trkpt>
      <trkpt lat="45.2146" lon="5.73172">
        <ele>866.40002441406</ele>
        <time>2021-09-30T04:26:24.000Z</time>
      </trkpt>
      <trkpt lat="45.21458" lon="5.73171">
        <ele>866</ele>
        <time>2021-09-30T04:26:25.000Z</time>
      </trkpt>
      <trkpt lat="45.21455" lon="5.73168">
        <ele>865</ele>
        <time>2021-09-30T04:26:27.000Z</time>
      </trkpt>
      <trkpt lat="45.21454" lon="5.73167">
        <ele>864.59997558594</ele>
        <time>2021-09-30T04:26:28.000Z</time>
      </trkpt>
      <trkpt lat="45.21451" lon="5.73164">
        <ele>864.20001220703</ele>
        <time>2021-09-30T04:26:30.000Z</time>
      </trkpt>
      <trkpt lat="45.21448" lon="5.73165">
        <ele>864</ele>
        <time>2021-09-30T04:26:31.000Z</time>
      </trkpt>
      <trkpt lat="45.21445" lon="5.73165">
        <ele>863.20001220703</ele>
        <time>2021-09-30T04:26:33.000Z</time>
      </trkpt>
      <trkpt lat="45.21443" lon="5.73165">
        <ele>862.59997558594</ele>
        <time>2021-09-30T04:26:34.000Z</time>
      </trkpt>
      <trkpt lat="45.21438" lon="5.73163">
        <ele>861.59997558594</ele>
        <time>2021-09-30T04:26:36.000Z</time>
      </trkpt>
      <trkpt lat="45.21435" lon="5.73163">
        <ele>861.40002441406</ele>
        <time>2021-09-30T04:26:37.000Z</time>
      </trkpt>
      <trkpt lat="45.21429" lon="5.73158">
        <ele>860.40002441406</ele>
        <time>2021-09-30T04:26:40.000Z</time>
      </trkpt>
      <trkpt lat="45.21427" lon="5.73156">
        <ele>860.40002441406</ele>
        <time>2021-09-30T04:26:41.000Z</time>
      </trkpt>
      <trkpt lat="45.21423" lon="5.73153">
        <ele>860</ele>
        <time>2021-09-30T04:26:43.000Z</time>
      </trkpt>
      <trkpt lat="45.21421" lon="5.73151">
        <ele>859.79998779297</ele>
        <time>2021-09-30T04:26:45.000Z</time>
      </trkpt>
      <trkpt lat="45.21418" lon="5.73148">
        <ele>859.20001220703</ele>
        <time>2021-09-30T04:26:47.000Z</time>
      </trkpt>
      <trkpt lat="45.21416" lon="5.73146">
        <ele>858.59997558594</ele>
        <time>2021-09-30T04:26:48.000Z</time>
      </trkpt>
      <trkpt lat="45.21415" lon="5.73141">
        <ele>858</ele>
        <time>2021-09-30T04:26:50.000Z</time>
      </trkpt>
      <trkpt lat="45.21412" lon="5.73132">
        <ele>857</ele>
        <time>2021-09-30T04:26:53.000Z</time>
      </trkpt>
      <trkpt lat="45.21408" lon="5.73127">
        <ele>856.40002441406</ele>
        <time>2021-09-30T04:26:55.000Z</time>
      </trkpt>
      <trkpt lat="45.21403" lon="5.73123">
        <ele>855.79998779297</ele>
        <time>2021-09-30T04:26:57.000Z</time>
      </trkpt>
      <trkpt lat="45.21398" lon="5.73116">
        <ele>855.20001220703</ele>
        <time>2021-09-30T04:27:00.000Z</time>
      </trkpt>
      <trkpt lat="45.21394" lon="5.73111">
        <ele>854.79998779297</ele>
        <time>2021-09-30T04:27:02.000Z</time>
      </trkpt>
      <trkpt lat="45.21385" lon="5.73097">
        <ele>853.79998779297</ele>
        <time>2021-09-30T04:27:07.000Z</time>
      </trkpt>
      <trkpt lat="45.21377" lon="5.73085">
        <ele>853.40002441406</ele>
        <time>2021-09-30T04:27:11.000Z</time>
      </trkpt>
      <trkpt lat="45.21375" lon="5.73081">
        <ele>853.20001220703</ele>
        <time>2021-09-30T04:27:12.000Z</time>
      </trkpt>
      <trkpt lat="45.21373" lon="5.73078">
        <ele>852.79998779297</ele>
        <time>2021-09-30T04:27:13.000Z</time>
      </trkpt>
      <trkpt lat="45.21372" lon="5.73076">
        <ele>852.59997558594</ele>
        <time>2021-09-30T04:27:14.000Z</time>
      </trkpt>
      <trkpt lat="45.21369" lon="5.73073">
        <ele>852.40002441406</ele>
        <time>2021-09-30T04:27:16.000Z</time>
      </trkpt>
      <trkpt lat="45.21367" lon="5.7307">
        <ele>852.40002441406</ele>
        <time>2021-09-30T04:27:18.000Z</time>
      </trkpt>
      <trkpt lat="45.21362" lon="5.73066">
        <ele>852</ele>
        <time>2021-09-30T04:27:21.000Z</time>
      </trkpt>
      <trkpt lat="45.2136" lon="5.73063">
        <ele>851.40002441406</ele>
        <time>2021-09-30T04:27:23.000Z</time>
      </trkpt>
      <trkpt lat="45.21356" lon="5.7306">
        <ele>850</ele>
        <time>2021-09-30T04:27:26.000Z</time>
      </trkpt>
      <trkpt lat="45.21353" lon="5.73057">
        <ele>849</ele>
        <time>2021-09-30T04:27:28.000Z</time>
      </trkpt>
      <trkpt lat="45.21352" lon="5.73056">
        <ele>848.79998779297</ele>
        <time>2021-09-30T04:27:29.000Z</time>
      </trkpt>
      <trkpt lat="45.2135" lon="5.73052">
        <ele>848</ele>
        <time>2021-09-30T04:27:31.000Z</time>
      </trkpt>
      <trkpt lat="45.21348" lon="5.73049">
        <ele>847.59997558594</ele>
        <time>2021-09-30T04:27:33.000Z</time>
      </trkpt>
      <trkpt lat="45.21344" lon="5.73044">
        <ele>846.40002441406</ele>
        <time>2021-09-30T04:27:36.000Z</time>
      </trkpt>
      <trkpt lat="45.21342" lon="5.73042">
        <ele>845.79998779297</ele>
        <time>2021-09-30T04:27:38.000Z</time>
      </trkpt>
      <trkpt lat="45.2134" lon="5.73039">
        <ele>845</ele>
        <time>2021-09-30T04:27:40.000Z</time>
      </trkpt>
      <trkpt lat="45.21339" lon="5.73039">
        <ele>844.59997558594</ele>
        <time>2021-09-30T04:27:41.000Z</time>
      </trkpt>
      <trkpt lat="45.21339" lon="5.73038">
        <ele>844.20001220703</ele>
        <time>2021-09-30T04:27:42.000Z</time>
      </trkpt>
      <trkpt lat="45.21339" lon="5.73037">
        <ele>843.79998779297</ele>
        <time>2021-09-30T04:27:43.000Z</time>
      </trkpt>
      <trkpt lat="45.21338" lon="5.73033">
        <ele>843.20001220703</ele>
        <time>2021-09-30T04:27:45.000Z</time>
      </trkpt>
      <trkpt lat="45.21338" lon="5.73032">
        <ele>842.79998779297</ele>
        <time>2021-09-30T04:27:46.000Z</time>
      </trkpt>
      <trkpt lat="45.21336" lon="5.7303">
        <ele>842.40002441406</ele>
        <time>2021-09-30T04:27:48.000Z</time>
      </trkpt>
      <trkpt lat="45.21335" lon="5.73026">
        <ele>841.40002441406</ele>
        <time>2021-09-30T04:27:50.000Z</time>
      </trkpt>
      <trkpt lat="45.21334" lon="5.73024">
        <ele>841.20001220703</ele>
        <time>2021-09-30T04:27:51.000Z</time>
      </trkpt>
      <trkpt lat="45.21333" lon="5.73021">
        <ele>840.40002441406</ele>
        <time>2021-09-30T04:27:53.000Z</time>
      </trkpt>
      <trkpt lat="45.21329" lon="5.73016">
        <ele>839.59997558594</ele>
        <time>2021-09-30T04:27:56.000Z</time>
      </trkpt>
      <trkpt lat="45.21327" lon="5.73014">
        <ele>839</ele>
        <time>2021-09-30T04:27:57.000Z</time>
      </trkpt>
      <trkpt lat="45.21326" lon="5.73012">
        <ele>838.59997558594</ele>
        <time>2021-09-30T04:27:58.000Z</time>
      </trkpt>
      <trkpt lat="45.21325" lon="5.73011">
        <ele>838.40002441406</ele>
        <time>2021-09-30T04:27:59.000Z</time>
      </trkpt>
      <trkpt lat="45.21324" lon="5.73009">
        <ele>838</ele>
        <time>2021-09-30T04:28:00.000Z</time>
      </trkpt>
      <trkpt lat="45.21322" lon="5.73007">
        <ele>837.59997558594</ele>
        <time>2021-09-30T04:28:01.000Z</time>
      </trkpt>
      <trkpt lat="45.21321" lon="5.73005">
        <ele>837.20001220703</ele>
        <time>2021-09-30T04:28:02.000Z</time>
      </trkpt>
      <trkpt lat="45.21318" lon="5.73">
        <ele>836.59997558594</ele>
        <time>2021-09-30T04:28:04.000Z</time>
      </trkpt>
      <trkpt lat="45.21316" lon="5.72996">
        <ele>835.59997558594</ele>
        <time>2021-09-30T04:28:06.000Z</time>
      </trkpt>
      <trkpt lat="45.21315" lon="5.72994">
        <ele>835.40002441406</ele>
        <time>2021-09-30T04:28:07.000Z</time>
      </trkpt>
      <trkpt lat="45.21311" lon="5.72989">
        <ele>834.59997558594</ele>
        <time>2021-09-30T04:28:10.000Z</time>
      </trkpt>
      <trkpt lat="45.2131" lon="5.72987">
        <ele>834.40002441406</ele>
        <time>2021-09-30T04:28:11.000Z</time>
      </trkpt>
      <trkpt lat="45.21305" lon="5.72983">
        <ele>833.79998779297</ele>
        <time>2021-09-30T04:28:14.000Z</time>
      </trkpt>
      <trkpt lat="45.21303" lon="5.72982">
        <ele>833.20001220703</ele>
        <time>2021-09-30T04:28:16.000Z</time>
      </trkpt>
      <trkpt lat="45.21302" lon="5.72981">
        <ele>832.79998779297</ele>
        <time>2021-09-30T04:28:17.000Z</time>
      </trkpt>
      <trkpt lat="45.21301" lon="5.72981">
        <ele>832.40002441406</ele>
        <time>2021-09-30T04:28:18.000Z</time>
      </trkpt>
      <trkpt lat="45.21298" lon="5.7298">
        <ele>831.79998779297</ele>
        <time>2021-09-30T04:28:20.000Z</time>
      </trkpt>
      <trkpt lat="45.21297" lon="5.72978">
        <ele>831.59997558594</ele>
        <time>2021-09-30T04:28:21.000Z</time>
      </trkpt>
      <trkpt lat="45.21296" lon="5.72977">
        <ele>831.20001220703</ele>
        <time>2021-09-30T04:28:22.000Z</time>
      </trkpt>
      <trkpt lat="45.21294" lon="5.72977">
        <ele>830.79998779297</ele>
        <time>2021-09-30T04:28:23.000Z</time>
      </trkpt>
      <trkpt lat="45.21289" lon="5.72974">
        <ele>830</ele>
        <time>2021-09-30T04:28:26.000Z</time>
      </trkpt>
      <trkpt lat="45.21288" lon="5.72973">
        <ele>829.59997558594</ele>
        <time>2021-09-30T04:28:27.000Z</time>
      </trkpt>
      <trkpt lat="45.21284" lon="5.72969">
        <ele>828.59997558594</ele>
        <time>2021-09-30T04:28:30.000Z</time>
      </trkpt>
      <trkpt lat="45.21283" lon="5.72968">
        <ele>828.40002441406</ele>
        <time>2021-09-30T04:28:31.000Z</time>
      </trkpt>
      <trkpt lat="45.21282" lon="5.72967">
        <ele>828</ele>
        <time>2021-09-30T04:28:32.000Z</time>
      </trkpt>
      <trkpt lat="45.2128" lon="5.72963">
        <ele>827.20001220703</ele>
        <time>2021-09-30T04:28:34.000Z</time>
      </trkpt>
      <trkpt lat="45.21277" lon="5.72959">
        <ele>825.79998779297</ele>
        <time>2021-09-30T04:28:37.000Z</time>
      </trkpt>
      <trkpt lat="45.21276" lon="5.72958">
        <ele>825.40002441406</ele>
        <time>2021-09-30T04:28:38.000Z</time>
      </trkpt>
      <trkpt lat="45.21275" lon="5.72958">
        <ele>825.20001220703</ele>
        <time>2021-09-30T04:28:39.000Z</time>
      </trkpt>
      <trkpt lat="45.21273" lon="5.72957">
        <ele>824.79998779297</ele>
        <time>2021-09-30T04:28:41.000Z</time>
      </trkpt>
      <trkpt lat="45.2127" lon="5.72955">
        <ele>823.79998779297</ele>
        <time>2021-09-30T04:28:44.000Z</time>
      </trkpt>
      <trkpt lat="45.21269" lon="5.72954">
        <ele>823.59997558594</ele>
        <time>2021-09-30T04:28:45.000Z</time>
      </trkpt>
      <trkpt lat="45.21268" lon="5.72953">
        <ele>823.20001220703</ele>
        <time>2021-09-30T04:28:46.000Z</time>
      </trkpt>
      <trkpt lat="45.21267" lon="5.72952">
        <ele>822.79998779297</ele>
        <time>2021-09-30T04:28:47.000Z</time>
      </trkpt>
      <trkpt lat="45.21265" lon="5.7295">
        <ele>821.59997558594</ele>
        <time>2021-09-30T04:28:49.000Z</time>
      </trkpt>
      <trkpt lat="45.21261" lon="5.72948">
        <ele>820.40002441406</ele>
        <time>2021-09-30T04:28:52.000Z</time>
      </trkpt>
      <trkpt lat="45.21259" lon="5.72947">
        <ele>820</ele>
        <time>2021-09-30T04:28:53.000Z</time>
      </trkpt>
      <trkpt lat="45.21255" lon="5.72946">
        <ele>819</ele>
        <time>2021-09-30T04:28:56.000Z</time>
      </trkpt>
      <trkpt lat="45.21254" lon="5.72946">
        <ele>818.59997558594</ele>
        <time>2021-09-30T04:28:57.000Z</time>
      </trkpt>
      <trkpt lat="45.21253" lon="5.72946">
        <ele>818.20001220703</ele>
        <time>2021-09-30T04:28:58.000Z</time>
      </trkpt>
      <trkpt lat="45.21252" lon="5.72946">
        <ele>818</ele>
        <time>2021-09-30T04:28:59.000Z</time>
      </trkpt>
      <trkpt lat="45.21251" lon="5.72946">
        <ele>817.79998779297</ele>
        <time>2021-09-30T04:29:00.000Z</time>
      </trkpt>
      <trkpt lat="45.21249" lon="5.72945">
        <ele>817.79998779297</ele>
        <time>2021-09-30T04:29:01.000Z</time>
      </trkpt>
      <trkpt lat="45.21245" lon="5.72942">
        <ele>816.79998779297</ele>
        <time>2021-09-30T04:29:04.000Z</time>
      </trkpt>
      <trkpt lat="45.21243" lon="5.72941">
        <ele>816.40002441406</ele>
        <time>2021-09-30T04:29:05.000Z</time>
      </trkpt>
      <trkpt lat="45.21241" lon="5.7294">
        <ele>816</ele>
        <time>2021-09-30T04:29:06.000Z</time>
      </trkpt>
      <trkpt lat="45.21238" lon="5.72939">
        <ele>815.79998779297</ele>
        <time>2021-09-30T04:29:07.000Z</time>
      </trkpt>
      <trkpt lat="45.21232" lon="5.72932">
        <ele>814.40002441406</ele>
        <time>2021-09-30T04:29:11.000Z</time>
      </trkpt>
      <trkpt lat="45.21231" lon="5.7293">
        <ele>814.20001220703</ele>
        <time>2021-09-30T04:29:12.000Z</time>
      </trkpt>
      <trkpt lat="45.21229" lon="5.72927">
        <ele>813.20001220703</ele>
        <time>2021-09-30T04:29:15.000Z</time>
      </trkpt>
      <trkpt lat="45.21228" lon="5.72926">
        <ele>813</ele>
        <time>2021-09-30T04:29:16.000Z</time>
      </trkpt>
      <trkpt lat="45.21227" lon="5.72926">
        <ele>812.79998779297</ele>
        <time>2021-09-30T04:29:17.000Z</time>
      </trkpt>
      <trkpt lat="45.21225" lon="5.72926">
        <ele>812.20001220703</ele>
        <time>2021-09-30T04:29:18.000Z</time>
      </trkpt>
      <trkpt lat="45.21224" lon="5.72926">
        <ele>811.79998779297</ele>
        <time>2021-09-30T04:29:19.000Z</time>
      </trkpt>
      <trkpt lat="45.21221" lon="5.72925">
        <ele>811.40002441406</ele>
        <time>2021-09-30T04:29:21.000Z</time>
      </trkpt>
      <trkpt lat="45.2122" lon="5.72925">
        <ele>811.20001220703</ele>
        <time>2021-09-30T04:29:22.000Z</time>
      </trkpt>
      <trkpt lat="45.21218" lon="5.72924">
        <ele>811</ele>
        <time>2021-09-30T04:29:23.000Z</time>
      </trkpt>
      <trkpt lat="45.21215" lon="5.72921">
        <ele>810</ele>
        <time>2021-09-30T04:29:26.000Z</time>
      </trkpt>
      <trkpt lat="45.21214" lon="5.72924">
        <ele>809.20001220703</ele>
        <time>2021-09-30T04:29:29.000Z</time>
      </trkpt>
      <trkpt lat="45.21215" lon="5.72927">
        <ele>808.79998779297</ele>
        <time>2021-09-30T04:29:30.000Z</time>
      </trkpt>
      <trkpt lat="45.21215" lon="5.72933">
        <ele>808.20001220703</ele>
        <time>2021-09-30T04:29:32.000Z</time>
      </trkpt>
      <trkpt lat="45.21215" lon="5.72935">
        <ele>807.59997558594</ele>
        <time>2021-09-30T04:29:33.000Z</time>
      </trkpt>
      <trkpt lat="45.21218" lon="5.72941">
        <ele>806.59997558594</ele>
        <time>2021-09-30T04:29:36.000Z</time>
      </trkpt>
      <trkpt lat="45.21219" lon="5.72944">
        <ele>805.59997558594</ele>
        <time>2021-09-30T04:29:38.000Z</time>
      </trkpt>
      <trkpt lat="45.2122" lon="5.72947">
        <ele>805.40002441406</ele>
        <time>2021-09-30T04:29:39.000Z</time>
      </trkpt>
      <trkpt lat="45.2122" lon="5.72949">
        <ele>805</ele>
        <time>2021-09-30T04:29:41.000Z</time>
      </trkpt>
      <trkpt lat="45.21219" lon="5.7295">
        <ele>804.40002441406</ele>
        <time>2021-09-30T04:29:42.000Z</time>
      </trkpt>
      <trkpt lat="45.21216" lon="5.72948">
        <ele>804</ele>
        <time>2021-09-30T04:29:44.000Z</time>
      </trkpt>
      <trkpt lat="45.21211" lon="5.72946">
        <ele>803.40002441406</ele>
        <time>2021-09-30T04:29:46.000Z</time>
      </trkpt>
      <trkpt lat="45.21205" lon="5.72939">
        <ele>802.20001220703</ele>
        <time>2021-09-30T04:29:49.000Z</time>
      </trkpt>
      <trkpt lat="45.21199" lon="5.72931">
        <ele>801</ele>
        <time>2021-09-30T04:29:53.000Z</time>
      </trkpt>
      <trkpt lat="45.21194" lon="5.72926">
        <ele>799.79998779297</ele>
        <time>2021-09-30T04:29:56.000Z</time>
      </trkpt>
      <trkpt lat="45.2119" lon="5.72921">
        <ele>798.79998779297</ele>
        <time>2021-09-30T04:29:59.000Z</time>
      </trkpt>
      <trkpt lat="45.21186" lon="5.72914">
        <ele>797.59997558594</ele>
        <time>2021-09-30T04:30:03.000Z</time>
      </trkpt>
      <trkpt lat="45.2118" lon="5.72911">
        <ele>796.40002441406</ele>
        <time>2021-09-30T04:30:07.000Z</time>
      </trkpt>
      <trkpt lat="45.21176" lon="5.72908">
        <ele>795.20001220703</ele>
        <time>2021-09-30T04:30:09.000Z</time>
      </trkpt>
      <trkpt lat="45.21175" lon="5.72907">
        <ele>794.79998779297</ele>
        <time>2021-09-30T04:30:10.000Z</time>
      </trkpt>
      <trkpt lat="45.21171" lon="5.72905">
        <ele>794.20001220703</ele>
        <time>2021-09-30T04:30:12.000Z</time>
      </trkpt>
      <trkpt lat="45.21166" lon="5.72902">
        <ele>793.20001220703</ele>
        <time>2021-09-30T04:30:15.000Z</time>
      </trkpt>
      <trkpt lat="45.21157" lon="5.72899">
        <ele>792.20001220703</ele>
        <time>2021-09-30T04:30:19.000Z</time>
      </trkpt>
      <trkpt lat="45.21153" lon="5.72896">
        <ele>791.20001220703</ele>
        <time>2021-09-30T04:30:22.000Z</time>
      </trkpt>
      <trkpt lat="45.21151" lon="5.72896">
        <ele>791</ele>
        <time>2021-09-30T04:30:23.000Z</time>
      </trkpt>
      <trkpt lat="45.21149" lon="5.72895">
        <ele>790.59997558594</ele>
        <time>2021-09-30T04:30:25.000Z</time>
      </trkpt>
      <trkpt lat="45.21148" lon="5.72895">
        <ele>790</ele>
        <time>2021-09-30T04:30:26.000Z</time>
      </trkpt>
      <trkpt lat="45.21146" lon="5.72894">
        <ele>789.59997558594</ele>
        <time>2021-09-30T04:30:27.000Z</time>
      </trkpt>
      <trkpt lat="45.21144" lon="5.72895">
        <ele>788.79998779297</ele>
        <time>2021-09-30T04:30:29.000Z</time>
      </trkpt>
      <trkpt lat="45.21142" lon="5.72894">
        <ele>788.40002441406</ele>
        <time>2021-09-30T04:30:31.000Z</time>
      </trkpt>
      <trkpt lat="45.21141" lon="5.72893">
        <ele>788.20001220703</ele>
        <time>2021-09-30T04:30:32.000Z</time>
      </trkpt>
      <trkpt lat="45.21138" lon="5.72891">
        <ele>787.40002441406</ele>
        <time>2021-09-30T04:30:34.000Z</time>
      </trkpt>
      <trkpt lat="45.21134" lon="5.72888">
        <ele>786.20001220703</ele>
        <time>2021-09-30T04:30:37.000Z</time>
      </trkpt>
      <trkpt lat="45.21129" lon="5.72886">
        <ele>785.40002441406</ele>
        <time>2021-09-30T04:30:39.000Z</time>
      </trkpt>
      <trkpt lat="45.21127" lon="5.72884">
        <ele>785</ele>
        <time>2021-09-30T04:30:40.000Z</time>
      </trkpt>
      <trkpt lat="45.21118" lon="5.72883">
        <ele>784.20001220703</ele>
        <time>2021-09-30T04:30:43.000Z</time>
      </trkpt>
      <trkpt lat="45.21115" lon="5.72881">
        <ele>783.79998779297</ele>
        <time>2021-09-30T04:30:44.000Z</time>
      </trkpt>
      <trkpt lat="45.21112" lon="5.72877">
        <ele>783.40002441406</ele>
        <time>2021-09-30T04:30:46.000Z</time>
      </trkpt>
      <trkpt lat="45.21109" lon="5.72873">
        <ele>782.79998779297</ele>
        <time>2021-09-30T04:30:48.000Z</time>
      </trkpt>
      <trkpt lat="45.21107" lon="5.72869">
        <ele>781.79998779297</ele>
        <time>2021-09-30T04:30:51.000Z</time>
      </trkpt>
      <trkpt lat="45.21105" lon="5.72867">
        <ele>781.20001220703</ele>
        <time>2021-09-30T04:30:53.000Z</time>
      </trkpt>
      <trkpt lat="45.21102" lon="5.72866">
        <ele>780.59997558594</ele>
        <time>2021-09-30T04:30:55.000Z</time>
      </trkpt>
      <trkpt lat="45.21099" lon="5.72865">
        <ele>780.20001220703</ele>
        <time>2021-09-30T04:30:57.000Z</time>
      </trkpt>
      <trkpt lat="45.21095" lon="5.72862">
        <ele>779.79998779297</ele>
        <time>2021-09-30T04:30:59.000Z</time>
      </trkpt>
      <trkpt lat="45.21093" lon="5.7286">
        <ele>779.40002441406</ele>
        <time>2021-09-30T04:31:00.000Z</time>
      </trkpt>
      <trkpt lat="45.21089" lon="5.72855">
        <ele>779</ele>
        <time>2021-09-30T04:31:02.000Z</time>
      </trkpt>
      <trkpt lat="45.21086" lon="5.7285">
        <ele>778.40002441406</ele>
        <time>2021-09-30T04:31:05.000Z</time>
      </trkpt>
      <trkpt lat="45.21082" lon="5.72843">
        <ele>777.20001220703</ele>
        <time>2021-09-30T04:31:10.000Z</time>
      </trkpt>
      <trkpt lat="45.21081" lon="5.72841">
        <ele>777.20001220703</ele>
        <time>2021-09-30T04:31:11.000Z</time>
      </trkpt>
      <trkpt lat="45.21074" lon="5.72829">
        <ele>776.20001220703</ele>
        <time>2021-09-30T04:31:15.000Z</time>
      </trkpt>
      <trkpt lat="45.21073" lon="5.72825">
        <ele>776</ele>
        <time>2021-09-30T04:31:16.000Z</time>
      </trkpt>
      <trkpt lat="45.21068" lon="5.72811">
        <ele>775.59997558594</ele>
        <time>2021-09-30T04:31:20.000Z</time>
      </trkpt>
      <trkpt lat="45.21066" lon="5.72804">
        <ele>775.40002441406</ele>
        <time>2021-09-30T04:31:22.000Z</time>
      </trkpt>
      <trkpt lat="45.21063" lon="5.72791">
        <ele>775.20001220703</ele>
        <time>2021-09-30T04:31:26.000Z</time>
      </trkpt>
      <trkpt lat="45.21062" lon="5.72788">
        <ele>775</ele>
        <time>2021-09-30T04:31:27.000Z</time>
      </trkpt>
      <trkpt lat="45.2106" lon="5.72783">
        <ele>774.79998779297</ele>
        <time>2021-09-30T04:31:29.000Z</time>
      </trkpt>
      <trkpt lat="45.21059" lon="5.72781">
        <ele>774.59997558594</ele>
        <time>2021-09-30T04:31:30.000Z</time>
      </trkpt>
      <trkpt lat="45.21058" lon="5.72777">
        <ele>774.40002441406</ele>
        <time>2021-09-30T04:31:32.000Z</time>
      </trkpt>
      <trkpt lat="45.21056" lon="5.72773">
        <ele>774.20001220703</ele>
        <time>2021-09-30T04:31:33.000Z</time>
      </trkpt>
      <trkpt lat="45.21051" lon="5.72757">
        <ele>773</ele>
        <time>2021-09-30T04:31:39.000Z</time>
      </trkpt>
      <trkpt lat="45.2105" lon="5.72755">
        <ele>773</ele>
        <time>2021-09-30T04:31:40.000Z</time>
      </trkpt>
      <trkpt lat="45.21049" lon="5.72754">
        <ele>772.59997558594</ele>
        <time>2021-09-30T04:31:41.000Z</time>
      </trkpt>
      <trkpt lat="45.21045" lon="5.72752">
        <ele>772</ele>
        <time>2021-09-30T04:31:44.000Z</time>
      </trkpt>
      <trkpt lat="45.21044" lon="5.72751">
        <ele>771.59997558594</ele>
        <time>2021-09-30T04:31:45.000Z</time>
      </trkpt>
      <trkpt lat="45.21043" lon="5.7275">
        <ele>771.20001220703</ele>
        <time>2021-09-30T04:31:46.000Z</time>
      </trkpt>
      <trkpt lat="45.21042" lon="5.7275">
        <ele>770.79998779297</ele>
        <time>2021-09-30T04:31:47.000Z</time>
      </trkpt>
      <trkpt lat="45.2104" lon="5.7275">
        <ele>770.20001220703</ele>
        <time>2021-09-30T04:31:49.000Z</time>
      </trkpt>
      <trkpt lat="45.21038" lon="5.7275">
        <ele>769.79998779297</ele>
        <time>2021-09-30T04:31:51.000Z</time>
      </trkpt>
      <trkpt lat="45.21035" lon="5.7275">
        <ele>768.79998779297</ele>
        <time>2021-09-30T04:31:54.000Z</time>
      </trkpt>
      <trkpt lat="45.21033" lon="5.72751">
        <ele>767.79998779297</ele>
        <time>2021-09-30T04:31:57.000Z</time>
      </trkpt>
      <trkpt lat="45.21031" lon="5.72749">
        <ele>767.20001220703</ele>
        <time>2021-09-30T04:31:59.000Z</time>
      </trkpt>
      <trkpt lat="45.2103" lon="5.72749">
        <ele>766.79998779297</ele>
        <time>2021-09-30T04:32:00.000Z</time>
      </trkpt>
      <trkpt lat="45.21029" lon="5.72748">
        <ele>766.40002441406</ele>
        <time>2021-09-30T04:32:01.000Z</time>
      </trkpt>
      <trkpt lat="45.21028" lon="5.72749">
        <ele>766.20001220703</ele>
        <time>2021-09-30T04:32:02.000Z</time>
      </trkpt>
      <trkpt lat="45.21026" lon="5.7275">
        <ele>765.59997558594</ele>
        <time>2021-09-30T04:32:04.000Z</time>
      </trkpt>
      <trkpt lat="45.21025" lon="5.72751">
        <ele>765.40002441406</ele>
        <time>2021-09-30T04:32:05.000Z</time>
      </trkpt>
      <trkpt lat="45.21023" lon="5.72751">
        <ele>764.79998779297</ele>
        <time>2021-09-30T04:32:07.000Z</time>
      </trkpt>
      <trkpt lat="45.21021" lon="5.7275">
        <ele>764.40002441406</ele>
        <time>2021-09-30T04:32:08.000Z</time>
      </trkpt>
      <trkpt lat="45.21017" lon="5.72751">
        <ele>763.20001220703</ele>
        <time>2021-09-30T04:32:11.000Z</time>
      </trkpt>
      <trkpt lat="45.21016" lon="5.72751">
        <ele>762.79998779297</ele>
        <time>2021-09-30T04:32:12.000Z</time>
      </trkpt>
      <trkpt lat="45.21014" lon="5.72751">
        <ele>762.40002441406</ele>
        <time>2021-09-30T04:32:13.000Z</time>
      </trkpt>
      <trkpt lat="45.21013" lon="5.72751">
        <ele>762.20001220703</ele>
        <time>2021-09-30T04:32:14.000Z</time>
      </trkpt>
      <trkpt lat="45.2101" lon="5.72751">
        <ele>761.20001220703</ele>
        <time>2021-09-30T04:32:17.000Z</time>
      </trkpt>
      <trkpt lat="45.2101" lon="5.72752">
        <ele>760.79998779297</ele>
        <time>2021-09-30T04:32:18.000Z</time>
      </trkpt>
      <trkpt lat="45.21009" lon="5.72754">
        <ele>759.59997558594</ele>
        <time>2021-09-30T04:32:21.000Z</time>
      </trkpt>
      <trkpt lat="45.21009" lon="5.72755">
        <ele>759.40002441406</ele>
        <time>2021-09-30T04:32:22.000Z</time>
      </trkpt>
      <trkpt lat="45.21008" lon="5.72757">
        <ele>758.79998779297</ele>
        <time>2021-09-30T04:32:24.000Z</time>
      </trkpt>
      <trkpt lat="45.21008" lon="5.72757">
        <ele>758.40002441406</ele>
        <time>2021-09-30T04:32:25.000Z</time>
      </trkpt>
      <trkpt lat="45.21005" lon="5.72757">
        <ele>757.79998779297</ele>
        <time>2021-09-30T04:32:28.000Z</time>
      </trkpt>
      <trkpt lat="45.21004" lon="5.72757">
        <ele>757</ele>
        <time>2021-09-30T04:32:30.000Z</time>
      </trkpt>
      <trkpt lat="45.21002" lon="5.72757">
        <ele>756</ele>
        <time>2021-09-30T04:32:33.000Z</time>
      </trkpt>
      <trkpt lat="45.21001" lon="5.72758">
        <ele>755.59997558594</ele>
        <time>2021-09-30T04:32:34.000Z</time>
      </trkpt>
      <trkpt lat="45.20999" lon="5.72759">
        <ele>754.79998779297</ele>
        <time>2021-09-30T04:32:36.000Z</time>
      </trkpt>
      <trkpt lat="45.20997" lon="5.72759">
        <ele>754.20001220703</ele>
        <time>2021-09-30T04:32:38.000Z</time>
      </trkpt>
      <trkpt lat="45.20997" lon="5.72759">
        <ele>753.40002441406</ele>
        <time>2021-09-30T04:32:40.000Z</time>
      </trkpt>
      <trkpt lat="45.20997" lon="5.7276">
        <ele>753</ele>
        <time>2021-09-30T04:32:41.000Z</time>
      </trkpt>
      <trkpt lat="45.20996" lon="5.72761">
        <ele>752.79998779297</ele>
        <time>2021-09-30T04:32:42.000Z</time>
      </trkpt>
      <trkpt lat="45.20995" lon="5.72762">
        <ele>752.40002441406</ele>
        <time>2021-09-30T04:32:43.000Z</time>
      </trkpt>
      <trkpt lat="45.20993" lon="5.72763">
        <ele>751.79998779297</ele>
        <time>2021-09-30T04:32:45.000Z</time>
      </trkpt>
      <trkpt lat="45.20993" lon="5.72763">
        <ele>751.59997558594</ele>
        <time>2021-09-30T04:32:46.000Z</time>
      </trkpt>
      <trkpt lat="45.20992" lon="5.72763">
        <ele>751.40002441406</ele>
        <time>2021-09-30T04:32:47.000Z</time>
      </trkpt>
      <trkpt lat="45.20992" lon="5.72762">
        <ele>751.20001220703</ele>
        <time>2021-09-30T04:32:48.000Z</time>
      </trkpt>
      <trkpt lat="45.20992" lon="5.72762">
        <ele>750.20001220703</ele>
        <time>2021-09-30T04:32:50.000Z</time>
      </trkpt>
      <trkpt lat="45.20986" lon="5.72762">
        <ele>748.79998779297</ele>
        <time>2021-09-30T04:32:54.000Z</time>
      </trkpt>
      <trkpt lat="45.20985" lon="5.72761">
        <ele>748.40002441406</ele>
        <time>2021-09-30T04:32:55.000Z</time>
      </trkpt>
      <trkpt lat="45.20982" lon="5.72758">
        <ele>747.79998779297</ele>
        <time>2021-09-30T04:32:57.000Z</time>
      </trkpt>
      <trkpt lat="45.20981" lon="5.72757">
        <ele>747.40002441406</ele>
        <time>2021-09-30T04:32:58.000Z</time>
      </trkpt>
      <trkpt lat="45.20979" lon="5.72755">
        <ele>746.59997558594</ele>
        <time>2021-09-30T04:33:00.000Z</time>
      </trkpt>
      <trkpt lat="45.20978" lon="5.72754">
        <ele>746.20001220703</ele>
        <time>2021-09-30T04:33:01.000Z</time>
      </trkpt>
      <trkpt lat="45.20977" lon="5.72751">
        <ele>745</ele>
        <time>2021-09-30T04:33:04.000Z</time>
      </trkpt>
      <trkpt lat="45.20975" lon="5.72748">
        <ele>744</ele>
        <time>2021-09-30T04:33:06.000Z</time>
      </trkpt>
      <trkpt lat="45.20974" lon="5.72748">
        <ele>743.79998779297</ele>
        <time>2021-09-30T04:33:07.000Z</time>
      </trkpt>
      <trkpt lat="45.20973" lon="5.72746">
        <ele>742.79998779297</ele>
        <time>2021-09-30T04:33:10.000Z</time>
      </trkpt>
      <trkpt lat="45.20972" lon="5.72745">
        <ele>742.20001220703</ele>
        <time>2021-09-30T04:33:11.000Z</time>
      </trkpt>
      <trkpt lat="45.20971" lon="5.72742">
        <ele>741.59997558594</ele>
        <time>2021-09-30T04:33:13.000Z</time>
      </trkpt>
      <trkpt lat="45.2097" lon="5.72741">
        <ele>741.40002441406</ele>
        <time>2021-09-30T04:33:14.000Z</time>
      </trkpt>
      <trkpt lat="45.20968" lon="5.72737">
        <ele>740.59997558594</ele>
        <time>2021-09-30T04:33:17.000Z</time>
      </trkpt>
      <trkpt lat="45.20968" lon="5.72733">
        <ele>739.59997558594</ele>
        <time>2021-09-30T04:33:19.000Z</time>
      </trkpt>
      <trkpt lat="45.20967" lon="5.72732">
        <ele>739.20001220703</ele>
        <time>2021-09-30T04:33:20.000Z</time>
      </trkpt>
      <trkpt lat="45.20967" lon="5.72731">
        <ele>738.20001220703</ele>
        <time>2021-09-30T04:33:22.000Z</time>
      </trkpt>
      <trkpt lat="45.20966" lon="5.72732">
        <ele>738</ele>
        <time>2021-09-30T04:33:23.000Z</time>
      </trkpt>
      <trkpt lat="45.20965" lon="5.72731">
        <ele>737.20001220703</ele>
        <time>2021-09-30T04:33:25.000Z</time>
      </trkpt>
      <trkpt lat="45.20964" lon="5.72729">
        <ele>737</ele>
        <time>2021-09-30T04:33:26.000Z</time>
      </trkpt>
      <trkpt lat="45.20961" lon="5.72726">
        <ele>736.20001220703</ele>
        <time>2021-09-30T04:33:28.000Z</time>
      </trkpt>
      <trkpt lat="45.20959" lon="5.72724">
        <ele>735.59997558594</ele>
        <time>2021-09-30T04:33:30.000Z</time>
      </trkpt>
      <trkpt lat="45.20957" lon="5.72722">
        <ele>734.59997558594</ele>
        <time>2021-09-30T04:33:32.000Z</time>
      </trkpt>
      <trkpt lat="45.20956" lon="5.72722">
        <ele>734.20001220703</ele>
        <time>2021-09-30T04:33:33.000Z</time>
      </trkpt>
      <trkpt lat="45.20954" lon="5.72719">
        <ele>733.59997558594</ele>
        <time>2021-09-30T04:33:35.000Z</time>
      </trkpt>
      <trkpt lat="45.20949" lon="5.72714">
        <ele>732.20001220703</ele>
        <time>2021-09-30T04:33:39.000Z</time>
      </trkpt>
      <trkpt lat="45.20948" lon="5.72713">
        <ele>731.79998779297</ele>
        <time>2021-09-30T04:33:40.000Z</time>
      </trkpt>
      <trkpt lat="45.20947" lon="5.72704">
        <ele>731</ele>
        <time>2021-09-30T04:33:43.000Z</time>
      </trkpt>
      <trkpt lat="45.20946" lon="5.72701">
        <ele>730.59997558594</ele>
        <time>2021-09-30T04:33:44.000Z</time>
      </trkpt>
      <trkpt lat="45.20944" lon="5.72697">
        <ele>729.59997558594</ele>
        <time>2021-09-30T04:33:46.000Z</time>
      </trkpt>
      <trkpt lat="45.20939" lon="5.72691">
        <ele>728.40002441406</ele>
        <time>2021-09-30T04:33:49.000Z</time>
      </trkpt>
      <trkpt lat="45.20937" lon="5.7269">
        <ele>728</ele>
        <time>2021-09-30T04:33:50.000Z</time>
      </trkpt>
      <trkpt lat="45.20933" lon="5.72687">
        <ele>727.20001220703</ele>
        <time>2021-09-30T04:33:52.000Z</time>
      </trkpt>
      <trkpt lat="45.20929" lon="5.72685">
        <ele>726.79998779297</ele>
        <time>2021-09-30T04:33:54.000Z</time>
      </trkpt>
      <trkpt lat="45.20927" lon="5.72682">
        <ele>726</ele>
        <time>2021-09-30T04:33:56.000Z</time>
      </trkpt>
      <trkpt lat="45.20924" lon="5.7268">
        <ele>724.79998779297</ele>
        <time>2021-09-30T04:33:59.000Z</time>
      </trkpt>
      <trkpt lat="45.2092" lon="5.72677">
        <ele>723.59997558594</ele>
        <time>2021-09-30T04:34:02.000Z</time>
      </trkpt>
      <trkpt lat="45.20918" lon="5.72676">
        <ele>723.40002441406</ele>
        <time>2021-09-30T04:34:03.000Z</time>
      </trkpt>
      <trkpt lat="45.20916" lon="5.72677">
        <ele>722.79998779297</ele>
        <time>2021-09-30T04:34:05.000Z</time>
      </trkpt>
      <trkpt lat="45.20915" lon="5.72677">
        <ele>722.40002441406</ele>
        <time>2021-09-30T04:34:06.000Z</time>
      </trkpt>
      <trkpt lat="45.20912" lon="5.7268">
        <ele>721.79998779297</ele>
        <time>2021-09-30T04:34:08.000Z</time>
      </trkpt>
      <trkpt lat="45.2091" lon="5.72681">
        <ele>721.20001220703</ele>
        <time>2021-09-30T04:34:10.000Z</time>
      </trkpt>
      <trkpt lat="45.20907" lon="5.72682">
        <ele>720.59997558594</ele>
        <time>2021-09-30T04:34:13.000Z</time>
      </trkpt>
      <trkpt lat="45.20906" lon="5.72682">
        <ele>720.20001220703</ele>
        <time>2021-09-30T04:34:14.000Z</time>
      </trkpt>
      <trkpt lat="45.20902" lon="5.72683">
        <ele>719</ele>
        <time>2021-09-30T04:34:17.000Z</time>
      </trkpt>
      <trkpt lat="45.20894" lon="5.72684">
        <ele>718</ele>
        <time>2021-09-30T04:34:21.000Z</time>
      </trkpt>
      <trkpt lat="45.20893" lon="5.72683">
        <ele>717.79998779297</ele>
        <time>2021-09-30T04:34:22.000Z</time>
      </trkpt>
      <trkpt lat="45.20892" lon="5.72683">
        <ele>717.40002441406</ele>
        <time>2021-09-30T04:34:23.000Z</time>
      </trkpt>
      <trkpt lat="45.20891" lon="5.72683">
        <ele>717</ele>
        <time>2021-09-30T04:34:24.000Z</time>
      </trkpt>
      <trkpt lat="45.2089" lon="5.72684">
        <ele>716.59997558594</ele>
        <time>2021-09-30T04:34:25.000Z</time>
      </trkpt>
      <trkpt lat="45.20889" lon="5.72685">
        <ele>716.20001220703</ele>
        <time>2021-09-30T04:34:26.000Z</time>
      </trkpt>
      <trkpt lat="45.20886" lon="5.72685">
        <ele>715.79998779297</ele>
        <time>2021-09-30T04:34:28.000Z</time>
      </trkpt>
      <trkpt lat="45.20885" lon="5.72685">
        <ele>715.40002441406</ele>
        <time>2021-09-30T04:34:29.000Z</time>
      </trkpt>
      <trkpt lat="45.20884" lon="5.72685">
        <ele>715.20001220703</ele>
        <time>2021-09-30T04:34:30.000Z</time>
      </trkpt>
      <trkpt lat="45.20881" lon="5.72688">
        <ele>715</ele>
        <time>2021-09-30T04:34:31.000Z</time>
      </trkpt>
      <trkpt lat="45.20877" lon="5.72692">
        <ele>714.20001220703</ele>
        <time>2021-09-30T04:34:33.000Z</time>
      </trkpt>
      <trkpt lat="45.20871" lon="5.72695">
        <ele>712.79998779297</ele>
        <time>2021-09-30T04:34:36.000Z</time>
      </trkpt>
      <trkpt lat="45.2087" lon="5.72695">
        <ele>712.59997558594</ele>
        <time>2021-09-30T04:34:37.000Z</time>
      </trkpt>
      <trkpt lat="45.20864" lon="5.72694">
        <ele>711.79998779297</ele>
        <time>2021-09-30T04:34:40.000Z</time>
      </trkpt>
      <trkpt lat="45.20861" lon="5.72695">
        <ele>711.40002441406</ele>
        <time>2021-09-30T04:34:42.000Z</time>
      </trkpt>
      <trkpt lat="45.20858" lon="5.72696">
        <ele>710.79998779297</ele>
        <time>2021-09-30T04:34:44.000Z</time>
      </trkpt>
      <trkpt lat="45.20857" lon="5.72696">
        <ele>710.40002441406</ele>
        <time>2021-09-30T04:34:45.000Z</time>
      </trkpt>
      <trkpt lat="45.20856" lon="5.72696">
        <ele>710.20001220703</ele>
        <time>2021-09-30T04:34:46.000Z</time>
      </trkpt>
      <trkpt lat="45.20853" lon="5.72696">
        <ele>709.20001220703</ele>
        <time>2021-09-30T04:34:49.000Z</time>
      </trkpt>
      <trkpt lat="45.20852" lon="5.72696">
        <ele>708.79998779297</ele>
        <time>2021-09-30T04:34:50.000Z</time>
      </trkpt>
      <trkpt lat="45.20851" lon="5.72697">
        <ele>708.59997558594</ele>
        <time>2021-09-30T04:34:51.000Z</time>
      </trkpt>
      <trkpt lat="45.20849" lon="5.72698">
        <ele>708</ele>
        <time>2021-09-30T04:34:53.000Z</time>
      </trkpt>
      <trkpt lat="45.20847" lon="5.727">
        <ele>707.40002441406</ele>
        <time>2021-09-30T04:34:55.000Z</time>
      </trkpt>
      <trkpt lat="45.20846" lon="5.72701">
        <ele>707</ele>
        <time>2021-09-30T04:34:57.000Z</time>
      </trkpt>
      <trkpt lat="45.20845" lon="5.72701">
        <ele>706.79998779297</ele>
        <time>2021-09-30T04:34:58.000Z</time>
      </trkpt>
      <trkpt lat="45.20845" lon="5.72701">
        <ele>706.59997558594</ele>
        <time>2021-09-30T04:34:59.000Z</time>
      </trkpt>
      <trkpt lat="45.20843" lon="5.72701">
        <ele>706.40002441406</ele>
        <time>2021-09-30T04:35:00.000Z</time>
      </trkpt>
      <trkpt lat="45.20842" lon="5.72701">
        <ele>706.40002441406</ele>
        <time>2021-09-30T04:35:01.000Z</time>
      </trkpt>
      <trkpt lat="45.2084" lon="5.72705">
        <ele>706.59997558594</ele>
        <time>2021-09-30T04:35:04.000Z</time>
      </trkpt>
      <trkpt lat="45.2084" lon="5.72706">
        <ele>706.59997558594</ele>
        <time>2021-09-30T04:35:05.000Z</time>
      </trkpt>
      <trkpt lat="45.20838" lon="5.7271">
        <ele>708</ele>
        <time>2021-09-30T04:35:08.000Z</time>
      </trkpt>
      <trkpt lat="45.20837" lon="5.72714">
        <ele>708.59997558594</ele>
        <time>2021-09-30T04:35:10.000Z</time>
      </trkpt>
      <trkpt lat="45.20837" lon="5.72715">
        <ele>709.20001220703</ele>
        <time>2021-09-30T04:35:11.000Z</time>
      </trkpt>
      <trkpt lat="45.20836" lon="5.72717">
        <ele>710.40002441406</ele>
        <time>2021-09-30T04:35:14.000Z</time>
      </trkpt>
      <trkpt lat="45.20835" lon="5.72718">
        <ele>711</ele>
        <time>2021-09-30T04:35:15.000Z</time>
      </trkpt>
      <trkpt lat="45.20835" lon="5.72719">
        <ele>711.40002441406</ele>
        <time>2021-09-30T04:35:16.000Z</time>
      </trkpt>
      <trkpt lat="45.20834" lon="5.72721">
        <ele>711.79998779297</ele>
        <time>2021-09-30T04:35:17.000Z</time>
      </trkpt>
      <trkpt lat="45.20831" lon="5.72726">
        <ele>712.79998779297</ele>
        <time>2021-09-30T04:35:21.000Z</time>
      </trkpt>
      <trkpt lat="45.2083" lon="5.72725">
        <ele>713</ele>
        <time>2021-09-30T04:35:22.000Z</time>
      </trkpt>
      <trkpt lat="45.20829" lon="5.72724">
        <ele>713</ele>
        <time>2021-09-30T04:35:23.000Z</time>
      </trkpt>
      <trkpt lat="45.20826" lon="5.72728">
        <ele>713</ele>
        <time>2021-09-30T04:35:27.000Z</time>
      </trkpt>
      <trkpt lat="45.20824" lon="5.7273">
        <ele>712.79998779297</ele>
        <time>2021-09-30T04:35:29.000Z</time>
      </trkpt>
      <trkpt lat="45.20823" lon="5.72731">
        <ele>712.79998779297</ele>
        <time>2021-09-30T04:35:31.000Z</time>
      </trkpt>
      <trkpt lat="45.20821" lon="5.72732">
        <ele>712</ele>
        <time>2021-09-30T04:35:34.000Z</time>
      </trkpt>
      <trkpt lat="45.2082" lon="5.72732">
        <ele>711.79998779297</ele>
        <time>2021-09-30T04:35:35.000Z</time>
      </trkpt>
      <trkpt lat="45.20819" lon="5.72732">
        <ele>711.40002441406</ele>
        <time>2021-09-30T04:35:37.000Z</time>
      </trkpt>
      <trkpt lat="45.20817" lon="5.72732">
        <ele>710.79998779297</ele>
        <time>2021-09-30T04:35:39.000Z</time>
      </trkpt>
      <trkpt lat="45.20813" lon="5.72732">
        <ele>710.20001220703</ele>
        <time>2021-09-30T04:35:43.000Z</time>
      </trkpt>
      <trkpt lat="45.20808" lon="5.72736">
        <ele>709.79998779297</ele>
        <time>2021-09-30T04:35:46.000Z</time>
      </trkpt>
      <trkpt lat="45.20807" lon="5.72736">
        <ele>709.79998779297</ele>
        <time>2021-09-30T04:35:47.000Z</time>
      </trkpt>
      <trkpt lat="45.20806" lon="5.72735">
        <ele>709.79998779297</ele>
        <time>2021-09-30T04:35:48.000Z</time>
      </trkpt>
      <trkpt lat="45.20802" lon="5.72732">
        <ele>710.20001220703</ele>
        <time>2021-09-30T04:35:52.000Z</time>
      </trkpt>
      <trkpt lat="45.20802" lon="5.72732">
        <ele>710.59997558594</ele>
        <time>2021-09-30T04:35:53.000Z</time>
      </trkpt>
      <trkpt lat="45.20801" lon="5.72731">
        <ele>710.79998779297</ele>
        <time>2021-09-30T04:35:54.000Z</time>
      </trkpt>
      <trkpt lat="45.208" lon="5.72731">
        <ele>711.20001220703</ele>
        <time>2021-09-30T04:35:58.000Z</time>
      </trkpt>
      <trkpt lat="45.20799" lon="5.72731">
        <ele>711.40002441406</ele>
        <time>2021-09-30T04:36:00.000Z</time>
      </trkpt>
      <trkpt lat="45.20799" lon="5.72731">
        <ele>711.40002441406</ele>
        <time>2021-09-30T04:36:02.000Z</time>
      </trkpt>
      <trkpt lat="45.20798" lon="5.7273">
        <ele>711.40002441406</ele>
        <time>2021-09-30T04:36:04.000Z</time>
      </trkpt>
      <trkpt lat="45.20798" lon="5.72731">
        <ele>711.59997558594</ele>
        <time>2021-09-30T04:36:12.000Z</time>
      </trkpt>
      <trkpt lat="45.20798" lon="5.72731">
        <ele>711.59997558594</ele>
        <time>2021-09-30T04:36:14.000Z</time>
      </trkpt>
      <trkpt lat="45.20799" lon="5.72733">
        <ele>709.59997558594</ele>
        <time>2021-09-30T04:36:34.000Z</time>
      </trkpt>
      <trkpt lat="45.20806" lon="5.72736">
        <ele>709.40002441406</ele>
        <time>2021-09-30T04:36:39.000Z</time>
      </trkpt>
      <trkpt lat="45.20815" lon="5.72736">
        <ele>710.79998779297</ele>
        <time>2021-09-30T04:36:45.000Z</time>
      </trkpt>
      <trkpt lat="45.20817" lon="5.72736">
        <ele>711.40002441406</ele>
        <time>2021-09-30T04:36:47.000Z</time>
      </trkpt>
      <trkpt lat="45.20817" lon="5.72735">
        <ele>712</ele>
        <time>2021-09-30T04:36:48.000Z</time>
      </trkpt>
      <trkpt lat="45.20819" lon="5.72734">
        <ele>712.40002441406</ele>
        <time>2021-09-30T04:36:50.000Z</time>
      </trkpt>
      <trkpt lat="45.20824" lon="5.72732">
        <ele>712.79998779297</ele>
        <time>2021-09-30T04:36:54.000Z</time>
      </trkpt>
      <trkpt lat="45.20828" lon="5.7273">
        <ele>712.59997558594</ele>
        <time>2021-09-30T04:36:59.000Z</time>
      </trkpt>
      <trkpt lat="45.20829" lon="5.72727">
        <ele>712</ele>
        <time>2021-09-30T04:37:03.000Z</time>
      </trkpt>
      <trkpt lat="45.2083" lon="5.72725">
        <ele>711.40002441406</ele>
        <time>2021-09-30T04:37:05.000Z</time>
      </trkpt>
      <trkpt lat="45.20829" lon="5.72723">
        <ele>711</ele>
        <time>2021-09-30T04:37:07.000Z</time>
      </trkpt>
      <trkpt lat="45.20829" lon="5.72722">
        <ele>710.59997558594</ele>
        <time>2021-09-30T04:37:08.000Z</time>
      </trkpt>
      <trkpt lat="45.20829" lon="5.72721">
        <ele>710.20001220703</ele>
        <time>2021-09-30T04:37:09.000Z</time>
      </trkpt>
      <trkpt lat="45.2083" lon="5.72719">
        <ele>709.40002441406</ele>
        <time>2021-09-30T04:37:11.000Z</time>
      </trkpt>
      <trkpt lat="45.20832" lon="5.72718">
        <ele>708.79998779297</ele>
        <time>2021-09-30T04:37:13.000Z</time>
      </trkpt>
      <trkpt lat="45.20832" lon="5.72717">
        <ele>708.40002441406</ele>
        <time>2021-09-30T04:37:14.000Z</time>
      </trkpt>
      <trkpt lat="45.20833" lon="5.72715">
        <ele>707.59997558594</ele>
        <time>2021-09-30T04:37:16.000Z</time>
      </trkpt>
      <trkpt lat="45.20834" lon="5.72714">
        <ele>707</ele>
        <time>2021-09-30T04:37:17.000Z</time>
      </trkpt>
      <trkpt lat="45.20834" lon="5.72712">
        <ele>706.59997558594</ele>
        <time>2021-09-30T04:37:18.000Z</time>
      </trkpt>
      <trkpt lat="45.20835" lon="5.7271">
        <ele>705.79998779297</ele>
        <time>2021-09-30T04:37:20.000Z</time>
      </trkpt>
      <trkpt lat="45.20837" lon="5.72708">
        <ele>704.79998779297</ele>
        <time>2021-09-30T04:37:22.000Z</time>
      </trkpt>
      <trkpt lat="45.20837" lon="5.72707">
        <ele>704.20001220703</ele>
        <time>2021-09-30T04:37:23.000Z</time>
      </trkpt>
      <trkpt lat="45.20837" lon="5.72706">
        <ele>703.79998779297</ele>
        <time>2021-09-30T04:37:24.000Z</time>
      </trkpt>
      <trkpt lat="45.20837" lon="5.72704">
        <ele>703.59997558594</ele>
        <time>2021-09-30T04:37:25.000Z</time>
      </trkpt>
      <trkpt lat="45.20836" lon="5.72699">
        <ele>703</ele>
        <time>2021-09-30T04:37:27.000Z</time>
      </trkpt>
      <trkpt lat="45.20835" lon="5.72694">
        <ele>702.59997558594</ele>
        <time>2021-09-30T04:37:29.000Z</time>
      </trkpt>
      <trkpt lat="45.20835" lon="5.72691">
        <ele>702</ele>
        <time>2021-09-30T04:37:30.000Z</time>
      </trkpt>
      <trkpt lat="45.20835" lon="5.7269">
        <ele>701.59997558594</ele>
        <time>2021-09-30T04:37:31.000Z</time>
      </trkpt>
      <trkpt lat="45.20835" lon="5.72688">
        <ele>701</ele>
        <time>2021-09-30T04:37:32.000Z</time>
      </trkpt>
      <trkpt lat="45.20835" lon="5.72685">
        <ele>700.59997558594</ele>
        <time>2021-09-30T04:37:34.000Z</time>
      </trkpt>
      <trkpt lat="45.20834" lon="5.72684">
        <ele>700.20001220703</ele>
        <time>2021-09-30T04:37:35.000Z</time>
      </trkpt>
      <trkpt lat="45.20834" lon="5.72682">
        <ele>700</ele>
        <time>2021-09-30T04:37:36.000Z</time>
      </trkpt>
      <trkpt lat="45.20833" lon="5.7268">
        <ele>699.59997558594</ele>
        <time>2021-09-30T04:37:37.000Z</time>
      </trkpt>
      <trkpt lat="45.2083" lon="5.72673">
        <ele>698.59997558594</ele>
        <time>2021-09-30T04:37:40.000Z</time>
      </trkpt>
      <trkpt lat="45.20828" lon="5.72666">
        <ele>697.59997558594</ele>
        <time>2021-09-30T04:37:43.000Z</time>
      </trkpt>
      <trkpt lat="45.20828" lon="5.72665">
        <ele>697.40002441406</ele>
        <time>2021-09-30T04:37:44.000Z</time>
      </trkpt>
      <trkpt lat="45.20826" lon="5.72669">
        <ele>696.40002441406</ele>
        <time>2021-09-30T04:37:47.000Z</time>
      </trkpt>
      <trkpt lat="45.20825" lon="5.72671">
        <ele>696</ele>
        <time>2021-09-30T04:37:48.000Z</time>
      </trkpt>
      <trkpt lat="45.20821" lon="5.72673">
        <ele>695</ele>
        <time>2021-09-30T04:37:51.000Z</time>
      </trkpt>
      <trkpt lat="45.2082" lon="5.72673">
        <ele>694.79998779297</ele>
        <time>2021-09-30T04:37:52.000Z</time>
      </trkpt>
      <trkpt lat="45.20819" lon="5.72673">
        <ele>694.20001220703</ele>
        <time>2021-09-30T04:37:53.000Z</time>
      </trkpt>
      <trkpt lat="45.20817" lon="5.72674">
        <ele>693.59997558594</ele>
        <time>2021-09-30T04:37:55.000Z</time>
      </trkpt>
      <trkpt lat="45.20813" lon="5.72675">
        <ele>692.79998779297</ele>
        <time>2021-09-30T04:37:57.000Z</time>
      </trkpt>
      <trkpt lat="45.2081" lon="5.72675">
        <ele>692.40002441406</ele>
        <time>2021-09-30T04:37:58.000Z</time>
      </trkpt>
      <trkpt lat="45.20808" lon="5.72674">
        <ele>692</ele>
        <time>2021-09-30T04:37:59.000Z</time>
      </trkpt>
      <trkpt lat="45.20808" lon="5.72672">
        <ele>691.79998779297</ele>
        <time>2021-09-30T04:38:00.000Z</time>
      </trkpt>
      <trkpt lat="45.20806" lon="5.72667">
        <ele>691.20001220703</ele>
        <time>2021-09-30T04:38:02.000Z</time>
      </trkpt>
      <trkpt lat="45.20804" lon="5.72662">
        <ele>689.79998779297</ele>
        <time>2021-09-30T04:38:05.000Z</time>
      </trkpt>
      <trkpt lat="45.20804" lon="5.72657">
        <ele>688.59997558594</ele>
        <time>2021-09-30T04:38:08.000Z</time>
      </trkpt>
      <trkpt lat="45.20804" lon="5.72653">
        <ele>687.79998779297</ele>
        <time>2021-09-30T04:38:10.000Z</time>
      </trkpt>
      <trkpt lat="45.20804" lon="5.72652">
        <ele>687.40002441406</ele>
        <time>2021-09-30T04:38:11.000Z</time>
      </trkpt>
      <trkpt lat="45.20803" lon="5.7265">
        <ele>687</ele>
        <time>2021-09-30T04:38:12.000Z</time>
      </trkpt>
      <trkpt lat="45.20803" lon="5.72648">
        <ele>686.79998779297</ele>
        <time>2021-09-30T04:38:13.000Z</time>
      </trkpt>
      <trkpt lat="45.20802" lon="5.72646">
        <ele>686</ele>
        <time>2021-09-30T04:38:15.000Z</time>
      </trkpt>
      <trkpt lat="45.20801" lon="5.72644">
        <ele>685.40002441406</ele>
        <time>2021-09-30T04:38:17.000Z</time>
      </trkpt>
      <trkpt lat="45.208" lon="5.72642">
        <ele>685</ele>
        <time>2021-09-30T04:38:18.000Z</time>
      </trkpt>
      <trkpt lat="45.20797" lon="5.72633">
        <ele>683.59997558594</ele>
        <time>2021-09-30T04:38:22.000Z</time>
      </trkpt>
      <trkpt lat="45.20796" lon="5.72632">
        <ele>683</ele>
        <time>2021-09-30T04:38:24.000Z</time>
      </trkpt>
      <trkpt lat="45.20796" lon="5.72632">
        <ele>682.79998779297</ele>
        <time>2021-09-30T04:38:25.000Z</time>
      </trkpt>
      <trkpt lat="45.20795" lon="5.72632">
        <ele>682.40002441406</ele>
        <time>2021-09-30T04:38:26.000Z</time>
      </trkpt>
      <trkpt lat="45.20794" lon="5.72633">
        <ele>682.20001220703</ele>
        <time>2021-09-30T04:38:27.000Z</time>
      </trkpt>
      <trkpt lat="45.20793" lon="5.72637">
        <ele>681.40002441406</ele>
        <time>2021-09-30T04:38:29.000Z</time>
      </trkpt>
      <trkpt lat="45.20793" lon="5.7264">
        <ele>681.20001220703</ele>
        <time>2021-09-30T04:38:30.000Z</time>
      </trkpt>
      <trkpt lat="45.2079" lon="5.72645">
        <ele>680</ele>
        <time>2021-09-30T04:38:33.000Z</time>
      </trkpt>
      <trkpt lat="45.20789" lon="5.72645">
        <ele>679.59997558594</ele>
        <time>2021-09-30T04:38:34.000Z</time>
      </trkpt>
      <trkpt lat="45.20787" lon="5.72646">
        <ele>679.20001220703</ele>
        <time>2021-09-30T04:38:35.000Z</time>
      </trkpt>
      <trkpt lat="45.20787" lon="5.72646">
        <ele>678.59997558594</ele>
        <time>2021-09-30T04:38:36.000Z</time>
      </trkpt>
      <trkpt lat="45.20786" lon="5.72647">
        <ele>678.40002441406</ele>
        <time>2021-09-30T04:38:37.000Z</time>
      </trkpt>
      <trkpt lat="45.20781" lon="5.7265">
        <ele>677.59997558594</ele>
        <time>2021-09-30T04:38:40.000Z</time>
      </trkpt>
      <trkpt lat="45.20778" lon="5.72651">
        <ele>676.40002441406</ele>
        <time>2021-09-30T04:38:43.000Z</time>
      </trkpt>
      <trkpt lat="45.20777" lon="5.7265">
        <ele>675.79998779297</ele>
        <time>2021-09-30T04:38:44.000Z</time>
      </trkpt>
      <trkpt lat="45.20775" lon="5.72651">
        <ele>675</ele>
        <time>2021-09-30T04:38:47.000Z</time>
      </trkpt>
      <trkpt lat="45.20775" lon="5.7265">
        <ele>674.20001220703</ele>
        <time>2021-09-30T04:38:49.000Z</time>
      </trkpt>
      <trkpt lat="45.20776" lon="5.72649">
        <ele>673.79998779297</ele>
        <time>2021-09-30T04:38:50.000Z</time>
      </trkpt>
      <trkpt lat="45.20777" lon="5.72643">
        <ele>672.59997558594</ele>
        <time>2021-09-30T04:38:53.000Z</time>
      </trkpt>
      <trkpt lat="45.20777" lon="5.72638">
        <ele>671.59997558594</ele>
        <time>2021-09-30T04:38:55.000Z</time>
      </trkpt>
      <trkpt lat="45.20777" lon="5.72636">
        <ele>671.20001220703</ele>
        <time>2021-09-30T04:38:56.000Z</time>
      </trkpt>
      <trkpt lat="45.20777" lon="5.72633">
        <ele>671</ele>
        <time>2021-09-30T04:38:57.000Z</time>
      </trkpt>
      <trkpt lat="45.20777" lon="5.72631">
        <ele>670.59997558594</ele>
        <time>2021-09-30T04:38:58.000Z</time>
      </trkpt>
      <trkpt lat="45.20777" lon="5.72629">
        <ele>670</ele>
        <time>2021-09-30T04:38:59.000Z</time>
      </trkpt>
      <trkpt lat="45.20777" lon="5.72626">
        <ele>669.40002441406</ele>
        <time>2021-09-30T04:39:00.000Z</time>
      </trkpt>
      <trkpt lat="45.20776" lon="5.72625">
        <ele>668.79998779297</ele>
        <time>2021-09-30T04:39:01.000Z</time>
      </trkpt>
      <trkpt lat="45.20773" lon="5.72623">
        <ele>668.20001220703</ele>
        <time>2021-09-30T04:39:03.000Z</time>
      </trkpt>
      <trkpt lat="45.20772" lon="5.72624">
        <ele>667.79998779297</ele>
        <time>2021-09-30T04:39:04.000Z</time>
      </trkpt>
      <trkpt lat="45.2077" lon="5.72625">
        <ele>667.40002441406</ele>
        <time>2021-09-30T04:39:05.000Z</time>
      </trkpt>
      <trkpt lat="45.20768" lon="5.72625">
        <ele>667</ele>
        <time>2021-09-30T04:39:06.000Z</time>
      </trkpt>
      <trkpt lat="45.20764" lon="5.72626">
        <ele>666.20001220703</ele>
        <time>2021-09-30T04:39:08.000Z</time>
      </trkpt>
      <trkpt lat="45.20761" lon="5.72627">
        <ele>665.40002441406</ele>
        <time>2021-09-30T04:39:10.000Z</time>
      </trkpt>
      <trkpt lat="45.20759" lon="5.72627">
        <ele>664.59997558594</ele>
        <time>2021-09-30T04:39:11.000Z</time>
      </trkpt>
      <trkpt lat="45.20753" lon="5.72629">
        <ele>663.40002441406</ele>
        <time>2021-09-30T04:39:14.000Z</time>
      </trkpt>
      <trkpt lat="45.20749" lon="5.7263">
        <ele>662.79998779297</ele>
        <time>2021-09-30T04:39:16.000Z</time>
      </trkpt>
      <trkpt lat="45.20747" lon="5.72629">
        <ele>662.40002441406</ele>
        <time>2021-09-30T04:39:17.000Z</time>
      </trkpt>
      <trkpt lat="45.20747" lon="5.72625">
        <ele>661.40002441406</ele>
        <time>2021-09-30T04:39:19.000Z</time>
      </trkpt>
      <trkpt lat="45.20746" lon="5.72622">
        <ele>661.20001220703</ele>
        <time>2021-09-30T04:39:20.000Z</time>
      </trkpt>
      <trkpt lat="45.20746" lon="5.72619">
        <ele>660.40002441406</ele>
        <time>2021-09-30T04:39:21.000Z</time>
      </trkpt>
      <trkpt lat="45.20745" lon="5.72617">
        <ele>660</ele>
        <time>2021-09-30T04:39:22.000Z</time>
      </trkpt>
      <trkpt lat="45.20743" lon="5.72612">
        <ele>659.40002441406</ele>
        <time>2021-09-30T04:39:24.000Z</time>
      </trkpt>
      <trkpt lat="45.20743" lon="5.7261">
        <ele>659</ele>
        <time>2021-09-30T04:39:25.000Z</time>
      </trkpt>
      <trkpt lat="45.20742" lon="5.72607">
        <ele>658.40002441406</ele>
        <time>2021-09-30T04:39:26.000Z</time>
      </trkpt>
      <trkpt lat="45.20741" lon="5.72602">
        <ele>657.40002441406</ele>
        <time>2021-09-30T04:39:28.000Z</time>
      </trkpt>
      <trkpt lat="45.20739" lon="5.72598">
        <ele>656.40002441406</ele>
        <time>2021-09-30T04:39:30.000Z</time>
      </trkpt>
      <trkpt lat="45.20738" lon="5.72598">
        <ele>656.20001220703</ele>
        <time>2021-09-30T04:39:31.000Z</time>
      </trkpt>
      <trkpt lat="45.20736" lon="5.72597">
        <ele>656</ele>
        <time>2021-09-30T04:39:32.000Z</time>
      </trkpt>
      <trkpt lat="45.20735" lon="5.72596">
        <ele>655.59997558594</ele>
        <time>2021-09-30T04:39:33.000Z</time>
      </trkpt>
      <trkpt lat="45.20729" lon="5.72592">
        <ele>654.79998779297</ele>
        <time>2021-09-30T04:39:35.000Z</time>
      </trkpt>
      <trkpt lat="45.20725" lon="5.7259">
        <ele>653.79998779297</ele>
        <time>2021-09-30T04:39:37.000Z</time>
      </trkpt>
      <trkpt lat="45.20721" lon="5.72586">
        <ele>652.79998779297</ele>
        <time>2021-09-30T04:39:39.000Z</time>
      </trkpt>
      <trkpt lat="45.2072" lon="5.72587">
        <ele>652</ele>
        <time>2021-09-30T04:39:40.000Z</time>
      </trkpt>
      <trkpt lat="45.20717" lon="5.72586">
        <ele>651.20001220703</ele>
        <time>2021-09-30T04:39:42.000Z</time>
      </trkpt>
      <trkpt lat="45.20715" lon="5.72586">
        <ele>651</ele>
        <time>2021-09-30T04:39:43.000Z</time>
      </trkpt>
      <trkpt lat="45.20711" lon="5.72585">
        <ele>650.20001220703</ele>
        <time>2021-09-30T04:39:46.000Z</time>
      </trkpt>
      <trkpt lat="45.2071" lon="5.72584">
        <ele>649.79998779297</ele>
        <time>2021-09-30T04:39:47.000Z</time>
      </trkpt>
      <trkpt lat="45.20708" lon="5.72582">
        <ele>649</ele>
        <time>2021-09-30T04:39:49.000Z</time>
      </trkpt>
      <trkpt lat="45.20707" lon="5.72582">
        <ele>648.79998779297</ele>
        <time>2021-09-30T04:39:50.000Z</time>
      </trkpt>
      <trkpt lat="45.20706" lon="5.72582">
        <ele>648</ele>
        <time>2021-09-30T04:39:52.000Z</time>
      </trkpt>
      <trkpt lat="45.20705" lon="5.7258">
        <ele>647.59997558594</ele>
        <time>2021-09-30T04:39:53.000Z</time>
      </trkpt>
      <trkpt lat="45.20703" lon="5.72577">
        <ele>647</ele>
        <time>2021-09-30T04:39:55.000Z</time>
      </trkpt>
      <trkpt lat="45.207" lon="5.72576">
        <ele>646.59997558594</ele>
        <time>2021-09-30T04:39:57.000Z</time>
      </trkpt>
      <trkpt lat="45.20696" lon="5.72576">
        <ele>646</ele>
        <time>2021-09-30T04:39:59.000Z</time>
      </trkpt>
      <trkpt lat="45.20694" lon="5.72576">
        <ele>645.40002441406</ele>
        <time>2021-09-30T04:40:00.000Z</time>
      </trkpt>
      <trkpt lat="45.20693" lon="5.72575">
        <ele>645</ele>
        <time>2021-09-30T04:40:01.000Z</time>
      </trkpt>
      <trkpt lat="45.2069" lon="5.72576">
        <ele>644.40002441406</ele>
        <time>2021-09-30T04:40:03.000Z</time>
      </trkpt>
      <trkpt lat="45.20685" lon="5.72576">
        <ele>643.20001220703</ele>
        <time>2021-09-30T04:40:06.000Z</time>
      </trkpt>
      <trkpt lat="45.20683" lon="5.72577">
        <ele>642.79998779297</ele>
        <time>2021-09-30T04:40:07.000Z</time>
      </trkpt>
      <trkpt lat="45.20677" lon="5.7258">
        <ele>641.79998779297</ele>
        <time>2021-09-30T04:40:10.000Z</time>
      </trkpt>
      <trkpt lat="45.20671" lon="5.72587">
        <ele>640.79998779297</ele>
        <time>2021-09-30T04:40:13.000Z</time>
      </trkpt>
      <trkpt lat="45.20666" lon="5.72592">
        <ele>640</ele>
        <time>2021-09-30T04:40:15.000Z</time>
      </trkpt>
      <trkpt lat="45.20663" lon="5.72595">
        <ele>639.79998779297</ele>
        <time>2021-09-30T04:40:16.000Z</time>
      </trkpt>
      <trkpt lat="45.20657" lon="5.726">
        <ele>639</ele>
        <time>2021-09-30T04:40:19.000Z</time>
      </trkpt>
      <trkpt lat="45.20653" lon="5.72603">
        <ele>638.79998779297</ele>
        <time>2021-09-30T04:40:21.000Z</time>
      </trkpt>
      <trkpt lat="45.20644" lon="5.72604">
        <ele>637.79998779297</ele>
        <time>2021-09-30T04:40:25.000Z</time>
      </trkpt>
      <trkpt lat="45.20641" lon="5.72604">
        <ele>637.59997558594</ele>
        <time>2021-09-30T04:40:26.000Z</time>
      </trkpt>
      <trkpt lat="45.20639" lon="5.72604">
        <ele>637.40002441406</ele>
        <time>2021-09-30T04:40:27.000Z</time>
      </trkpt>
      <trkpt lat="45.20632" lon="5.72602">
        <ele>637</ele>
        <time>2021-09-30T04:40:30.000Z</time>
      </trkpt>
      <trkpt lat="45.20627" lon="5.72601">
        <ele>636.79998779297</ele>
        <time>2021-09-30T04:40:32.000Z</time>
      </trkpt>
      <trkpt lat="45.20624" lon="5.726">
        <ele>636.40002441406</ele>
        <time>2021-09-30T04:40:33.000Z</time>
      </trkpt>
      <trkpt lat="45.20618" lon="5.72597">
        <ele>635.59997558594</ele>
        <time>2021-09-30T04:40:36.000Z</time>
      </trkpt>
      <trkpt lat="45.20616" lon="5.72596">
        <ele>635.40002441406</ele>
        <time>2021-09-30T04:40:37.000Z</time>
      </trkpt>
      <trkpt lat="45.20614" lon="5.72594">
        <ele>635</ele>
        <time>2021-09-30T04:40:38.000Z</time>
      </trkpt>
      <trkpt lat="45.20606" lon="5.72589">
        <ele>634</ele>
        <time>2021-09-30T04:40:41.000Z</time>
      </trkpt>
      <trkpt lat="45.20599" lon="5.72582">
        <ele>633.59997558594</ele>
        <time>2021-09-30T04:40:44.000Z</time>
      </trkpt>
      <trkpt lat="45.20593" lon="5.72575">
        <ele>633</ele>
        <time>2021-09-30T04:40:47.000Z</time>
      </trkpt>
      <trkpt lat="45.20588" lon="5.72571">
        <ele>632.20001220703</ele>
        <time>2021-09-30T04:40:50.000Z</time>
      </trkpt>
      <trkpt lat="45.20584" lon="5.72569">
        <ele>631.79998779297</ele>
        <time>2021-09-30T04:40:52.000Z</time>
      </trkpt>
      <trkpt lat="45.20575" lon="5.72565">
        <ele>631.40002441406</ele>
        <time>2021-09-30T04:40:56.000Z</time>
      </trkpt>
      <trkpt lat="45.20569" lon="5.72562">
        <ele>630.79998779297</ele>
        <time>2021-09-30T04:40:59.000Z</time>
      </trkpt>
      <trkpt lat="45.20562" lon="5.7256">
        <ele>630.40002441406</ele>
        <time>2021-09-30T04:41:02.000Z</time>
      </trkpt>
      <trkpt lat="45.20556" lon="5.7256">
        <ele>630</ele>
        <time>2021-09-30T04:41:04.000Z</time>
      </trkpt>
      <trkpt lat="45.20552" lon="5.72559">
        <ele>629.59997558594</ele>
        <time>2021-09-30T04:41:06.000Z</time>
      </trkpt>
      <trkpt lat="45.20539" lon="5.72553">
        <ele>629</ele>
        <time>2021-09-30T04:41:13.000Z</time>
      </trkpt>
      <trkpt lat="45.20534" lon="5.72553">
        <ele>629.20001220703</ele>
        <time>2021-09-30T04:41:15.000Z</time>
      </trkpt>
      <trkpt lat="45.20529" lon="5.72555">
        <ele>629.40002441406</ele>
        <time>2021-09-30T04:41:17.000Z</time>
      </trkpt>
      <trkpt lat="45.20518" lon="5.72553">
        <ele>630.59997558594</ele>
        <time>2021-09-30T04:41:21.000Z</time>
      </trkpt>
      <trkpt lat="45.20515" lon="5.72553">
        <ele>630.79998779297</ele>
        <time>2021-09-30T04:41:22.000Z</time>
      </trkpt>
      <trkpt lat="45.20502" lon="5.72536">
        <ele>631</ele>
        <time>2021-09-30T04:41:29.000Z</time>
      </trkpt>
      <trkpt lat="45.2049" lon="5.72514">
        <ele>630.20001220703</ele>
        <time>2021-09-30T04:41:36.000Z</time>
      </trkpt>
      <trkpt lat="45.20488" lon="5.72505">
        <ele>630</ele>
        <time>2021-09-30T04:41:38.000Z</time>
      </trkpt>
      <trkpt lat="45.20485" lon="5.72495">
        <ele>629.59997558594</ele>
        <time>2021-09-30T04:41:41.000Z</time>
      </trkpt>
      <trkpt lat="45.20483" lon="5.72488">
        <ele>629.40002441406</ele>
        <time>2021-09-30T04:41:43.000Z</time>
      </trkpt>
      <trkpt lat="45.20482" lon="5.72478">
        <ele>630</ele>
        <time>2021-09-30T04:41:47.000Z</time>
      </trkpt>
      <trkpt lat="45.20482" lon="5.72476">
        <ele>630.20001220703</ele>
        <time>2021-09-30T04:41:48.000Z</time>
      </trkpt>
      <trkpt lat="45.20481" lon="5.72474">
        <ele>630.59997558594</ele>
        <time>2021-09-30T04:41:49.000Z</time>
      </trkpt>
      <trkpt lat="45.2048" lon="5.72467">
        <ele>631.79998779297</ele>
        <time>2021-09-30T04:41:52.000Z</time>
      </trkpt>
      <trkpt lat="45.20479" lon="5.72464">
        <ele>632.20001220703</ele>
        <time>2021-09-30T04:41:53.000Z</time>
      </trkpt>
      <trkpt lat="45.20478" lon="5.72461">
        <ele>632.59997558594</ele>
        <time>2021-09-30T04:41:54.000Z</time>
      </trkpt>
      <trkpt lat="45.20476" lon="5.72457">
        <ele>633</ele>
        <time>2021-09-30T04:41:56.000Z</time>
      </trkpt>
      <trkpt lat="45.20471" lon="5.72445">
        <ele>634.20001220703</ele>
        <time>2021-09-30T04:42:00.000Z</time>
      </trkpt>
      <trkpt lat="45.2047" lon="5.72442">
        <ele>634.20001220703</ele>
        <time>2021-09-30T04:42:01.000Z</time>
      </trkpt>
      <trkpt lat="45.20464" lon="5.72436">
        <ele>634.40002441406</ele>
        <time>2021-09-30T04:42:04.000Z</time>
      </trkpt>
      <trkpt lat="45.20457" lon="5.72431">
        <ele>634.40002441406</ele>
        <time>2021-09-30T04:42:07.000Z</time>
      </trkpt>
      <trkpt lat="45.20453" lon="5.72429">
        <ele>634.40002441406</ele>
        <time>2021-09-30T04:42:09.000Z</time>
      </trkpt>
      <trkpt lat="45.2045" lon="5.72429">
        <ele>634.40002441406</ele>
        <time>2021-09-30T04:42:11.000Z</time>
      </trkpt>
      <trkpt lat="45.20443" lon="5.72425">
        <ele>634.20001220703</ele>
        <time>2021-09-30T04:42:15.000Z</time>
      </trkpt>
      <trkpt lat="45.20441" lon="5.72424">
        <ele>634</ele>
        <time>2021-09-30T04:42:16.000Z</time>
      </trkpt>
      <trkpt lat="45.20431" lon="5.72424">
        <ele>634</ele>
        <time>2021-09-30T04:42:21.000Z</time>
      </trkpt>
      <trkpt lat="45.2042" lon="5.72427">
        <ele>634.40002441406</ele>
        <time>2021-09-30T04:42:27.000Z</time>
      </trkpt>
      <trkpt lat="45.20418" lon="5.72428">
        <ele>634.40002441406</ele>
        <time>2021-09-30T04:42:28.000Z</time>
      </trkpt>
      <trkpt lat="45.20401" lon="5.72427">
        <ele>635</ele>
        <time>2021-09-30T04:42:36.000Z</time>
      </trkpt>
      <trkpt lat="45.204" lon="5.72416">
        <ele>634.79998779297</ele>
        <time>2021-09-30T04:42:41.000Z</time>
      </trkpt>
      <trkpt lat="45.20401" lon="5.72414">
        <ele>634.79998779297</ele>
        <time>2021-09-30T04:42:44.000Z</time>
      </trkpt>
      <trkpt lat="45.204" lon="5.72414">
        <ele>634.59997558594</ele>
        <time>2021-09-30T04:42:45.000Z</time>
      </trkpt>
      <trkpt lat="45.20399" lon="5.72412">
        <ele>634.59997558594</ele>
        <time>2021-09-30T04:42:58.000Z</time>
      </trkpt>
      <trkpt lat="45.20399" lon="5.72412">
        <ele>634.59997558594</ele>
        <time>2021-09-30T04:43:00.000Z</time>
      </trkpt>
      <trkpt lat="45.20399" lon="5.72412">
        <ele>634.40002441406</ele>
        <time>2021-09-30T04:43:05.000Z</time>
      </trkpt>
      <trkpt lat="45.20396" lon="5.72415">
        <ele>634.40002441406</ele>
        <time>2021-09-30T04:43:10.000Z</time>
      </trkpt>
      <trkpt lat="45.20388" lon="5.72417">
        <ele>633.40002441406</ele>
        <time>2021-09-30T04:43:14.000Z</time>
      </trkpt>
      <trkpt lat="45.20387" lon="5.72421">
        <ele>633</ele>
        <time>2021-09-30T04:43:16.000Z</time>
      </trkpt>
      <trkpt lat="45.20387" lon="5.72434">
        <ele>632.40002441406</ele>
        <time>2021-09-30T04:43:21.000Z</time>
      </trkpt>
      <trkpt lat="45.20387" lon="5.72435">
        <ele>632.59997558594</ele>
        <time>2021-09-30T04:43:22.000Z</time>
      </trkpt>
      <trkpt lat="45.20388" lon="5.72436">
        <ele>632.59997558594</ele>
        <time>2021-09-30T04:43:23.000Z</time>
      </trkpt>
      <trkpt lat="45.20389" lon="5.72437">
        <ele>632.59997558594</ele>
        <time>2021-09-30T04:43:24.000Z</time>
      </trkpt>
      <trkpt lat="45.20391" lon="5.72438">
        <ele>632.79998779297</ele>
        <time>2021-09-30T04:43:26.000Z</time>
      </trkpt>
      <trkpt lat="45.20393" lon="5.72439">
        <ele>632.79998779297</ele>
        <time>2021-09-30T04:43:27.000Z</time>
      </trkpt>
      <trkpt lat="45.20394" lon="5.72438">
        <ele>632.40002441406</ele>
        <time>2021-09-30T04:43:28.000Z</time>
      </trkpt>
      <trkpt lat="45.20399" lon="5.72437">
        <ele>631.79998779297</ele>
        <time>2021-09-30T04:43:31.000Z</time>
      </trkpt>
      <trkpt lat="45.204" lon="5.72437">
        <ele>631.79998779297</ele>
        <time>2021-09-30T04:43:32.000Z</time>
      </trkpt>
      <trkpt lat="45.20401" lon="5.72439">
        <ele>631.59997558594</ele>
        <time>2021-09-30T04:43:34.000Z</time>
      </trkpt>
      <trkpt lat="45.20401" lon="5.7244">
        <ele>631.20001220703</ele>
        <time>2021-09-30T04:43:35.000Z</time>
      </trkpt>
      <trkpt lat="45.20401" lon="5.72443">
        <ele>630.40002441406</ele>
        <time>2021-09-30T04:43:37.000Z</time>
      </trkpt>
      <trkpt lat="45.20402" lon="5.72443">
        <ele>630.20001220703</ele>
        <time>2021-09-30T04:43:38.000Z</time>
      </trkpt>
      <trkpt lat="45.20408" lon="5.72448">
        <ele>629.40002441406</ele>
        <time>2021-09-30T04:43:41.000Z</time>
      </trkpt>
      <trkpt lat="45.20412" lon="5.72453">
        <ele>629</ele>
        <time>2021-09-30T04:43:43.000Z</time>
      </trkpt>
      <trkpt lat="45.20419" lon="5.7246">
        <ele>628.20001220703</ele>
        <time>2021-09-30T04:43:46.000Z</time>
      </trkpt>
      <trkpt lat="45.20426" lon="5.72465">
        <ele>627.79998779297</ele>
        <time>2021-09-30T04:43:49.000Z</time>
      </trkpt>
      <trkpt lat="45.20439" lon="5.72468">
        <ele>628</ele>
        <time>2021-09-30T04:43:55.000Z</time>
      </trkpt>
      <trkpt lat="45.20457" lon="5.72475">
        <ele>628.40002441406</ele>
        <time>2021-09-30T04:44:04.000Z</time>
      </trkpt>
      <trkpt lat="45.20474" lon="5.72485">
        <ele>628.20001220703</ele>
        <time>2021-09-30T04:44:11.000Z</time>
      </trkpt>
      <trkpt lat="45.20481" lon="5.72508">
        <ele>629</ele>
        <time>2021-09-30T04:44:16.000Z</time>
      </trkpt>
      <trkpt lat="45.20483" lon="5.72532">
        <ele>628.79998779297</ele>
        <time>2021-09-30T04:44:22.000Z</time>
      </trkpt>
      <trkpt lat="45.20487" lon="5.72546">
        <ele>627</ele>
        <time>2021-09-30T04:44:28.000Z</time>
      </trkpt>
      <trkpt lat="45.20489" lon="5.72554">
        <ele>625.79998779297</ele>
        <time>2021-09-30T04:44:32.000Z</time>
      </trkpt>
      <trkpt lat="45.2049" lon="5.72562">
        <ele>625</ele>
        <time>2021-09-30T04:44:35.000Z</time>
      </trkpt>
      <trkpt lat="45.20488" lon="5.72564">
        <ele>624.79998779297</ele>
        <time>2021-09-30T04:44:36.000Z</time>
      </trkpt>
      <trkpt lat="45.20486" lon="5.72565">
        <ele>624.20001220703</ele>
        <time>2021-09-30T04:44:37.000Z</time>
      </trkpt>
      <trkpt lat="45.20483" lon="5.72564">
        <ele>623.79998779297</ele>
        <time>2021-09-30T04:44:38.000Z</time>
      </trkpt>
      <trkpt lat="45.20479" lon="5.72561">
        <ele>623.20001220703</ele>
        <time>2021-09-30T04:44:40.000Z</time>
      </trkpt>
      <trkpt lat="45.20474" lon="5.72553">
        <ele>622.40002441406</ele>
        <time>2021-09-30T04:44:43.000Z</time>
      </trkpt>
      <trkpt lat="45.20472" lon="5.72551">
        <ele>622.20001220703</ele>
        <time>2021-09-30T04:44:44.000Z</time>
      </trkpt>
      <trkpt lat="45.20466" lon="5.72543">
        <ele>620.79998779297</ele>
        <time>2021-09-30T04:44:48.000Z</time>
      </trkpt>
      <trkpt lat="45.20465" lon="5.7254">
        <ele>620.59997558594</ele>
        <time>2021-09-30T04:44:49.000Z</time>
      </trkpt>
      <trkpt lat="45.20459" lon="5.72532">
        <ele>619.79998779297</ele>
        <time>2021-09-30T04:44:52.000Z</time>
      </trkpt>
      <trkpt lat="45.20454" lon="5.72524">
        <ele>619.40002441406</ele>
        <time>2021-09-30T04:44:55.000Z</time>
      </trkpt>
      <trkpt lat="45.20451" lon="5.7252">
        <ele>618.59997558594</ele>
        <time>2021-09-30T04:44:57.000Z</time>
      </trkpt>
      <trkpt lat="45.20449" lon="5.72519">
        <ele>618.40002441406</ele>
        <time>2021-09-30T04:44:58.000Z</time>
      </trkpt>
      <trkpt lat="45.20445" lon="5.72517">
        <ele>617.79998779297</ele>
        <time>2021-09-30T04:45:00.000Z</time>
      </trkpt>
      <trkpt lat="45.20444" lon="5.72518">
        <ele>617.59997558594</ele>
        <time>2021-09-30T04:45:01.000Z</time>
      </trkpt>
      <trkpt lat="45.20443" lon="5.7252">
        <ele>617.40002441406</ele>
        <time>2021-09-30T04:45:02.000Z</time>
      </trkpt>
      <trkpt lat="45.20443" lon="5.72524">
        <ele>616.79998779297</ele>
        <time>2021-09-30T04:45:04.000Z</time>
      </trkpt>
      <trkpt lat="45.20443" lon="5.72526">
        <ele>616.40002441406</ele>
        <time>2021-09-30T04:45:05.000Z</time>
      </trkpt>
      <trkpt lat="45.20446" lon="5.72538">
        <ele>615.20001220703</ele>
        <time>2021-09-30T04:45:09.000Z</time>
      </trkpt>
      <trkpt lat="45.20449" lon="5.72545">
        <ele>615</ele>
        <time>2021-09-30T04:45:11.000Z</time>
      </trkpt>
      <trkpt lat="45.20453" lon="5.72555">
        <ele>614.20001220703</ele>
        <time>2021-09-30T04:45:14.000Z</time>
      </trkpt>
      <trkpt lat="45.20456" lon="5.72563">
        <ele>613.40002441406</ele>
        <time>2021-09-30T04:45:17.000Z</time>
      </trkpt>
      <trkpt lat="45.20457" lon="5.72566">
        <ele>613</ele>
        <time>2021-09-30T04:45:18.000Z</time>
      </trkpt>
      <trkpt lat="45.20464" lon="5.7258">
        <ele>612</ele>
        <time>2021-09-30T04:45:23.000Z</time>
      </trkpt>
      <trkpt lat="45.20465" lon="5.72583">
        <ele>611.79998779297</ele>
        <time>2021-09-30T04:45:24.000Z</time>
      </trkpt>
      <trkpt lat="45.2047" lon="5.72593">
        <ele>610.59997558594</ele>
        <time>2021-09-30T04:45:28.000Z</time>
      </trkpt>
      <trkpt lat="45.20474" lon="5.72601">
        <ele>609.40002441406</ele>
        <time>2021-09-30T04:45:31.000Z</time>
      </trkpt>
      <trkpt lat="45.20478" lon="5.72607">
        <ele>608.40002441406</ele>
        <time>2021-09-30T04:45:34.000Z</time>
      </trkpt>
      <trkpt lat="45.20481" lon="5.72612">
        <ele>607.79998779297</ele>
        <time>2021-09-30T04:45:36.000Z</time>
      </trkpt>
      <trkpt lat="45.20484" lon="5.72615">
        <ele>607.59997558594</ele>
        <time>2021-09-30T04:45:38.000Z</time>
      </trkpt>
      <trkpt lat="45.20486" lon="5.72616">
        <ele>607.20001220703</ele>
        <time>2021-09-30T04:45:39.000Z</time>
      </trkpt>
      <trkpt lat="45.2049" lon="5.72617">
        <ele>606.20001220703</ele>
        <time>2021-09-30T04:45:41.000Z</time>
      </trkpt>
      <trkpt lat="45.20503" lon="5.72621">
        <ele>605.20001220703</ele>
        <time>2021-09-30T04:45:46.000Z</time>
      </trkpt>
      <trkpt lat="45.20505" lon="5.72623">
        <ele>604.79998779297</ele>
        <time>2021-09-30T04:45:47.000Z</time>
      </trkpt>
      <trkpt lat="45.20509" lon="5.72627">
        <ele>604</ele>
        <time>2021-09-30T04:45:49.000Z</time>
      </trkpt>
      <trkpt lat="45.20513" lon="5.72631">
        <ele>603.59997558594</ele>
        <time>2021-09-30T04:45:51.000Z</time>
      </trkpt>
      <trkpt lat="45.2052" lon="5.72642">
        <ele>602.40002441406</ele>
        <time>2021-09-30T04:45:55.000Z</time>
      </trkpt>
      <trkpt lat="45.20522" lon="5.72645">
        <ele>602.20001220703</ele>
        <time>2021-09-30T04:45:56.000Z</time>
      </trkpt>
      <trkpt lat="45.20527" lon="5.72653">
        <ele>601.20001220703</ele>
        <time>2021-09-30T04:45:59.000Z</time>
      </trkpt>
      <trkpt lat="45.20538" lon="5.72666">
        <ele>600</ele>
        <time>2021-09-30T04:46:04.000Z</time>
      </trkpt>
      <trkpt lat="45.20539" lon="5.72668">
        <ele>599.59997558594</ele>
        <time>2021-09-30T04:46:05.000Z</time>
      </trkpt>
      <trkpt lat="45.20546" lon="5.72676">
        <ele>598.79998779297</ele>
        <time>2021-09-30T04:46:08.000Z</time>
      </trkpt>
      <trkpt lat="45.20549" lon="5.72679">
        <ele>598.79998779297</ele>
        <time>2021-09-30T04:46:09.000Z</time>
      </trkpt>
      <trkpt lat="45.20552" lon="5.72681">
        <ele>598.59997558594</ele>
        <time>2021-09-30T04:46:10.000Z</time>
      </trkpt>
      <trkpt lat="45.20559" lon="5.72687">
        <ele>598.40002441406</ele>
        <time>2021-09-30T04:46:13.000Z</time>
      </trkpt>
      <trkpt lat="45.20566" lon="5.72691">
        <ele>597.79998779297</ele>
        <time>2021-09-30T04:46:16.000Z</time>
      </trkpt>
      <trkpt lat="45.20569" lon="5.72693">
        <ele>597.79998779297</ele>
        <time>2021-09-30T04:46:17.000Z</time>
      </trkpt>
      <trkpt lat="45.20571" lon="5.72699">
        <ele>597.59997558594</ele>
        <time>2021-09-30T04:46:19.000Z</time>
      </trkpt>
      <trkpt lat="45.2057" lon="5.72702">
        <ele>597.40002441406</ele>
        <time>2021-09-30T04:46:20.000Z</time>
      </trkpt>
      <trkpt lat="45.20568" lon="5.72707">
        <ele>596.79998779297</ele>
        <time>2021-09-30T04:46:22.000Z</time>
      </trkpt>
      <trkpt lat="45.20564" lon="5.72707">
        <ele>596</ele>
        <time>2021-09-30T04:46:24.000Z</time>
      </trkpt>
      <trkpt lat="45.20562" lon="5.72707">
        <ele>595.79998779297</ele>
        <time>2021-09-30T04:46:25.000Z</time>
      </trkpt>
      <trkpt lat="45.2056" lon="5.72705">
        <ele>595.40002441406</ele>
        <time>2021-09-30T04:46:26.000Z</time>
      </trkpt>
      <trkpt lat="45.20554" lon="5.72701">
        <ele>594.40002441406</ele>
        <time>2021-09-30T04:46:29.000Z</time>
      </trkpt>
      <trkpt lat="45.20552" lon="5.72699">
        <ele>594</ele>
        <time>2021-09-30T04:46:30.000Z</time>
      </trkpt>
      <trkpt lat="45.20548" lon="5.72696">
        <ele>593.59997558594</ele>
        <time>2021-09-30T04:46:32.000Z</time>
      </trkpt>
      <trkpt lat="45.20547" lon="5.72695">
        <ele>593.20001220703</ele>
        <time>2021-09-30T04:46:33.000Z</time>
      </trkpt>
      <trkpt lat="45.20544" lon="5.72694">
        <ele>592.40002441406</ele>
        <time>2021-09-30T04:46:35.000Z</time>
      </trkpt>
      <trkpt lat="45.20542" lon="5.72692">
        <ele>592</ele>
        <time>2021-09-30T04:46:36.000Z</time>
      </trkpt>
      <trkpt lat="45.20536" lon="5.72688">
        <ele>591</ele>
        <time>2021-09-30T04:46:39.000Z</time>
      </trkpt>
      <trkpt lat="45.20534" lon="5.72687">
        <ele>590.79998779297</ele>
        <time>2021-09-30T04:46:40.000Z</time>
      </trkpt>
      <trkpt lat="45.20533" lon="5.72685">
        <ele>590.40002441406</ele>
        <time>2021-09-30T04:46:41.000Z</time>
      </trkpt>
      <trkpt lat="45.20528" lon="5.72681">
        <ele>589.79998779297</ele>
        <time>2021-09-30T04:46:44.000Z</time>
      </trkpt>
      <trkpt lat="45.20525" lon="5.72678">
        <ele>589.40002441406</ele>
        <time>2021-09-30T04:46:46.000Z</time>
      </trkpt>
      <trkpt lat="45.2052" lon="5.72676">
        <ele>588.40002441406</ele>
        <time>2021-09-30T04:46:48.000Z</time>
      </trkpt>
      <trkpt lat="45.20514" lon="5.72674">
        <ele>587.79998779297</ele>
        <time>2021-09-30T04:46:50.000Z</time>
      </trkpt>
      <trkpt lat="45.20509" lon="5.72671">
        <ele>587.40002441406</ele>
        <time>2021-09-30T04:46:52.000Z</time>
      </trkpt>
      <trkpt lat="45.20503" lon="5.72667">
        <ele>586.40002441406</ele>
        <time>2021-09-30T04:46:55.000Z</time>
      </trkpt>
      <trkpt lat="45.20501" lon="5.72666">
        <ele>586.20001220703</ele>
        <time>2021-09-30T04:46:56.000Z</time>
      </trkpt>
      <trkpt lat="45.20493" lon="5.72662">
        <ele>585.40002441406</ele>
        <time>2021-09-30T04:47:00.000Z</time>
      </trkpt>
      <trkpt lat="45.20491" lon="5.72661">
        <ele>585</ele>
        <time>2021-09-30T04:47:01.000Z</time>
      </trkpt>
      <trkpt lat="45.20483" lon="5.72657">
        <ele>584</ele>
        <time>2021-09-30T04:47:04.000Z</time>
      </trkpt>
      <trkpt lat="45.20481" lon="5.72654">
        <ele>583.79998779297</ele>
        <time>2021-09-30T04:47:05.000Z</time>
      </trkpt>
      <trkpt lat="45.20478" lon="5.72651">
        <ele>583</ele>
        <time>2021-09-30T04:47:07.000Z</time>
      </trkpt>
      <trkpt lat="45.20473" lon="5.72651">
        <ele>582.59997558594</ele>
        <time>2021-09-30T04:47:09.000Z</time>
      </trkpt>
      <trkpt lat="45.20471" lon="5.7265">
        <ele>582.40002441406</ele>
        <time>2021-09-30T04:47:10.000Z</time>
      </trkpt>
      <trkpt lat="45.20467" lon="5.72648">
        <ele>581.59997558594</ele>
        <time>2021-09-30T04:47:12.000Z</time>
      </trkpt>
      <trkpt lat="45.2046" lon="5.72645">
        <ele>581</ele>
        <time>2021-09-30T04:47:15.000Z</time>
      </trkpt>
      <trkpt lat="45.20456" lon="5.72644">
        <ele>580.40002441406</ele>
        <time>2021-09-30T04:47:17.000Z</time>
      </trkpt>
      <trkpt lat="45.20449" lon="5.72645">
        <ele>579.59997558594</ele>
        <time>2021-09-30T04:47:20.000Z</time>
      </trkpt>
      <trkpt lat="45.20446" lon="5.72644">
        <ele>579.40002441406</ele>
        <time>2021-09-30T04:47:21.000Z</time>
      </trkpt>
      <trkpt lat="45.20437" lon="5.72637">
        <ele>578.20001220703</ele>
        <time>2021-09-30T04:47:25.000Z</time>
      </trkpt>
      <trkpt lat="45.20426" lon="5.72625">
        <ele>577.20001220703</ele>
        <time>2021-09-30T04:47:30.000Z</time>
      </trkpt>
      <trkpt lat="45.20424" lon="5.72624">
        <ele>577</ele>
        <time>2021-09-30T04:47:31.000Z</time>
      </trkpt>
      <trkpt lat="45.20422" lon="5.72624">
        <ele>576.59997558594</ele>
        <time>2021-09-30T04:47:32.000Z</time>
      </trkpt>
      <trkpt lat="45.20421" lon="5.72625">
        <ele>576.40002441406</ele>
        <time>2021-09-30T04:47:33.000Z</time>
      </trkpt>
      <trkpt lat="45.2042" lon="5.72627">
        <ele>576</ele>
        <time>2021-09-30T04:47:34.000Z</time>
      </trkpt>
      <trkpt lat="45.20419" lon="5.7263">
        <ele>575.79998779297</ele>
        <time>2021-09-30T04:47:35.000Z</time>
      </trkpt>
      <trkpt lat="45.20421" lon="5.72639">
        <ele>574.79998779297</ele>
        <time>2021-09-30T04:47:38.000Z</time>
      </trkpt>
      <trkpt lat="45.20425" lon="5.72644">
        <ele>574.20001220703</ele>
        <time>2021-09-30T04:47:40.000Z</time>
      </trkpt>
      <trkpt lat="45.20428" lon="5.72651">
        <ele>573.59997558594</ele>
        <time>2021-09-30T04:47:42.000Z</time>
      </trkpt>
      <trkpt lat="45.20436" lon="5.7266">
        <ele>572.59997558594</ele>
        <time>2021-09-30T04:47:46.000Z</time>
      </trkpt>
      <trkpt lat="45.20438" lon="5.72663">
        <ele>572.20001220703</ele>
        <time>2021-09-30T04:47:47.000Z</time>
      </trkpt>
      <trkpt lat="45.20442" lon="5.72667">
        <ele>571.40002441406</ele>
        <time>2021-09-30T04:47:49.000Z</time>
      </trkpt>
      <trkpt lat="45.20446" lon="5.72673">
        <ele>570.20001220703</ele>
        <time>2021-09-30T04:47:52.000Z</time>
      </trkpt>
      <trkpt lat="45.20449" lon="5.72677">
        <ele>569.79998779297</ele>
        <time>2021-09-30T04:47:54.000Z</time>
      </trkpt>
      <trkpt lat="45.20452" lon="5.7268">
        <ele>569</ele>
        <time>2021-09-30T04:47:56.000Z</time>
      </trkpt>
      <trkpt lat="45.20456" lon="5.72682">
        <ele>568.40002441406</ele>
        <time>2021-09-30T04:47:59.000Z</time>
      </trkpt>
      <trkpt lat="45.20459" lon="5.72686">
        <ele>568</ele>
        <time>2021-09-30T04:48:01.000Z</time>
      </trkpt>
      <trkpt lat="45.20465" lon="5.72693">
        <ele>566.79998779297</ele>
        <time>2021-09-30T04:48:05.000Z</time>
      </trkpt>
      <trkpt lat="45.20468" lon="5.72695">
        <ele>566.59997558594</ele>
        <time>2021-09-30T04:48:06.000Z</time>
      </trkpt>
      <trkpt lat="45.20474" lon="5.72702">
        <ele>565.79998779297</ele>
        <time>2021-09-30T04:48:09.000Z</time>
      </trkpt>
      <trkpt lat="45.20482" lon="5.7271">
        <ele>564.59997558594</ele>
        <time>2021-09-30T04:48:13.000Z</time>
      </trkpt>
      <trkpt lat="45.20493" lon="5.72719">
        <ele>563.40002441406</ele>
        <time>2021-09-30T04:48:19.000Z</time>
      </trkpt>
      <trkpt lat="45.20499" lon="5.72727">
        <ele>562.20001220703</ele>
        <time>2021-09-30T04:48:23.000Z</time>
      </trkpt>
      <trkpt lat="45.20506" lon="5.72732">
        <ele>561.20001220703</ele>
        <time>2021-09-30T04:48:26.000Z</time>
      </trkpt>
      <trkpt lat="45.20509" lon="5.72734">
        <ele>560.79998779297</ele>
        <time>2021-09-30T04:48:27.000Z</time>
      </trkpt>
      <trkpt lat="45.20513" lon="5.7274">
        <ele>560.20001220703</ele>
        <time>2021-09-30T04:48:30.000Z</time>
      </trkpt>
      <trkpt lat="45.20512" lon="5.72742">
        <ele>560</ele>
        <time>2021-09-30T04:48:31.000Z</time>
      </trkpt>
      <trkpt lat="45.20505" lon="5.72738">
        <ele>558.59997558594</ele>
        <time>2021-09-30T04:48:35.000Z</time>
      </trkpt>
      <trkpt lat="45.20497" lon="5.7273">
        <ele>557.79998779297</ele>
        <time>2021-09-30T04:48:39.000Z</time>
      </trkpt>
      <trkpt lat="45.20494" lon="5.72729">
        <ele>557.40002441406</ele>
        <time>2021-09-30T04:48:40.000Z</time>
      </trkpt>
      <trkpt lat="45.20485" lon="5.72725">
        <ele>556.20001220703</ele>
        <time>2021-09-30T04:48:45.000Z</time>
      </trkpt>
      <trkpt lat="45.20483" lon="5.72723">
        <ele>556</ele>
        <time>2021-09-30T04:48:46.000Z</time>
      </trkpt>
      <trkpt lat="45.20475" lon="5.72721">
        <ele>555.20001220703</ele>
        <time>2021-09-30T04:48:49.000Z</time>
      </trkpt>
      <trkpt lat="45.2047" lon="5.7272">
        <ele>554.79998779297</ele>
        <time>2021-09-30T04:48:51.000Z</time>
      </trkpt>
      <trkpt lat="45.20468" lon="5.72719">
        <ele>554.59997558594</ele>
        <time>2021-09-30T04:48:52.000Z</time>
      </trkpt>
      <trkpt lat="45.20466" lon="5.72718">
        <ele>554</ele>
        <time>2021-09-30T04:48:53.000Z</time>
      </trkpt>
      <trkpt lat="45.20462" lon="5.72717">
        <ele>553.40002441406</ele>
        <time>2021-09-30T04:48:55.000Z</time>
      </trkpt>
      <trkpt lat="45.20455" lon="5.72717">
        <ele>553</ele>
        <time>2021-09-30T04:48:57.000Z</time>
      </trkpt>
      <trkpt lat="45.20445" lon="5.72716">
        <ele>552</ele>
        <time>2021-09-30T04:49:01.000Z</time>
      </trkpt>
      <trkpt lat="45.20442" lon="5.72716">
        <ele>551.59997558594</ele>
        <time>2021-09-30T04:49:02.000Z</time>
      </trkpt>
      <trkpt lat="45.20438" lon="5.72714">
        <ele>550.79998779297</ele>
        <time>2021-09-30T04:49:04.000Z</time>
      </trkpt>
      <trkpt lat="45.20436" lon="5.72714">
        <ele>550.40002441406</ele>
        <time>2021-09-30T04:49:05.000Z</time>
      </trkpt>
      <trkpt lat="45.20434" lon="5.72714">
        <ele>550</ele>
        <time>2021-09-30T04:49:06.000Z</time>
      </trkpt>
      <trkpt lat="45.20429" lon="5.7271">
        <ele>549.40002441406</ele>
        <time>2021-09-30T04:49:08.000Z</time>
      </trkpt>
      <trkpt lat="45.20422" lon="5.72703">
        <ele>548</ele>
        <time>2021-09-30T04:49:12.000Z</time>
      </trkpt>
      <trkpt lat="45.20418" lon="5.72698">
        <ele>547</ele>
        <time>2021-09-30T04:49:15.000Z</time>
      </trkpt>
      <trkpt lat="45.20417" lon="5.72697">
        <ele>546.79998779297</ele>
        <time>2021-09-30T04:49:16.000Z</time>
      </trkpt>
      <trkpt lat="45.20415" lon="5.72695">
        <ele>546.79998779297</ele>
        <time>2021-09-30T04:49:17.000Z</time>
      </trkpt>
      <trkpt lat="45.20412" lon="5.72692">
        <ele>546</ele>
        <time>2021-09-30T04:49:19.000Z</time>
      </trkpt>
      <trkpt lat="45.2041" lon="5.72691">
        <ele>545.59997558594</ele>
        <time>2021-09-30T04:49:20.000Z</time>
      </trkpt>
      <trkpt lat="45.20406" lon="5.72687">
        <ele>545</ele>
        <time>2021-09-30T04:49:22.000Z</time>
      </trkpt>
      <trkpt lat="45.20402" lon="5.72682">
        <ele>544.20001220703</ele>
        <time>2021-09-30T04:49:24.000Z</time>
      </trkpt>
      <trkpt lat="45.20395" lon="5.72674">
        <ele>543</ele>
        <time>2021-09-30T04:49:28.000Z</time>
      </trkpt>
      <trkpt lat="45.20392" lon="5.7267">
        <ele>542.40002441406</ele>
        <time>2021-09-30T04:49:30.000Z</time>
      </trkpt>
      <trkpt lat="45.2039" lon="5.72669">
        <ele>542</ele>
        <time>2021-09-30T04:49:31.000Z</time>
      </trkpt>
      <trkpt lat="45.20388" lon="5.72667">
        <ele>541.79998779297</ele>
        <time>2021-09-30T04:49:32.000Z</time>
      </trkpt>
      <trkpt lat="45.20383" lon="5.72661">
        <ele>540.59997558594</ele>
        <time>2021-09-30T04:49:35.000Z</time>
      </trkpt>
      <trkpt lat="45.20379" lon="5.72657">
        <ele>540</ele>
        <time>2021-09-30T04:49:37.000Z</time>
      </trkpt>
      <trkpt lat="45.20375" lon="5.72652">
        <ele>539.40002441406</ele>
        <time>2021-09-30T04:49:39.000Z</time>
      </trkpt>
      <trkpt lat="45.20371" lon="5.72647">
        <ele>538.59997558594</ele>
        <time>2021-09-30T04:49:42.000Z</time>
      </trkpt>
      <trkpt lat="45.2037" lon="5.72645">
        <ele>538.40002441406</ele>
        <time>2021-09-30T04:49:43.000Z</time>
      </trkpt>
      <trkpt lat="45.20366" lon="5.7264">
        <ele>537.40002441406</ele>
        <time>2021-09-30T04:49:46.000Z</time>
      </trkpt>
      <trkpt lat="45.20365" lon="5.72638">
        <ele>537.20001220703</ele>
        <time>2021-09-30T04:49:47.000Z</time>
      </trkpt>
      <trkpt lat="45.20363" lon="5.72637">
        <ele>537.20001220703</ele>
        <time>2021-09-30T04:49:48.000Z</time>
      </trkpt>
      <trkpt lat="45.20357" lon="5.72636">
        <ele>536.59997558594</ele>
        <time>2021-09-30T04:49:51.000Z</time>
      </trkpt>
      <trkpt lat="45.20355" lon="5.72634">
        <ele>536.20001220703</ele>
        <time>2021-09-30T04:49:52.000Z</time>
      </trkpt>
      <trkpt lat="45.20352" lon="5.72633">
        <ele>535.59997558594</ele>
        <time>2021-09-30T04:49:53.000Z</time>
      </trkpt>
      <trkpt lat="45.20349" lon="5.7263">
        <ele>535</ele>
        <time>2021-09-30T04:49:54.000Z</time>
      </trkpt>
      <trkpt lat="45.20342" lon="5.72626">
        <ele>534.20001220703</ele>
        <time>2021-09-30T04:49:57.000Z</time>
      </trkpt>
      <trkpt lat="45.2034" lon="5.72624">
        <ele>533.79998779297</ele>
        <time>2021-09-30T04:49:58.000Z</time>
      </trkpt>
      <trkpt lat="45.20332" lon="5.72618">
        <ele>532.59997558594</ele>
        <time>2021-09-30T04:50:02.000Z</time>
      </trkpt>
      <trkpt lat="45.20329" lon="5.72617">
        <ele>532.20001220703</ele>
        <time>2021-09-30T04:50:04.000Z</time>
      </trkpt>
      <trkpt lat="45.20327" lon="5.72616">
        <ele>531.79998779297</ele>
        <time>2021-09-30T04:50:05.000Z</time>
      </trkpt>
      <trkpt lat="45.20325" lon="5.72615">
        <ele>531.40002441406</ele>
        <time>2021-09-30T04:50:06.000Z</time>
      </trkpt>
      <trkpt lat="45.2032" lon="5.72614">
        <ele>530.79998779297</ele>
        <time>2021-09-30T04:50:08.000Z</time>
      </trkpt>
      <trkpt lat="45.20317" lon="5.72612">
        <ele>530.20001220703</ele>
        <time>2021-09-30T04:50:09.000Z</time>
      </trkpt>
      <trkpt lat="45.20311" lon="5.72609">
        <ele>529.20001220703</ele>
        <time>2021-09-30T04:50:12.000Z</time>
      </trkpt>
      <trkpt lat="45.20304" lon="5.72606">
        <ele>528</ele>
        <time>2021-09-30T04:50:15.000Z</time>
      </trkpt>
      <trkpt lat="45.20294" lon="5.72605">
        <ele>526.79998779297</ele>
        <time>2021-09-30T04:50:19.000Z</time>
      </trkpt>
      <trkpt lat="45.2029" lon="5.72605">
        <ele>526.20001220703</ele>
        <time>2021-09-30T04:50:21.000Z</time>
      </trkpt>
      <trkpt lat="45.20287" lon="5.72604">
        <ele>525.79998779297</ele>
        <time>2021-09-30T04:50:23.000Z</time>
      </trkpt>
      <trkpt lat="45.20281" lon="5.72603">
        <ele>524.59997558594</ele>
        <time>2021-09-30T04:50:26.000Z</time>
      </trkpt>
      <trkpt lat="45.20277" lon="5.72603">
        <ele>523.79998779297</ele>
        <time>2021-09-30T04:50:28.000Z</time>
      </trkpt>
      <trkpt lat="45.20275" lon="5.72603">
        <ele>523.59997558594</ele>
        <time>2021-09-30T04:50:29.000Z</time>
      </trkpt>
      <trkpt lat="45.20269" lon="5.72604">
        <ele>522.59997558594</ele>
        <time>2021-09-30T04:50:32.000Z</time>
      </trkpt>
      <trkpt lat="45.20262" lon="5.72606">
        <ele>521.20001220703</ele>
        <time>2021-09-30T04:50:35.000Z</time>
      </trkpt>
      <trkpt lat="45.20259" lon="5.72606">
        <ele>520.79998779297</ele>
        <time>2021-09-30T04:50:36.000Z</time>
      </trkpt>
      <trkpt lat="45.20253" lon="5.72603">
        <ele>520.20001220703</ele>
        <time>2021-09-30T04:50:39.000Z</time>
      </trkpt>
      <trkpt lat="45.20251" lon="5.72602">
        <ele>520</ele>
        <time>2021-09-30T04:50:40.000Z</time>
      </trkpt>
      <trkpt lat="45.20248" lon="5.72603">
        <ele>519.59997558594</ele>
        <time>2021-09-30T04:50:41.000Z</time>
      </trkpt>
      <trkpt lat="45.20243" lon="5.72602">
        <ele>518.79998779297</ele>
        <time>2021-09-30T04:50:43.000Z</time>
      </trkpt>
      <trkpt lat="45.20237" lon="5.72598">
        <ele>517.79998779297</ele>
        <time>2021-09-30T04:50:46.000Z</time>
      </trkpt>
      <trkpt lat="45.20235" lon="5.72597">
        <ele>517.59997558594</ele>
        <time>2021-09-30T04:50:47.000Z</time>
      </trkpt>
      <trkpt lat="45.20228" lon="5.72595">
        <ele>516.79998779297</ele>
        <time>2021-09-30T04:50:50.000Z</time>
      </trkpt>
      <trkpt lat="45.20226" lon="5.72595">
        <ele>516.20001220703</ele>
        <time>2021-09-30T04:50:51.000Z</time>
      </trkpt>
      <trkpt lat="45.20223" lon="5.72593">
        <ele>515.79998779297</ele>
        <time>2021-09-30T04:50:52.000Z</time>
      </trkpt>
      <trkpt lat="45.20216" lon="5.72589">
        <ele>515</ele>
        <time>2021-09-30T04:50:56.000Z</time>
      </trkpt>
      <trkpt lat="45.20214" lon="5.72588">
        <ele>514.79998779297</ele>
        <time>2021-09-30T04:50:57.000Z</time>
      </trkpt>
      <trkpt lat="45.20212" lon="5.72586">
        <ele>514.20001220703</ele>
        <time>2021-09-30T04:50:58.000Z</time>
      </trkpt>
      <trkpt lat="45.2021" lon="5.72585">
        <ele>514</ele>
        <time>2021-09-30T04:50:59.000Z</time>
      </trkpt>
      <trkpt lat="45.20202" lon="5.72581">
        <ele>512.79998779297</ele>
        <time>2021-09-30T04:51:03.000Z</time>
      </trkpt>
      <trkpt lat="45.20199" lon="5.72579">
        <ele>512</ele>
        <time>2021-09-30T04:51:04.000Z</time>
      </trkpt>
      <trkpt lat="45.20198" lon="5.72579">
        <ele>511.60000610352</ele>
        <time>2021-09-30T04:51:05.000Z</time>
      </trkpt>
      <trkpt lat="45.20193" lon="5.72578">
        <ele>511.20001220703</ele>
        <time>2021-09-30T04:51:07.000Z</time>
      </trkpt>
      <trkpt lat="45.20191" lon="5.72577">
        <ele>510.79998779297</ele>
        <time>2021-09-30T04:51:08.000Z</time>
      </trkpt>
      <trkpt lat="45.20189" lon="5.72575">
        <ele>510.60000610352</ele>
        <time>2021-09-30T04:51:09.000Z</time>
      </trkpt>
      <trkpt lat="45.20184" lon="5.72572">
        <ele>509.79998779297</ele>
        <time>2021-09-30T04:51:11.000Z</time>
      </trkpt>
      <trkpt lat="45.20182" lon="5.7257">
        <ele>509.39999389648</ele>
        <time>2021-09-30T04:51:12.000Z</time>
      </trkpt>
      <trkpt lat="45.20175" lon="5.72566">
        <ele>508.79998779297</ele>
        <time>2021-09-30T04:51:15.000Z</time>
      </trkpt>
      <trkpt lat="45.20172" lon="5.72565">
        <ele>508.20001220703</ele>
        <time>2021-09-30T04:51:16.000Z</time>
      </trkpt>
      <trkpt lat="45.20164" lon="5.72561">
        <ele>507.20001220703</ele>
        <time>2021-09-30T04:51:20.000Z</time>
      </trkpt>
      <trkpt lat="45.20157" lon="5.72557">
        <ele>506</ele>
        <time>2021-09-30T04:51:23.000Z</time>
      </trkpt>
      <trkpt lat="45.20145" lon="5.72552">
        <ele>504.60000610352</ele>
        <time>2021-09-30T04:51:28.000Z</time>
      </trkpt>
      <trkpt lat="45.2014" lon="5.72551">
        <ele>504</ele>
        <time>2021-09-30T04:51:30.000Z</time>
      </trkpt>
      <trkpt lat="45.20136" lon="5.7255">
        <ele>503.39999389648</ele>
        <time>2021-09-30T04:51:32.000Z</time>
      </trkpt>
      <trkpt lat="45.2013" lon="5.7255">
        <ele>502.20001220703</ele>
        <time>2021-09-30T04:51:35.000Z</time>
      </trkpt>
      <trkpt lat="45.20123" lon="5.7255">
        <ele>501.39999389648</ele>
        <time>2021-09-30T04:51:38.000Z</time>
      </trkpt>
      <trkpt lat="45.20121" lon="5.72549">
        <ele>501</ele>
        <time>2021-09-30T04:51:39.000Z</time>
      </trkpt>
      <trkpt lat="45.20114" lon="5.72545">
        <ele>499.79998779297</ele>
        <time>2021-09-30T04:51:43.000Z</time>
      </trkpt>
      <trkpt lat="45.20112" lon="5.72543">
        <ele>498.60000610352</ele>
        <time>2021-09-30T04:51:45.000Z</time>
      </trkpt>
      <trkpt lat="45.20111" lon="5.72543">
        <ele>498.39999389648</ele>
        <time>2021-09-30T04:51:46.000Z</time>
      </trkpt>
      <trkpt lat="45.20109" lon="5.72543">
        <ele>498.39999389648</ele>
        <time>2021-09-30T04:51:47.000Z</time>
      </trkpt>
      <trkpt lat="45.20104" lon="5.72542">
        <ele>497.39999389648</ele>
        <time>2021-09-30T04:51:50.000Z</time>
      </trkpt>
      <trkpt lat="45.20098" lon="5.72541">
        <ele>496</ele>
        <time>2021-09-30T04:51:53.000Z</time>
      </trkpt>
      <trkpt lat="45.20096" lon="5.72542">
        <ele>495.60000610352</ele>
        <time>2021-09-30T04:51:54.000Z</time>
      </trkpt>
      <trkpt lat="45.2009" lon="5.72542">
        <ele>494.60000610352</ele>
        <time>2021-09-30T04:51:56.000Z</time>
      </trkpt>
      <trkpt lat="45.20083" lon="5.72543">
        <ele>493.60000610352</ele>
        <time>2021-09-30T04:51:58.000Z</time>
      </trkpt>
      <trkpt lat="45.2008" lon="5.72542">
        <ele>493</ele>
        <time>2021-09-30T04:51:59.000Z</time>
      </trkpt>
      <trkpt lat="45.20073" lon="5.72535">
        <ele>492.20001220703</ele>
        <time>2021-09-30T04:52:02.000Z</time>
      </trkpt>
      <trkpt lat="45.2007" lon="5.72528">
        <ele>492</ele>
        <time>2021-09-30T04:52:04.000Z</time>
      </trkpt>
      <trkpt lat="45.20071" lon="5.72512">
        <ele>491.79998779297</ele>
        <time>2021-09-30T04:52:08.000Z</time>
      </trkpt>
      <trkpt lat="45.20072" lon="5.72504">
        <ele>491.60000610352</ele>
        <time>2021-09-30T04:52:10.000Z</time>
      </trkpt>
      <trkpt lat="45.20074" lon="5.72491">
        <ele>491</ele>
        <time>2021-09-30T04:52:13.000Z</time>
      </trkpt>
      <trkpt lat="45.20075" lon="5.72487">
        <ele>490.79998779297</ele>
        <time>2021-09-30T04:52:14.000Z</time>
      </trkpt>
      <trkpt lat="45.20074" lon="5.72471">
        <ele>490</ele>
        <time>2021-09-30T04:52:18.000Z</time>
      </trkpt>
      <trkpt lat="45.20073" lon="5.72468">
        <ele>489.60000610352</ele>
        <time>2021-09-30T04:52:19.000Z</time>
      </trkpt>
      <trkpt lat="45.20072" lon="5.72456">
        <ele>489</ele>
        <time>2021-09-30T04:52:22.000Z</time>
      </trkpt>
      <trkpt lat="45.20069" lon="5.72445">
        <ele>487.79998779297</ele>
        <time>2021-09-30T04:52:25.000Z</time>
      </trkpt>
      <trkpt lat="45.2006" lon="5.72436">
        <ele>486.79998779297</ele>
        <time>2021-09-30T04:52:29.000Z</time>
      </trkpt>
      <trkpt lat="45.20058" lon="5.72435">
        <ele>486.60000610352</ele>
        <time>2021-09-30T04:52:30.000Z</time>
      </trkpt>
      <trkpt lat="45.20052" lon="5.72433">
        <ele>485.60000610352</ele>
        <time>2021-09-30T04:52:32.000Z</time>
      </trkpt>
      <trkpt lat="45.20044" lon="5.72432">
        <ele>484.60000610352</ele>
        <time>2021-09-30T04:52:35.000Z</time>
      </trkpt>
      <trkpt lat="45.20033" lon="5.72431">
        <ele>483</ele>
        <time>2021-09-30T04:52:39.000Z</time>
      </trkpt>
      <trkpt lat="45.20027" lon="5.72429">
        <ele>482.60000610352</ele>
        <time>2021-09-30T04:52:41.000Z</time>
      </trkpt>
      <trkpt lat="45.20024" lon="5.72429">
        <ele>482.39999389648</ele>
        <time>2021-09-30T04:52:42.000Z</time>
      </trkpt>
      <trkpt lat="45.20019" lon="5.72428">
        <ele>482</ele>
        <time>2021-09-30T04:52:44.000Z</time>
      </trkpt>
      <trkpt lat="45.20011" lon="5.72427">
        <ele>481</ele>
        <time>2021-09-30T04:52:47.000Z</time>
      </trkpt>
      <trkpt lat="45.20005" lon="5.72427">
        <ele>480.20001220703</ele>
        <time>2021-09-30T04:52:49.000Z</time>
      </trkpt>
      <trkpt lat="45.20002" lon="5.72427">
        <ele>480</ele>
        <time>2021-09-30T04:52:50.000Z</time>
      </trkpt>
      <trkpt lat="45.19991" lon="5.72425">
        <ele>478.79998779297</ele>
        <time>2021-09-30T04:52:54.000Z</time>
      </trkpt>
      <trkpt lat="45.19983" lon="5.72424">
        <ele>478</ele>
        <time>2021-09-30T04:52:57.000Z</time>
      </trkpt>
      <trkpt lat="45.1998" lon="5.72424">
        <ele>477.39999389648</ele>
        <time>2021-09-30T04:52:58.000Z</time>
      </trkpt>
      <trkpt lat="45.19971" lon="5.72424">
        <ele>476.20001220703</ele>
        <time>2021-09-30T04:53:01.000Z</time>
      </trkpt>
      <trkpt lat="45.19959" lon="5.72423">
        <ele>475.20001220703</ele>
        <time>2021-09-30T04:53:05.000Z</time>
      </trkpt>
      <trkpt lat="45.19954" lon="5.72422">
        <ele>474.39999389648</ele>
        <time>2021-09-30T04:53:07.000Z</time>
      </trkpt>
      <trkpt lat="45.19948" lon="5.72422">
        <ele>474</ele>
        <time>2021-09-30T04:53:09.000Z</time>
      </trkpt>
      <trkpt lat="45.19933" lon="5.72424">
        <ele>473.39999389648</ele>
        <time>2021-09-30T04:53:14.000Z</time>
      </trkpt>
      <trkpt lat="45.19914" lon="5.7243">
        <ele>473.79998779297</ele>
        <time>2021-09-30T04:53:21.000Z</time>
      </trkpt>
      <trkpt lat="45.19908" lon="5.72432">
        <ele>474.39999389648</ele>
        <time>2021-09-30T04:53:23.000Z</time>
      </trkpt>
      <trkpt lat="45.19897" lon="5.72435">
        <ele>475</ele>
        <time>2021-09-30T04:53:27.000Z</time>
      </trkpt>
      <trkpt lat="45.19895" lon="5.72436">
        <ele>475.60000610352</ele>
        <time>2021-09-30T04:53:28.000Z</time>
      </trkpt>
      <trkpt lat="45.19891" lon="5.72442">
        <ele>476.20001220703</ele>
        <time>2021-09-30T04:53:31.000Z</time>
      </trkpt>
      <trkpt lat="45.1989" lon="5.72449">
        <ele>476.60000610352</ele>
        <time>2021-09-30T04:53:33.000Z</time>
      </trkpt>
      <trkpt lat="45.19889" lon="5.72452">
        <ele>477</ele>
        <time>2021-09-30T04:53:34.000Z</time>
      </trkpt>
      <trkpt lat="45.19887" lon="5.72458">
        <ele>477.39999389648</ele>
        <time>2021-09-30T04:53:36.000Z</time>
      </trkpt>
      <trkpt lat="45.19887" lon="5.72462">
        <ele>477.39999389648</ele>
        <time>2021-09-30T04:53:37.000Z</time>
      </trkpt>
      <trkpt lat="45.19887" lon="5.72465">
        <ele>477.60000610352</ele>
        <time>2021-09-30T04:53:38.000Z</time>
      </trkpt>
      <trkpt lat="45.19884" lon="5.72467">
        <ele>477.60000610352</ele>
        <time>2021-09-30T04:53:39.000Z</time>
      </trkpt>
      <trkpt lat="45.19879" lon="5.72472">
        <ele>477.79998779297</ele>
        <time>2021-09-30T04:53:41.000Z</time>
      </trkpt>
      <trkpt lat="45.19863" lon="5.72487">
        <ele>477.39999389648</ele>
        <time>2021-09-30T04:53:47.000Z</time>
      </trkpt>
      <trkpt lat="45.19861" lon="5.7249">
        <ele>477.20001220703</ele>
        <time>2021-09-30T04:53:48.000Z</time>
      </trkpt>
      <trkpt lat="45.1986" lon="5.72505">
        <ele>476.60000610352</ele>
        <time>2021-09-30T04:53:51.000Z</time>
      </trkpt>
      <trkpt lat="45.19862" lon="5.72531">
        <ele>475.39999389648</ele>
        <time>2021-09-30T04:53:57.000Z</time>
      </trkpt>
      <trkpt lat="45.19863" lon="5.72554">
        <ele>474.39999389648</ele>
        <time>2021-09-30T04:54:03.000Z</time>
      </trkpt>
      <trkpt lat="45.19859" lon="5.7255">
        <ele>473.79998779297</ele>
        <time>2021-09-30T04:54:06.000Z</time>
      </trkpt>
      <trkpt lat="45.19858" lon="5.72547">
        <ele>473.39999389648</ele>
        <time>2021-09-30T04:54:07.000Z</time>
      </trkpt>
      <trkpt lat="45.19858" lon="5.72543">
        <ele>473</ele>
        <time>2021-09-30T04:54:08.000Z</time>
      </trkpt>
      <trkpt lat="45.19854" lon="5.72523">
        <ele>471.60000610352</ele>
        <time>2021-09-30T04:54:12.000Z</time>
      </trkpt>
      <trkpt lat="45.19854" lon="5.72518">
        <ele>471.39999389648</ele>
        <time>2021-09-30T04:54:13.000Z</time>
      </trkpt>
      <trkpt lat="45.19853" lon="5.72509">
        <ele>470.60000610352</ele>
        <time>2021-09-30T04:54:15.000Z</time>
      </trkpt>
      <trkpt lat="45.19851" lon="5.72489">
        <ele>469.39999389648</ele>
        <time>2021-09-30T04:54:20.000Z</time>
      </trkpt>
      <trkpt lat="45.1985" lon="5.72476">
        <ele>468.20001220703</ele>
        <time>2021-09-30T04:54:23.000Z</time>
      </trkpt>
      <trkpt lat="45.1985" lon="5.72464">
        <ele>467</ele>
        <time>2021-09-30T04:54:26.000Z</time>
      </trkpt>
      <trkpt lat="45.1985" lon="5.72461">
        <ele>466.79998779297</ele>
        <time>2021-09-30T04:54:27.000Z</time>
      </trkpt>
      <trkpt lat="45.19846" lon="5.72446">
        <ele>465.79998779297</ele>
        <time>2021-09-30T04:54:31.000Z</time>
      </trkpt>
      <trkpt lat="45.19843" lon="5.72441">
        <ele>465.20001220703</ele>
        <time>2021-09-30T04:54:33.000Z</time>
      </trkpt>
      <trkpt lat="45.19839" lon="5.7244">
        <ele>464.79998779297</ele>
        <time>2021-09-30T04:54:35.000Z</time>
      </trkpt>
      <trkpt lat="45.19837" lon="5.72445">
        <ele>464</ele>
        <time>2021-09-30T04:54:37.000Z</time>
      </trkpt>
      <trkpt lat="45.19837" lon="5.72448">
        <ele>463.79998779297</ele>
        <time>2021-09-30T04:54:38.000Z</time>
      </trkpt>
      <trkpt lat="45.19836" lon="5.7247">
        <ele>463</ele>
        <time>2021-09-30T04:54:42.000Z</time>
      </trkpt>
      <trkpt lat="45.19836" lon="5.72475">
        <ele>462.20001220703</ele>
        <time>2021-09-30T04:54:43.000Z</time>
      </trkpt>
      <trkpt lat="45.19832" lon="5.7249">
        <ele>461.20001220703</ele>
        <time>2021-09-30T04:54:47.000Z</time>
      </trkpt>
      <trkpt lat="45.19831" lon="5.72498">
        <ele>460.20001220703</ele>
        <time>2021-09-30T04:54:49.000Z</time>
      </trkpt>
      <trkpt lat="45.1983" lon="5.72502">
        <ele>459.79998779297</ele>
        <time>2021-09-30T04:54:50.000Z</time>
      </trkpt>
      <trkpt lat="45.19828" lon="5.72514">
        <ele>458.60000610352</ele>
        <time>2021-09-30T04:54:53.000Z</time>
      </trkpt>
      <trkpt lat="45.19827" lon="5.72522">
        <ele>458</ele>
        <time>2021-09-30T04:54:55.000Z</time>
      </trkpt>
      <trkpt lat="45.19827" lon="5.72526">
        <ele>457.60000610352</ele>
        <time>2021-09-30T04:54:56.000Z</time>
      </trkpt>
      <trkpt lat="45.19827" lon="5.7254">
        <ele>456.39999389648</ele>
        <time>2021-09-30T04:54:59.000Z</time>
      </trkpt>
      <trkpt lat="45.19827" lon="5.72544">
        <ele>456</ele>
        <time>2021-09-30T04:55:00.000Z</time>
      </trkpt>
      <trkpt lat="45.19827" lon="5.72557">
        <ele>455.20001220703</ele>
        <time>2021-09-30T04:55:03.000Z</time>
      </trkpt>
      <trkpt lat="45.19827" lon="5.72578">
        <ele>454</ele>
        <time>2021-09-30T04:55:08.000Z</time>
      </trkpt>
      <trkpt lat="45.19828" lon="5.72595">
        <ele>453</ele>
        <time>2021-09-30T04:55:12.000Z</time>
      </trkpt>
      <trkpt lat="45.19829" lon="5.7261">
        <ele>451.79998779297</ele>
        <time>2021-09-30T04:55:16.000Z</time>
      </trkpt>
      <trkpt lat="45.1983" lon="5.72613">
        <ele>451.60000610352</ele>
        <time>2021-09-30T04:55:17.000Z</time>
      </trkpt>
      <trkpt lat="45.19832" lon="5.72623">
        <ele>450.60000610352</ele>
        <time>2021-09-30T04:55:20.000Z</time>
      </trkpt>
      <trkpt lat="45.19835" lon="5.7263">
        <ele>450</ele>
        <time>2021-09-30T04:55:22.000Z</time>
      </trkpt>
      <trkpt lat="45.19839" lon="5.72644">
        <ele>449.39999389648</ele>
        <time>2021-09-30T04:55:26.000Z</time>
      </trkpt>
      <trkpt lat="45.19845" lon="5.72657">
        <ele>448.20001220703</ele>
        <time>2021-09-30T04:55:30.000Z</time>
      </trkpt>
      <trkpt lat="45.19851" lon="5.72669">
        <ele>446.79998779297</ele>
        <time>2021-09-30T04:55:34.000Z</time>
      </trkpt>
      <trkpt lat="45.19859" lon="5.72682">
        <ele>446</ele>
        <time>2021-09-30T04:55:39.000Z</time>
      </trkpt>
      <trkpt lat="45.19858" lon="5.72683">
        <ele>445.60000610352</ele>
        <time>2021-09-30T04:55:40.000Z</time>
      </trkpt>
      <trkpt lat="45.19855" lon="5.7268">
        <ele>445</ele>
        <time>2021-09-30T04:55:42.000Z</time>
      </trkpt>
      <trkpt lat="45.19853" lon="5.72678">
        <ele>444.60000610352</ele>
        <time>2021-09-30T04:55:43.000Z</time>
      </trkpt>
      <trkpt lat="45.19847" lon="5.72672">
        <ele>443.39999389648</ele>
        <time>2021-09-30T04:55:46.000Z</time>
      </trkpt>
      <trkpt lat="45.19844" lon="5.7267">
        <ele>443.39999389648</ele>
        <time>2021-09-30T04:55:47.000Z</time>
      </trkpt>
      <trkpt lat="45.19835" lon="5.72662">
        <ele>442.39999389648</ele>
        <time>2021-09-30T04:55:51.000Z</time>
      </trkpt>
      <trkpt lat="45.19831" lon="5.72657">
        <ele>441.79998779297</ele>
        <time>2021-09-30T04:55:53.000Z</time>
      </trkpt>
      <trkpt lat="45.19827" lon="5.72652">
        <ele>441.20001220703</ele>
        <time>2021-09-30T04:55:55.000Z</time>
      </trkpt>
      <trkpt lat="45.19816" lon="5.72644">
        <ele>440</ele>
        <time>2021-09-30T04:55:59.000Z</time>
      </trkpt>
      <trkpt lat="45.19814" lon="5.72641">
        <ele>439.79998779297</ele>
        <time>2021-09-30T04:56:00.000Z</time>
      </trkpt>
      <trkpt lat="45.1981" lon="5.72636">
        <ele>438.79998779297</ele>
        <time>2021-09-30T04:56:02.000Z</time>
      </trkpt>
      <trkpt lat="45.19798" lon="5.72624">
        <ele>437.79998779297</ele>
        <time>2021-09-30T04:56:07.000Z</time>
      </trkpt>
      <trkpt lat="45.19792" lon="5.72614">
        <ele>436.79998779297</ele>
        <time>2021-09-30T04:56:10.000Z</time>
      </trkpt>
      <trkpt lat="45.19789" lon="5.72603">
        <ele>436</ele>
        <time>2021-09-30T04:56:13.000Z</time>
      </trkpt>
      <trkpt lat="45.19788" lon="5.72599">
        <ele>435.39999389648</ele>
        <time>2021-09-30T04:56:14.000Z</time>
      </trkpt>
      <trkpt lat="45.19788" lon="5.72591">
        <ele>434.60000610352</ele>
        <time>2021-09-30T04:56:16.000Z</time>
      </trkpt>
      <trkpt lat="45.19788" lon="5.72583">
        <ele>434.20001220703</ele>
        <time>2021-09-30T04:56:18.000Z</time>
      </trkpt>
      <trkpt lat="45.19788" lon="5.72579">
        <ele>434.20001220703</ele>
        <time>2021-09-30T04:56:19.000Z</time>
      </trkpt>
      <trkpt lat="45.19788" lon="5.72575">
        <ele>434</ele>
        <time>2021-09-30T04:56:20.000Z</time>
      </trkpt>
      <trkpt lat="45.19788" lon="5.72568">
        <ele>433.20001220703</ele>
        <time>2021-09-30T04:56:22.000Z</time>
      </trkpt>
      <trkpt lat="45.19788" lon="5.72564">
        <ele>433</ele>
        <time>2021-09-30T04:56:23.000Z</time>
      </trkpt>
      <trkpt lat="45.19788" lon="5.72552">
        <ele>432</ele>
        <time>2021-09-30T04:56:26.000Z</time>
      </trkpt>
      <trkpt lat="45.19789" lon="5.72535">
        <ele>431</ele>
        <time>2021-09-30T04:56:30.000Z</time>
      </trkpt>
      <trkpt lat="45.19788" lon="5.72528">
        <ele>430.60000610352</ele>
        <time>2021-09-30T04:56:32.000Z</time>
      </trkpt>
      <trkpt lat="45.19786" lon="5.72527">
        <ele>429.79998779297</ele>
        <time>2021-09-30T04:56:34.000Z</time>
      </trkpt>
      <trkpt lat="45.19785" lon="5.72529">
        <ele>429.39999389648</ele>
        <time>2021-09-30T04:56:35.000Z</time>
      </trkpt>
      <trkpt lat="45.19781" lon="5.7254">
        <ele>428.39999389648</ele>
        <time>2021-09-30T04:56:38.000Z</time>
      </trkpt>
      <trkpt lat="45.19779" lon="5.72555">
        <ele>427.39999389648</ele>
        <time>2021-09-30T04:56:42.000Z</time>
      </trkpt>
      <trkpt lat="45.19777" lon="5.72568">
        <ele>426.39999389648</ele>
        <time>2021-09-30T04:56:45.000Z</time>
      </trkpt>
      <trkpt lat="45.19777" lon="5.72572">
        <ele>426</ele>
        <time>2021-09-30T04:56:46.000Z</time>
      </trkpt>
      <trkpt lat="45.19773" lon="5.72583">
        <ele>425</ele>
        <time>2021-09-30T04:56:50.000Z</time>
      </trkpt>
      <trkpt lat="45.19772" lon="5.72582">
        <ele>424.60000610352</ele>
        <time>2021-09-30T04:56:51.000Z</time>
      </trkpt>
      <trkpt lat="45.1977" lon="5.7257">
        <ele>423.79998779297</ele>
        <time>2021-09-30T04:56:55.000Z</time>
      </trkpt>
      <trkpt lat="45.1977" lon="5.72565">
        <ele>423.60000610352</ele>
        <time>2021-09-30T04:56:56.000Z</time>
      </trkpt>
      <trkpt lat="45.19768" lon="5.72552">
        <ele>422.60000610352</ele>
        <time>2021-09-30T04:56:59.000Z</time>
      </trkpt>
      <trkpt lat="45.19767" lon="5.7254">
        <ele>421.79998779297</ele>
        <time>2021-09-30T04:57:02.000Z</time>
      </trkpt>
      <trkpt lat="45.19767" lon="5.72536">
        <ele>421.39999389648</ele>
        <time>2021-09-30T04:57:03.000Z</time>
      </trkpt>
      <trkpt lat="45.19767" lon="5.72527">
        <ele>420.20001220703</ele>
        <time>2021-09-30T04:57:05.000Z</time>
      </trkpt>
      <trkpt lat="45.19771" lon="5.72515">
        <ele>419.60000610352</ele>
        <time>2021-09-30T04:57:08.000Z</time>
      </trkpt>
      <trkpt lat="45.19774" lon="5.72508">
        <ele>419.20001220703</ele>
        <time>2021-09-30T04:57:10.000Z</time>
      </trkpt>
      <trkpt lat="45.19779" lon="5.72493">
        <ele>418</ele>
        <time>2021-09-30T04:57:14.000Z</time>
      </trkpt>
      <trkpt lat="45.1978" lon="5.72489">
        <ele>418</ele>
        <time>2021-09-30T04:57:15.000Z</time>
      </trkpt>
      <trkpt lat="45.19787" lon="5.72465">
        <ele>417</ele>
        <time>2021-09-30T04:57:21.000Z</time>
      </trkpt>
      <trkpt lat="45.19788" lon="5.72461">
        <ele>416.79998779297</ele>
        <time>2021-09-30T04:57:22.000Z</time>
      </trkpt>
      <trkpt lat="45.19789" lon="5.72456">
        <ele>416.60000610352</ele>
        <time>2021-09-30T04:57:23.000Z</time>
      </trkpt>
      <trkpt lat="45.19791" lon="5.72445">
        <ele>415.79998779297</ele>
        <time>2021-09-30T04:57:26.000Z</time>
      </trkpt>
      <trkpt lat="45.19791" lon="5.72443">
        <ele>415.60000610352</ele>
        <time>2021-09-30T04:57:27.000Z</time>
      </trkpt>
      <trkpt lat="45.1979" lon="5.72441">
        <ele>415.60000610352</ele>
        <time>2021-09-30T04:57:28.000Z</time>
      </trkpt>
      <trkpt lat="45.19786" lon="5.72439">
        <ele>415.39999389648</ele>
        <time>2021-09-30T04:57:30.000Z</time>
      </trkpt>
      <trkpt lat="45.19785" lon="5.72443">
        <ele>415.39999389648</ele>
        <time>2021-09-30T04:57:32.000Z</time>
      </trkpt>
      <trkpt lat="45.19784" lon="5.72451">
        <ele>415.39999389648</ele>
        <time>2021-09-30T04:57:34.000Z</time>
      </trkpt>
      <trkpt lat="45.19777" lon="5.72462">
        <ele>415.39999389648</ele>
        <time>2021-09-30T04:57:37.000Z</time>
      </trkpt>
      <trkpt lat="45.19765" lon="5.72483">
        <ele>415.39999389648</ele>
        <time>2021-09-30T04:57:43.000Z</time>
      </trkpt>
      <trkpt lat="45.19752" lon="5.72505">
        <ele>415.20001220703</ele>
        <time>2021-09-30T04:57:50.000Z</time>
      </trkpt>
      <trkpt lat="45.1975" lon="5.72509">
        <ele>415.20001220703</ele>
        <time>2021-09-30T04:57:51.000Z</time>
      </trkpt>
      <trkpt lat="45.19746" lon="5.72512">
        <ele>415.60000610352</ele>
        <time>2021-09-30T04:57:53.000Z</time>
      </trkpt>
      <trkpt lat="45.19741" lon="5.72512">
        <ele>415.60000610352</ele>
        <time>2021-09-30T04:57:55.000Z</time>
      </trkpt>
      <trkpt lat="45.19737" lon="5.72517">
        <ele>415.39999389648</ele>
        <time>2021-09-30T04:57:57.000Z</time>
      </trkpt>
      <trkpt lat="45.19738" lon="5.72523">
        <ele>415.20001220703</ele>
        <time>2021-09-30T04:57:59.000Z</time>
      </trkpt>
      <trkpt lat="45.19742" lon="5.7253">
        <ele>415.20001220703</ele>
        <time>2021-09-30T04:58:02.000Z</time>
      </trkpt>
      <trkpt lat="45.19744" lon="5.72531">
        <ele>415.20001220703</ele>
        <time>2021-09-30T04:58:03.000Z</time>
      </trkpt>
      <trkpt lat="45.19746" lon="5.72534">
        <ele>415.20001220703</ele>
        <time>2021-09-30T04:58:05.000Z</time>
      </trkpt>
      <trkpt lat="45.19748" lon="5.72543">
        <ele>415.20001220703</ele>
        <time>2021-09-30T04:58:07.000Z</time>
      </trkpt>
      <trkpt lat="45.19748" lon="5.7255">
        <ele>415.20001220703</ele>
        <time>2021-09-30T04:58:09.000Z</time>
      </trkpt>
      <trkpt lat="45.19748" lon="5.72568">
        <ele>415.20001220703</ele>
        <time>2021-09-30T04:58:13.000Z</time>
      </trkpt>
      <trkpt lat="45.19749" lon="5.72581">
        <ele>415</ele>
        <time>2021-09-30T04:58:16.000Z</time>
      </trkpt>
      <trkpt lat="45.19747" lon="5.72601">
        <ele>415</ele>
        <time>2021-09-30T04:58:22.000Z</time>
      </trkpt>
      <trkpt lat="45.19746" lon="5.72626">
        <ele>415.39999389648</ele>
        <time>2021-09-30T04:58:29.000Z</time>
      </trkpt>
      <trkpt lat="45.19752" lon="5.72632">
        <ele>415.60000610352</ele>
        <time>2021-09-30T04:58:33.000Z</time>
      </trkpt>
      <trkpt lat="45.19765" lon="5.72651">
        <ele>415.39999389648</ele>
        <time>2021-09-30T04:58:40.000Z</time>
      </trkpt>
      <trkpt lat="45.19767" lon="5.72654">
        <ele>415.39999389648</ele>
        <time>2021-09-30T04:58:41.000Z</time>
      </trkpt>
      <trkpt lat="45.19782" lon="5.72672">
        <ele>415.39999389648</ele>
        <time>2021-09-30T04:58:48.000Z</time>
      </trkpt>
      <trkpt lat="45.19784" lon="5.72677">
        <ele>415.39999389648</ele>
        <time>2021-09-30T04:58:50.000Z</time>
      </trkpt>
      <trkpt lat="45.19786" lon="5.7268">
        <ele>415.39999389648</ele>
        <time>2021-09-30T04:58:51.000Z</time>
      </trkpt>
      <trkpt lat="45.19793" lon="5.72685">
        <ele>415.20001220703</ele>
        <time>2021-09-30T04:58:54.000Z</time>
      </trkpt>
      <trkpt lat="45.19798" lon="5.7269">
        <ele>415.20001220703</ele>
        <time>2021-09-30T04:58:57.000Z</time>
      </trkpt>
      <trkpt lat="45.19805" lon="5.72695">
        <ele>415.39999389648</ele>
        <time>2021-09-30T04:59:00.000Z</time>
      </trkpt>
      <trkpt lat="45.19822" lon="5.72712">
        <ele>416</ele>
        <time>2021-09-30T04:59:07.000Z</time>
      </trkpt>
      <trkpt lat="45.19833" lon="5.72733">
        <ele>416.39999389648</ele>
        <time>2021-09-30T04:59:13.000Z</time>
      </trkpt>
      <trkpt lat="45.19835" lon="5.72736">
        <ele>416.39999389648</ele>
        <time>2021-09-30T04:59:14.000Z</time>
      </trkpt>
      <trkpt lat="45.19839" lon="5.7274">
        <ele>416.39999389648</ele>
        <time>2021-09-30T04:59:16.000Z</time>
      </trkpt>
      <trkpt lat="45.19841" lon="5.7274">
        <ele>416.39999389648</ele>
        <time>2021-09-30T04:59:17.000Z</time>
      </trkpt>
      <trkpt lat="45.19842" lon="5.72741">
        <ele>416.39999389648</ele>
        <time>2021-09-30T04:59:18.000Z</time>
      </trkpt>
      <trkpt lat="45.19862" lon="5.72735">
        <ele>413.60000610352</ele>
        <time>2021-09-30T04:59:29.000Z</time>
      </trkpt>
      <trkpt lat="45.19864" lon="5.72737">
        <ele>413.20001220703</ele>
        <time>2021-09-30T04:59:30.000Z</time>
      </trkpt>
      <trkpt lat="45.19864" lon="5.72737">
        <ele>412.60000610352</ele>
        <time>2021-09-30T04:59:32.000Z</time>
      </trkpt>
      <trkpt lat="45.19859" lon="5.72751">
        <ele>412</ele>
        <time>2021-09-30T04:59:35.000Z</time>
      </trkpt>
      <trkpt lat="45.19861" lon="5.72762">
        <ele>411.60000610352</ele>
        <time>2021-09-30T04:59:38.000Z</time>
      </trkpt>
      <trkpt lat="45.19859" lon="5.72762">
        <ele>411.20001220703</ele>
        <time>2021-09-30T04:59:39.000Z</time>
      </trkpt>
      <trkpt lat="45.19859" lon="5.7276">
        <ele>410.79998779297</ele>
        <time>2021-09-30T04:59:40.000Z</time>
      </trkpt>
      <trkpt lat="45.19859" lon="5.72756">
        <ele>409.39999389648</ele>
        <time>2021-09-30T04:59:43.000Z</time>
      </trkpt>
      <trkpt lat="45.19858" lon="5.72755">
        <ele>408.79998779297</ele>
        <time>2021-09-30T04:59:44.000Z</time>
      </trkpt>
      <trkpt lat="45.19857" lon="5.72754">
        <ele>408.20001220703</ele>
        <time>2021-09-30T04:59:45.000Z</time>
      </trkpt>
      <trkpt lat="45.19857" lon="5.72755">
        <ele>407.20001220703</ele>
        <time>2021-09-30T04:59:47.000Z</time>
      </trkpt>
      <trkpt lat="45.19856" lon="5.72756">
        <ele>406.20001220703</ele>
        <time>2021-09-30T04:59:49.000Z</time>
      </trkpt>
      <trkpt lat="45.19855" lon="5.72756">
        <ele>405.79998779297</ele>
        <time>2021-09-30T04:59:50.000Z</time>
      </trkpt>
      <trkpt lat="45.1985" lon="5.72781">
        <ele>392.20001220703</ele>
        <time>2021-09-30T05:00:24.000Z</time>
      </trkpt>
      <trkpt lat="45.19852" lon="5.72777">
        <ele>391.39999389648</ele>
        <time>2021-09-30T05:00:25.000Z</time>
      </trkpt>
      <trkpt lat="45.19851" lon="5.72772">
        <ele>390.20001220703</ele>
        <time>2021-09-30T05:00:27.000Z</time>
      </trkpt>
      <trkpt lat="45.1985" lon="5.7277">
        <ele>389</ele>
        <time>2021-09-30T05:00:29.000Z</time>
      </trkpt>
      <trkpt lat="45.19853" lon="5.72774">
        <ele>388</ele>
        <time>2021-09-30T05:00:32.000Z</time>
      </trkpt>
      <trkpt lat="45.19855" lon="5.72779">
        <ele>387.60000610352</ele>
        <time>2021-09-30T05:00:34.000Z</time>
      </trkpt>
      <trkpt lat="45.19852" lon="5.72779">
        <ele>387.60000610352</ele>
        <time>2021-09-30T05:00:36.000Z</time>
      </trkpt>
      <trkpt lat="45.19845" lon="5.72771">
        <ele>386.79998779297</ele>
        <time>2021-09-30T05:00:39.000Z</time>
      </trkpt>
      <trkpt lat="45.19843" lon="5.72769">
        <ele>386.39999389648</ele>
        <time>2021-09-30T05:00:40.000Z</time>
      </trkpt>
      <trkpt lat="45.19837" lon="5.72766">
        <ele>385.79998779297</ele>
        <time>2021-09-30T05:00:42.000Z</time>
      </trkpt>
      <trkpt lat="45.19833" lon="5.72765">
        <ele>385.39999389648</ele>
        <time>2021-09-30T05:00:43.000Z</time>
      </trkpt>
      <trkpt lat="45.19831" lon="5.72764">
        <ele>385.20001220703</ele>
        <time>2021-09-30T05:00:44.000Z</time>
      </trkpt>
      <trkpt lat="45.19828" lon="5.72763">
        <ele>384.79998779297</ele>
        <time>2021-09-30T05:00:45.000Z</time>
      </trkpt>
      <trkpt lat="45.19818" lon="5.72754">
        <ele>383.79998779297</ele>
        <time>2021-09-30T05:00:49.000Z</time>
      </trkpt>
      <trkpt lat="45.19816" lon="5.72751">
        <ele>383.39999389648</ele>
        <time>2021-09-30T05:00:50.000Z</time>
      </trkpt>
      <trkpt lat="45.19803" lon="5.7274">
        <ele>382.60000610352</ele>
        <time>2021-09-30T05:00:55.000Z</time>
      </trkpt>
      <trkpt lat="45.19801" lon="5.72738">
        <ele>382.20001220703</ele>
        <time>2021-09-30T05:00:56.000Z</time>
      </trkpt>
      <trkpt lat="45.19796" lon="5.72735">
        <ele>381.60000610352</ele>
        <time>2021-09-30T05:00:58.000Z</time>
      </trkpt>
      <trkpt lat="45.19792" lon="5.72733">
        <ele>381</ele>
        <time>2021-09-30T05:01:00.000Z</time>
      </trkpt>
      <trkpt lat="45.19792" lon="5.72733">
        <ele>380.60000610352</ele>
        <time>2021-09-30T05:01:01.000Z</time>
      </trkpt>
      <trkpt lat="45.19792" lon="5.72734">
        <ele>380.39999389648</ele>
        <time>2021-09-30T05:01:02.000Z</time>
      </trkpt>
      <trkpt lat="45.19794" lon="5.72739">
        <ele>379.39999389648</ele>
        <time>2021-09-30T05:01:05.000Z</time>
      </trkpt>
      <trkpt lat="45.198" lon="5.72745">
        <ele>378</ele>
        <time>2021-09-30T05:01:09.000Z</time>
      </trkpt>
      <trkpt lat="45.19802" lon="5.72747">
        <ele>377.79998779297</ele>
        <time>2021-09-30T05:01:10.000Z</time>
      </trkpt>
      <trkpt lat="45.19805" lon="5.72753">
        <ele>377.20001220703</ele>
        <time>2021-09-30T05:01:13.000Z</time>
      </trkpt>
      <trkpt lat="45.19807" lon="5.72757">
        <ele>377</ele>
        <time>2021-09-30T05:01:14.000Z</time>
      </trkpt>
      <trkpt lat="45.19813" lon="5.72766">
        <ele>375.39999389648</ele>
        <time>2021-09-30T05:01:18.000Z</time>
      </trkpt>
      <trkpt lat="45.19821" lon="5.72775">
        <ele>374.60000610352</ele>
        <time>2021-09-30T05:01:22.000Z</time>
      </trkpt>
      <trkpt lat="45.19823" lon="5.72778">
        <ele>373.79998779297</ele>
        <time>2021-09-30T05:01:23.000Z</time>
      </trkpt>
      <trkpt lat="45.1983" lon="5.72785">
        <ele>372.60000610352</ele>
        <time>2021-09-30T05:01:26.000Z</time>
      </trkpt>
      <trkpt lat="45.19831" lon="5.72787">
        <ele>372.20001220703</ele>
        <time>2021-09-30T05:01:27.000Z</time>
      </trkpt>
      <trkpt lat="45.19833" lon="5.72788">
        <ele>372</ele>
        <time>2021-09-30T05:01:28.000Z</time>
      </trkpt>
      <trkpt lat="45.19836" lon="5.72792">
        <ele>371.60000610352</ele>
        <time>2021-09-30T05:01:30.000Z</time>
      </trkpt>
      <trkpt lat="45.19836" lon="5.72794">
        <ele>371</ele>
        <time>2021-09-30T05:01:31.000Z</time>
      </trkpt>
      <trkpt lat="45.19834" lon="5.72793">
        <ele>370.39999389648</ele>
        <time>2021-09-30T05:01:32.000Z</time>
      </trkpt>
      <trkpt lat="45.19831" lon="5.72792">
        <ele>369.79998779297</ele>
        <time>2021-09-30T05:01:34.000Z</time>
      </trkpt>
      <trkpt lat="45.19827" lon="5.7279">
        <ele>369.39999389648</ele>
        <time>2021-09-30T05:01:36.000Z</time>
      </trkpt>
      <trkpt lat="45.19821" lon="5.72788">
        <ele>368.79998779297</ele>
        <time>2021-09-30T05:01:39.000Z</time>
      </trkpt>
      <trkpt lat="45.19814" lon="5.72785">
        <ele>367.79998779297</ele>
        <time>2021-09-30T05:01:42.000Z</time>
      </trkpt>
      <trkpt lat="45.19811" lon="5.72784">
        <ele>367.39999389648</ele>
        <time>2021-09-30T05:01:43.000Z</time>
      </trkpt>
      <trkpt lat="45.19803" lon="5.72779">
        <ele>366.60000610352</ele>
        <time>2021-09-30T05:01:46.000Z</time>
      </trkpt>
      <trkpt lat="45.19797" lon="5.72774">
        <ele>365.20001220703</ele>
        <time>2021-09-30T05:01:49.000Z</time>
      </trkpt>
      <trkpt lat="45.19798" lon="5.7278">
        <ele>364.39999389648</ele>
        <time>2021-09-30T05:01:52.000Z</time>
      </trkpt>
      <trkpt lat="45.198" lon="5.72782">
        <ele>364.20001220703</ele>
        <time>2021-09-30T05:01:53.000Z</time>
      </trkpt>
      <trkpt lat="45.19809" lon="5.72791">
        <ele>363.20001220703</ele>
        <time>2021-09-30T05:01:57.000Z</time>
      </trkpt>
      <trkpt lat="45.19812" lon="5.72793">
        <ele>363</ele>
        <time>2021-09-30T05:01:58.000Z</time>
      </trkpt>
      <trkpt lat="45.1982" lon="5.728">
        <ele>362</ele>
        <time>2021-09-30T05:02:01.000Z</time>
      </trkpt>
      <trkpt lat="45.19828" lon="5.72807">
        <ele>360.39999389648</ele>
        <time>2021-09-30T05:02:04.000Z</time>
      </trkpt>
      <trkpt lat="45.19836" lon="5.72815">
        <ele>359.20001220703</ele>
        <time>2021-09-30T05:02:08.000Z</time>
      </trkpt>
      <trkpt lat="45.19842" lon="5.7282">
        <ele>357.60000610352</ele>
        <time>2021-09-30T05:02:11.000Z</time>
      </trkpt>
      <trkpt lat="45.19844" lon="5.72823">
        <ele>357.20001220703</ele>
        <time>2021-09-30T05:02:13.000Z</time>
      </trkpt>
      <trkpt lat="45.19842" lon="5.72823">
        <ele>357.20001220703</ele>
        <time>2021-09-30T05:02:14.000Z</time>
      </trkpt>
      <trkpt lat="45.19839" lon="5.72823">
        <ele>357</ele>
        <time>2021-09-30T05:02:15.000Z</time>
      </trkpt>
      <trkpt lat="45.19837" lon="5.72821">
        <ele>356.79998779297</ele>
        <time>2021-09-30T05:02:16.000Z</time>
      </trkpt>
      <trkpt lat="45.19834" lon="5.7282">
        <ele>356.60000610352</ele>
        <time>2021-09-30T05:02:17.000Z</time>
      </trkpt>
      <trkpt lat="45.19824" lon="5.72815">
        <ele>355.39999389648</ele>
        <time>2021-09-30T05:02:21.000Z</time>
      </trkpt>
      <trkpt lat="45.19817" lon="5.72812">
        <ele>354.39999389648</ele>
        <time>2021-09-30T05:02:24.000Z</time>
      </trkpt>
      <trkpt lat="45.19815" lon="5.72812">
        <ele>354.20001220703</ele>
        <time>2021-09-30T05:02:25.000Z</time>
      </trkpt>
      <trkpt lat="45.19818" lon="5.72817">
        <ele>353.60000610352</ele>
        <time>2021-09-30T05:02:28.000Z</time>
      </trkpt>
      <trkpt lat="45.1982" lon="5.72819">
        <ele>353</ele>
        <time>2021-09-30T05:02:29.000Z</time>
      </trkpt>
      <trkpt lat="45.19828" lon="5.72825">
        <ele>352</ele>
        <time>2021-09-30T05:02:32.000Z</time>
      </trkpt>
      <trkpt lat="45.1983" lon="5.72827">
        <ele>351.79998779297</ele>
        <time>2021-09-30T05:02:33.000Z</time>
      </trkpt>
      <trkpt lat="45.19833" lon="5.72832">
        <ele>351</ele>
        <time>2021-09-30T05:02:36.000Z</time>
      </trkpt>
      <trkpt lat="45.19831" lon="5.72832">
        <ele>350.60000610352</ele>
        <time>2021-09-30T05:02:37.000Z</time>
      </trkpt>
      <trkpt lat="45.19827" lon="5.72832">
        <ele>350</ele>
        <time>2021-09-30T05:02:39.000Z</time>
      </trkpt>
      <trkpt lat="45.19819" lon="5.72829">
        <ele>349.20001220703</ele>
        <time>2021-09-30T05:02:42.000Z</time>
      </trkpt>
      <trkpt lat="45.19814" lon="5.72827">
        <ele>348.60000610352</ele>
        <time>2021-09-30T05:02:44.000Z</time>
      </trkpt>
      <trkpt lat="45.19805" lon="5.72822">
        <ele>347.39999389648</ele>
        <time>2021-09-30T05:02:48.000Z</time>
      </trkpt>
      <trkpt lat="45.19798" lon="5.72816">
        <ele>346.39999389648</ele>
        <time>2021-09-30T05:02:51.000Z</time>
      </trkpt>
      <trkpt lat="45.19794" lon="5.72811">
        <ele>345.39999389648</ele>
        <time>2021-09-30T05:02:55.000Z</time>
      </trkpt>
      <trkpt lat="45.19795" lon="5.72812">
        <ele>345.20001220703</ele>
        <time>2021-09-30T05:02:56.000Z</time>
      </trkpt>
      <trkpt lat="45.19797" lon="5.72815">
        <ele>345</ele>
        <time>2021-09-30T05:02:57.000Z</time>
      </trkpt>
      <trkpt lat="45.19803" lon="5.7282">
        <ele>344.60000610352</ele>
        <time>2021-09-30T05:03:00.000Z</time>
      </trkpt>
      <trkpt lat="45.19813" lon="5.7283">
        <ele>344</ele>
        <time>2021-09-30T05:03:04.000Z</time>
      </trkpt>
      <trkpt lat="45.19818" lon="5.72836">
        <ele>343.60000610352</ele>
        <time>2021-09-30T05:03:06.000Z</time>
      </trkpt>
      <trkpt lat="45.19824" lon="5.72844">
        <ele>342.79998779297</ele>
        <time>2021-09-30T05:03:09.000Z</time>
      </trkpt>
      <trkpt lat="45.19823" lon="5.72846">
        <ele>342.60000610352</ele>
        <time>2021-09-30T05:03:10.000Z</time>
      </trkpt>
      <trkpt lat="45.19817" lon="5.72843">
        <ele>341.79998779297</ele>
        <time>2021-09-30T05:03:13.000Z</time>
      </trkpt>
      <trkpt lat="45.19805" lon="5.72838">
        <ele>340.60000610352</ele>
        <time>2021-09-30T05:03:17.000Z</time>
      </trkpt>
      <trkpt lat="45.198" lon="5.72835">
        <ele>340.20001220703</ele>
        <time>2021-09-30T05:03:19.000Z</time>
      </trkpt>
      <trkpt lat="45.19794" lon="5.72831">
        <ele>339.20001220703</ele>
        <time>2021-09-30T05:03:21.000Z</time>
      </trkpt>
      <trkpt lat="45.19784" lon="5.72827">
        <ele>338</ele>
        <time>2021-09-30T05:03:24.000Z</time>
      </trkpt>
      <trkpt lat="45.19776" lon="5.72821">
        <ele>336.79998779297</ele>
        <time>2021-09-30T05:03:27.000Z</time>
      </trkpt>
      <trkpt lat="45.19768" lon="5.72817">
        <ele>335.79998779297</ele>
        <time>2021-09-30T05:03:30.000Z</time>
      </trkpt>
      <trkpt lat="45.19764" lon="5.72814">
        <ele>334.60000610352</ele>
        <time>2021-09-30T05:03:32.000Z</time>
      </trkpt>
      <trkpt lat="45.1976" lon="5.72809">
        <ele>333.79998779297</ele>
        <time>2021-09-30T05:03:34.000Z</time>
      </trkpt>
      <trkpt lat="45.19758" lon="5.72809">
        <ele>333.60000610352</ele>
        <time>2021-09-30T05:03:35.000Z</time>
      </trkpt>
      <trkpt lat="45.19757" lon="5.7281">
        <ele>333.20001220703</ele>
        <time>2021-09-30T05:03:36.000Z</time>
      </trkpt>
      <trkpt lat="45.19757" lon="5.72811">
        <ele>333</ele>
        <time>2021-09-30T05:03:37.000Z</time>
      </trkpt>
      <trkpt lat="45.1976" lon="5.72817">
        <ele>332.20001220703</ele>
        <time>2021-09-30T05:03:39.000Z</time>
      </trkpt>
      <trkpt lat="45.19764" lon="5.72824">
        <ele>331.60000610352</ele>
        <time>2021-09-30T05:03:41.000Z</time>
      </trkpt>
      <trkpt lat="45.1977" lon="5.72828">
        <ele>331</ele>
        <time>2021-09-30T05:03:43.000Z</time>
      </trkpt>
      <trkpt lat="45.19777" lon="5.72838">
        <ele>329.39999389648</ele>
        <time>2021-09-30T05:03:47.000Z</time>
      </trkpt>
      <trkpt lat="45.19782" lon="5.72842">
        <ele>328.79998779297</ele>
        <time>2021-09-30T05:03:49.000Z</time>
      </trkpt>
      <trkpt lat="45.19787" lon="5.72847">
        <ele>328.20001220703</ele>
        <time>2021-09-30T05:03:51.000Z</time>
      </trkpt>
      <trkpt lat="45.19792" lon="5.72855">
        <ele>327</ele>
        <time>2021-09-30T05:03:54.000Z</time>
      </trkpt>
      <trkpt lat="45.19797" lon="5.72862">
        <ele>325.79998779297</ele>
        <time>2021-09-30T05:03:57.000Z</time>
      </trkpt>
      <trkpt lat="45.198" lon="5.72865">
        <ele>325</ele>
        <time>2021-09-30T05:03:59.000Z</time>
      </trkpt>
      <trkpt lat="45.19803" lon="5.72869">
        <ele>324.39999389648</ele>
        <time>2021-09-30T05:04:01.000Z</time>
      </trkpt>
      <trkpt lat="45.19804" lon="5.72872">
        <ele>324</ele>
        <time>2021-09-30T05:04:02.000Z</time>
      </trkpt>
      <trkpt lat="45.19804" lon="5.72874">
        <ele>323.79998779297</ele>
        <time>2021-09-30T05:04:03.000Z</time>
      </trkpt>
      <trkpt lat="45.19804" lon="5.72874">
        <ele>323.39999389648</ele>
        <time>2021-09-30T05:04:04.000Z</time>
      </trkpt>
      <trkpt lat="45.19801" lon="5.72873">
        <ele>323.20001220703</ele>
        <time>2021-09-30T05:04:05.000Z</time>
      </trkpt>
      <trkpt lat="45.19795" lon="5.7287">
        <ele>322.20001220703</ele>
        <time>2021-09-30T05:04:08.000Z</time>
      </trkpt>
      <trkpt lat="45.19793" lon="5.72869">
        <ele>322</ele>
        <time>2021-09-30T05:04:09.000Z</time>
      </trkpt>
      <trkpt lat="45.19789" lon="5.72866">
        <ele>321.20001220703</ele>
        <time>2021-09-30T05:04:11.000Z</time>
      </trkpt>
      <trkpt lat="45.19785" lon="5.72863">
        <ele>320.39999389648</ele>
        <time>2021-09-30T05:04:13.000Z</time>
      </trkpt>
      <trkpt lat="45.19782" lon="5.72861">
        <ele>320.20001220703</ele>
        <time>2021-09-30T05:04:14.000Z</time>
      </trkpt>
      <trkpt lat="45.19775" lon="5.72858">
        <ele>319</ele>
        <time>2021-09-30T05:04:17.000Z</time>
      </trkpt>
      <trkpt lat="45.19767" lon="5.72855">
        <ele>318.60000610352</ele>
        <time>2021-09-30T05:04:20.000Z</time>
      </trkpt>
      <trkpt lat="45.19765" lon="5.72853">
        <ele>317.79998779297</ele>
        <time>2021-09-30T05:04:21.000Z</time>
      </trkpt>
      <trkpt lat="45.19759" lon="5.72847">
        <ele>316.60000610352</ele>
        <time>2021-09-30T05:04:24.000Z</time>
      </trkpt>
      <trkpt lat="45.19754" lon="5.72844">
        <ele>316</ele>
        <time>2021-09-30T05:04:26.000Z</time>
      </trkpt>
      <trkpt lat="45.19749" lon="5.7284">
        <ele>315.20001220703</ele>
        <time>2021-09-30T05:04:28.000Z</time>
      </trkpt>
      <trkpt lat="45.19746" lon="5.72839">
        <ele>314.60000610352</ele>
        <time>2021-09-30T05:04:30.000Z</time>
      </trkpt>
      <trkpt lat="45.19746" lon="5.7284">
        <ele>314.20001220703</ele>
        <time>2021-09-30T05:04:31.000Z</time>
      </trkpt>
      <trkpt lat="45.19747" lon="5.72846">
        <ele>313.60000610352</ele>
        <time>2021-09-30T05:04:34.000Z</time>
      </trkpt>
      <trkpt lat="45.1975" lon="5.72849">
        <ele>313</ele>
        <time>2021-09-30T05:04:35.000Z</time>
      </trkpt>
      <trkpt lat="45.19754" lon="5.72854">
        <ele>312.39999389648</ele>
        <time>2021-09-30T05:04:37.000Z</time>
      </trkpt>
      <trkpt lat="45.19759" lon="5.72857">
        <ele>312.20001220703</ele>
        <time>2021-09-30T05:04:39.000Z</time>
      </trkpt>
      <trkpt lat="45.19761" lon="5.7286">
        <ele>311.79998779297</ele>
        <time>2021-09-30T05:04:40.000Z</time>
      </trkpt>
      <trkpt lat="45.19767" lon="5.72869">
        <ele>311</ele>
        <time>2021-09-30T05:04:43.000Z</time>
      </trkpt>
      <trkpt lat="45.19769" lon="5.72871">
        <ele>310.60000610352</ele>
        <time>2021-09-30T05:04:44.000Z</time>
      </trkpt>
      <trkpt lat="45.19772" lon="5.72876">
        <ele>309.79998779297</ele>
        <time>2021-09-30T05:04:46.000Z</time>
      </trkpt>
      <trkpt lat="45.19774" lon="5.72879">
        <ele>309.39999389648</ele>
        <time>2021-09-30T05:04:47.000Z</time>
      </trkpt>
      <trkpt lat="45.19775" lon="5.72881">
        <ele>309</ele>
        <time>2021-09-30T05:04:48.000Z</time>
      </trkpt>
      <trkpt lat="45.19777" lon="5.72884">
        <ele>308.60000610352</ele>
        <time>2021-09-30T05:04:49.000Z</time>
      </trkpt>
      <trkpt lat="45.19779" lon="5.7289">
        <ele>308</ele>
        <time>2021-09-30T05:04:51.000Z</time>
      </trkpt>
      <trkpt lat="45.19783" lon="5.72896">
        <ele>307.39999389648</ele>
        <time>2021-09-30T05:04:53.000Z</time>
      </trkpt>
      <trkpt lat="45.19787" lon="5.72901">
        <ele>306.79998779297</ele>
        <time>2021-09-30T05:04:55.000Z</time>
      </trkpt>
      <trkpt lat="45.19793" lon="5.72909">
        <ele>305.60000610352</ele>
        <time>2021-09-30T05:04:58.000Z</time>
      </trkpt>
      <trkpt lat="45.19796" lon="5.72913">
        <ele>305.20001220703</ele>
        <time>2021-09-30T05:05:00.000Z</time>
      </trkpt>
      <trkpt lat="45.19796" lon="5.72913">
        <ele>304.60000610352</ele>
        <time>2021-09-30T05:05:01.000Z</time>
      </trkpt>
      <trkpt lat="45.19795" lon="5.72913">
        <ele>304.20001220703</ele>
        <time>2021-09-30T05:05:02.000Z</time>
      </trkpt>
      <trkpt lat="45.1979" lon="5.7291">
        <ele>303.60000610352</ele>
        <time>2021-09-30T05:05:04.000Z</time>
      </trkpt>
      <trkpt lat="45.19787" lon="5.72909">
        <ele>303.39999389648</ele>
        <time>2021-09-30T05:05:05.000Z</time>
      </trkpt>
      <trkpt lat="45.1978" lon="5.72905">
        <ele>302.20001220703</ele>
        <time>2021-09-30T05:05:08.000Z</time>
      </trkpt>
      <trkpt lat="45.19769" lon="5.72902">
        <ele>301</ele>
        <time>2021-09-30T05:05:12.000Z</time>
      </trkpt>
      <trkpt lat="45.19762" lon="5.72898">
        <ele>299.60000610352</ele>
        <time>2021-09-30T05:05:15.000Z</time>
      </trkpt>
      <trkpt lat="45.19753" lon="5.72891">
        <ele>298.39999389648</ele>
        <time>2021-09-30T05:05:19.000Z</time>
      </trkpt>
      <trkpt lat="45.1975" lon="5.7289">
        <ele>298.20001220703</ele>
        <time>2021-09-30T05:05:20.000Z</time>
      </trkpt>
      <trkpt lat="45.19746" lon="5.72886">
        <ele>297.39999389648</ele>
        <time>2021-09-30T05:05:22.000Z</time>
      </trkpt>
      <trkpt lat="45.19739" lon="5.7288">
        <ele>296.20001220703</ele>
        <time>2021-09-30T05:05:25.000Z</time>
      </trkpt>
      <trkpt lat="45.19736" lon="5.72878">
        <ele>295.79998779297</ele>
        <time>2021-09-30T05:05:26.000Z</time>
      </trkpt>
      <trkpt lat="45.1973" lon="5.72875">
        <ele>295</ele>
        <time>2021-09-30T05:05:28.000Z</time>
      </trkpt>
      <trkpt lat="45.19722" lon="5.7287">
        <ele>293.79998779297</ele>
        <time>2021-09-30T05:05:31.000Z</time>
      </trkpt>
      <trkpt lat="45.19715" lon="5.72865">
        <ele>293</ele>
        <time>2021-09-30T05:05:34.000Z</time>
      </trkpt>
      <trkpt lat="45.19711" lon="5.72861">
        <ele>292.60000610352</ele>
        <time>2021-09-30T05:05:36.000Z</time>
      </trkpt>
      <trkpt lat="45.19702" lon="5.72851">
        <ele>291.39999389648</ele>
        <time>2021-09-30T05:05:40.000Z</time>
      </trkpt>
      <trkpt lat="45.197" lon="5.72848">
        <ele>291.20001220703</ele>
        <time>2021-09-30T05:05:41.000Z</time>
      </trkpt>
      <trkpt lat="45.19697" lon="5.72847">
        <ele>290.79998779297</ele>
        <time>2021-09-30T05:05:43.000Z</time>
      </trkpt>
      <trkpt lat="45.19697" lon="5.72848">
        <ele>290.39999389648</ele>
        <time>2021-09-30T05:05:44.000Z</time>
      </trkpt>
      <trkpt lat="45.19698" lon="5.7285">
        <ele>290</ele>
        <time>2021-09-30T05:05:45.000Z</time>
      </trkpt>
      <trkpt lat="45.197" lon="5.72855">
        <ele>289.20001220703</ele>
        <time>2021-09-30T05:05:47.000Z</time>
      </trkpt>
      <trkpt lat="45.19704" lon="5.72861">
        <ele>288.79998779297</ele>
        <time>2021-09-30T05:05:49.000Z</time>
      </trkpt>
      <trkpt lat="45.19705" lon="5.72864">
        <ele>288.79998779297</ele>
        <time>2021-09-30T05:05:50.000Z</time>
      </trkpt>
      <trkpt lat="45.19708" lon="5.7287">
        <ele>287.79998779297</ele>
        <time>2021-09-30T05:05:52.000Z</time>
      </trkpt>
      <trkpt lat="45.19711" lon="5.72875">
        <ele>287</ele>
        <time>2021-09-30T05:05:54.000Z</time>
      </trkpt>
      <trkpt lat="45.19715" lon="5.7288">
        <ele>286.39999389648</ele>
        <time>2021-09-30T05:05:56.000Z</time>
      </trkpt>
      <trkpt lat="45.19717" lon="5.72882">
        <ele>286.39999389648</ele>
        <time>2021-09-30T05:05:57.000Z</time>
      </trkpt>
      <trkpt lat="45.1972" lon="5.72888">
        <ele>285.60000610352</ele>
        <time>2021-09-30T05:05:59.000Z</time>
      </trkpt>
      <trkpt lat="45.19721" lon="5.72891">
        <ele>285.39999389648</ele>
        <time>2021-09-30T05:06:00.000Z</time>
      </trkpt>
      <trkpt lat="45.19724" lon="5.72899">
        <ele>284.60000610352</ele>
        <time>2021-09-30T05:06:02.000Z</time>
      </trkpt>
      <trkpt lat="45.19725" lon="5.72902">
        <ele>284.20001220703</ele>
        <time>2021-09-30T05:06:03.000Z</time>
      </trkpt>
      <trkpt lat="45.19733" lon="5.72915">
        <ele>283</ele>
        <time>2021-09-30T05:06:07.000Z</time>
      </trkpt>
      <trkpt lat="45.19741" lon="5.72927">
        <ele>282.20001220703</ele>
        <time>2021-09-30T05:06:10.000Z</time>
      </trkpt>
      <trkpt lat="45.19743" lon="5.72931">
        <ele>282</ele>
        <time>2021-09-30T05:06:11.000Z</time>
      </trkpt>
      <trkpt lat="45.19747" lon="5.7294">
        <ele>280.60000610352</ele>
        <time>2021-09-30T05:06:14.000Z</time>
      </trkpt>
      <trkpt lat="45.19749" lon="5.72942">
        <ele>280.39999389648</ele>
        <time>2021-09-30T05:06:15.000Z</time>
      </trkpt>
      <trkpt lat="45.19753" lon="5.72951">
        <ele>279.39999389648</ele>
        <time>2021-09-30T05:06:18.000Z</time>
      </trkpt>
      <trkpt lat="45.19758" lon="5.72959">
        <ele>278.79998779297</ele>
        <time>2021-09-30T05:06:21.000Z</time>
      </trkpt>
      <trkpt lat="45.19762" lon="5.72964">
        <ele>278.20001220703</ele>
        <time>2021-09-30T05:06:23.000Z</time>
      </trkpt>
      <trkpt lat="45.19766" lon="5.72971">
        <ele>277</ele>
        <time>2021-09-30T05:06:26.000Z</time>
      </trkpt>
      <trkpt lat="45.19767" lon="5.72973">
        <ele>277</ele>
        <time>2021-09-30T05:06:27.000Z</time>
      </trkpt>
      <trkpt lat="45.19773" lon="5.7298">
        <ele>275.79998779297</ele>
        <time>2021-09-30T05:06:30.000Z</time>
      </trkpt>
      <trkpt lat="45.1978" lon="5.7299">
        <ele>274.39999389648</ele>
        <time>2021-09-30T05:06:34.000Z</time>
      </trkpt>
      <trkpt lat="45.19781" lon="5.72992">
        <ele>274</ele>
        <time>2021-09-30T05:06:35.000Z</time>
      </trkpt>
      <trkpt lat="45.19789" lon="5.72999">
        <ele>272.79998779297</ele>
        <time>2021-09-30T05:06:39.000Z</time>
      </trkpt>
      <trkpt lat="45.19795" lon="5.73001">
        <ele>272.39999389648</ele>
        <time>2021-09-30T05:06:41.000Z</time>
      </trkpt>
      <trkpt lat="45.19803" lon="5.7301">
        <ele>271.79998779297</ele>
        <time>2021-09-30T05:06:44.000Z</time>
      </trkpt>
      <trkpt lat="45.19802" lon="5.73012">
        <ele>271.60000610352</ele>
        <time>2021-09-30T05:06:45.000Z</time>
      </trkpt>
      <trkpt lat="45.19797" lon="5.73013">
        <ele>270.60000610352</ele>
        <time>2021-09-30T05:06:47.000Z</time>
      </trkpt>
      <trkpt lat="45.19795" lon="5.73014">
        <ele>270.20001220703</ele>
        <time>2021-09-30T05:06:48.000Z</time>
      </trkpt>
      <trkpt lat="45.19787" lon="5.73012">
        <ele>269.39999389648</ele>
        <time>2021-09-30T05:06:51.000Z</time>
      </trkpt>
      <trkpt lat="45.19785" lon="5.73011">
        <ele>269.20001220703</ele>
        <time>2021-09-30T05:06:52.000Z</time>
      </trkpt>
      <trkpt lat="45.19777" lon="5.73009">
        <ele>268.20001220703</ele>
        <time>2021-09-30T05:06:55.000Z</time>
      </trkpt>
      <trkpt lat="45.1977" lon="5.73007">
        <ele>267.60000610352</ele>
        <time>2021-09-30T05:06:58.000Z</time>
      </trkpt>
      <trkpt lat="45.19768" lon="5.73006">
        <ele>267</ele>
        <time>2021-09-30T05:06:59.000Z</time>
      </trkpt>
      <trkpt lat="45.19766" lon="5.73009">
        <ele>266.39999389648</ele>
        <time>2021-09-30T05:07:01.000Z</time>
      </trkpt>
      <trkpt lat="45.19765" lon="5.7301">
        <ele>266.20001220703</ele>
        <time>2021-09-30T05:07:02.000Z</time>
      </trkpt>
      <trkpt lat="45.19765" lon="5.73012">
        <ele>266.20001220703</ele>
        <time>2021-09-30T05:07:03.000Z</time>
      </trkpt>
      <trkpt lat="45.19766" lon="5.73013">
        <ele>265.79998779297</ele>
        <time>2021-09-30T05:07:04.000Z</time>
      </trkpt>
      <trkpt lat="45.1977" lon="5.73015">
        <ele>265</ele>
        <time>2021-09-30T05:07:06.000Z</time>
      </trkpt>
      <trkpt lat="45.19773" lon="5.73017">
        <ele>264.60000610352</ele>
        <time>2021-09-30T05:07:07.000Z</time>
      </trkpt>
      <trkpt lat="45.19781" lon="5.73023">
        <ele>263.39999389648</ele>
        <time>2021-09-30T05:07:10.000Z</time>
      </trkpt>
      <trkpt lat="45.19785" lon="5.73027">
        <ele>263</ele>
        <time>2021-09-30T05:07:12.000Z</time>
      </trkpt>
      <trkpt lat="45.19788" lon="5.7303">
        <ele>262.39999389648</ele>
        <time>2021-09-30T05:07:14.000Z</time>
      </trkpt>
      <trkpt lat="45.1979" lon="5.73031">
        <ele>262</ele>
        <time>2021-09-30T05:07:15.000Z</time>
      </trkpt>
      <trkpt lat="45.19795" lon="5.73036">
        <ele>261.39999389648</ele>
        <time>2021-09-30T05:07:18.000Z</time>
      </trkpt>
      <trkpt lat="45.19796" lon="5.73038">
        <ele>261.20001220703</ele>
        <time>2021-09-30T05:07:19.000Z</time>
      </trkpt>
      <trkpt lat="45.19795" lon="5.7304">
        <ele>260.39999389648</ele>
        <time>2021-09-30T05:07:21.000Z</time>
      </trkpt>
      <trkpt lat="45.19794" lon="5.73039">
        <ele>260.20001220703</ele>
        <time>2021-09-30T05:07:22.000Z</time>
      </trkpt>
      <trkpt lat="45.19788" lon="5.73039">
        <ele>259</ele>
        <time>2021-09-30T05:07:25.000Z</time>
      </trkpt>
      <trkpt lat="45.19786" lon="5.73038">
        <ele>258.60000610352</ele>
        <time>2021-09-30T05:07:26.000Z</time>
      </trkpt>
      <trkpt lat="45.19782" lon="5.73036">
        <ele>257.79998779297</ele>
        <time>2021-09-30T05:07:28.000Z</time>
      </trkpt>
      <trkpt lat="45.19779" lon="5.73036">
        <ele>257.60000610352</ele>
        <time>2021-09-30T05:07:29.000Z</time>
      </trkpt>
      <trkpt lat="45.19777" lon="5.73036">
        <ele>257.39999389648</ele>
        <time>2021-09-30T05:07:30.000Z</time>
      </trkpt>
      <trkpt lat="45.19772" lon="5.73035">
        <ele>256.60000610352</ele>
        <time>2021-09-30T05:07:32.000Z</time>
      </trkpt>
      <trkpt lat="45.19765" lon="5.73033">
        <ele>255.60000610352</ele>
        <time>2021-09-30T05:07:35.000Z</time>
      </trkpt>
      <trkpt lat="45.1976" lon="5.73032">
        <ele>255</ele>
        <time>2021-09-30T05:07:37.000Z</time>
      </trkpt>
      <trkpt lat="45.19756" lon="5.73031">
        <ele>254.19999694824</ele>
        <time>2021-09-30T05:07:39.000Z</time>
      </trkpt>
      <trkpt lat="45.19754" lon="5.73031">
        <ele>254</ele>
        <time>2021-09-30T05:07:40.000Z</time>
      </trkpt>
      <trkpt lat="45.19754" lon="5.73032">
        <ele>253.60000610352</ele>
        <time>2021-09-30T05:07:42.000Z</time>
      </trkpt>
      <trkpt lat="45.19757" lon="5.73034">
        <ele>253.19999694824</ele>
        <time>2021-09-30T05:07:44.000Z</time>
      </trkpt>
      <trkpt lat="45.19761" lon="5.73036">
        <ele>252.80000305176</ele>
        <time>2021-09-30T05:07:45.000Z</time>
      </trkpt>
      <trkpt lat="45.1977" lon="5.73041">
        <ele>251.80000305176</ele>
        <time>2021-09-30T05:07:48.000Z</time>
      </trkpt>
      <trkpt lat="45.19776" lon="5.73047">
        <ele>250.80000305176</ele>
        <time>2021-09-30T05:07:51.000Z</time>
      </trkpt>
      <trkpt lat="45.1978" lon="5.7305">
        <ele>250</ele>
        <time>2021-09-30T05:07:53.000Z</time>
      </trkpt>
      <trkpt lat="45.19782" lon="5.73051">
        <ele>249.60000610352</ele>
        <time>2021-09-30T05:07:54.000Z</time>
      </trkpt>
      <trkpt lat="45.19793" lon="5.73058">
        <ele>248.19999694824</ele>
        <time>2021-09-30T05:07:59.000Z</time>
      </trkpt>
      <trkpt lat="45.19792" lon="5.7306">
        <ele>247.80000305176</ele>
        <time>2021-09-30T05:08:00.000Z</time>
      </trkpt>
      <trkpt lat="45.19786" lon="5.73061">
        <ele>247.19999694824</ele>
        <time>2021-09-30T05:08:03.000Z</time>
      </trkpt>
      <trkpt lat="45.19784" lon="5.7306">
        <ele>246.80000305176</ele>
        <time>2021-09-30T05:08:04.000Z</time>
      </trkpt>
      <trkpt lat="45.19778" lon="5.7306">
        <ele>246</ele>
        <time>2021-09-30T05:08:06.000Z</time>
      </trkpt>
      <trkpt lat="45.19771" lon="5.73058">
        <ele>244.80000305176</ele>
        <time>2021-09-30T05:08:09.000Z</time>
      </trkpt>
      <trkpt lat="45.19765" lon="5.73054">
        <ele>243.80000305176</ele>
        <time>2021-09-30T05:08:12.000Z</time>
      </trkpt>
      <trkpt lat="45.19759" lon="5.7305">
        <ele>242.80000305176</ele>
        <time>2021-09-30T05:08:15.000Z</time>
      </trkpt>
      <trkpt lat="45.19754" lon="5.7305">
        <ele>242.19999694824</ele>
        <time>2021-09-30T05:08:18.000Z</time>
      </trkpt>
      <trkpt lat="45.19755" lon="5.73051">
        <ele>241.80000305176</ele>
        <time>2021-09-30T05:08:19.000Z</time>
      </trkpt>
      <trkpt lat="45.19756" lon="5.73051">
        <ele>241.60000610352</ele>
        <time>2021-09-30T05:08:20.000Z</time>
      </trkpt>
      <trkpt lat="45.19757" lon="5.73052">
        <ele>241.39999389648</ele>
        <time>2021-09-30T05:08:21.000Z</time>
      </trkpt>
      <trkpt lat="45.19761" lon="5.73055">
        <ele>240.39999389648</ele>
        <time>2021-09-30T05:08:24.000Z</time>
      </trkpt>
      <trkpt lat="45.19763" lon="5.73058">
        <ele>239.80000305176</ele>
        <time>2021-09-30T05:08:26.000Z</time>
      </trkpt>
      <trkpt lat="45.19767" lon="5.73061">
        <ele>239.19999694824</ele>
        <time>2021-09-30T05:08:28.000Z</time>
      </trkpt>
      <trkpt lat="45.19773" lon="5.73064">
        <ele>238.39999389648</ele>
        <time>2021-09-30T05:08:31.000Z</time>
      </trkpt>
      <trkpt lat="45.19775" lon="5.73065">
        <ele>238</ele>
        <time>2021-09-30T05:08:32.000Z</time>
      </trkpt>
      <trkpt lat="45.19783" lon="5.73071">
        <ele>236.80000305176</ele>
        <time>2021-09-30T05:08:35.000Z</time>
      </trkpt>
      <trkpt lat="45.19786" lon="5.73073">
        <ele>236.60000610352</ele>
        <time>2021-09-30T05:08:36.000Z</time>
      </trkpt>
      <trkpt lat="45.19794" lon="5.73077">
        <ele>235.60000610352</ele>
        <time>2021-09-30T05:08:39.000Z</time>
      </trkpt>
      <trkpt lat="45.19796" lon="5.7308">
        <ele>235.39999389648</ele>
        <time>2021-09-30T05:08:40.000Z</time>
      </trkpt>
      <trkpt lat="45.19797" lon="5.73086">
        <ele>234.80000305176</ele>
        <time>2021-09-30T05:08:42.000Z</time>
      </trkpt>
      <trkpt lat="45.19796" lon="5.73087">
        <ele>234.60000610352</ele>
        <time>2021-09-30T05:08:43.000Z</time>
      </trkpt>
      <trkpt lat="45.19788" lon="5.73088">
        <ele>233.60000610352</ele>
        <time>2021-09-30T05:08:47.000Z</time>
      </trkpt>
      <trkpt lat="45.1978" lon="5.73087">
        <ele>232.39999389648</ele>
        <time>2021-09-30T05:08:51.000Z</time>
      </trkpt>
      <trkpt lat="45.19773" lon="5.73086">
        <ele>231.39999389648</ele>
        <time>2021-09-30T05:08:54.000Z</time>
      </trkpt>
      <trkpt lat="45.19764" lon="5.73085">
        <ele>230.39999389648</ele>
        <time>2021-09-30T05:08:58.000Z</time>
      </trkpt>
      <trkpt lat="45.19762" lon="5.73088">
        <ele>229.80000305176</ele>
        <time>2021-09-30T05:09:00.000Z</time>
      </trkpt>
      <trkpt lat="45.19762" lon="5.7309">
        <ele>229.80000305176</ele>
        <time>2021-09-30T05:09:01.000Z</time>
      </trkpt>
      <trkpt lat="45.19763" lon="5.73092">
        <ele>229.19999694824</ele>
        <time>2021-09-30T05:09:02.000Z</time>
      </trkpt>
      <trkpt lat="45.19766" lon="5.73096">
        <ele>228.60000610352</ele>
        <time>2021-09-30T05:09:04.000Z</time>
      </trkpt>
      <trkpt lat="45.19768" lon="5.73096">
        <ele>227.80000305176</ele>
        <time>2021-09-30T05:09:06.000Z</time>
      </trkpt>
      <trkpt lat="45.19778" lon="5.73104">
        <ele>225.80000305176</ele>
        <time>2021-09-30T05:09:13.000Z</time>
      </trkpt>
      <trkpt lat="45.19781" lon="5.73105">
        <ele>225.39999389648</ele>
        <time>2021-09-30T05:09:14.000Z</time>
      </trkpt>
      <trkpt lat="45.19782" lon="5.73105">
        <ele>225.19999694824</ele>
        <time>2021-09-30T05:09:15.000Z</time>
      </trkpt>
      <trkpt lat="45.19784" lon="5.73106">
        <ele>224.80000305176</ele>
        <time>2021-09-30T05:09:16.000Z</time>
      </trkpt>
      <trkpt lat="45.19792" lon="5.73107">
        <ele>224.19999694824</ele>
        <time>2021-09-30T05:09:19.000Z</time>
      </trkpt>
      <trkpt lat="45.19794" lon="5.73109">
        <ele>224</ele>
        <time>2021-09-30T05:09:20.000Z</time>
      </trkpt>
      <trkpt lat="45.19793" lon="5.73113">
        <ele>223.19999694824</ele>
        <time>2021-09-30T05:09:23.000Z</time>
      </trkpt>
      <trkpt lat="45.19785" lon="5.73122">
        <ele>221.80000305176</ele>
        <time>2021-09-30T05:09:27.000Z</time>
      </trkpt>
      <trkpt lat="45.19784" lon="5.73126">
        <ele>221</ele>
        <time>2021-09-30T05:09:28.000Z</time>
      </trkpt>
      <trkpt lat="45.19782" lon="5.7313">
        <ele>220.60000610352</ele>
        <time>2021-09-30T05:09:29.000Z</time>
      </trkpt>
      <trkpt lat="45.1978" lon="5.73137">
        <ele>220.19999694824</ele>
        <time>2021-09-30T05:09:31.000Z</time>
      </trkpt>
      <trkpt lat="45.19778" lon="5.73151">
        <ele>219.19999694824</ele>
        <time>2021-09-30T05:09:34.000Z</time>
      </trkpt>
      <trkpt lat="45.19778" lon="5.73157">
        <ele>218.60000610352</ele>
        <time>2021-09-30T05:09:35.000Z</time>
      </trkpt>
      <trkpt lat="45.19777" lon="5.73163">
        <ele>218</ele>
        <time>2021-09-30T05:09:36.000Z</time>
      </trkpt>
      <trkpt lat="45.19777" lon="5.7317">
        <ele>217.19999694824</ele>
        <time>2021-09-30T05:09:38.000Z</time>
      </trkpt>
      <trkpt lat="45.19778" lon="5.73174">
        <ele>216.80000305176</ele>
        <time>2021-09-30T05:09:39.000Z</time>
      </trkpt>
      <trkpt lat="45.19782" lon="5.73189">
        <ele>216.19999694824</ele>
        <time>2021-09-30T05:09:43.000Z</time>
      </trkpt>
      <trkpt lat="45.19783" lon="5.73207">
        <ele>216.19999694824</ele>
        <time>2021-09-30T05:09:47.000Z</time>
      </trkpt>
      <trkpt lat="45.19781" lon="5.73214">
        <ele>216.19999694824</ele>
        <time>2021-09-30T05:09:49.000Z</time>
      </trkpt>
      <trkpt lat="45.19776" lon="5.73233">
        <ele>216.19999694824</ele>
        <time>2021-09-30T05:09:54.000Z</time>
      </trkpt>
      <trkpt lat="45.19767" lon="5.73256">
        <ele>216.80000305176</ele>
        <time>2021-09-30T05:10:00.000Z</time>
      </trkpt>
      <trkpt lat="45.19759" lon="5.73282">
        <ele>217.60000610352</ele>
        <time>2021-09-30T05:10:07.000Z</time>
      </trkpt>
      <trkpt lat="45.19758" lon="5.73285">
        <ele>217.60000610352</ele>
        <time>2021-09-30T05:10:08.000Z</time>
      </trkpt>
      <trkpt lat="45.19757" lon="5.73289">
        <ele>217.80000305176</ele>
        <time>2021-09-30T05:10:09.000Z</time>
      </trkpt>
      <trkpt lat="45.19752" lon="5.73304">
        <ele>218.19999694824</ele>
        <time>2021-09-30T05:10:13.000Z</time>
      </trkpt>
      <trkpt lat="45.19747" lon="5.73321">
        <ele>218</ele>
        <time>2021-09-30T05:10:18.000Z</time>
      </trkpt>
      <trkpt lat="45.19744" lon="5.73332">
        <ele>218</ele>
        <time>2021-09-30T05:10:21.000Z</time>
      </trkpt>
      <trkpt lat="45.19736" lon="5.73355">
        <ele>217.60000610352</ele>
        <time>2021-09-30T05:10:27.000Z</time>
      </trkpt>
      <trkpt lat="45.19735" lon="5.73359">
        <ele>217.60000610352</ele>
        <time>2021-09-30T05:10:28.000Z</time>
      </trkpt>
      <trkpt lat="45.19735" lon="5.73363">
        <ele>217.39999389648</ele>
        <time>2021-09-30T05:10:30.000Z</time>
      </trkpt>
      <trkpt lat="45.19737" lon="5.73364">
        <ele>217.19999694824</ele>
        <time>2021-09-30T05:10:31.000Z</time>
      </trkpt>
      <trkpt lat="45.19747" lon="5.73367">
        <ele>216.80000305176</ele>
        <time>2021-09-30T05:10:35.000Z</time>
      </trkpt>
      <trkpt lat="45.19756" lon="5.73369">
        <ele>216.19999694824</ele>
        <time>2021-09-30T05:10:38.000Z</time>
      </trkpt>
      <trkpt lat="45.19764" lon="5.73371">
        <ele>215.60000610352</ele>
        <time>2021-09-30T05:10:41.000Z</time>
      </trkpt>
      <trkpt lat="45.1978" lon="5.73375">
        <ele>215.19999694824</ele>
        <time>2021-09-30T05:10:47.000Z</time>
      </trkpt>
      <trkpt lat="45.19801" lon="5.73379">
        <ele>215.19999694824</ele>
        <time>2021-09-30T05:10:55.000Z</time>
      </trkpt>
      <trkpt lat="45.19808" lon="5.7338">
        <ele>215</ele>
        <time>2021-09-30T05:10:57.000Z</time>
      </trkpt>
      <trkpt lat="45.19826" lon="5.73386">
        <ele>215.19999694824</ele>
        <time>2021-09-30T05:11:03.000Z</time>
      </trkpt>
      <trkpt lat="45.19828" lon="5.73387">
        <ele>215.19999694824</ele>
        <time>2021-09-30T05:11:04.000Z</time>
      </trkpt>
      <trkpt lat="45.19846" lon="5.73391">
        <ele>215.19999694824</ele>
        <time>2021-09-30T05:11:11.000Z</time>
      </trkpt>
      <trkpt lat="45.19858" lon="5.73395">
        <ele>215.19999694824</ele>
        <time>2021-09-30T05:11:16.000Z</time>
      </trkpt>
      <trkpt lat="45.19875" lon="5.73398">
        <ele>215.19999694824</ele>
        <time>2021-09-30T05:11:22.000Z</time>
      </trkpt>
      <trkpt lat="45.19881" lon="5.73399">
        <ele>215.19999694824</ele>
        <time>2021-09-30T05:11:24.000Z</time>
      </trkpt>
      <trkpt lat="45.199" lon="5.73402">
        <ele>215</ele>
        <time>2021-09-30T05:11:31.000Z</time>
      </trkpt>
      <trkpt lat="45.1992" lon="5.73407">
        <ele>214.80000305176</ele>
        <time>2021-09-30T05:11:36.000Z</time>
      </trkpt>
      <trkpt lat="45.19924" lon="5.73409">
        <ele>214.80000305176</ele>
        <time>2021-09-30T05:11:37.000Z</time>
      </trkpt>
      <trkpt lat="45.19941" lon="5.73417">
        <ele>215</ele>
        <time>2021-09-30T05:11:42.000Z</time>
      </trkpt>
      <trkpt lat="45.19951" lon="5.7342">
        <ele>215.19999694824</ele>
        <time>2021-09-30T05:11:46.000Z</time>
      </trkpt>
      <trkpt lat="45.19972" lon="5.73426">
        <ele>215.19999694824</ele>
        <time>2021-09-30T05:11:53.000Z</time>
      </trkpt>
      <trkpt lat="45.19976" lon="5.73427">
        <ele>215.19999694824</ele>
        <time>2021-09-30T05:11:54.000Z</time>
      </trkpt>
      <trkpt lat="45.19997" lon="5.73437">
        <ele>214.80000305176</ele>
        <time>2021-09-30T05:12:00.000Z</time>
      </trkpt>
      <trkpt lat="45.19999" lon="5.73439">
        <ele>214.60000610352</ele>
        <time>2021-09-30T05:12:01.000Z</time>
      </trkpt>
      <trkpt lat="45.20002" lon="5.73441">
        <ele>214.60000610352</ele>
        <time>2021-09-30T05:12:02.000Z</time>
      </trkpt>
      <trkpt lat="45.20011" lon="5.73446">
        <ele>214.39999389648</ele>
        <time>2021-09-30T05:12:06.000Z</time>
      </trkpt>
      <trkpt lat="45.20022" lon="5.73451">
        <ele>214.19999694824</ele>
        <time>2021-09-30T05:12:10.000Z</time>
      </trkpt>
      <trkpt lat="45.2004" lon="5.73466">
        <ele>214.80000305176</ele>
        <time>2021-09-30T05:12:17.000Z</time>
      </trkpt>
      <trkpt lat="45.20053" lon="5.73483">
        <ele>215.39999389648</ele>
        <time>2021-09-30T05:12:23.000Z</time>
      </trkpt>
      <trkpt lat="45.20055" lon="5.73484">
        <ele>215.39999389648</ele>
        <time>2021-09-30T05:12:24.000Z</time>
      </trkpt>
      <trkpt lat="45.20062" lon="5.73491">
        <ele>215.80000305176</ele>
        <time>2021-09-30T05:12:27.000Z</time>
      </trkpt>
      <trkpt lat="45.20069" lon="5.73499">
        <ele>215.80000305176</ele>
        <time>2021-09-30T05:12:30.000Z</time>
      </trkpt>
      <trkpt lat="45.20071" lon="5.73501">
        <ele>215.80000305176</ele>
        <time>2021-09-30T05:12:31.000Z</time>
      </trkpt>
      <trkpt lat="45.20081" lon="5.7351">
        <ele>215.60000610352</ele>
        <time>2021-09-30T05:12:34.000Z</time>
      </trkpt>
      <trkpt lat="45.20084" lon="5.73515">
        <ele>215.39999389648</ele>
        <time>2021-09-30T05:12:36.000Z</time>
      </trkpt>
      <trkpt lat="45.20089" lon="5.73521">
        <ele>215.39999389648</ele>
        <time>2021-09-30T05:12:38.000Z</time>
      </trkpt>
      <trkpt lat="45.20098" lon="5.73535">
        <ele>215.39999389648</ele>
        <time>2021-09-30T05:12:42.000Z</time>
      </trkpt>
      <trkpt lat="45.20111" lon="5.73554">
        <ele>215.39999389648</ele>
        <time>2021-09-30T05:12:49.000Z</time>
      </trkpt>
      <trkpt lat="45.20126" lon="5.73574">
        <ele>215.60000610352</ele>
        <time>2021-09-30T05:12:56.000Z</time>
      </trkpt>
      <trkpt lat="45.20129" lon="5.73578">
        <ele>215.39999389648</ele>
        <time>2021-09-30T05:12:57.000Z</time>
      </trkpt>
      <trkpt lat="45.20141" lon="5.73592">
        <ele>215.19999694824</ele>
        <time>2021-09-30T05:13:02.000Z</time>
      </trkpt>
      <trkpt lat="45.20148" lon="5.73609">
        <ele>215.39999389648</ele>
        <time>2021-09-30T05:13:07.000Z</time>
      </trkpt>
      <trkpt lat="45.20155" lon="5.73629">
        <ele>215.19999694824</ele>
        <time>2021-09-30T05:13:12.000Z</time>
      </trkpt>
      <trkpt lat="45.20163" lon="5.73656">
        <ele>215.19999694824</ele>
        <time>2021-09-30T05:13:18.000Z</time>
      </trkpt>
      <trkpt lat="45.20166" lon="5.73673">
        <ele>215.39999389648</ele>
        <time>2021-09-30T05:13:22.000Z</time>
      </trkpt>
      <trkpt lat="45.20174" lon="5.73696">
        <ele>215.60000610352</ele>
        <time>2021-09-30T05:13:27.000Z</time>
      </trkpt>
      <trkpt lat="45.20175" lon="5.73701">
        <ele>215.39999389648</ele>
        <time>2021-09-30T05:13:28.000Z</time>
      </trkpt>
      <trkpt lat="45.20178" lon="5.73724">
        <ele>215.39999389648</ele>
        <time>2021-09-30T05:13:33.000Z</time>
      </trkpt>
      <trkpt lat="45.2018" lon="5.73752">
        <ele>215.19999694824</ele>
        <time>2021-09-30T05:13:38.000Z</time>
      </trkpt>
      <trkpt lat="45.2018" lon="5.73757">
        <ele>215.19999694824</ele>
        <time>2021-09-30T05:13:39.000Z</time>
      </trkpt>
      <trkpt lat="45.20182" lon="5.73784">
        <ele>215</ele>
        <time>2021-09-30T05:13:44.000Z</time>
      </trkpt>
      <trkpt lat="45.20181" lon="5.73812">
        <ele>215.19999694824</ele>
        <time>2021-09-30T05:13:50.000Z</time>
      </trkpt>
      <trkpt lat="45.2018" lon="5.73816">
        <ele>215.19999694824</ele>
        <time>2021-09-30T05:13:51.000Z</time>
      </trkpt>
      <trkpt lat="45.20176" lon="5.73838">
        <ele>215.19999694824</ele>
        <time>2021-09-30T05:13:56.000Z</time>
      </trkpt>
      <trkpt lat="45.20169" lon="5.73856">
        <ele>215.19999694824</ele>
        <time>2021-09-30T05:14:01.000Z</time>
      </trkpt>
      <trkpt lat="45.20168" lon="5.7386">
        <ele>215.19999694824</ele>
        <time>2021-09-30T05:14:02.000Z</time>
      </trkpt>
      <trkpt lat="45.20165" lon="5.73867">
        <ele>215.19999694824</ele>
        <time>2021-09-30T05:14:04.000Z</time>
      </trkpt>
      <trkpt lat="45.20162" lon="5.73873">
        <ele>215.19999694824</ele>
        <time>2021-09-30T05:14:06.000Z</time>
      </trkpt>
      <trkpt lat="45.2015" lon="5.73893">
        <ele>215.19999694824</ele>
        <time>2021-09-30T05:14:12.000Z</time>
      </trkpt>
      <trkpt lat="45.20148" lon="5.73897">
        <ele>215.19999694824</ele>
        <time>2021-09-30T05:14:13.000Z</time>
      </trkpt>
      <trkpt lat="45.20135" lon="5.73919">
        <ele>215.39999389648</ele>
        <time>2021-09-30T05:14:19.000Z</time>
      </trkpt>
      <trkpt lat="45.20125" lon="5.73932">
        <ele>215.19999694824</ele>
        <time>2021-09-30T05:14:23.000Z</time>
      </trkpt>
      <trkpt lat="45.20117" lon="5.73946">
        <ele>214.60000610352</ele>
        <time>2021-09-30T05:14:27.000Z</time>
      </trkpt>
      <trkpt lat="45.20113" lon="5.73953">
        <ele>214.80000305176</ele>
        <time>2021-09-30T05:14:29.000Z</time>
      </trkpt>
      <trkpt lat="45.201" lon="5.73972">
        <ele>215</ele>
        <time>2021-09-30T05:14:35.000Z</time>
      </trkpt>
      <trkpt lat="45.20098" lon="5.73975">
        <ele>215</ele>
        <time>2021-09-30T05:14:36.000Z</time>
      </trkpt>
      <trkpt lat="45.20086" lon="5.73988">
        <ele>215.39999389648</ele>
        <time>2021-09-30T05:14:41.000Z</time>
      </trkpt>
      <trkpt lat="45.2007" lon="5.74002">
        <ele>215.39999389648</ele>
        <time>2021-09-30T05:14:47.000Z</time>
      </trkpt>
      <trkpt lat="45.20065" lon="5.74006">
        <ele>215.60000610352</ele>
        <time>2021-09-30T05:14:49.000Z</time>
      </trkpt>
      <trkpt lat="45.20053" lon="5.74029">
        <ele>215.60000610352</ele>
        <time>2021-09-30T05:14:55.000Z</time>
      </trkpt>
      <trkpt lat="45.20043" lon="5.74044">
        <ele>214.60000610352</ele>
        <time>2021-09-30T05:14:59.000Z</time>
      </trkpt>
      <trkpt lat="45.2004" lon="5.74051">
        <ele>214.19999694824</ele>
        <time>2021-09-30T05:15:01.000Z</time>
      </trkpt>
      <trkpt lat="45.20039" lon="5.74055">
        <ele>213.60000610352</ele>
        <time>2021-09-30T05:15:03.000Z</time>
      </trkpt>
      <trkpt lat="45.20037" lon="5.74059">
        <ele>213.39999389648</ele>
        <time>2021-09-30T05:15:07.000Z</time>
      </trkpt>
      <trkpt lat="45.20032" lon="5.74067">
        <ele>213.39999389648</ele>
        <time>2021-09-30T05:15:10.000Z</time>
      </trkpt>
      <trkpt lat="45.20025" lon="5.74074">
        <ele>213.39999389648</ele>
        <time>2021-09-30T05:15:14.000Z</time>
      </trkpt>
      <trkpt lat="45.20011" lon="5.74093">
        <ele>214</ele>
        <time>2021-09-30T05:15:21.000Z</time>
      </trkpt>
      <trkpt lat="45.20005" lon="5.74099">
        <ele>214.60000610352</ele>
        <time>2021-09-30T05:15:23.000Z</time>
      </trkpt>
      <trkpt lat="45.19992" lon="5.74114">
        <ele>215.60000610352</ele>
        <time>2021-09-30T05:15:27.000Z</time>
      </trkpt>
      <trkpt lat="45.19987" lon="5.74117">
        <ele>215.80000305176</ele>
        <time>2021-09-30T05:15:28.000Z</time>
      </trkpt>
      <trkpt lat="45.19984" lon="5.74121">
        <ele>216</ele>
        <time>2021-09-30T05:15:29.000Z</time>
      </trkpt>
      <trkpt lat="45.19977" lon="5.7413">
        <ele>216</ele>
        <time>2021-09-30T05:15:31.000Z</time>
      </trkpt>
      <trkpt lat="45.19961" lon="5.74148">
        <ele>216.19999694824</ele>
        <time>2021-09-30T05:15:36.000Z</time>
      </trkpt>
      <trkpt lat="45.19951" lon="5.74156">
        <ele>216.19999694824</ele>
        <time>2021-09-30T05:15:39.000Z</time>
      </trkpt>
      <trkpt lat="45.19935" lon="5.74171">
        <ele>216.19999694824</ele>
        <time>2021-09-30T05:15:44.000Z</time>
      </trkpt>
      <trkpt lat="45.19925" lon="5.74179">
        <ele>216.19999694824</ele>
        <time>2021-09-30T05:15:47.000Z</time>
      </trkpt>
      <trkpt lat="45.19922" lon="5.74181">
        <ele>216.19999694824</ele>
        <time>2021-09-30T05:15:48.000Z</time>
      </trkpt>
      <trkpt lat="45.19906" lon="5.74193">
        <ele>216</ele>
        <time>2021-09-30T05:15:53.000Z</time>
      </trkpt>
      <trkpt lat="45.19888" lon="5.74202">
        <ele>216</ele>
        <time>2021-09-30T05:15:59.000Z</time>
      </trkpt>
      <trkpt lat="45.19881" lon="5.74205">
        <ele>216.19999694824</ele>
        <time>2021-09-30T05:16:01.000Z</time>
      </trkpt>
      <trkpt lat="45.19862" lon="5.74213">
        <ele>216.19999694824</ele>
        <time>2021-09-30T05:16:07.000Z</time>
      </trkpt>
      <trkpt lat="45.19859" lon="5.74214">
        <ele>216.19999694824</ele>
        <time>2021-09-30T05:16:08.000Z</time>
      </trkpt>
      <trkpt lat="45.19842" lon="5.7422">
        <ele>215.80000305176</ele>
        <time>2021-09-30T05:16:13.000Z</time>
      </trkpt>
      <trkpt lat="45.19831" lon="5.74226">
        <ele>215.80000305176</ele>
        <time>2021-09-30T05:16:16.000Z</time>
      </trkpt>
      <trkpt lat="45.19812" lon="5.74233">
        <ele>215.80000305176</ele>
        <time>2021-09-30T05:16:22.000Z</time>
      </trkpt>
      <trkpt lat="45.19808" lon="5.74235">
        <ele>215.80000305176</ele>
        <time>2021-09-30T05:16:23.000Z</time>
      </trkpt>
      <trkpt lat="45.19788" lon="5.7424">
        <ele>216.19999694824</ele>
        <time>2021-09-30T05:16:29.000Z</time>
      </trkpt>
      <trkpt lat="45.19774" lon="5.74241">
        <ele>215.80000305176</ele>
        <time>2021-09-30T05:16:33.000Z</time>
      </trkpt>
      <trkpt lat="45.19756" lon="5.74243">
        <ele>215.80000305176</ele>
        <time>2021-09-30T05:16:38.000Z</time>
      </trkpt>
      <trkpt lat="45.19749" lon="5.74244">
        <ele>215.80000305176</ele>
        <time>2021-09-30T05:16:40.000Z</time>
      </trkpt>
      <trkpt lat="45.19739" lon="5.74245">
        <ele>215.80000305176</ele>
        <time>2021-09-30T05:16:43.000Z</time>
      </trkpt>
      <trkpt lat="45.19732" lon="5.74244">
        <ele>215.19999694824</ele>
        <time>2021-09-30T05:16:46.000Z</time>
      </trkpt>
      <trkpt lat="45.19731" lon="5.74244">
        <ele>215.19999694824</ele>
        <time>2021-09-30T05:16:47.000Z</time>
      </trkpt>
      <trkpt lat="45.19729" lon="5.74241">
        <ele>214.80000305176</ele>
        <time>2021-09-30T05:16:49.000Z</time>
      </trkpt>
      <trkpt lat="45.19726" lon="5.74231">
        <ele>214</ele>
        <time>2021-09-30T05:16:52.000Z</time>
      </trkpt>
      <trkpt lat="45.19725" lon="5.74228">
        <ele>214</ele>
        <time>2021-09-30T05:16:53.000Z</time>
      </trkpt>
      <trkpt lat="45.19726" lon="5.74215">
        <ele>213.80000305176</ele>
        <time>2021-09-30T05:16:56.000Z</time>
      </trkpt>
      <trkpt lat="45.19723" lon="5.74199">
        <ele>213.60000610352</ele>
        <time>2021-09-30T05:17:00.000Z</time>
      </trkpt>
      <trkpt lat="45.19717" lon="5.74175">
        <ele>213.80000305176</ele>
        <time>2021-09-30T05:17:06.000Z</time>
      </trkpt>
      <trkpt lat="45.19711" lon="5.7415">
        <ele>213.80000305176</ele>
        <time>2021-09-30T05:17:12.000Z</time>
      </trkpt>
      <trkpt lat="45.1971" lon="5.74141">
        <ele>214</ele>
        <time>2021-09-30T05:17:14.000Z</time>
      </trkpt>
      <trkpt lat="45.19707" lon="5.7412">
        <ele>213.60000610352</ele>
        <time>2021-09-30T05:17:19.000Z</time>
      </trkpt>
      <trkpt lat="45.19705" lon="5.74107">
        <ele>213.39999389648</ele>
        <time>2021-09-30T05:17:22.000Z</time>
      </trkpt>
      <trkpt lat="45.19699" lon="5.74083">
        <ele>214.19999694824</ele>
        <time>2021-09-30T05:17:27.000Z</time>
      </trkpt>
      <trkpt lat="45.19697" lon="5.74073">
        <ele>214.19999694824</ele>
        <time>2021-09-30T05:17:29.000Z</time>
      </trkpt>
      <trkpt lat="45.19692" lon="5.74052">
        <ele>214</ele>
        <time>2021-09-30T05:17:35.000Z</time>
      </trkpt>
      <trkpt lat="45.19688" lon="5.74028">
        <ele>214</ele>
        <time>2021-09-30T05:17:41.000Z</time>
      </trkpt>
      <trkpt lat="45.1968" lon="5.74007">
        <ele>213.80000305176</ele>
        <time>2021-09-30T05:17:47.000Z</time>
      </trkpt>
      <trkpt lat="45.19669" lon="5.74004">
        <ele>213.80000305176</ele>
        <time>2021-09-30T05:17:52.000Z</time>
      </trkpt>
      <trkpt lat="45.19649" lon="5.74002">
        <ele>213.80000305176</ele>
        <time>2021-09-30T05:17:57.000Z</time>
      </trkpt>
      <trkpt lat="45.19642" lon="5.74">
        <ele>213.80000305176</ele>
        <time>2021-09-30T05:17:59.000Z</time>
      </trkpt>
      <trkpt lat="45.19626" lon="5.73996">
        <ele>213.80000305176</ele>
        <time>2021-09-30T05:18:04.000Z</time>
      </trkpt>
      <trkpt lat="45.19618" lon="5.73992">
        <ele>213.60000610352</ele>
        <time>2021-09-30T05:18:07.000Z</time>
      </trkpt>
      <trkpt lat="45.19617" lon="5.73989">
        <ele>213.39999389648</ele>
        <time>2021-09-30T05:18:08.000Z</time>
      </trkpt>
      <trkpt lat="45.19621" lon="5.73971">
        <ele>213.19999694824</ele>
        <time>2021-09-30T05:18:13.000Z</time>
      </trkpt>
      <trkpt lat="45.19623" lon="5.73967">
        <ele>213.19999694824</ele>
        <time>2021-09-30T05:18:15.000Z</time>
      </trkpt>
      <trkpt lat="45.19625" lon="5.73967">
        <ele>213.19999694824</ele>
        <time>2021-09-30T05:18:17.000Z</time>
      </trkpt>
      <trkpt lat="45.19637" lon="5.73966">
        <ele>213.60000610352</ele>
        <time>2021-09-30T05:18:23.000Z</time>
      </trkpt>
      <trkpt lat="45.19638" lon="5.73967">
        <ele>213.60000610352</ele>
        <time>2021-09-30T05:18:24.000Z</time>
      </trkpt>
      <trkpt lat="45.19641" lon="5.73969">
        <ele>213.39999389648</ele>
        <time>2021-09-30T05:18:27.000Z</time>
      </trkpt>
      <trkpt lat="45.19641" lon="5.73975">
        <ele>213.39999389648</ele>
        <time>2021-09-30T05:18:34.000Z</time>
      </trkpt>
      <trkpt lat="45.19643" lon="5.73977">
        <ele>213.39999389648</ele>
        <time>2021-09-30T05:18:36.000Z</time>
      </trkpt>
      <trkpt lat="45.19643" lon="5.73978">
        <ele>213.60000610352</ele>
        <time>2021-09-30T05:18:37.000Z</time>
      </trkpt>
      <trkpt lat="45.19642" lon="5.7398">
        <ele>213.80000305176</ele>
        <time>2021-09-30T05:18:38.000Z</time>
      </trkpt>
      <trkpt lat="45.19638" lon="5.73981">
        <ele>214.39999389648</ele>
        <time>2021-09-30T05:18:40.000Z</time>
      </trkpt>
      <trkpt lat="45.19637" lon="5.7398">
        <ele>214.80000305176</ele>
        <time>2021-09-30T05:18:41.000Z</time>
      </trkpt>
      <trkpt lat="45.19633" lon="5.73979">
        <ele>215.80000305176</ele>
        <time>2021-09-30T05:18:44.000Z</time>
      </trkpt>
      <trkpt lat="45.19634" lon="5.73982">
        <ele>216.60000610352</ele>
        <time>2021-09-30T05:18:48.000Z</time>
      </trkpt>
      <trkpt lat="45.19635" lon="5.73983">
        <ele>216.80000305176</ele>
        <time>2021-09-30T05:18:49.000Z</time>
      </trkpt>
      <trkpt lat="45.1964" lon="5.73989">
        <ele>218.19999694824</ele>
        <time>2021-09-30T05:18:53.000Z</time>
      </trkpt>
      <trkpt lat="45.19637" lon="5.73988">
        <ele>219.39999389648</ele>
        <time>2021-09-30T05:18:59.000Z</time>
      </trkpt>
      <trkpt lat="45.19639" lon="5.73987">
        <ele>220.60000610352</ele>
        <time>2021-09-30T05:19:02.000Z</time>
      </trkpt>
      <trkpt lat="45.1964" lon="5.73986">
        <ele>220.80000305176</ele>
        <time>2021-09-30T05:19:03.000Z</time>
      </trkpt>
      <trkpt lat="45.1964" lon="5.73985">
        <ele>221.39999389648</ele>
        <time>2021-09-30T05:19:05.000Z</time>
      </trkpt>
      <trkpt lat="45.19639" lon="5.73984">
        <ele>221.60000610352</ele>
        <time>2021-09-30T05:19:06.000Z</time>
      </trkpt>
      <trkpt lat="45.19639" lon="5.73983">
        <ele>221.60000610352</ele>
        <time>2021-09-30T05:19:07.000Z</time>
      </trkpt>
      <trkpt lat="45.19641" lon="5.7398">
        <ele>221.80000305176</ele>
        <time>2021-09-30T05:19:09.000Z</time>
      </trkpt>
      <trkpt lat="45.19642" lon="5.73979">
        <ele>221.80000305176</ele>
        <time>2021-09-30T05:19:10.000Z</time>
      </trkpt>
      <trkpt lat="45.19646" lon="5.73978">
        <ele>221.80000305176</ele>
        <time>2021-09-30T05:19:13.000Z</time>
      </trkpt>
      <trkpt lat="45.19648" lon="5.73977">
        <ele>221.60000610352</ele>
        <time>2021-09-30T05:19:16.000Z</time>
      </trkpt>
      <trkpt lat="45.1965" lon="5.73977">
        <ele>221.60000610352</ele>
        <time>2021-09-30T05:19:18.000Z</time>
      </trkpt>
    </trkseg>
  </trk>
</gpx>